<?xml version='1.0' encoding='UTF-8'?><gpx version="1.1" creator="JPX - https://github.com/jenetics/jpx" xmlns="http://www.topografix.com/GPX/1/1"><trk><trkseg><trkpt lat="42.10557010896242" lon="11.82495201828595"><ele>153.0</ele><time>2026-04-11T07:40:20.999Z</time></trkpt><trkpt lat="42.10554534968534" lon="11.82480000326007"><ele>153.0</ele><time>2026-04-11T07:40:22.999Z</time></trkpt><trkpt lat="42.1055297718651" lon="11.82470082532516"><ele>153.0</ele><time>2026-04-11T07:40:23.999Z</time></trkpt><trkpt lat="42.105510591593216" lon="11.824582147104136"><ele>153.0</ele><time>2026-04-11T07:40:24.999Z</time></trkpt><trkpt lat="42.105486706735064" lon="11.824464372973255"><ele>153.0</ele><time>2026-04-11T07:40:25.999Z</time></trkpt><trkpt lat="42.1054715707984" lon="11.824357695399092"><ele>152.20000000000002</ele><time>2026-04-11T07:40:26.999Z</time></trkpt><trkpt lat="42.10544902050011" lon="11.82423336743273"><ele>151.4</ele><time>2026-04-11T07:40:27.999Z</time></trkpt><trkpt lat="42.10543016589776" lon="11.824114709838463"><ele>150.60000000000002</ele><time>2026-04-11T07:40:28.999Z</time></trkpt><trkpt lat="42.10541083298193" lon="11.823993694565091"><ele>149.8</ele><time>2026-04-11T07:40:29.999Z</time></trkpt><trkpt lat="42.1053919323598" lon="11.823867858535415"><ele>149.0</ele><time>2026-04-11T07:40:30.999Z</time></trkpt><trkpt lat="42.10537423271593" lon="11.823753776626019"><ele>149.0</ele><time>2026-04-11T07:40:31.999Z</time></trkpt><trkpt lat="42.10535689348509" lon="11.82363138507607"><ele>149.0</ele><time>2026-04-11T07:40:32.999Z</time></trkpt><trkpt lat="42.105339526735825" lon="11.823486382397073"><ele>149.0</ele><time>2026-04-11T07:40:33.999Z</time></trkpt><trkpt lat="42.10532232972575" lon="11.823349222887154"><ele>149.0</ele><time>2026-04-11T07:40:34.999Z</time></trkpt><trkpt lat="42.10531338423588" lon="11.823221100315994"><ele>149.0</ele><time>2026-04-11T07:40:35.999Z</time></trkpt><trkpt lat="42.10531919768441" lon="11.823097980498556"><ele>148.0</ele><time>2026-04-11T07:40:36.999Z</time></trkpt><trkpt lat="42.10532190253848" lon="11.82297288782711"><ele>147.0</ele><time>2026-04-11T07:40:37.999Z</time></trkpt><trkpt lat="42.10532968481166" lon="11.822825965627564"><ele>146.0</ele><time>2026-04-11T07:40:38.999Z</time></trkpt><trkpt lat="42.10534056471386" lon="11.822693596362614"><ele>145.0</ele><time>2026-04-11T07:40:39.999Z</time></trkpt><trkpt lat="42.10534932305753" lon="11.822561492338714"><ele>144.0</ele><time>2026-04-11T07:40:40.999Z</time></trkpt><trkpt lat="42.10535747799629" lon="11.822441681337583"><ele>143.2</ele><time>2026-04-11T07:40:41.999Z</time></trkpt><trkpt lat="42.10536998791961" lon="11.82235245863064"><ele>142.4</ele><time>2026-04-11T07:40:42.999Z</time></trkpt><trkpt lat="42.10538123180066" lon="11.822223547647274"><ele>141.6</ele><time>2026-04-11T07:40:43.999Z</time></trkpt><trkpt lat="42.10539793323531" lon="11.822077166684247"><ele>140.8</ele><time>2026-04-11T07:40:44.999Z</time></trkpt><trkpt lat="42.10541421035464" lon="11.821932375968089"><ele>140.0</ele><time>2026-04-11T07:40:45.999Z</time></trkpt><trkpt lat="42.10543218019562" lon="11.821784838405373"><ele>139.6</ele><time>2026-04-11T07:40:46.999Z</time></trkpt><trkpt lat="42.10545010586409" lon="11.82164630157495"><ele>139.2</ele><time>2026-04-11T07:40:47.999Z</time></trkpt><trkpt lat="42.10546715912109" lon="11.82151106145574"><ele>138.8</ele><time>2026-04-11T07:40:48.999Z</time></trkpt><trkpt lat="42.10549997950415" lon="11.821363808501467"><ele>138.4</ele><time>2026-04-11T07:40:49.999Z</time></trkpt><trkpt lat="42.10552877095692" lon="11.821197170713482"><ele>138.0</ele><time>2026-04-11T07:40:50.999Z</time></trkpt><trkpt lat="42.105543416802206" lon="11.821031631272383"><ele>137.0</ele><time>2026-04-11T07:40:51.999Z</time></trkpt><trkpt lat="42.10555836104283" lon="11.820866141599682"><ele>136.0</ele><time>2026-04-11T07:40:52.999Z</time></trkpt><trkpt lat="42.105567386642605" lon="11.820713710716811"><ele>135.0</ele><time>2026-04-11T07:40:53.999Z</time></trkpt><trkpt lat="42.10555253713105" lon="11.82055196399722"><ele>134.0</ele><time>2026-04-11T07:40:55Z</time></trkpt><trkpt lat="42.1055307586977" lon="11.820381707124419"><ele>134.0</ele><time>2026-04-11T07:40:56Z</time></trkpt><trkpt lat="42.10550415352304" lon="11.820212342721511"><ele>134.0</ele><time>2026-04-11T07:40:57Z</time></trkpt><trkpt lat="42.105472171117036" lon="11.820053426084687"><ele>134.0</ele><time>2026-04-11T07:40:58Z</time></trkpt><trkpt lat="42.105429308278204" lon="11.819897091932397"><ele>134.0</ele><time>2026-04-11T07:40:59Z</time></trkpt><trkpt lat="42.10539367732878" lon="11.819756522648419"><ele>133.4</ele><time>2026-04-11T07:41:00Z</time></trkpt><trkpt lat="42.10536478705818" lon="11.819625682477097"><ele>132.8</ele><time>2026-04-11T07:41:01Z</time></trkpt><trkpt lat="42.10533988479912" lon="11.819507456034017"><ele>132.2</ele><time>2026-04-11T07:41:02Z</time></trkpt><trkpt lat="42.10531947702449" lon="11.819380226313346"><ele>131.6</ele><time>2026-04-11T07:41:03Z</time></trkpt><trkpt lat="42.10530881974652" lon="11.819253695738142"><ele>131.0</ele><time>2026-04-11T07:41:04Z</time></trkpt><trkpt lat="42.10533989696238" lon="11.81910880267567"><ele>130.75</ele><time>2026-04-11T07:41:05Z</time></trkpt><trkpt lat="42.105392433502494" lon="11.818970677454104"><ele>130.5</ele><time>2026-04-11T07:41:06Z</time></trkpt><trkpt lat="42.10546854838863" lon="11.818812795109492"><ele>130.25</ele><time>2026-04-11T07:41:07Z</time></trkpt><trkpt lat="42.10552234439528" lon="11.818651982543315"><ele>130.0</ele><time>2026-04-11T07:41:08Z</time></trkpt><trkpt lat="42.10557466312284" lon="11.818491099732642"><ele>130.0</ele><time>2026-04-11T07:41:09Z</time></trkpt><trkpt lat="42.105622023107635" lon="11.818335321483353"><ele>130.0</ele><time>2026-04-11T07:41:10Z</time></trkpt><trkpt lat="42.10567128130148" lon="11.8181868562037"><ele>130.0</ele><time>2026-04-11T07:41:11Z</time></trkpt><trkpt lat="42.105723863464874" lon="11.818043578807357"><ele>130.0</ele><time>2026-04-11T07:41:12Z</time></trkpt><trkpt lat="42.10576593459118" lon="11.817877546949553"><ele>130.0</ele><time>2026-04-11T07:41:13Z</time></trkpt><trkpt lat="42.10581375161884" lon="11.817742265849057"><ele>130.0</ele><time>2026-04-11T07:41:14Z</time></trkpt><trkpt lat="42.10586489236745" lon="11.817625020946938"><ele>130.0</ele><time>2026-04-11T07:41:15Z</time></trkpt><trkpt lat="42.10591526539592" lon="11.817501688089873"><ele>130.0</ele><time>2026-04-11T07:41:16Z</time></trkpt><trkpt lat="42.10597262904195" lon="11.817364943005265"><ele>130.0</ele><time>2026-04-11T07:41:17Z</time></trkpt><trkpt lat="42.10601543282756" lon="11.817191376460967"><ele>129.5</ele><time>2026-04-11T07:41:18Z</time></trkpt><trkpt lat="42.10603874010136" lon="11.817054842489172"><ele>129.0</ele><time>2026-04-11T07:41:19Z</time></trkpt><trkpt lat="42.10603174697795" lon="11.81684871132242"><ele>128.5</ele><time>2026-04-11T07:41:20Z</time></trkpt><trkpt lat="42.10602261310012" lon="11.816670731515165"><ele>128.0</ele><time>2026-04-11T07:41:21Z</time></trkpt><trkpt lat="42.10601425953261" lon="11.816504104291003"><ele>126.25</ele><time>2026-04-11T07:41:22Z</time></trkpt><trkpt lat="42.106008331549425" lon="11.816330480382586"><ele>124.5</ele><time>2026-04-11T07:41:23Z</time></trkpt><trkpt lat="42.10601097754234" lon="11.816181554826926"><ele>122.75</ele><time>2026-04-11T07:41:24Z</time></trkpt><trkpt lat="42.10599989692608" lon="11.816005914691234"><ele>121.0</ele><time>2026-04-11T07:41:25Z</time></trkpt><trkpt lat="42.10600505334078" lon="11.815818436375368"><ele>119.0</ele><time>2026-04-11T07:41:26Z</time></trkpt><trkpt lat="42.106004279308706" lon="11.815634791358626"><ele>117.0</ele><time>2026-04-11T07:41:27Z</time></trkpt><trkpt lat="42.10597771677562" lon="11.815472320939987"><ele>115.0</ele><time>2026-04-11T07:41:28Z</time></trkpt><trkpt lat="42.10596536755127" lon="11.815334592704904"><ele>113.0</ele><time>2026-04-11T07:41:29Z</time></trkpt><trkpt lat="42.10593876589643" lon="11.815194079955395"><ele>112.0</ele><time>2026-04-11T07:41:30Z</time></trkpt><trkpt lat="42.10588501004384" lon="11.815018115731808"><ele>111.0</ele><time>2026-04-11T07:41:31Z</time></trkpt><trkpt lat="42.1058155091803" lon="11.814833201574903"><ele>110.0</ele><time>2026-04-11T07:41:32Z</time></trkpt><trkpt lat="42.105748747404206" lon="11.814660602007583"><ele>109.0</ele><time>2026-04-11T07:41:33Z</time></trkpt><trkpt lat="42.10567929730008" lon="11.814500354153893"><ele>109.0</ele><time>2026-04-11T07:41:34Z</time></trkpt><trkpt lat="42.105585509249224" lon="11.814361509689705"><ele>109.0</ele><time>2026-04-11T07:41:35Z</time></trkpt><trkpt lat="42.10551876567002" lon="11.814214850310819"><ele>109.0</ele><time>2026-04-11T07:41:36Z</time></trkpt><trkpt lat="42.105463059036396" lon="11.814069484203163"><ele>109.0</ele><time>2026-04-11T07:41:37Z</time></trkpt><trkpt lat="42.105411390571184" lon="11.813910607238146"><ele>106.5</ele><time>2026-04-11T07:41:38Z</time></trkpt><trkpt lat="42.10536464394354" lon="11.813755035848937"><ele>104.0</ele><time>2026-04-11T07:41:39Z</time></trkpt><trkpt lat="42.105311090905616" lon="11.813580145307556"><ele>101.5</ele><time>2026-04-11T07:41:40Z</time></trkpt><trkpt lat="42.105299350472734" lon="11.813442276912301"><ele>99.0</ele><time>2026-04-11T07:41:41Z</time></trkpt><trkpt lat="42.10524584303333" lon="11.81330125514114"><ele>97.6</ele><time>2026-04-11T07:41:42Z</time></trkpt><trkpt lat="42.10518836158208" lon="11.813152083634108"><ele>96.2</ele><time>2026-04-11T07:41:43Z</time></trkpt><trkpt lat="42.105154995950535" lon="11.813046188337223"><ele>94.8</ele><time>2026-04-11T07:41:44Z</time></trkpt><trkpt lat="42.10509540375532" lon="11.81292846462336"><ele>93.39999999999999</ele><time>2026-04-11T07:41:45Z</time></trkpt><trkpt lat="42.10502755708339" lon="11.812814034422688"><ele>92.0</ele><time>2026-04-11T07:41:46Z</time></trkpt><trkpt lat="42.104955348021456" lon="11.81268470359023"><ele>91.19999999999999</ele><time>2026-04-11T07:41:47Z</time></trkpt><trkpt lat="42.10489184511214" lon="11.812564444413876"><ele>90.4</ele><time>2026-04-11T07:41:48Z</time></trkpt><trkpt lat="42.104835697593565" lon="11.812460671384418"><ele>89.6</ele><time>2026-04-11T07:41:49Z</time></trkpt><trkpt lat="42.10477525994464" lon="11.81236495020268"><ele>88.80000000000001</ele><time>2026-04-11T07:41:50Z</time></trkpt><trkpt lat="42.104733227519226" lon="11.812260888190147"><ele>88.0</ele><time>2026-04-11T07:41:51Z</time></trkpt><trkpt lat="42.10468574269177" lon="11.812199260709498"><ele>88.0</ele><time>2026-04-11T07:41:52Z</time></trkpt><trkpt lat="42.10464264228235" lon="11.812103051245165"><ele>88.0</ele><time>2026-04-11T07:41:53Z</time></trkpt><trkpt lat="42.10458151035178" lon="11.811979649230114"><ele>88.0</ele><time>2026-04-11T07:41:54Z</time></trkpt><trkpt lat="42.10453681141089" lon="11.811880836711072"><ele>88.0</ele><time>2026-04-11T07:41:55Z</time></trkpt><trkpt lat="42.10450108269277" lon="11.811770670102279"><ele>88.0</ele><time>2026-04-11T07:41:56Z</time></trkpt><trkpt lat="42.104447789483984" lon="11.811680086156287"><ele>86.80000000000001</ele><time>2026-04-11T07:41:57Z</time></trkpt><trkpt lat="42.10438800568605" lon="11.811545877068864"><ele>85.6</ele><time>2026-04-11T07:41:58Z</time></trkpt><trkpt lat="42.10435026246798" lon="11.811471006106977"><ele>84.4</ele><time>2026-04-11T07:41:59Z</time></trkpt><trkpt lat="42.10429670371204" lon="11.811347705114168"><ele>83.19999999999999</ele><time>2026-04-11T07:42:00Z</time></trkpt><trkpt lat="42.104239235299524" lon="11.811230049704323"><ele>82.0</ele><time>2026-04-11T07:42:01Z</time></trkpt><trkpt lat="42.10419611514088" lon="11.81111597031074"><ele>81.0</ele><time>2026-04-11T07:42:02Z</time></trkpt><trkpt lat="42.10415088763589" lon="11.810987248484183"><ele>80.0</ele><time>2026-04-11T07:42:03Z</time></trkpt><trkpt lat="42.1041054021924" lon="11.810862758411224"><ele>79.0</ele><time>2026-04-11T07:42:04Z</time></trkpt><trkpt lat="42.10407309809696" lon="11.8107586989317"><ele>78.0</ele><time>2026-04-11T07:42:05Z</time></trkpt><trkpt lat="42.10403510901387" lon="11.810645456655463"><ele>77.0</ele><time>2026-04-11T07:42:06Z</time></trkpt><trkpt lat="42.10400225713033" lon="11.810542853628485"><ele>77.0</ele><time>2026-04-11T07:42:07Z</time></trkpt><trkpt lat="42.10395541038446" lon="11.81043728974178"><ele>77.0</ele><time>2026-04-11T07:42:08Z</time></trkpt><trkpt lat="42.10391167138393" lon="11.810319137482976"><ele>77.0</ele><time>2026-04-11T07:42:09Z</time></trkpt><trkpt lat="42.10386684950722" lon="11.810196875866465"><ele>77.0</ele><time>2026-04-11T07:42:10Z</time></trkpt><trkpt lat="42.103820213884916" lon="11.810083682488383"><ele>77.0</ele><time>2026-04-11T07:42:11Z</time></trkpt><trkpt lat="42.10376709529578" lon="11.809964851402707"><ele>76.4</ele><time>2026-04-11T07:42:12Z</time></trkpt><trkpt lat="42.10371905375081" lon="11.809838879454407"><ele>75.80000000000001</ele><time>2026-04-11T07:42:13Z</time></trkpt><trkpt lat="42.10367272697419" lon="11.809720323719182"><ele>75.2</ele><time>2026-04-11T07:42:14Z</time></trkpt><trkpt lat="42.10363240768455" lon="11.80963372335948"><ele>74.60000000000001</ele><time>2026-04-11T07:42:15Z</time></trkpt><trkpt lat="42.10358619236539" lon="11.809513826544453"><ele>74.0</ele><time>2026-04-11T07:42:16Z</time></trkpt><trkpt lat="42.10354908385106" lon="11.809395850981629"><ele>73.60000000000001</ele><time>2026-04-11T07:42:17Z</time></trkpt><trkpt lat="42.103507853586386" lon="11.809266884315385"><ele>73.2</ele><time>2026-04-11T07:42:18Z</time></trkpt><trkpt lat="42.10345511103642" lon="11.809140912608486"><ele>72.80000000000001</ele><time>2026-04-11T07:42:19Z</time></trkpt><trkpt lat="42.10340747839132" lon="11.80902503398532"><ele>72.4</ele><time>2026-04-11T07:42:20Z</time></trkpt><trkpt lat="42.10335095449065" lon="11.808899134151268"><ele>72.0</ele><time>2026-04-11T07:42:21Z</time></trkpt><trkpt lat="42.10329716638263" lon="11.808769429360892"><ele>72.0</ele><time>2026-04-11T07:42:22Z</time></trkpt><trkpt lat="42.103260713488986" lon="11.808667466008345"><ele>72.0</ele><time>2026-04-11T07:42:23Z</time></trkpt><trkpt lat="42.10322381609262" lon="11.80856982593396"><ele>72.0</ele><time>2026-04-11T07:42:24Z</time></trkpt><trkpt lat="42.10319236945026" lon="11.808459605963172"><ele>72.0</ele><time>2026-04-11T07:42:25Z</time></trkpt><trkpt lat="42.10315703830651" lon="11.808311364916344"><ele>72.0</ele><time>2026-04-11T07:42:27Z</time></trkpt><trkpt lat="42.10313099270933" lon="11.808228332029865"><ele>72.0</ele><time>2026-04-11T07:42:28Z</time></trkpt><trkpt lat="42.10311105020908" lon="11.808115271512884"><ele>71.5</ele><time>2026-04-11T07:42:29Z</time></trkpt><trkpt lat="42.103093146489066" lon="11.807985683653367"><ele>71.0</ele><time>2026-04-11T07:42:30Z</time></trkpt><trkpt lat="42.10308515408003" lon="11.807892729111707"><ele>70.5</ele><time>2026-04-11T07:42:31Z</time></trkpt><trkpt lat="42.10307909216116" lon="11.807787076081905"><ele>70.0</ele><time>2026-04-11T07:42:32Z</time></trkpt><trkpt lat="42.103049090077704" lon="11.807679789766414"><ele>69.5</ele><time>2026-04-11T07:42:33Z</time></trkpt><trkpt lat="42.10301445339313" lon="11.807577889920001"><ele>69.0</ele><time>2026-04-11T07:42:34Z</time></trkpt><trkpt lat="42.10298376485069" lon="11.807498700406002"><ele>68.83333333333333</ele><time>2026-04-11T07:42:35Z</time></trkpt><trkpt lat="42.102946204139734" lon="11.80741138011083"><ele>68.66666666666667</ele><time>2026-04-11T07:42:36Z</time></trkpt><trkpt lat="42.10290960785853" lon="11.807320678336666"><ele>68.5</ele><time>2026-04-11T07:42:37Z</time></trkpt><trkpt lat="42.10286190882884" lon="11.80721637478558"><ele>68.33333333333334</ele><time>2026-04-11T07:42:38Z</time></trkpt><trkpt lat="42.10282603961869" lon="11.807135205215857"><ele>68.16666666666667</ele><time>2026-04-11T07:42:39Z</time></trkpt><trkpt lat="42.102779224369684" lon="11.80699359326319"><ele>68.0</ele><time>2026-04-11T07:42:41Z</time></trkpt><trkpt lat="42.102741528615866" lon="11.806895108507407"><ele>67.66666666666667</ele><time>2026-04-11T07:42:42Z</time></trkpt><trkpt lat="42.1026976149627" lon="11.80677624677354"><ele>67.33333333333334</ele><time>2026-04-11T07:42:43Z</time></trkpt><trkpt lat="42.10265759025111" lon="11.806700488438098"><ele>67.0</ele><time>2026-04-11T07:42:44Z</time></trkpt><trkpt lat="42.10261160637281" lon="11.806605944132864"><ele>66.66666666666667</ele><time>2026-04-11T07:42:45Z</time></trkpt><trkpt lat="42.102571787986875" lon="11.80651548378058"><ele>66.33333333333333</ele><time>2026-04-11T07:42:46Z</time></trkpt><trkpt lat="42.102533365770064" lon="11.80642320837848"><ele>66.0</ele><time>2026-04-11T07:42:47Z</time></trkpt><trkpt lat="42.10250876525793" lon="11.806342324284826"><ele>66.0</ele><time>2026-04-11T07:42:48Z</time></trkpt><trkpt lat="42.10246314380344" lon="11.806251777852852"><ele>66.0</ele><time>2026-04-11T07:42:49Z</time></trkpt><trkpt lat="42.102423441216686" lon="11.806157273182926"><ele>66.0</ele><time>2026-04-11T07:42:50Z</time></trkpt><trkpt lat="42.10237872710975" lon="11.806054366955767"><ele>66.0</ele><time>2026-04-11T07:42:51Z</time></trkpt><trkpt lat="42.10234256186652" lon="11.805967234795798"><ele>66.0</ele><time>2026-04-11T07:42:52Z</time></trkpt><trkpt lat="42.10230217696879" lon="11.805876116177407"><ele>66.0</ele><time>2026-04-11T07:42:53Z</time></trkpt><trkpt lat="42.10226006732539" lon="11.805791881402063"><ele>65.2</ele><time>2026-04-11T07:42:54Z</time></trkpt><trkpt lat="42.102229976067434" lon="11.805711427443565"><ele>64.39999999999999</ele><time>2026-04-11T07:42:55Z</time></trkpt><trkpt lat="42.10219604245221" lon="11.805611924549241"><ele>63.6</ele><time>2026-04-11T07:42:56Z</time></trkpt><trkpt lat="42.1021323042039" lon="11.80548153468473"><ele>62.8</ele><time>2026-04-11T07:42:57Z</time></trkpt><trkpt lat="42.10208405475617" lon="11.805333274871067"><ele>62.0</ele><time>2026-04-11T07:42:58Z</time></trkpt><trkpt lat="42.10201944631113" lon="11.805197744514786"><ele>61.6</ele><time>2026-04-11T07:42:59Z</time></trkpt><trkpt lat="42.10196790480439" lon="11.805040567505673"><ele>61.2</ele><time>2026-04-11T07:43:00Z</time></trkpt><trkpt lat="42.10192707908869" lon="11.804930799556418"><ele>60.8</ele><time>2026-04-11T07:43:01Z</time></trkpt><trkpt lat="42.1018749703561" lon="11.804810228312412"><ele>60.4</ele><time>2026-04-11T07:43:02Z</time></trkpt><trkpt lat="42.10182445047473" lon="11.804699533584884"><ele>60.0</ele><time>2026-04-11T07:43:03Z</time></trkpt><trkpt lat="42.10177320656035" lon="11.804584024502997"><ele>60.0</ele><time>2026-04-11T07:43:04Z</time></trkpt><trkpt lat="42.101723139256265" lon="11.804476006888887"><ele>60.0</ele><time>2026-04-11T07:43:05Z</time></trkpt><trkpt lat="42.10167913428278" lon="11.80434887346234"><ele>60.0</ele><time>2026-04-11T07:43:06Z</time></trkpt><trkpt lat="42.10163586141677" lon="11.804252298550159"><ele>60.0</ele><time>2026-04-11T07:43:07Z</time></trkpt><trkpt lat="42.1016414260102" lon="11.80415485565229"><ele>60.0</ele><time>2026-04-11T07:43:08Z</time></trkpt><trkpt lat="42.10160830105702" lon="11.804068074539881"><ele>60.0</ele><time>2026-04-11T07:43:09Z</time></trkpt><trkpt lat="42.10156682178741" lon="11.803976171841741"><ele>59.166666666666664</ele><time>2026-04-11T07:43:10Z</time></trkpt><trkpt lat="42.10151795529891" lon="11.803881548308928"><ele>58.33333333333333</ele><time>2026-04-11T07:43:11Z</time></trkpt><trkpt lat="42.101477708388856" lon="11.803795756339788"><ele>57.5</ele><time>2026-04-11T07:43:12Z</time></trkpt><trkpt lat="42.101442956040884" lon="11.803723494728084"><ele>56.666666666666664</ele><time>2026-04-11T07:43:13Z</time></trkpt><trkpt lat="42.10140847453573" lon="11.8036434012142"><ele>55.83333333333333</ele><time>2026-04-11T07:43:14Z</time></trkpt><trkpt lat="42.101354704072136" lon="11.803497322654371"><ele>55.0</ele><time>2026-04-11T07:43:16Z</time></trkpt><trkpt lat="42.10132235806083" lon="11.803399573439277"><ele>55.0</ele><time>2026-04-11T07:43:17Z</time></trkpt><trkpt lat="42.101262876065334" lon="11.803293068621418"><ele>55.0</ele><time>2026-04-11T07:43:18Z</time></trkpt><trkpt lat="42.10117853284523" lon="11.803148892509993"><ele>55.0</ele><time>2026-04-11T07:43:19Z</time></trkpt><trkpt lat="42.10113155950299" lon="11.803040262484833"><ele>55.0</ele><time>2026-04-11T07:43:20Z</time></trkpt><trkpt lat="42.10107713628428" lon="11.80292474473026"><ele>55.0</ele><time>2026-04-11T07:43:21Z</time></trkpt><trkpt lat="42.101017385221894" lon="11.80280519437449"><ele>54.99999999999999</ele><time>2026-04-11T07:43:22Z</time></trkpt><trkpt lat="42.100960099103496" lon="11.802710106087703"><ele>55.0</ele><time>2026-04-11T07:43:23Z</time></trkpt><trkpt lat="42.100901532858906" lon="11.80260333504126"><ele>55.0</ele><time>2026-04-11T07:43:24Z</time></trkpt><trkpt lat="42.10084167451017" lon="11.802516371803277"><ele>55.0</ele><time>2026-04-11T07:43:25Z</time></trkpt><trkpt lat="42.1007957123014" lon="11.802426315318245"><ele>54.99999999999999</ele><time>2026-04-11T07:43:26Z</time></trkpt><trkpt lat="42.10075004720214" lon="11.802343915094665"><ele>55.0</ele><time>2026-04-11T07:43:27Z</time></trkpt><trkpt lat="42.10070059338338" lon="11.802276498918157"><ele>53.71428571428571</ele><time>2026-04-11T07:43:28Z</time></trkpt><trkpt lat="42.10065796617152" lon="11.802193296009024"><ele>52.42857142857143</ele><time>2026-04-11T07:43:29Z</time></trkpt><trkpt lat="42.100613539812855" lon="11.802126888089896"><ele>51.14285714285714</ele><time>2026-04-11T07:43:30Z</time></trkpt><trkpt lat="42.10056979131578" lon="11.80204477034932"><ele>49.857142857142854</ele><time>2026-04-11T07:43:31Z</time></trkpt><trkpt lat="42.100540876761386" lon="11.801960292895945"><ele>48.57142857142857</ele><time>2026-04-11T07:43:32Z</time></trkpt><trkpt lat="42.1005263798312" lon="11.801875221262698"><ele>47.285714285714285</ele><time>2026-04-11T07:43:33Z</time></trkpt><trkpt lat="42.10049027923866" lon="11.801802964417492"><ele>46.0</ele><time>2026-04-11T07:43:34Z</time></trkpt><trkpt lat="42.10043202775838" lon="11.801671164207107"><ele>45.4</ele><time>2026-04-11T07:43:36Z</time></trkpt><trkpt lat="42.10036386441793" lon="11.801574302388952"><ele>44.8</ele><time>2026-04-11T07:43:38Z</time></trkpt><trkpt lat="42.100280733118744" lon="11.801483230744163"><ele>44.199999999999996</ele><time>2026-04-11T07:43:40Z</time></trkpt><trkpt lat="42.1002108717396" lon="11.801372792561592"><ele>43.599999999999994</ele><time>2026-04-11T07:43:42Z</time></trkpt><trkpt lat="42.100135088799206" lon="11.80124024098959"><ele>43.0</ele><time>2026-04-11T07:43:44Z</time></trkpt><trkpt lat="42.10007673285768" lon="11.801180749238593"><ele>43.0</ele><time>2026-04-11T07:43:45Z</time></trkpt><trkpt lat="42.100036806129154" lon="11.801112346552095"><ele>43.0</ele><time>2026-04-11T07:43:46Z</time></trkpt><trkpt lat="42.099958611404304" lon="11.800974503483932"><ele>43.0</ele><time>2026-04-11T07:43:48Z</time></trkpt><trkpt lat="42.09991295180152" lon="11.800896013966305"><ele>43.0</ele><time>2026-04-11T07:43:49Z</time></trkpt><trkpt lat="42.09985184957753" lon="11.800830139051541"><ele>43.0</ele><time>2026-04-11T07:43:50Z</time></trkpt><trkpt lat="42.099799366498644" lon="11.80070060001541"><ele>42.4</ele><time>2026-04-11T07:43:52Z</time></trkpt><trkpt lat="42.09976956443171" lon="11.800590426500507"><ele>41.8</ele><time>2026-04-11T07:43:53Z</time></trkpt><trkpt lat="42.099719096969515" lon="11.800485572639234"><ele>41.2</ele><time>2026-04-11T07:43:54Z</time></trkpt><trkpt lat="42.09964534140481" lon="11.800333380091498"><ele>40.6</ele><time>2026-04-11T07:43:56Z</time></trkpt><trkpt lat="42.0995865304797" lon="11.800258957293892"><ele>40.0</ele><time>2026-04-11T07:43:57Z</time></trkpt><trkpt lat="42.099507589139485" lon="11.800148851400703"><ele>39.66666666666667</ele><time>2026-04-11T07:43:58Z</time></trkpt><trkpt lat="42.09944858368364" lon="11.800033770627028"><ele>39.333333333333336</ele><time>2026-04-11T07:43:59Z</time></trkpt><trkpt lat="42.09938888907572" lon="11.799953397356203"><ele>39.0</ele><time>2026-04-11T07:44:00Z</time></trkpt><trkpt lat="42.09932889717732" lon="11.799914239083899"><ele>38.666666666666664</ele><time>2026-04-11T07:44:01Z</time></trkpt><trkpt lat="42.09927506071457" lon="11.799818561707708"><ele>38.33333333333333</ele><time>2026-04-11T07:44:03Z</time></trkpt><trkpt lat="42.099233403774925" lon="11.799736682698097"><ele>38.0</ele><time>2026-04-11T07:44:06Z</time></trkpt><trkpt lat="42.09931845039676" lon="11.79943583653868"><ele>37.199999999999996</ele><time>2026-04-11T07:44:18Z</time></trkpt><trkpt lat="42.099346484804144" lon="11.799300872104547"><ele>36.4</ele><time>2026-04-11T07:44:20Z</time></trkpt><trkpt lat="42.09935430061978" lon="11.799211607225898"><ele>35.599999999999994</ele><time>2026-04-11T07:44:21Z</time></trkpt><trkpt lat="42.09937000129512" lon="11.799050392385624"><ele>34.8</ele><time>2026-04-11T07:44:22Z</time></trkpt><trkpt lat="42.099415111476716" lon="11.79885142484941"><ele>34.0</ele><time>2026-04-11T07:44:23Z</time></trkpt><trkpt lat="42.09944337243131" lon="11.798579390398869"><ele>34.0</ele><time>2026-04-11T07:44:24Z</time></trkpt><trkpt lat="42.09948382445595" lon="11.798334241739571"><ele>34.0</ele><time>2026-04-11T07:44:25Z</time></trkpt><trkpt lat="42.09952014095016" lon="11.798077391111159"><ele>34.0</ele><time>2026-04-11T07:44:26Z</time></trkpt><trkpt lat="42.09957490687329" lon="11.79786492648514"><ele>33.333333333333336</ele><time>2026-04-11T07:44:27Z</time></trkpt><trkpt lat="42.09961454638008" lon="11.797652812079745"><ele>32.666666666666664</ele><time>2026-04-11T07:44:28Z</time></trkpt><trkpt lat="42.09965295773435" lon="11.797472446590906"><ele>32.0</ele><time>2026-04-11T07:44:29Z</time></trkpt><trkpt lat="42.09971662251658" lon="11.79724887129802"><ele>32.0</ele><time>2026-04-11T07:44:30Z</time></trkpt><trkpt lat="42.09978305965699" lon="11.796983779895362"><ele>32.0</ele><time>2026-04-11T07:44:31Z</time></trkpt><trkpt lat="42.09986422321691" lon="11.796765399686752"><ele>32.0</ele><time>2026-04-11T07:44:32Z</time></trkpt><trkpt lat="42.099941659431344" lon="11.796581085310605"><ele>31.333333333333332</ele><time>2026-04-11T07:44:33Z</time></trkpt><trkpt lat="42.10002764509213" lon="11.796397250148065"><ele>30.666666666666664</ele><time>2026-04-11T07:44:34Z</time></trkpt><trkpt lat="42.10011174223835" lon="11.796233465847388"><ele>30.0</ele><time>2026-04-11T07:44:35Z</time></trkpt><trkpt lat="42.10019638597094" lon="11.796080753642478"><ele>29.25</ele><time>2026-04-11T07:44:36Z</time></trkpt><trkpt lat="42.100286185523146" lon="11.795937212463924"><ele>28.5</ele><time>2026-04-11T07:44:37Z</time></trkpt><trkpt lat="42.10037105950381" lon="11.79580033493677"><ele>27.75</ele><time>2026-04-11T07:44:38Z</time></trkpt><trkpt lat="42.10045386243837" lon="11.795684485043939"><ele>27.0</ele><time>2026-04-11T07:44:39Z</time></trkpt><trkpt lat="42.10053147814338" lon="11.795578621269012"><ele>27.0</ele><time>2026-04-11T07:44:40Z</time></trkpt><trkpt lat="42.100604542554294" lon="11.795484256629774"><ele>27.0</ele><time>2026-04-11T07:44:41Z</time></trkpt><trkpt lat="42.10066757398389" lon="11.795404667911543"><ele>27.0</ele><time>2026-04-11T07:44:42Z</time></trkpt><trkpt lat="42.10072382614593" lon="11.79533698974281"><ele>27.0</ele><time>2026-04-11T07:44:43Z</time></trkpt><trkpt lat="42.100777228697886" lon="11.795278683666824"><ele>27.0</ele><time>2026-04-11T07:44:44Z</time></trkpt><trkpt lat="42.10085546124323" lon="11.795250961900555"><ele>27.0</ele><time>2026-04-11T07:44:48Z</time></trkpt><trkpt lat="42.10094211483784" lon="11.795156935596697"><ele>26.6</ele><time>2026-04-11T07:44:50Z</time></trkpt><trkpt lat="42.10097353527225" lon="11.795066398590425"><ele>26.200000000000003</ele><time>2026-04-11T07:44:51Z</time></trkpt><trkpt lat="42.101037634877784" lon="11.794954575808434"><ele>25.8</ele><time>2026-04-11T07:44:52Z</time></trkpt><trkpt lat="42.10109955531043" lon="11.794840125403104"><ele>25.4</ele><time>2026-04-11T07:44:53Z</time></trkpt><trkpt lat="42.10117949842615" lon="11.794739144142293"><ele>25.0</ele><time>2026-04-11T07:44:54Z</time></trkpt><trkpt lat="42.10128540372821" lon="11.794628198305515"><ele>25.0</ele><time>2026-04-11T07:44:55Z</time></trkpt><trkpt lat="42.10138007657153" lon="11.794492945246258"><ele>25.0</ele><time>2026-04-11T07:44:56Z</time></trkpt><trkpt lat="42.10147283541545" lon="11.794380978941255"><ele>25.0</ele><time>2026-04-11T07:44:57Z</time></trkpt><trkpt lat="42.101543534764275" lon="11.794284727575187"><ele>25.0</ele><time>2026-04-11T07:44:58Z</time></trkpt><trkpt lat="42.10162070438023" lon="11.79419929608018"><ele>24.6</ele><time>2026-04-11T07:44:59Z</time></trkpt><trkpt lat="42.10169607009445" lon="11.794096084277392"><ele>24.2</ele><time>2026-04-11T07:45:00Z</time></trkpt><trkpt lat="42.101786986056496" lon="11.793993334214603"><ele>23.799999999999997</ele><time>2026-04-11T07:45:01Z</time></trkpt><trkpt lat="42.10187820948345" lon="11.793915912760369"><ele>23.4</ele><time>2026-04-11T07:45:02Z</time></trkpt><trkpt lat="42.10195907624364" lon="11.793832741468904"><ele>23.0</ele><time>2026-04-11T07:45:03Z</time></trkpt><trkpt lat="42.10204508345249" lon="11.793749076873974"><ele>23.0</ele><time>2026-04-11T07:45:04Z</time></trkpt><trkpt lat="42.102130781820144" lon="11.793671984456738"><ele>23.0</ele><time>2026-04-11T07:45:05Z</time></trkpt><trkpt lat="42.102209017826624" lon="11.79361755001986"><ele>23.0</ele><time>2026-04-11T07:45:06Z</time></trkpt><trkpt lat="42.10227861955522" lon="11.793563799072624"><ele>23.0</ele><time>2026-04-11T07:45:07Z</time></trkpt><trkpt lat="42.10235227742476" lon="11.793530729050135"><ele>23.0</ele><time>2026-04-11T07:45:08Z</time></trkpt><trkpt lat="42.10243345527464" lon="11.793574316553343"><ele>23.0</ele><time>2026-04-11T07:45:09Z</time></trkpt><trkpt lat="42.10253949455825" lon="11.793579886410015"><ele>22.75</ele><time>2026-04-11T07:45:10Z</time></trkpt><trkpt lat="42.10263230574962" lon="11.793460813868897"><ele>22.5</ele><time>2026-04-11T07:45:11Z</time></trkpt><trkpt lat="42.10272805864496" lon="11.793383652245847"><ele>22.25</ele><time>2026-04-11T07:45:12Z</time></trkpt><trkpt lat="42.10280256772125" lon="11.793289346565226"><ele>22.0</ele><time>2026-04-11T07:45:13Z</time></trkpt><trkpt lat="42.102890373402666" lon="11.79316428926911"><ele>22.0</ele><time>2026-04-11T07:45:14Z</time></trkpt><trkpt lat="42.10301410550337" lon="11.793087888545827"><ele>22.0</ele><time>2026-04-11T07:45:15Z</time></trkpt><trkpt lat="42.10310584184608" lon="11.793000869041192"><ele>22.0</ele><time>2026-04-11T07:45:16Z</time></trkpt><trkpt lat="42.10318880758932" lon="11.792951465859302"><ele>22.0</ele><time>2026-04-11T07:45:17Z</time></trkpt><trkpt lat="42.103262603748554" lon="11.7929057902684"><ele>22.0</ele><time>2026-04-11T07:45:18Z</time></trkpt><trkpt lat="42.103329826985345" lon="11.792874657336261"><ele>21.8</ele><time>2026-04-11T07:45:19Z</time></trkpt><trkpt lat="42.10340646283025" lon="11.792807493940115"><ele>21.6</ele><time>2026-04-11T07:45:21Z</time></trkpt><trkpt lat="42.103442884557026" lon="11.792713295017364"><ele>21.400000000000002</ele><time>2026-04-11T07:45:27Z</time></trkpt><trkpt lat="42.103382811836276" lon="11.792598229033505"><ele>21.200000000000003</ele><time>2026-04-11T07:45:30Z</time></trkpt><trkpt lat="42.10331466432467" lon="11.792556075190202"><ele>21.0</ele><time>2026-04-11T07:45:31Z</time></trkpt><trkpt lat="42.10321596917877" lon="11.792510931947945"><ele>22.0</ele><time>2026-04-11T07:45:32Z</time></trkpt><trkpt lat="42.10311322886237" lon="11.792450483325045"><ele>23.0</ele><time>2026-04-11T07:45:33Z</time></trkpt><trkpt lat="42.10298563052653" lon="11.792402301962348"><ele>24.0</ele><time>2026-04-11T07:45:34Z</time></trkpt><trkpt lat="42.102846948195356" lon="11.792362659695847"><ele>25.0</ele><time>2026-04-11T07:45:35Z</time></trkpt><trkpt lat="42.102688089192355" lon="11.792343860297102"><ele>25.0</ele><time>2026-04-11T07:45:36Z</time></trkpt><trkpt lat="42.10252961978054" lon="11.792325925523816"><ele>25.0</ele><time>2026-04-11T07:45:37Z</time></trkpt><trkpt lat="42.102370720809496" lon="11.792299264975256"><ele>25.0</ele><time>2026-04-11T07:45:38Z</time></trkpt><trkpt lat="42.10221927228968" lon="11.7922840426216"><ele>24.75</ele><time>2026-04-11T07:45:39Z</time></trkpt><trkpt lat="42.10208877362493" lon="11.792269316408632"><ele>24.5</ele><time>2026-04-11T07:45:40Z</time></trkpt><trkpt lat="42.10195900920185" lon="11.79224614053195"><ele>24.25</ele><time>2026-04-11T07:45:41Z</time></trkpt><trkpt lat="42.101833510104534" lon="11.79223176327049"><ele>24.0</ele><time>2026-04-11T07:45:42Z</time></trkpt><trkpt lat="42.10170995635798" lon="11.79221239553631"><ele>23.75</ele><time>2026-04-11T07:45:43Z</time></trkpt><trkpt lat="42.10157803034584" lon="11.792185324596838"><ele>23.5</ele><time>2026-04-11T07:45:44Z</time></trkpt><trkpt lat="42.101470320355894" lon="11.79216331775576"><ele>23.25</ele><time>2026-04-11T07:45:45Z</time></trkpt><trkpt lat="42.10133791699652" lon="11.792146037458897"><ele>23.0</ele><time>2026-04-11T07:45:46Z</time></trkpt><trkpt lat="42.101226811361755" lon="11.792129387875203"><ele>23.0</ele><time>2026-04-11T07:45:47Z</time></trkpt><trkpt lat="42.10111673797495" lon="11.79210663956312"><ele>23.0</ele><time>2026-04-11T07:45:48Z</time></trkpt><trkpt lat="42.10100624962825" lon="11.79206695242494"><ele>23.0</ele><time>2026-04-11T07:45:49Z</time></trkpt><trkpt lat="42.10089340457838" lon="11.792043706650722"><ele>23.0</ele><time>2026-04-11T07:45:50Z</time></trkpt><trkpt lat="42.10078195013567" lon="11.792011180807009"><ele>22.75</ele><time>2026-04-11T07:45:51Z</time></trkpt><trkpt lat="42.100673369721136" lon="11.791990806644492"><ele>22.5</ele><time>2026-04-11T07:45:52Z</time></trkpt><trkpt lat="42.100555939434535" lon="11.791973440422257"><ele>22.25</ele><time>2026-04-11T07:45:53Z</time></trkpt><trkpt lat="42.10043938729438" lon="11.791951237315098"><ele>22.0</ele><time>2026-04-11T07:45:54Z</time></trkpt><trkpt lat="42.10032577926859" lon="11.79190591027213"><ele>22.0</ele><time>2026-04-11T07:45:55Z</time></trkpt><trkpt lat="42.100218721686915" lon="11.791866565157699"><ele>22.0</ele><time>2026-04-11T07:45:56Z</time></trkpt><trkpt lat="42.100118219728934" lon="11.79181562572665"><ele>22.0</ele><time>2026-04-11T07:45:57Z</time></trkpt><trkpt lat="42.10001403899564" lon="11.791761053577908"><ele>22.0</ele><time>2026-04-11T07:45:58Z</time></trkpt><trkpt lat="42.09992875295212" lon="11.791715126741476"><ele>22.0</ele><time>2026-04-11T07:45:59Z</time></trkpt><trkpt lat="42.099837245362245" lon="11.791665849571418"><ele>20.5</ele><time>2026-04-11T07:46:00Z</time></trkpt><trkpt lat="42.09971448004345" lon="11.791599740012039"><ele>19.0</ele><time>2026-04-11T07:46:01Z</time></trkpt><trkpt lat="42.09960715807846" lon="11.791543063817086"><ele>17.5</ele><time>2026-04-11T07:46:02Z</time></trkpt><trkpt lat="42.09950366609819" lon="11.791488497410835"><ele>16.0</ele><time>2026-04-11T07:46:03Z</time></trkpt><trkpt lat="42.0993904692153" lon="11.791431863022456"><ele>16.0</ele><time>2026-04-11T07:46:04Z</time></trkpt><trkpt lat="42.09928336309382" lon="11.791386482220965"><ele>16.0</ele><time>2026-04-11T07:46:05Z</time></trkpt><trkpt lat="42.09917196153115" lon="11.791363851185073"><ele>16.0</ele><time>2026-04-11T07:46:06Z</time></trkpt><trkpt lat="42.09907080722114" lon="11.791307153186388"><ele>16.0</ele><time>2026-04-11T07:46:07Z</time></trkpt><trkpt lat="42.098975102072906" lon="11.791261181375939"><ele>16.0</ele><time>2026-04-11T07:46:08Z</time></trkpt><trkpt lat="42.098856344494756" lon="11.791218384678357"><ele>14.75</ele><time>2026-04-11T07:46:09Z</time></trkpt><trkpt lat="42.098743991362824" lon="11.791168499524161"><ele>13.5</ele><time>2026-04-11T07:46:10Z</time></trkpt><trkpt lat="42.09862971808022" lon="11.791119730006823"><ele>12.25</ele><time>2026-04-11T07:46:11Z</time></trkpt><trkpt lat="42.09852292093214" lon="11.791060681751217"><ele>11.0</ele><time>2026-04-11T07:46:12Z</time></trkpt><trkpt lat="42.098425297622036" lon="11.791001020526487"><ele>11.0</ele><time>2026-04-11T07:46:13Z</time></trkpt><trkpt lat="42.09832850313099" lon="11.790923498345094"><ele>11.0</ele><time>2026-04-11T07:46:14Z</time></trkpt><trkpt lat="42.09824098327675" lon="11.790854202824637"><ele>11.0</ele><time>2026-04-11T07:46:15Z</time></trkpt><trkpt lat="42.09815209120835" lon="11.790757670107958"><ele>11.0</ele><time>2026-04-11T07:46:16Z</time></trkpt><trkpt lat="42.09806332117838" lon="11.790666406464142"><ele>11.0</ele><time>2026-04-11T07:46:17Z</time></trkpt><trkpt lat="42.09797851947633" lon="11.790575555015916"><ele>10.600000000000001</ele><time>2026-04-11T07:46:18Z</time></trkpt><trkpt lat="42.097910454102205" lon="11.790499960572404"><ele>10.200000000000001</ele><time>2026-04-11T07:46:19Z</time></trkpt><trkpt lat="42.097836645909695" lon="11.790415285903356"><ele>9.8</ele><time>2026-04-11T07:46:20Z</time></trkpt><trkpt lat="42.09775562059399" lon="11.790316870035292"><ele>9.4</ele><time>2026-04-11T07:46:21Z</time></trkpt><trkpt lat="42.097675644348456" lon="11.790227331089797"><ele>9.0</ele><time>2026-04-11T07:46:22Z</time></trkpt><trkpt lat="42.09759705423316" lon="11.790140614515849"><ele>8.833333333333334</ele><time>2026-04-11T07:46:23Z</time></trkpt><trkpt lat="42.09752806610724" lon="11.790074895639721"><ele>8.666666666666666</ele><time>2026-04-11T07:46:24Z</time></trkpt><trkpt lat="42.09746770159321" lon="11.790002345999733"><ele>8.5</ele><time>2026-04-11T07:46:25Z</time></trkpt><trkpt lat="42.09741852420927" lon="11.789937884509301"><ele>8.333333333333332</ele><time>2026-04-11T07:46:26Z</time></trkpt><trkpt lat="42.09736864277084" lon="11.789880461692412"><ele>8.166666666666666</ele><time>2026-04-11T07:46:27Z</time></trkpt><trkpt lat="42.0973032694747" lon="11.789764312840818"><ele>8.0</ele><time>2026-04-11T07:46:29Z</time></trkpt><trkpt lat="42.09724472191229" lon="11.789659688628612"><ele>7.833333333333333</ele><time>2026-04-11T07:46:31Z</time></trkpt><trkpt lat="42.09719325693555" lon="11.78958076500138"><ele>7.666666666666666</ele><time>2026-04-11T07:46:33Z</time></trkpt><trkpt lat="42.097159957030144" lon="11.789501743100528"><ele>7.5</ele><time>2026-04-11T07:46:35Z</time></trkpt><trkpt lat="42.0970524275154" lon="11.789482732463124"><ele>7.333333333333334</ele><time>2026-04-11T07:46:37Z</time></trkpt><trkpt lat="42.09706398565767" lon="11.789394553231999"><ele>7.166666666666667</ele><time>2026-04-11T07:46:41Z</time></trkpt><trkpt lat="42.097122930257726" lon="11.789284069090368"><ele>7.0</ele><time>2026-04-11T07:46:43Z</time></trkpt><trkpt lat="42.097253695274155" lon="11.789254859571512"><ele>7.0</ele><time>2026-04-11T07:46:45Z</time></trkpt><trkpt lat="42.09734942866857" lon="11.789185018682694"><ele>6.999999999999999</ele><time>2026-04-11T07:46:46Z</time></trkpt><trkpt lat="42.09745588862456" lon="11.789143563983155"><ele>6.999999999999999</ele><time>2026-04-11T07:46:47Z</time></trkpt><trkpt lat="42.097564265877" lon="11.78911071910819"><ele>7.0</ele><time>2026-04-11T07:46:48Z</time></trkpt><trkpt lat="42.09764788459401" lon="11.78907153216036"><ele>7.0</ele><time>2026-04-11T07:46:49Z</time></trkpt><trkpt lat="42.097718520046115" lon="11.789016913416669"><ele>7.0</ele><time>2026-04-11T07:46:50Z</time></trkpt><trkpt lat="42.09780466431531" lon="11.788998007844203"><ele>6.999999999999999</ele><time>2026-04-11T07:46:51Z</time></trkpt><trkpt lat="42.09789222920729" lon="11.788956934801968"><ele>6.999999999999999</ele><time>2026-04-11T07:46:52Z</time></trkpt><trkpt lat="42.0979840423576" lon="11.788894479077738"><ele>7.0</ele><time>2026-04-11T07:46:53Z</time></trkpt><trkpt lat="42.09809384468622" lon="11.788862552029594"><ele>7.0</ele><time>2026-04-11T07:46:54Z</time></trkpt><trkpt lat="42.098162549491796" lon="11.788831079523531"><ele>7.000000000000001</ele><time>2026-04-11T07:46:55Z</time></trkpt><trkpt lat="42.09824321425409" lon="11.788796488756043"><ele>7.0</ele><time>2026-04-11T07:46:56Z</time></trkpt><trkpt lat="42.098306109996024" lon="11.78875551237896"><ele>7.0</ele><time>2026-04-11T07:46:57Z</time></trkpt><trkpt lat="42.098374334457034" lon="11.788731822377034"><ele>7.0</ele><time>2026-04-11T07:46:58Z</time></trkpt><trkpt lat="42.09845052997529" lon="11.788699647735543"><ele>7.000000000000001</ele><time>2026-04-11T07:46:59Z</time></trkpt><trkpt lat="42.09851858812912" lon="11.788673194519076"><ele>7.0</ele><time>2026-04-11T07:47:00Z</time></trkpt><trkpt lat="42.09860470115234" lon="11.788646679091675"><ele>7.0</ele><time>2026-04-11T07:47:01Z</time></trkpt><trkpt lat="42.098691379738966" lon="11.78860711579047"><ele>6.999999999999999</ele><time>2026-04-11T07:47:02Z</time></trkpt><trkpt lat="42.098762082736656" lon="11.78854429884879"><ele>6.999999999999999</ele><time>2026-04-11T07:47:03Z</time></trkpt><trkpt lat="42.09883636587406" lon="11.788482544974617"><ele>7.0</ele><time>2026-04-11T07:47:04Z</time></trkpt><trkpt lat="42.09891333565046" lon="11.788398947801658"><ele>7.0</ele><time>2026-04-11T07:47:05Z</time></trkpt><trkpt lat="42.099002208882006" lon="11.788294780110615"><ele>7.75</ele><time>2026-04-11T07:47:06Z</time></trkpt><trkpt lat="42.099084398888536" lon="11.78819872761352"><ele>8.5</ele><time>2026-04-11T07:47:07Z</time></trkpt><trkpt lat="42.09917518458031" lon="11.78810960532416"><ele>9.25</ele><time>2026-04-11T07:47:08Z</time></trkpt><trkpt lat="42.099260101742644" lon="11.788018605441584"><ele>10.0</ele><time>2026-04-11T07:47:09Z</time></trkpt><trkpt lat="42.09935710609155" lon="11.78790925070738"><ele>10.0</ele><time>2026-04-11T07:47:10Z</time></trkpt><trkpt lat="42.09944722381262" lon="11.787814776120241"><ele>10.0</ele><time>2026-04-11T07:47:11Z</time></trkpt><trkpt lat="42.09953692642015" lon="11.787724272348436"><ele>10.0</ele><time>2026-04-11T07:47:12Z</time></trkpt><trkpt lat="42.09963384341261" lon="11.787627960203155"><ele>10.0</ele><time>2026-04-11T07:47:13Z</time></trkpt><trkpt lat="42.09972924907936" lon="11.78753006328871"><ele>10.0</ele><time>2026-04-11T07:47:14Z</time></trkpt><trkpt lat="42.09983085706165" lon="11.787438646989875"><ele>10.0</ele><time>2026-04-11T07:47:15Z</time></trkpt><trkpt lat="42.099928369648545" lon="11.78734700985699"><ele>10.0</ele><time>2026-04-11T07:47:16Z</time></trkpt><trkpt lat="42.10001903692292" lon="11.787245339458913"><ele>10.0</ele><time>2026-04-11T07:47:17Z</time></trkpt><trkpt lat="42.10011406680984" lon="11.787149024441158"><ele>10.0</ele><time>2026-04-11T07:47:18Z</time></trkpt><trkpt lat="42.10021428958408" lon="11.787039271621508"><ele>10.0</ele><time>2026-04-11T07:47:19Z</time></trkpt><trkpt lat="42.10031026219597" lon="11.7869328317906"><ele>10.0</ele><time>2026-04-11T07:47:20Z</time></trkpt><trkpt lat="42.10041723455959" lon="11.78683172982079"><ele>10.0</ele><time>2026-04-11T07:47:21Z</time></trkpt><trkpt lat="42.10052956112227" lon="11.786747426813488"><ele>10.0</ele><time>2026-04-11T07:47:22Z</time></trkpt><trkpt lat="42.10064366180471" lon="11.786681642155918"><ele>10.0</ele><time>2026-04-11T07:47:23Z</time></trkpt><trkpt lat="42.10076178819998" lon="11.786628949977002"><ele>10.0</ele><time>2026-04-11T07:47:24Z</time></trkpt><trkpt lat="42.100888019640344" lon="11.7865823444873"><ele>10.0</ele><time>2026-04-11T07:47:25Z</time></trkpt><trkpt lat="42.10101688676145" lon="11.786547890220305"><ele>9.75</ele><time>2026-04-11T07:47:26Z</time></trkpt><trkpt lat="42.10116385707732" lon="11.786518340374666"><ele>9.5</ele><time>2026-04-11T07:47:27Z</time></trkpt><trkpt lat="42.10130580086229" lon="11.786493686551335"><ele>9.25</ele><time>2026-04-11T07:47:28Z</time></trkpt><trkpt lat="42.10144653347347" lon="11.786479448313353"><ele>9.0</ele><time>2026-04-11T07:47:29Z</time></trkpt><trkpt lat="42.101583696805044" lon="11.786478739623627"><ele>9.0</ele><time>2026-04-11T07:47:30Z</time></trkpt><trkpt lat="42.101711470872296" lon="11.786487329238211"><ele>9.0</ele><time>2026-04-11T07:47:31Z</time></trkpt><trkpt lat="42.10184256598231" lon="11.786501803489413"><ele>9.0</ele><time>2026-04-11T07:47:32Z</time></trkpt><trkpt lat="42.10197994572199" lon="11.786505947915456"><ele>9.0</ele><time>2026-04-11T07:47:33Z</time></trkpt><trkpt lat="42.10211531090573" lon="11.786510235652557"><ele>9.0</ele><time>2026-04-11T07:47:34Z</time></trkpt><trkpt lat="42.102258040710275" lon="11.78652410209407"><ele>9.0</ele><time>2026-04-11T07:47:35Z</time></trkpt><trkpt lat="42.10239150087054" lon="11.786530236217237"><ele>9.0</ele><time>2026-04-11T07:47:36Z</time></trkpt><trkpt lat="42.10253109284114" lon="11.786525789961237"><ele>9.0</ele><time>2026-04-11T07:47:37Z</time></trkpt><trkpt lat="42.10266916119217" lon="11.786522917549181"><ele>8.25</ele><time>2026-04-11T07:47:38Z</time></trkpt><trkpt lat="42.102797051017475" lon="11.78653656937642"><ele>7.5</ele><time>2026-04-11T07:47:39Z</time></trkpt><trkpt lat="42.10292316971621" lon="11.78654757723599"><ele>6.75</ele><time>2026-04-11T07:47:40Z</time></trkpt><trkpt lat="42.10305573619357" lon="11.786547940443304"><ele>6.0</ele><time>2026-04-11T07:47:41Z</time></trkpt><trkpt lat="42.1031792567759" lon="11.786542835366488"><ele>6.25</ele><time>2026-04-11T07:47:42Z</time></trkpt><trkpt lat="42.103303539930025" lon="11.786536848979079"><ele>6.5</ele><time>2026-04-11T07:47:43Z</time></trkpt><trkpt lat="42.10342297531191" lon="11.786519058921439"><ele>6.75</ele><time>2026-04-11T07:47:44Z</time></trkpt><trkpt lat="42.10354626260912" lon="11.786474247189306"><ele>7.0</ele><time>2026-04-11T07:47:45Z</time></trkpt><trkpt lat="42.10366799454794" lon="11.786408944048723"><ele>7.0</ele><time>2026-04-11T07:47:46Z</time></trkpt><trkpt lat="42.10378278984855" lon="11.786325453069013"><ele>7.0</ele><time>2026-04-11T07:47:47Z</time></trkpt><trkpt lat="42.10390205790986" lon="11.786223627932298"><ele>7.0</ele><time>2026-04-11T07:47:48Z</time></trkpt><trkpt lat="42.10401279618999" lon="11.78611724441032"><ele>7.0</ele><time>2026-04-11T07:47:49Z</time></trkpt><trkpt lat="42.104116441659876" lon="11.786001658917192"><ele>6.75</ele><time>2026-04-11T07:47:50Z</time></trkpt><trkpt lat="42.10420695855891" lon="11.785871518080532"><ele>6.5</ele><time>2026-04-11T07:47:51Z</time></trkpt><trkpt lat="42.10429213510742" lon="11.785714400992775"><ele>6.25</ele><time>2026-04-11T07:47:52Z</time></trkpt><trkpt lat="42.10437780077521" lon="11.785520697159553"><ele>6.0</ele><time>2026-04-11T07:47:53Z</time></trkpt><trkpt lat="42.10444948763025" lon="11.78534725559459"><ele>6.0</ele><time>2026-04-11T07:47:54Z</time></trkpt><trkpt lat="42.10451260164122" lon="11.785191662694265"><ele>6.0</ele><time>2026-04-11T07:47:55Z</time></trkpt><trkpt lat="42.10457180644811" lon="11.785059090486309"><ele>6.0</ele><time>2026-04-11T07:47:56Z</time></trkpt><trkpt lat="42.10463919445112" lon="11.784935105930819"><ele>6.0</ele><time>2026-04-11T07:47:57Z</time></trkpt><trkpt lat="42.10470749740235" lon="11.784807976385878"><ele>6.25</ele><time>2026-04-11T07:47:58Z</time></trkpt><trkpt lat="42.10478584236069" lon="11.784692115381835"><ele>6.5</ele><time>2026-04-11T07:47:59Z</time></trkpt><trkpt lat="42.10486780777736" lon="11.784583851211135"><ele>6.75</ele><time>2026-04-11T07:48:00Z</time></trkpt><trkpt lat="42.1049440860157" lon="11.784458449318207"><ele>7.0</ele><time>2026-04-11T07:48:01Z</time></trkpt><trkpt lat="42.105021010059616" lon="11.784337060874329"><ele>6.5</ele><time>2026-04-11T07:48:02Z</time></trkpt><trkpt lat="42.10510053363489" lon="11.784215286439991"><ele>6.0</ele><time>2026-04-11T07:48:03Z</time></trkpt><trkpt lat="42.10517106973657" lon="11.78410051965104"><ele>5.5</ele><time>2026-04-11T07:48:04Z</time></trkpt><trkpt lat="42.10524303172129" lon="11.783993913211198"><ele>5.0</ele><time>2026-04-11T07:48:05Z</time></trkpt><trkpt lat="42.105330755552565" lon="11.783863863170318"><ele>5.0</ele><time>2026-04-11T07:48:06Z</time></trkpt><trkpt lat="42.10542021275102" lon="11.78374349231484"><ele>5.0</ele><time>2026-04-11T07:48:07Z</time></trkpt><trkpt lat="42.10550130361599" lon="11.78362732712493"><ele>5.0</ele><time>2026-04-11T07:48:08Z</time></trkpt><trkpt lat="42.10559023839412" lon="11.783502350245367"><ele>5.0</ele><time>2026-04-11T07:48:09Z</time></trkpt><trkpt lat="42.10568218421249" lon="11.783373783842308"><ele>5.0</ele><time>2026-04-11T07:48:10Z</time></trkpt><trkpt lat="42.10581405715761" lon="11.783260149693046"><ele>5.0</ele><time>2026-04-11T07:48:11Z</time></trkpt><trkpt lat="42.105946102648" lon="11.783093591259798"><ele>5.0</ele><time>2026-04-11T07:48:12Z</time></trkpt><trkpt lat="42.10606493163238" lon="11.782944094504499"><ele>5.0</ele><time>2026-04-11T07:48:13Z</time></trkpt><trkpt lat="42.106178579278925" lon="11.782801116297355"><ele>5.0</ele><time>2026-04-11T07:48:14Z</time></trkpt><trkpt lat="42.106291163815975" lon="11.782662974569844"><ele>5.0</ele><time>2026-04-11T07:48:15Z</time></trkpt><trkpt lat="42.10641138202692" lon="11.782516462907536"><ele>5.0</ele><time>2026-04-11T07:48:16Z</time></trkpt><trkpt lat="42.10653698625913" lon="11.78236519981656"><ele>5.0</ele><time>2026-04-11T07:48:17Z</time></trkpt><trkpt lat="42.10665289409973" lon="11.78222561387582"><ele>5.0</ele><time>2026-04-11T07:48:18Z</time></trkpt><trkpt lat="42.10676577696194" lon="11.782106503198449"><ele>5.0</ele><time>2026-04-11T07:48:19Z</time></trkpt><trkpt lat="42.106881406297866" lon="11.781958741599635"><ele>5.0</ele><time>2026-04-11T07:48:20Z</time></trkpt><trkpt lat="42.107002294671446" lon="11.781794471312775"><ele>5.0</ele><time>2026-04-11T07:48:21Z</time></trkpt><trkpt lat="42.10709728698926" lon="11.781650667156732"><ele>4.666666666666667</ele><time>2026-04-11T07:48:22Z</time></trkpt><trkpt lat="42.10719487603956" lon="11.781493877367264"><ele>4.333333333333333</ele><time>2026-04-11T07:48:23Z</time></trkpt><trkpt lat="42.107290829294" lon="11.781316763508054"><ele>4.0</ele><time>2026-04-11T07:48:24Z</time></trkpt><trkpt lat="42.10737162995085" lon="11.781140453308797"><ele>4.25</ele><time>2026-04-11T07:48:25Z</time></trkpt><trkpt lat="42.107440906567106" lon="11.780966801215998"><ele>4.5</ele><time>2026-04-11T07:48:26Z</time></trkpt><trkpt lat="42.107520395252465" lon="11.780794161106076"><ele>4.75</ele><time>2026-04-11T07:48:27Z</time></trkpt><trkpt lat="42.10758826425066" lon="11.780630585433018"><ele>5.0</ele><time>2026-04-11T07:48:28Z</time></trkpt><trkpt lat="42.10765702168067" lon="11.780457634673546"><ele>5.0</ele><time>2026-04-11T07:48:29Z</time></trkpt><trkpt lat="42.10772331571572" lon="11.780282541249058"><ele>5.0</ele><time>2026-04-11T07:48:30Z</time></trkpt><trkpt lat="42.10778377446533" lon="11.78010676479603"><ele>5.0</ele><time>2026-04-11T07:48:31Z</time></trkpt><trkpt lat="42.10786446721541" lon="11.77993030463074"><ele>5.0</ele><time>2026-04-11T07:48:32Z</time></trkpt><trkpt lat="42.107939872715136" lon="11.77976026128689"><ele>5.0</ele><time>2026-04-11T07:48:33Z</time></trkpt><trkpt lat="42.10802570779478" lon="11.779592173619355"><ele>5.0</ele><time>2026-04-11T07:48:34Z</time></trkpt><trkpt lat="42.10811289583516" lon="11.779439085829736"><ele>5.0</ele><time>2026-04-11T07:48:35Z</time></trkpt><trkpt lat="42.10819519672942" lon="11.779312720799872"><ele>5.0</ele><time>2026-04-11T07:48:36Z</time></trkpt><trkpt lat="42.10827360146451" lon="11.779167854673812"><ele>4.5</ele><time>2026-04-11T07:48:37Z</time></trkpt><trkpt lat="42.10836309215909" lon="11.779011938202633"><ele>4.0</ele><time>2026-04-11T07:48:38Z</time></trkpt><trkpt lat="42.10845168749852" lon="11.778867677148163"><ele>3.5</ele><time>2026-04-11T07:48:39Z</time></trkpt><trkpt lat="42.10854715568411" lon="11.778728142000185"><ele>3.0</ele><time>2026-04-11T07:48:40Z</time></trkpt><trkpt lat="42.10864964849605" lon="11.77860713945239"><ele>3.25</ele><time>2026-04-11T07:48:41Z</time></trkpt><trkpt lat="42.10875609711837" lon="11.778499162631933"><ele>3.5</ele><time>2026-04-11T07:48:42Z</time></trkpt><trkpt lat="42.10887713133723" lon="11.778400512704117"><ele>3.75</ele><time>2026-04-11T07:48:43Z</time></trkpt><trkpt lat="42.10899147292923" lon="11.778300039784813"><ele>4.0</ele><time>2026-04-11T07:48:44Z</time></trkpt><trkpt lat="42.109098501762745" lon="11.778214429760709"><ele>4.25</ele><time>2026-04-11T07:48:45Z</time></trkpt><trkpt lat="42.10919871223937" lon="11.77811968501552"><ele>4.5</ele><time>2026-04-11T07:48:46Z</time></trkpt><trkpt lat="42.10929959955009" lon="11.778018421888778"><ele>4.75</ele><time>2026-04-11T07:48:47Z</time></trkpt><trkpt lat="42.10941482075599" lon="11.777927605192474"><ele>5.0</ele><time>2026-04-11T07:48:48Z</time></trkpt><trkpt lat="42.109549496245464" lon="11.777846962313092"><ele>5.0</ele><time>2026-04-11T07:48:49Z</time></trkpt><trkpt lat="42.10970484009046" lon="11.7777693585433"><ele>5.0</ele><time>2026-04-11T07:48:50Z</time></trkpt><trkpt lat="42.109859012229876" lon="11.777701139843135"><ele>5.0</ele><time>2026-04-11T07:48:51Z</time></trkpt><trkpt lat="42.11000735631928" lon="11.777634803852443"><ele>4.0</ele><time>2026-04-11T07:48:52Z</time></trkpt><trkpt lat="42.110143393152775" lon="11.777553800900712"><ele>3.0</ele><time>2026-04-11T07:48:53Z</time></trkpt><trkpt lat="42.11027287333953" lon="11.777469278713646"><ele>2.0</ele><time>2026-04-11T07:48:54Z</time></trkpt><trkpt lat="42.1104032626225" lon="11.777398519240355"><ele>1.0</ele><time>2026-04-11T07:48:55Z</time></trkpt><trkpt lat="42.11052168545828" lon="11.77732545533549"><ele>1.0</ele><time>2026-04-11T07:48:56Z</time></trkpt><trkpt lat="42.11064995304021" lon="11.777244515478726"><ele>1.0</ele><time>2026-04-11T07:48:57Z</time></trkpt><trkpt lat="42.11077271835919" lon="11.777161382091718"><ele>1.0</ele><time>2026-04-11T07:48:58Z</time></trkpt><trkpt lat="42.11088208560232" lon="11.77710798576984"><ele>1.0</ele><time>2026-04-11T07:48:59Z</time></trkpt><trkpt lat="42.11102029345215" lon="11.777028446456205"><ele>1.5</ele><time>2026-04-11T07:49:00Z</time></trkpt><trkpt lat="42.11114190030218" lon="11.77694493415425"><ele>2.0</ele><time>2026-04-11T07:49:01Z</time></trkpt><trkpt lat="42.111282759487736" lon="11.776878291246655"><ele>2.5</ele><time>2026-04-11T07:49:02Z</time></trkpt><trkpt lat="42.111390876042314" lon="11.776792262866733"><ele>3.0</ele><time>2026-04-11T07:49:03Z</time></trkpt><trkpt lat="42.11153148194113" lon="11.776716652259227"><ele>4.666666666666666</ele><time>2026-04-11T07:49:04Z</time></trkpt><trkpt lat="42.111686919003446" lon="11.77662040239279"><ele>6.333333333333333</ele><time>2026-04-11T07:49:05Z</time></trkpt><trkpt lat="42.111835630029" lon="11.776489697102605"><ele>8.0</ele><time>2026-04-11T07:49:06Z</time></trkpt><trkpt lat="42.11196084565293" lon="11.776346360605038"><ele>8.0</ele><time>2026-04-11T07:49:07Z</time></trkpt><trkpt lat="42.11209515733314" lon="11.776208116184593"><ele>8.0</ele><time>2026-04-11T07:49:08Z</time></trkpt><trkpt lat="42.11223901876229" lon="11.77607917742941"><ele>8.0</ele><time>2026-04-11T07:49:09Z</time></trkpt><trkpt lat="42.112375055412365" lon="11.775939794938342"><ele>7.333333333333333</ele><time>2026-04-11T07:49:10Z</time></trkpt><trkpt lat="42.112508512587716" lon="11.775798782858597"><ele>6.666666666666666</ele><time>2026-04-11T07:49:11Z</time></trkpt><trkpt lat="42.11262729011123" lon="11.775661555593746"><ele>6.0</ele><time>2026-04-11T07:49:12Z</time></trkpt><trkpt lat="42.11273134997347" lon="11.775526440943047"><ele>6.0</ele><time>2026-04-11T07:49:13Z</time></trkpt><trkpt lat="42.11284221812641" lon="11.775391731502856"><ele>6.0</ele><time>2026-04-11T07:49:14Z</time></trkpt><trkpt lat="42.11295912423571" lon="11.775257145077935"><ele>6.0</ele><time>2026-04-11T07:49:15Z</time></trkpt><trkpt lat="42.11307062919581" lon="11.7751146966164"><ele>5.666666666666667</ele><time>2026-04-11T07:49:16Z</time></trkpt><trkpt lat="42.113180089565304" lon="11.774979346411671"><ele>5.333333333333334</ele><time>2026-04-11T07:49:17Z</time></trkpt><trkpt lat="42.11329135765801" lon="11.774838863613645"><ele>5.0</ele><time>2026-04-11T07:49:18Z</time></trkpt><trkpt lat="42.113410373380965" lon="11.774697428268869"><ele>5.0</ele><time>2026-04-11T07:49:19Z</time></trkpt><trkpt lat="42.11353288425862" lon="11.77454824607564"><ele>5.0</ele><time>2026-04-11T07:49:20Z</time></trkpt><trkpt lat="42.11364264816562" lon="11.774417355057157"><ele>5.0</ele><time>2026-04-11T07:49:21Z</time></trkpt><trkpt lat="42.11375014106385" lon="11.774283414509144"><ele>4.666666666666667</ele><time>2026-04-11T07:49:22Z</time></trkpt><trkpt lat="42.113853133578615" lon="11.774152138790985"><ele>4.333333333333333</ele><time>2026-04-11T07:49:23Z</time></trkpt><trkpt lat="42.11397703914507" lon="11.774012784674465"><ele>4.0</ele><time>2026-04-11T07:49:24Z</time></trkpt><trkpt lat="42.114108802221736" lon="11.773865836434984"><ele>6.0</ele><time>2026-04-11T07:49:25Z</time></trkpt><trkpt lat="42.1142492328159" lon="11.773703871081295"><ele>8.0</ele><time>2026-04-11T07:49:26Z</time></trkpt><trkpt lat="42.11438218359585" lon="11.773553939963227"><ele>10.0</ele><time>2026-04-11T07:49:27Z</time></trkpt><trkpt lat="42.11451383852335" lon="11.77341187910369"><ele>10.333333333333334</ele><time>2026-04-11T07:49:28Z</time></trkpt><trkpt lat="42.11463709721938" lon="11.773254222191532"><ele>10.666666666666666</ele><time>2026-04-11T07:49:29Z</time></trkpt><trkpt lat="42.11477313453034" lon="11.773105871868212"><ele>11.0</ele><time>2026-04-11T07:49:30Z</time></trkpt><trkpt lat="42.11489834169376" lon="11.77295674950244"><ele>11.0</ele><time>2026-04-11T07:49:31Z</time></trkpt><trkpt lat="42.11501959902679" lon="11.772820978268992"><ele>11.0</ele><time>2026-04-11T07:49:32Z</time></trkpt><trkpt lat="42.11514802734968" lon="11.772676786968743"><ele>11.0</ele><time>2026-04-11T07:49:33Z</time></trkpt><trkpt lat="42.115271641082465" lon="11.772532798507704"><ele>10.0</ele><time>2026-04-11T07:49:34Z</time></trkpt><trkpt lat="42.11538506065342" lon="11.772394835005267"><ele>9.0</ele><time>2026-04-11T07:49:35Z</time></trkpt><trkpt lat="42.11550115730466" lon="11.7722603509258"><ele>8.0</ele><time>2026-04-11T07:49:36Z</time></trkpt><trkpt lat="42.11561542989564" lon="11.772129508722067"><ele>8.0</ele><time>2026-04-11T07:49:37Z</time></trkpt><trkpt lat="42.11571903329595" lon="11.772000175035828"><ele>8.0</ele><time>2026-04-11T07:49:38Z</time></trkpt><trkpt lat="42.11582990835075" lon="11.771874373200891"><ele>8.0</ele><time>2026-04-11T07:49:39Z</time></trkpt><trkpt lat="42.115940131344395" lon="11.771750831655602"><ele>8.0</ele><time>2026-04-11T07:49:40Z</time></trkpt><trkpt lat="42.11604829470986" lon="11.771626037424069"><ele>9.5</ele><time>2026-04-11T07:49:41Z</time></trkpt><trkpt lat="42.11616776200709" lon="11.77150705770786"><ele>11.0</ele><time>2026-04-11T07:49:42Z</time></trkpt><trkpt lat="42.11627789299852" lon="11.771388083507533"><ele>12.5</ele><time>2026-04-11T07:49:43Z</time></trkpt><trkpt lat="42.116399519303044" lon="11.77129171601578"><ele>14.0</ele><time>2026-04-11T07:49:44Z</time></trkpt><trkpt lat="42.11654887839011" lon="11.771205022296943"><ele>13.333333333333334</ele><time>2026-04-11T07:49:45Z</time></trkpt><trkpt lat="42.11669972485277" lon="11.771148905560274"><ele>12.666666666666668</ele><time>2026-04-11T07:49:46Z</time></trkpt><trkpt lat="42.1168482570953" lon="11.771117421426183"><ele>12.0</ele><time>2026-04-11T07:49:47Z</time></trkpt><trkpt lat="42.11700124828224" lon="11.771114357499075"><ele>12.0</ele><time>2026-04-11T07:49:48Z</time></trkpt><trkpt lat="42.117154492386966" lon="11.771127333332572"><ele>12.0</ele><time>2026-04-11T07:49:49Z</time></trkpt><trkpt lat="42.11729937730012" lon="11.771160261917439"><ele>12.0</ele><time>2026-04-11T07:49:50Z</time></trkpt><trkpt lat="42.117463150388204" lon="11.77122005831482"><ele>11.5</ele><time>2026-04-11T07:49:51Z</time></trkpt><trkpt lat="42.11761069000204" lon="11.7712677953617"><ele>11.0</ele><time>2026-04-11T07:49:52Z</time></trkpt><trkpt lat="42.117753664188186" lon="11.771297127229507"><ele>10.5</ele><time>2026-04-11T07:49:53Z</time></trkpt><trkpt lat="42.11788296443029" lon="11.771323891191786"><ele>10.0</ele><time>2026-04-11T07:49:54Z</time></trkpt><trkpt lat="42.1180083208093" lon="11.771360331963258"><ele>10.0</ele><time>2026-04-11T07:49:55Z</time></trkpt><trkpt lat="42.11813432760979" lon="11.771414292165652"><ele>10.0</ele><time>2026-04-11T07:49:56Z</time></trkpt><trkpt lat="42.11825629323556" lon="11.771457426697127"><ele>10.0</ele><time>2026-04-11T07:49:57Z</time></trkpt><trkpt lat="42.118375514550976" lon="11.771489747060684"><ele>10.0</ele><time>2026-04-11T07:49:58Z</time></trkpt><trkpt lat="42.11850105416298" lon="11.77152436136913"><ele>10.0</ele><time>2026-04-11T07:49:59Z</time></trkpt><trkpt lat="42.11864643862001" lon="11.771563033111063"><ele>10.0</ele><time>2026-04-11T07:50:00Z</time></trkpt><trkpt lat="42.11879384618892" lon="11.77157434546037"><ele>10.0</ele><time>2026-04-11T07:50:01Z</time></trkpt><trkpt lat="42.118945987138694" lon="11.771577247019103"><ele>10.0</ele><time>2026-04-11T07:50:02Z</time></trkpt><trkpt lat="42.119098657122194" lon="11.771569768184017"><ele>10.0</ele><time>2026-04-11T07:50:03Z</time></trkpt><trkpt lat="42.11926247051168" lon="11.77154406843422"><ele>10.0</ele><time>2026-04-11T07:50:04Z</time></trkpt><trkpt lat="42.11942795331435" lon="11.77149717525768"><ele>10.0</ele><time>2026-04-11T07:50:05Z</time></trkpt><trkpt lat="42.119588923061755" lon="11.771428563629387"><ele>10.0</ele><time>2026-04-11T07:50:06Z</time></trkpt><trkpt lat="42.119754013334344" lon="11.771343532962725"><ele>10.0</ele><time>2026-04-11T07:50:07Z</time></trkpt><trkpt lat="42.11992349033228" lon="11.771242125173675"><ele>10.0</ele><time>2026-04-11T07:50:08Z</time></trkpt><trkpt lat="42.12009729878854" lon="11.771152876832582"><ele>9.666666666666668</ele><time>2026-04-11T07:50:09Z</time></trkpt><trkpt lat="42.12027053339228" lon="11.771067782800149"><ele>9.333333333333334</ele><time>2026-04-11T07:50:10Z</time></trkpt><trkpt lat="42.12044089292446" lon="11.770985664790965"><ele>9.0</ele><time>2026-04-11T07:50:11Z</time></trkpt><trkpt lat="42.12060658024417" lon="11.770895836570464"><ele>9.333333333333334</ele><time>2026-04-11T07:50:12Z</time></trkpt><trkpt lat="42.120770643403276" lon="11.770808307086606"><ele>9.666666666666668</ele><time>2026-04-11T07:50:13Z</time></trkpt><trkpt lat="42.12091564054681" lon="11.770726234787336"><ele>10.0</ele><time>2026-04-11T07:50:14Z</time></trkpt><trkpt lat="42.12107387080961" lon="11.77067032364554"><ele>10.0</ele><time>2026-04-11T07:50:15Z</time></trkpt><trkpt lat="42.12123378130449" lon="11.77059495294766"><ele>10.0</ele><time>2026-04-11T07:50:16Z</time></trkpt><trkpt lat="42.12138714948368" lon="11.770519287652943"><ele>10.0</ele><time>2026-04-11T07:50:17Z</time></trkpt><trkpt lat="42.121561996898876" lon="11.770477833067734"><ele>10.333333333333334</ele><time>2026-04-11T07:50:18Z</time></trkpt><trkpt lat="42.12174964344016" lon="11.770438417423295"><ele>10.666666666666666</ele><time>2026-04-11T07:50:19Z</time></trkpt><trkpt lat="42.12194108433843" lon="11.770411251975384"><ele>11.0</ele><time>2026-04-11T07:50:20Z</time></trkpt><trkpt lat="42.12210797730792" lon="11.770405023039725"><ele>11.0</ele><time>2026-04-11T07:50:21Z</time></trkpt><trkpt lat="42.12229837990036" lon="11.770414398458675"><ele>11.0</ele><time>2026-04-11T07:50:22Z</time></trkpt><trkpt lat="42.122473075734824" lon="11.770437254610224"><ele>11.0</ele><time>2026-04-11T07:50:23Z</time></trkpt><trkpt lat="42.12264509233479" lon="11.770468871910602"><ele>11.25</ele><time>2026-04-11T07:50:24Z</time></trkpt><trkpt lat="42.12279027820351" lon="11.770500486467734"><ele>11.5</ele><time>2026-04-11T07:50:25Z</time></trkpt><trkpt lat="42.12292794115098" lon="11.770532526213133"><ele>11.75</ele><time>2026-04-11T07:50:26Z</time></trkpt><trkpt lat="42.123069152025735" lon="11.770573600897283"><ele>12.0</ele><time>2026-04-11T07:50:27Z</time></trkpt><trkpt lat="42.12321524858374" lon="11.77062395279319"><ele>12.0</ele><time>2026-04-11T07:50:28Z</time></trkpt><trkpt lat="42.12335173848893" lon="11.770677517770375"><ele>12.0</ele><time>2026-04-11T07:50:29Z</time></trkpt><trkpt lat="42.12349394657635" lon="11.770733449797435"><ele>12.0</ele><time>2026-04-11T07:50:30Z</time></trkpt><trkpt lat="42.12363011041938" lon="11.770784564152088"><ele>12.0</ele><time>2026-04-11T07:50:31Z</time></trkpt><trkpt lat="42.12376457158742" lon="11.77083231267252"><ele>12.0</ele><time>2026-04-11T07:50:32Z</time></trkpt><trkpt lat="42.123894131255774" lon="11.770881120911591"><ele>12.0</ele><time>2026-04-11T07:50:33Z</time></trkpt><trkpt lat="42.124020304376025" lon="11.770933362495375"><ele>12.0</ele><time>2026-04-11T07:50:34Z</time></trkpt><trkpt lat="42.12413553508943" lon="11.7709893330549"><ele>12.0</ele><time>2026-04-11T07:50:35Z</time></trkpt><trkpt lat="42.124256492459125" lon="11.771035219301217"><ele>13.25</ele><time>2026-04-11T07:50:36Z</time></trkpt><trkpt lat="42.124390768147805" lon="11.771086160955734"><ele>14.5</ele><time>2026-04-11T07:50:37Z</time></trkpt><trkpt lat="42.12452113032274" lon="11.771139671067372"><ele>15.75</ele><time>2026-04-11T07:50:38Z</time></trkpt><trkpt lat="42.124663534534434" lon="11.77119636767643"><ele>17.0</ele><time>2026-04-11T07:50:39Z</time></trkpt><trkpt lat="42.124826086801406" lon="11.771249067675843"><ele>18.0</ele><time>2026-04-11T07:50:40Z</time></trkpt><trkpt lat="42.12500857518231" lon="11.771308905958302"><ele>19.0</ele><time>2026-04-11T07:50:41Z</time></trkpt><trkpt lat="42.1251767493479" lon="11.771377198023727"><ele>20.0</ele><time>2026-04-11T07:50:42Z</time></trkpt><trkpt lat="42.12535040774648" lon="11.771442767678346"><ele>20.0</ele><time>2026-04-11T07:50:43Z</time></trkpt><trkpt lat="42.12552624116809" lon="11.771535324717554"><ele>20.0</ele><time>2026-04-11T07:50:44Z</time></trkpt><trkpt lat="42.12569297325205" lon="11.771639144533095"><ele>20.0</ele><time>2026-04-11T07:50:45Z</time></trkpt><trkpt lat="42.125853003023764" lon="11.77175302136577"><ele>21.333333333333336</ele><time>2026-04-11T07:50:46Z</time></trkpt><trkpt lat="42.125994962068944" lon="11.771877943101453"><ele>22.666666666666668</ele><time>2026-04-11T07:50:47Z</time></trkpt><trkpt lat="42.12612890443372" lon="11.772010822471158"><ele>24.0</ele><time>2026-04-11T07:50:48Z</time></trkpt><trkpt lat="42.12626103234009" lon="11.77214970517765"><ele>24.0</ele><time>2026-04-11T07:50:49Z</time></trkpt><trkpt lat="42.12639373726234" lon="11.772303227297158"><ele>24.0</ele><time>2026-04-11T07:50:50Z</time></trkpt><trkpt lat="42.12653021046703" lon="11.772441525961414"><ele>24.0</ele><time>2026-04-11T07:50:51Z</time></trkpt><trkpt lat="42.126687419902545" lon="11.772585218047892"><ele>23.666666666666668</ele><time>2026-04-11T07:50:52Z</time></trkpt><trkpt lat="42.12683885540588" lon="11.77269789319069"><ele>23.333333333333336</ele><time>2026-04-11T07:50:53Z</time></trkpt><trkpt lat="42.12698615125298" lon="11.772797748813991"><ele>23.0</ele><time>2026-04-11T07:50:54Z</time></trkpt><trkpt lat="42.12713626577435" lon="11.772880648675605"><ele>23.0</ele><time>2026-04-11T07:50:55Z</time></trkpt><trkpt lat="42.12728674681355" lon="11.772957579310729"><ele>23.0</ele><time>2026-04-11T07:50:56Z</time></trkpt><trkpt lat="42.127434291190156" lon="11.773012131930782"><ele>23.0</ele><time>2026-04-11T07:50:57Z</time></trkpt><trkpt lat="42.12757896963278" lon="11.773044136144998"><ele>24.333333333333336</ele><time>2026-04-11T07:50:58Z</time></trkpt><trkpt lat="42.127729850197674" lon="11.773072160864958"><ele>25.666666666666668</ele><time>2026-04-11T07:50:59Z</time></trkpt><trkpt lat="42.12788553047061" lon="11.773084054493577"><ele>27.0</ele><time>2026-04-11T07:51:00Z</time></trkpt><trkpt lat="42.12805172641133" lon="11.773092997061875"><ele>27.0</ele><time>2026-04-11T07:51:01Z</time></trkpt><trkpt lat="42.128212933804356" lon="11.773099757954453"><ele>27.0</ele><time>2026-04-11T07:51:02Z</time></trkpt><trkpt lat="42.12836839390358" lon="11.773095879597525"><ele>27.0</ele><time>2026-04-11T07:51:03Z</time></trkpt><trkpt lat="42.1285194392178" lon="11.7730915606867"><ele>27.333333333333336</ele><time>2026-04-11T07:51:04Z</time></trkpt><trkpt lat="42.128674909933" lon="11.773092141569672"><ele>27.666666666666668</ele><time>2026-04-11T07:51:05Z</time></trkpt><trkpt lat="42.12882289747793" lon="11.773098580255178"><ele>28.0</ele><time>2026-04-11T07:51:06Z</time></trkpt><trkpt lat="42.12897453864339" lon="11.773100945908654"><ele>28.75</ele><time>2026-04-11T07:51:07Z</time></trkpt><trkpt lat="42.1291226632029" lon="11.773102407416498"><ele>29.5</ele><time>2026-04-11T07:51:08Z</time></trkpt><trkpt lat="42.129268057076544" lon="11.773106794978148"><ele>30.25</ele><time>2026-04-11T07:51:09Z</time></trkpt><trkpt lat="42.12940054651593" lon="11.77311513585648"><ele>31.0</ele><time>2026-04-11T07:51:10Z</time></trkpt><trkpt lat="42.12953963397728" lon="11.77312127506229"><ele>31.0</ele><time>2026-04-11T07:51:11Z</time></trkpt><trkpt lat="42.12968209571358" lon="11.773120663206482"><ele>31.0</ele><time>2026-04-11T07:51:12Z</time></trkpt><trkpt lat="42.12984988941709" lon="11.773122654748601"><ele>31.0</ele><time>2026-04-11T07:51:13Z</time></trkpt><trkpt lat="42.12999680938603" lon="11.773124267966852"><ele>31.75</ele><time>2026-04-11T07:51:14Z</time></trkpt><trkpt lat="42.13012885530274" lon="11.773127150326863"><ele>32.5</ele><time>2026-04-11T07:51:15Z</time></trkpt><trkpt lat="42.130244726552604" lon="11.773116873331112"><ele>33.25</ele><time>2026-04-11T07:51:16Z</time></trkpt><trkpt lat="42.13036156863668" lon="11.773104177382567"><ele>34.0</ele><time>2026-04-11T07:51:17Z</time></trkpt><trkpt lat="42.13046981603623" lon="11.773091578956775"><ele>33.99999999999999</ele><time>2026-04-11T07:51:18Z</time></trkpt><trkpt lat="42.13054838155661" lon="11.7730835955965"><ele>34.0</ele><time>2026-04-11T07:51:19Z</time></trkpt><trkpt lat="42.130622953459756" lon="11.773086371098689"><ele>34.0</ele><time>2026-04-11T07:51:20Z</time></trkpt><trkpt lat="42.13068722829063" lon="11.773114713323244"><ele>34.0</ele><time>2026-04-11T07:51:21Z</time></trkpt><trkpt lat="42.130751825204776" lon="11.77316491091084"><ele>34.0</ele><time>2026-04-11T07:51:22Z</time></trkpt><trkpt lat="42.13081606236555" lon="11.773237481654649"><ele>33.99999999999999</ele><time>2026-04-11T07:51:23Z</time></trkpt><trkpt lat="42.13084681723135" lon="11.773312936240826"><ele>34.0</ele><time>2026-04-11T07:51:24Z</time></trkpt><trkpt lat="42.13087889298285" lon="11.773436232417545"><ele>33.5</ele><time>2026-04-11T07:51:25Z</time></trkpt><trkpt lat="42.13090443419708" lon="11.773604158029089"><ele>33.0</ele><time>2026-04-11T07:51:26Z</time></trkpt><trkpt lat="42.13095819489991" lon="11.773773888135267"><ele>32.5</ele><time>2026-04-11T07:51:27Z</time></trkpt><trkpt lat="42.13102504691029" lon="11.77396413618275"><ele>32.0</ele><time>2026-04-11T07:51:28Z</time></trkpt><trkpt lat="42.13110981623494" lon="11.774135497255289"><ele>32.0</ele><time>2026-04-11T07:51:29Z</time></trkpt><trkpt lat="42.13120531576981" lon="11.774295747223814"><ele>32.0</ele><time>2026-04-11T07:51:30Z</time></trkpt><trkpt lat="42.131302235991264" lon="11.774465537599436"><ele>32.0</ele><time>2026-04-11T07:51:31Z</time></trkpt><trkpt lat="42.13138276290499" lon="11.774613033361907"><ele>32.0</ele><time>2026-04-11T07:51:32Z</time></trkpt><trkpt lat="42.13146904501468" lon="11.77475525771682"><ele>32.5</ele><time>2026-04-11T07:51:33Z</time></trkpt><trkpt lat="42.13154244953318" lon="11.77487001875617"><ele>33.0</ele><time>2026-04-11T07:51:34Z</time></trkpt><trkpt lat="42.131617475872865" lon="11.774990739303668"><ele>33.5</ele><time>2026-04-11T07:51:35Z</time></trkpt><trkpt lat="42.131695797020306" lon="11.775110128776035"><ele>34.0</ele><time>2026-04-11T07:51:36Z</time></trkpt><trkpt lat="42.13176485232572" lon="11.775231710587974"><ele>34.2</ele><time>2026-04-11T07:51:37Z</time></trkpt><trkpt lat="42.13183550312189" lon="11.775340731176968"><ele>34.4</ele><time>2026-04-11T07:51:38Z</time></trkpt><trkpt lat="42.13190545284079" lon="11.775450611550122"><ele>34.6</ele><time>2026-04-11T07:51:39Z</time></trkpt><trkpt lat="42.1319820669866" lon="11.775547720635293"><ele>34.8</ele><time>2026-04-11T07:51:40Z</time></trkpt><trkpt lat="42.132064057356864" lon="11.775649859794491"><ele>35.0</ele><time>2026-04-11T07:51:41Z</time></trkpt><trkpt lat="42.13214566262755" lon="11.775724008111919"><ele>35.0</ele><time>2026-04-11T07:51:42Z</time></trkpt><trkpt lat="42.13223690763388" lon="11.775780174503632"><ele>35.0</ele><time>2026-04-11T07:51:43Z</time></trkpt><trkpt lat="42.13236151278049" lon="11.77582140492445"><ele>35.0</ele><time>2026-04-11T07:51:44Z</time></trkpt><trkpt lat="42.132447906169084" lon="11.775824070960828"><ele>35.0</ele><time>2026-04-11T07:51:45Z</time></trkpt><trkpt lat="42.13253226059716" lon="11.775820921594605"><ele>35.0</ele><time>2026-04-11T07:51:46Z</time></trkpt><trkpt lat="42.13261993564243" lon="11.775805619672743"><ele>36.5</ele><time>2026-04-11T07:51:47Z</time></trkpt><trkpt lat="42.13272984933409" lon="11.775768068959769"><ele>38.0</ele><time>2026-04-11T07:51:48Z</time></trkpt><trkpt lat="42.13285175743322" lon="11.775737630617673"><ele>39.5</ele><time>2026-04-11T07:51:49Z</time></trkpt><trkpt lat="42.13298643790317" lon="11.775710330362548"><ele>41.0</ele><time>2026-04-11T07:51:50Z</time></trkpt><trkpt lat="42.13312501481613" lon="11.775692810377192"><ele>42.4</ele><time>2026-04-11T07:51:51Z</time></trkpt><trkpt lat="42.13326131341552" lon="11.7756884196762"><ele>43.8</ele><time>2026-04-11T07:51:52Z</time></trkpt><trkpt lat="42.133371395557724" lon="11.775695809093676"><ele>45.199999999999996</ele><time>2026-04-11T07:51:53Z</time></trkpt><trkpt lat="42.13347479682018" lon="11.775707795397524"><ele>46.599999999999994</ele><time>2026-04-11T07:51:54Z</time></trkpt><trkpt lat="42.13357067292936" lon="11.775726608377488"><ele>48.0</ele><time>2026-04-11T07:51:55Z</time></trkpt><trkpt lat="42.13364892664576" lon="11.775752021604704"><ele>47.99999999999999</ele><time>2026-04-11T07:51:56Z</time></trkpt><trkpt lat="42.133732261116734" lon="11.77577241549679"><ele>48.0</ele><time>2026-04-11T07:51:57Z</time></trkpt><trkpt lat="42.133807986381235" lon="11.775794533755004"><ele>48.0</ele><time>2026-04-11T07:51:58Z</time></trkpt><trkpt lat="42.13387721124703" lon="11.775791898318273"><ele>48.0</ele><time>2026-04-11T07:51:59Z</time></trkpt><trkpt lat="42.13394566598673" lon="11.775766718751326"><ele>48.0</ele><time>2026-04-11T07:52:00Z</time></trkpt><trkpt lat="42.134005795669324" lon="11.775713078964019"><ele>47.99999999999999</ele><time>2026-04-11T07:52:01Z</time></trkpt><trkpt lat="42.1340431575148" lon="11.77562957283772"><ele>48.0</ele><time>2026-04-11T07:52:02Z</time></trkpt><trkpt lat="42.134058203305116" lon="11.775540099322876"><ele>48.0</ele><time>2026-04-11T07:52:03Z</time></trkpt><trkpt lat="42.13405744399671" lon="11.775435156917052"><ele>48.0</ele><time>2026-04-11T07:52:04Z</time></trkpt><trkpt lat="42.13403926467511" lon="11.775334511956116"><ele>48.0</ele><time>2026-04-11T07:52:05Z</time></trkpt><trkpt lat="42.13398231385212" lon="11.775226497614742"><ele>48.0</ele><time>2026-04-11T07:52:06Z</time></trkpt><trkpt lat="42.133908991382356" lon="11.775105414085049"><ele>48.0</ele><time>2026-04-11T07:52:07Z</time></trkpt><trkpt lat="42.13384677197055" lon="11.774994703873833"><ele>48.0</ele><time>2026-04-11T07:52:08Z</time></trkpt><trkpt lat="42.133782265355116" lon="11.774883400967186"><ele>48.0</ele><time>2026-04-11T07:52:09Z</time></trkpt><trkpt lat="42.133714178466114" lon="11.774775793911028"><ele>48.0</ele><time>2026-04-11T07:52:10Z</time></trkpt><trkpt lat="42.133653884665215" lon="11.774669567463445"><ele>48.0</ele><time>2026-04-11T07:52:11Z</time></trkpt><trkpt lat="42.13358714036168" lon="11.77454257992139"><ele>48.0</ele><time>2026-04-11T07:52:12Z</time></trkpt><trkpt lat="42.13351675184386" lon="11.774419793772593"><ele>47.75</ele><time>2026-04-11T07:52:13Z</time></trkpt><trkpt lat="42.13344910229363" lon="11.77430721288667"><ele>47.5</ele><time>2026-04-11T07:52:14Z</time></trkpt><trkpt lat="42.133381899260975" lon="11.774192108300964"><ele>47.25</ele><time>2026-04-11T07:52:15Z</time></trkpt><trkpt lat="42.13330778133519" lon="11.774059219295177"><ele>47.0</ele><time>2026-04-11T07:52:16Z</time></trkpt><trkpt lat="42.13320531700111" lon="11.77392329504631"><ele>45.75</ele><time>2026-04-11T07:52:17Z</time></trkpt><trkpt lat="42.133111655651675" lon="11.773793105324547"><ele>44.5</ele><time>2026-04-11T07:52:18Z</time></trkpt><trkpt lat="42.13299998832446" lon="11.7736725953557"><ele>43.25</ele><time>2026-04-11T07:52:19Z</time></trkpt><trkpt lat="42.13287618311971" lon="11.77353661702794"><ele>42.0</ele><time>2026-04-11T07:52:20Z</time></trkpt><trkpt lat="42.132742744609054" lon="11.773425064362076"><ele>41.75</ele><time>2026-04-11T07:52:21Z</time></trkpt><trkpt lat="42.13264103181423" lon="11.773353003013932"><ele>41.5</ele><time>2026-04-11T07:52:22Z</time></trkpt><trkpt lat="42.13253349161718" lon="11.773265742248034"><ele>41.25</ele><time>2026-04-11T07:52:23Z</time></trkpt><trkpt lat="42.1324293227486" lon="11.773200040417306"><ele>41.0</ele><time>2026-04-11T07:52:24Z</time></trkpt><trkpt lat="42.132308189301156" lon="11.773129464447125"><ele>40.199999999999996</ele><time>2026-04-11T07:52:25Z</time></trkpt><trkpt lat="42.13219483842451" lon="11.773061899170935"><ele>39.4</ele><time>2026-04-11T07:52:26Z</time></trkpt><trkpt lat="42.13210971628507" lon="11.77301587780583"><ele>38.6</ele><time>2026-04-11T07:52:27Z</time></trkpt><trkpt lat="42.13200876714858" lon="11.772970834965184"><ele>37.8</ele><time>2026-04-11T07:52:28Z</time></trkpt><trkpt lat="42.13190746651808" lon="11.77292986565521"><ele>37.0</ele><time>2026-04-11T07:52:29Z</time></trkpt><trkpt lat="42.131818000840745" lon="11.772900891997638"><ele>37.0</ele><time>2026-04-11T07:52:30Z</time></trkpt><trkpt lat="42.13172291959263" lon="11.772856204310477"><ele>37.0</ele><time>2026-04-11T07:52:31Z</time></trkpt><trkpt lat="42.13163601360348" lon="11.772820426637113"><ele>37.0</ele><time>2026-04-11T07:52:32Z</time></trkpt><trkpt lat="42.1315250690987" lon="11.772825224093017"><ele>37.0</ele><time>2026-04-11T07:52:34Z</time></trkpt><trkpt lat="42.13145213874243" lon="11.77279488409923"><ele>37.0</ele><time>2026-04-11T07:52:36Z</time></trkpt><trkpt lat="42.13145386754288" lon="11.7725903947132"><ele>36.75</ele><time>2026-04-11T07:52:38Z</time></trkpt><trkpt lat="42.131503650854356" lon="11.772489001911179"><ele>36.5</ele><time>2026-04-11T07:52:39Z</time></trkpt><trkpt lat="42.13158710372276" lon="11.772379351961915"><ele>36.25</ele><time>2026-04-11T07:52:40Z</time></trkpt><trkpt lat="42.131676740702666" lon="11.77225561003525"><ele>36.0</ele><time>2026-04-11T07:52:41Z</time></trkpt><trkpt lat="42.13180205323302" lon="11.772173447621551"><ele>37.0</ele><time>2026-04-11T07:52:42Z</time></trkpt><trkpt lat="42.131928090465586" lon="11.772066783112232"><ele>38.0</ele><time>2026-04-11T07:52:43Z</time></trkpt><trkpt lat="42.13207612510411" lon="11.771949365240703"><ele>39.0</ele><time>2026-04-11T07:52:44Z</time></trkpt><trkpt lat="42.13222940263418" lon="11.77182208172605"><ele>40.333333333333336</ele><time>2026-04-11T07:52:45Z</time></trkpt><trkpt lat="42.13239622047311" lon="11.77171951842414"><ele>41.66666666666667</ele><time>2026-04-11T07:52:46Z</time></trkpt><trkpt lat="42.13255772394205" lon="11.771605844237365"><ele>43.0</ele><time>2026-04-11T07:52:47Z</time></trkpt><trkpt lat="42.13273056889019" lon="11.771484039504186"><ele>43.0</ele><time>2026-04-11T07:52:48Z</time></trkpt><trkpt lat="42.13291995704963" lon="11.77135058754423"><ele>43.0</ele><time>2026-04-11T07:52:49Z</time></trkpt><trkpt lat="42.133069954429025" lon="11.771244892020306"><ele>43.0</ele><time>2026-04-11T07:52:50Z</time></trkpt><trkpt lat="42.13323654567459" lon="11.771123988559504"><ele>42.66666666666667</ele><time>2026-04-11T07:52:51Z</time></trkpt><trkpt lat="42.13338771636696" lon="11.77101472574435"><ele>42.333333333333336</ele><time>2026-04-11T07:52:52Z</time></trkpt><trkpt lat="42.13353422832286" lon="11.770911657220399"><ele>42.0</ele><time>2026-04-11T07:52:53Z</time></trkpt><trkpt lat="42.13369191180271" lon="11.77080119894328"><ele>42.0</ele><time>2026-04-11T07:52:54Z</time></trkpt><trkpt lat="42.1338219296767" lon="11.770710120613606"><ele>42.0</ele><time>2026-04-11T07:52:55Z</time></trkpt><trkpt lat="42.133970772787805" lon="11.770605855297884"><ele>42.0</ele><time>2026-04-11T07:52:56Z</time></trkpt><trkpt lat="42.134124917221605" lon="11.770497178444753"><ele>42.333333333333336</ele><time>2026-04-11T07:52:57Z</time></trkpt><trkpt lat="42.13427799487014" lon="11.770388929575454"><ele>42.66666666666667</ele><time>2026-04-11T07:52:58Z</time></trkpt><trkpt lat="42.13444776974132" lon="11.770268873165135"><ele>43.0</ele><time>2026-04-11T07:52:59Z</time></trkpt><trkpt lat="42.13460037055329" lon="11.770161693015456"><ele>42.66666666666667</ele><time>2026-04-11T07:53:00Z</time></trkpt><trkpt lat="42.13475855320306" lon="11.770050866266251"><ele>42.333333333333336</ele><time>2026-04-11T07:53:01Z</time></trkpt><trkpt lat="42.134908413608066" lon="11.769945120711629"><ele>42.0</ele><time>2026-04-11T07:53:02Z</time></trkpt><trkpt lat="42.13506020838012" lon="11.76983817652022"><ele>42.0</ele><time>2026-04-11T07:53:03Z</time></trkpt><trkpt lat="42.13521025511074" lon="11.769732463754352"><ele>42.0</ele><time>2026-04-11T07:53:04Z</time></trkpt><trkpt lat="42.1353873763416" lon="11.769607653014527"><ele>42.0</ele><time>2026-04-11T07:53:05Z</time></trkpt><trkpt lat="42.1355581809021" lon="11.769486473233988"><ele>42.0</ele><time>2026-04-11T07:53:06Z</time></trkpt><trkpt lat="42.1357367393588" lon="11.76936041302533"><ele>42.0</ele><time>2026-04-11T07:53:07Z</time></trkpt><trkpt lat="42.135892186065846" lon="11.769231625567224"><ele>42.0</ele><time>2026-04-11T07:53:08Z</time></trkpt><trkpt lat="42.13604291116033" lon="11.769123799650178"><ele>42.0</ele><time>2026-04-11T07:53:09Z</time></trkpt><trkpt lat="42.13621356487149" lon="11.769007611380701"><ele>42.0</ele><time>2026-04-11T07:53:10Z</time></trkpt><trkpt lat="42.136365323267434" lon="11.768921009005352"><ele>42.0</ele><time>2026-04-11T07:53:11Z</time></trkpt><trkpt lat="42.13649193787997" lon="11.768809532223171"><ele>42.0</ele><time>2026-04-11T07:53:12Z</time></trkpt><trkpt lat="42.13667968737401" lon="11.768694278546219"><ele>42.0</ele><time>2026-04-11T07:53:13Z</time></trkpt><trkpt lat="42.13683955407467" lon="11.768585198164844"><ele>42.0</ele><time>2026-04-11T07:53:14Z</time></trkpt><trkpt lat="42.137015577435335" lon="11.76846608199502"><ele>41.666666666666664</ele><time>2026-04-11T07:53:15Z</time></trkpt><trkpt lat="42.137179591060786" lon="11.768353389516378"><ele>41.33333333333333</ele><time>2026-04-11T07:53:16Z</time></trkpt><trkpt lat="42.13736151638345" lon="11.768233595171113"><ele>41.0</ele><time>2026-04-11T07:53:17Z</time></trkpt><trkpt lat="42.13752923232068" lon="11.768117797207518"><ele>40.0</ele><time>2026-04-11T07:53:18Z</time></trkpt><trkpt lat="42.13768663429308" lon="11.768003303792561"><ele>39.0</ele><time>2026-04-11T07:53:19Z</time></trkpt><trkpt lat="42.13785317419354" lon="11.767912809224896"><ele>38.0</ele><time>2026-04-11T07:53:20Z</time></trkpt><trkpt lat="42.137984590406234" lon="11.767818301798952"><ele>38.0</ele><time>2026-04-11T07:53:21Z</time></trkpt><trkpt lat="42.138122836394004" lon="11.7677073566687"><ele>38.0</ele><time>2026-04-11T07:53:22Z</time></trkpt><trkpt lat="42.138282602665626" lon="11.767590420205693"><ele>38.0</ele><time>2026-04-11T07:53:23Z</time></trkpt><trkpt lat="42.138432917472215" lon="11.767469196196265"><ele>38.666666666666664</ele><time>2026-04-11T07:53:24Z</time></trkpt><trkpt lat="42.138588957323186" lon="11.76736322053275"><ele>39.333333333333336</ele><time>2026-04-11T07:53:25Z</time></trkpt><trkpt lat="42.138744656051294" lon="11.767249257252203"><ele>40.0</ele><time>2026-04-11T07:53:26Z</time></trkpt><trkpt lat="42.138898719526054" lon="11.767125624514277"><ele>40.333333333333336</ele><time>2026-04-11T07:53:27Z</time></trkpt><trkpt lat="42.139067400862714" lon="11.766998732882126"><ele>40.666666666666664</ele><time>2026-04-11T07:53:28Z</time></trkpt><trkpt lat="42.139237863817506" lon="11.766895689470445"><ele>41.0</ele><time>2026-04-11T07:53:29Z</time></trkpt><trkpt lat="42.13938734733234" lon="11.766790564108126"><ele>41.33333333333333</ele><time>2026-04-11T07:53:30Z</time></trkpt><trkpt lat="42.13954684797261" lon="11.766678394374239"><ele>41.666666666666664</ele><time>2026-04-11T07:53:31Z</time></trkpt><trkpt lat="42.13967936530757" lon="11.766585199280515"><ele>42.0</ele><time>2026-04-11T07:53:32Z</time></trkpt><trkpt lat="42.13981843736512" lon="11.7664880962794"><ele>41.333333333333336</ele><time>2026-04-11T07:53:33Z</time></trkpt><trkpt lat="42.139941009946504" lon="11.766401640554317"><ele>40.66666666666667</ele><time>2026-04-11T07:53:34Z</time></trkpt><trkpt lat="42.14007616401047" lon="11.76630636999942"><ele>40.0</ele><time>2026-04-11T07:53:35Z</time></trkpt><trkpt lat="42.140261479825604" lon="11.76617550792867"><ele>40.0</ele><time>2026-04-11T07:53:36Z</time></trkpt><trkpt lat="42.14042009957153" lon="11.766063104286552"><ele>40.0</ele><time>2026-04-11T07:53:37Z</time></trkpt><trkpt lat="42.14056069492908" lon="11.765940186237856"><ele>40.0</ele><time>2026-04-11T07:53:38Z</time></trkpt><trkpt lat="42.14071847971171" lon="11.765860570299296"><ele>40.333333333333336</ele><time>2026-04-11T07:53:39Z</time></trkpt><trkpt lat="42.14087237926891" lon="11.765782225483212"><ele>40.666666666666664</ele><time>2026-04-11T07:53:40Z</time></trkpt><trkpt lat="42.141023161947956" lon="11.765699269777999"><ele>41.0</ele><time>2026-04-11T07:53:41Z</time></trkpt><trkpt lat="42.141182810020865" lon="11.765600359988056"><ele>41.0</ele><time>2026-04-11T07:53:42Z</time></trkpt><trkpt lat="42.141330297825554" lon="11.76552047112116"><ele>41.0</ele><time>2026-04-11T07:53:43Z</time></trkpt><trkpt lat="42.14147003957836" lon="11.765420476395937"><ele>41.0</ele><time>2026-04-11T07:53:44Z</time></trkpt><trkpt lat="42.141613717841196" lon="11.76531633547813"><ele>40.666666666666664</ele><time>2026-04-11T07:53:45Z</time></trkpt><trkpt lat="42.141757515607665" lon="11.765217708892457"><ele>40.333333333333336</ele><time>2026-04-11T07:53:46Z</time></trkpt><trkpt lat="42.14186200204969" lon="11.76507526786591"><ele>40.0</ele><time>2026-04-11T07:53:47Z</time></trkpt><trkpt lat="42.14198809094083" lon="11.764986463057191"><ele>40.0</ele><time>2026-04-11T07:53:48Z</time></trkpt><trkpt lat="42.14212763341395" lon="11.764902085622529"><ele>40.0</ele><time>2026-04-11T07:53:49Z</time></trkpt><trkpt lat="42.14224610919202" lon="11.764791824330857"><ele>40.0</ele><time>2026-04-11T07:53:50Z</time></trkpt><trkpt lat="42.142364852547814" lon="11.764700677022768"><ele>40.0</ele><time>2026-04-11T07:53:51Z</time></trkpt><trkpt lat="42.14249405607783" lon="11.76461737221198"><ele>40.0</ele><time>2026-04-11T07:53:52Z</time></trkpt><trkpt lat="42.142608881687224" lon="11.764524147486318"><ele>40.0</ele><time>2026-04-11T07:53:53Z</time></trkpt><trkpt lat="42.14274056165756" lon="11.764431584110199"><ele>40.0</ele><time>2026-04-11T07:53:54Z</time></trkpt><trkpt lat="42.14286620947164" lon="11.764342023592578"><ele>40.0</ele><time>2026-04-11T07:53:55Z</time></trkpt><trkpt lat="42.142994492366846" lon="11.764247014864036"><ele>39.75</ele><time>2026-04-11T07:53:56Z</time></trkpt><trkpt lat="42.143120722690526" lon="11.764156061203543"><ele>39.5</ele><time>2026-04-11T07:53:57Z</time></trkpt><trkpt lat="42.14325724164816" lon="11.764061836268993"><ele>39.25</ele><time>2026-04-11T07:53:58Z</time></trkpt><trkpt lat="42.14338850732093" lon="11.763955913444187"><ele>39.0</ele><time>2026-04-11T07:53:59Z</time></trkpt><trkpt lat="42.14352353133416" lon="11.763878947068507"><ele>38.5</ele><time>2026-04-11T07:54:00Z</time></trkpt><trkpt lat="42.143644346667095" lon="11.763782090737013"><ele>38.0</ele><time>2026-04-11T07:54:01Z</time></trkpt><trkpt lat="42.14377278369152" lon="11.763684726562866"><ele>37.5</ele><time>2026-04-11T07:54:02Z</time></trkpt><trkpt lat="42.143894192716886" lon="11.763589229791142"><ele>37.0</ele><time>2026-04-11T07:54:03Z</time></trkpt><trkpt lat="42.14401840644448" lon="11.763525480267168"><ele>37.0</ele><time>2026-04-11T07:54:04Z</time></trkpt><trkpt lat="42.144149888329714" lon="11.763432678577976"><ele>37.0</ele><time>2026-04-11T07:54:05Z</time></trkpt><trkpt lat="42.14427789575927" lon="11.763343037839139"><ele>37.0</ele><time>2026-04-11T07:54:06Z</time></trkpt><trkpt lat="42.14438413906318" lon="11.763268637982746"><ele>37.0</ele><time>2026-04-11T07:54:07Z</time></trkpt><trkpt lat="42.14448870526221" lon="11.763195412640226"><ele>37.0</ele><time>2026-04-11T07:54:08Z</time></trkpt><trkpt lat="42.14460891397012" lon="11.763110401117626"><ele>37.0</ele><time>2026-04-11T07:54:09Z</time></trkpt><trkpt lat="42.14470475726484" lon="11.763017864249788"><ele>37.0</ele><time>2026-04-11T07:54:10Z</time></trkpt><trkpt lat="42.14483009754363" lon="11.76295763265392"><ele>37.0</ele><time>2026-04-11T07:54:11Z</time></trkpt><trkpt lat="42.14495098964572" lon="11.762879955509613"><ele>37.25</ele><time>2026-04-11T07:54:12Z</time></trkpt><trkpt lat="42.14505788782555" lon="11.76281350717856"><ele>37.5</ele><time>2026-04-11T07:54:13Z</time></trkpt><trkpt lat="42.145175804324616" lon="11.762742205547212"><ele>37.75</ele><time>2026-04-11T07:54:14Z</time></trkpt><trkpt lat="42.145313974303505" lon="11.762646899203844"><ele>38.0</ele><time>2026-04-11T07:54:15Z</time></trkpt><trkpt lat="42.14542421675432" lon="11.762548023379697"><ele>38.0</ele><time>2026-04-11T07:54:16Z</time></trkpt><trkpt lat="42.145530801833566" lon="11.76246820047348"><ele>38.0</ele><time>2026-04-11T07:54:17Z</time></trkpt><trkpt lat="42.145652650604994" lon="11.762385334190618"><ele>38.0</ele><time>2026-04-11T07:54:18Z</time></trkpt><trkpt lat="42.14575506353349" lon="11.762317246136572"><ele>38.0</ele><time>2026-04-11T07:54:19Z</time></trkpt><trkpt lat="42.145863798992444" lon="11.76223480212483"><ele>37.25</ele><time>2026-04-11T07:54:20Z</time></trkpt><trkpt lat="42.14596889840864" lon="11.762139628450681"><ele>36.5</ele><time>2026-04-11T07:54:21Z</time></trkpt><trkpt lat="42.14608504091779" lon="11.762056223632346"><ele>35.75</ele><time>2026-04-11T07:54:22Z</time></trkpt><trkpt lat="42.14620356773058" lon="11.761973382455546"><ele>35.0</ele><time>2026-04-11T07:54:23Z</time></trkpt><trkpt lat="42.146344827241506" lon="11.761871780066222"><ele>35.0</ele><time>2026-04-11T07:54:24Z</time></trkpt><trkpt lat="42.14651256105939" lon="11.761770181039694"><ele>35.0</ele><time>2026-04-11T07:54:25Z</time></trkpt><trkpt lat="42.14667877967276" lon="11.761632440172637"><ele>35.0</ele><time>2026-04-11T07:54:26Z</time></trkpt><trkpt lat="42.146833252225136" lon="11.7615259585824"><ele>34.33333333333333</ele><time>2026-04-11T07:54:27Z</time></trkpt><trkpt lat="42.1470060152552" lon="11.761421939762705"><ele>33.666666666666664</ele><time>2026-04-11T07:54:28Z</time></trkpt><trkpt lat="42.14716403557453" lon="11.761311576727381"><ele>33.0</ele><time>2026-04-11T07:54:29Z</time></trkpt><trkpt lat="42.147300444851425" lon="11.761216146937924"><ele>33.0</ele><time>2026-04-11T07:54:30Z</time></trkpt><trkpt lat="42.14744918170059" lon="11.76111031947722"><ele>33.0</ele><time>2026-04-11T07:54:31Z</time></trkpt><trkpt lat="42.14758844456064" lon="11.761010652548455"><ele>33.0</ele><time>2026-04-11T07:54:32Z</time></trkpt><trkpt lat="42.1477566073841" lon="11.760890302660957"><ele>32.666666666666664</ele><time>2026-04-11T07:54:33Z</time></trkpt><trkpt lat="42.147903119362915" lon="11.760787326243832"><ele>32.33333333333333</ele><time>2026-04-11T07:54:34Z</time></trkpt><trkpt lat="42.1480629901178" lon="11.760675018952403"><ele>32.0</ele><time>2026-04-11T07:54:35Z</time></trkpt><trkpt lat="42.1482024022468" lon="11.76057708511906"><ele>32.33333333333333</ele><time>2026-04-11T07:54:36Z</time></trkpt><trkpt lat="42.14834196026229" lon="11.760479047175334"><ele>32.666666666666664</ele><time>2026-04-11T07:54:37Z</time></trkpt><trkpt lat="42.14848865313899" lon="11.760375997105038"><ele>33.0</ele><time>2026-04-11T07:54:38Z</time></trkpt><trkpt lat="42.14862222875379" lon="11.760282161998619"><ele>33.0</ele><time>2026-04-11T07:54:39Z</time></trkpt><trkpt lat="42.148755873207826" lon="11.760188232026277"><ele>33.0</ele><time>2026-04-11T07:54:40Z</time></trkpt><trkpt lat="42.148889084599034" lon="11.760094493131922"><ele>33.0</ele><time>2026-04-11T07:54:41Z</time></trkpt><trkpt lat="42.14901576320569" lon="11.760005351143969"><ele>33.0</ele><time>2026-04-11T07:54:42Z</time></trkpt><trkpt lat="42.149138149773066" lon="11.759919229103852"><ele>33.666666666666664</ele><time>2026-04-11T07:54:43Z</time></trkpt><trkpt lat="42.14927641251924" lon="11.759820887336206"><ele>34.33333333333333</ele><time>2026-04-11T07:54:44Z</time></trkpt><trkpt lat="42.14942531813467" lon="11.759715217081592"><ele>35.0</ele><time>2026-04-11T07:54:45Z</time></trkpt><trkpt lat="42.149574768895235" lon="11.759609159933058"><ele>35.0</ele><time>2026-04-11T07:54:46Z</time></trkpt><trkpt lat="42.14972081003674" lon="11.759505625705152"><ele>35.0</ele><time>2026-04-11T07:54:47Z</time></trkpt><trkpt lat="42.1498500830833" lon="11.759393225529344"><ele>35.0</ele><time>2026-04-11T07:54:48Z</time></trkpt><trkpt lat="42.149993144541774" lon="11.759313429748056"><ele>34.5</ele><time>2026-04-11T07:54:49Z</time></trkpt><trkpt lat="42.15013426811553" lon="11.759241796723451"><ele>34.0</ele><time>2026-04-11T07:54:50Z</time></trkpt><trkpt lat="42.15026673806284" lon="11.759154114612347"><ele>33.5</ele><time>2026-04-11T07:54:51Z</time></trkpt><trkpt lat="42.15039652274323" lon="11.759059752913029"><ele>33.0</ele><time>2026-04-11T07:54:52Z</time></trkpt><trkpt lat="42.15052730480549" lon="11.758978090732093"><ele>33.0</ele><time>2026-04-11T07:54:53Z</time></trkpt><trkpt lat="42.15065614629632" lon="11.758877039226837"><ele>33.0</ele><time>2026-04-11T07:54:54Z</time></trkpt><trkpt lat="42.15079495834447" lon="11.758780493778952"><ele>33.0</ele><time>2026-04-11T07:54:55Z</time></trkpt><trkpt lat="42.15093442299148" lon="11.758684369330695"><ele>33.0</ele><time>2026-04-11T07:54:56Z</time></trkpt><trkpt lat="42.15106813743638" lon="11.758589151725898"><ele>33.0</ele><time>2026-04-11T07:54:57Z</time></trkpt><trkpt lat="42.151180500848994" lon="11.758510025985021"><ele>33.0</ele><time>2026-04-11T07:54:58Z</time></trkpt><trkpt lat="42.15130953554599" lon="11.758419160263367"><ele>33.0</ele><time>2026-04-11T07:54:59Z</time></trkpt><trkpt lat="42.15142793222453" lon="11.75833607524695"><ele>32.666666666666664</ele><time>2026-04-11T07:55:00Z</time></trkpt><trkpt lat="42.15156313237126" lon="11.758241285528763"><ele>32.33333333333333</ele><time>2026-04-11T07:55:01Z</time></trkpt><trkpt lat="42.151700650664694" lon="11.75814487045445"><ele>32.0</ele><time>2026-04-11T07:55:02Z</time></trkpt><trkpt lat="42.151839146485386" lon="11.758047770004252"><ele>32.0</ele><time>2026-04-11T07:55:03Z</time></trkpt><trkpt lat="42.15197292612118" lon="11.757953976109643"><ele>32.0</ele><time>2026-04-11T07:55:04Z</time></trkpt><trkpt lat="42.15211050397838" lon="11.757856097988595"><ele>32.0</ele><time>2026-04-11T07:55:05Z</time></trkpt><trkpt lat="42.152262304729405" lon="11.757765125221374"><ele>31.75</ele><time>2026-04-11T07:55:06Z</time></trkpt><trkpt lat="42.152381436274155" lon="11.757665947039916"><ele>31.5</ele><time>2026-04-11T07:55:07Z</time></trkpt><trkpt lat="42.15251115631817" lon="11.757567702471102"><ele>31.25</ele><time>2026-04-11T07:55:08Z</time></trkpt><trkpt lat="42.15262184569399" lon="11.757463075073646"><ele>31.0</ele><time>2026-04-11T07:55:09Z</time></trkpt><trkpt lat="42.15274023519442" lon="11.75736705706329"><ele>31.0</ele><time>2026-04-11T07:55:10Z</time></trkpt><trkpt lat="42.152869232963496" lon="11.75727914490261"><ele>31.0</ele><time>2026-04-11T07:55:11Z</time></trkpt><trkpt lat="42.15299968883805" lon="11.75719017348646"><ele>31.0</ele><time>2026-04-11T07:55:12Z</time></trkpt><trkpt lat="42.153108262607226" lon="11.757090581159167"><ele>31.0</ele><time>2026-04-11T07:55:13Z</time></trkpt><trkpt lat="42.15321904484086" lon="11.757024078898956"><ele>30.5</ele><time>2026-04-11T07:55:14Z</time></trkpt><trkpt lat="42.153304391243275" lon="11.756942268669839"><ele>30.0</ele><time>2026-04-11T07:55:15Z</time></trkpt><trkpt lat="42.15338438992748" lon="11.756823030833743"><ele>29.5</ele><time>2026-04-11T07:55:16Z</time></trkpt><trkpt lat="42.15345469795813" lon="11.756696314475406"><ele>29.0</ele><time>2026-04-11T07:55:17Z</time></trkpt><trkpt lat="42.15353227497963" lon="11.756563906523246"><ele>29.0</ele><time>2026-04-11T07:55:18Z</time></trkpt><trkpt lat="42.15359675933165" lon="11.75645485805595"><ele>29.0</ele><time>2026-04-11T07:55:19Z</time></trkpt><trkpt lat="42.153651712263574" lon="11.756334231090646"><ele>29.0</ele><time>2026-04-11T07:55:20Z</time></trkpt><trkpt lat="42.1537033732212" lon="11.756230515645237"><ele>29.0</ele><time>2026-04-11T07:55:21Z</time></trkpt><trkpt lat="42.153760789233814" lon="11.756138587749549"><ele>29.0</ele><time>2026-04-11T07:55:22Z</time></trkpt><trkpt lat="42.15383089268906" lon="11.75606539368921"><ele>28.166666666666664</ele><time>2026-04-11T07:55:23Z</time></trkpt><trkpt lat="42.15387476059396" lon="11.755974314208688"><ele>27.333333333333332</ele><time>2026-04-11T07:55:24Z</time></trkpt><trkpt lat="42.15392612772602" lon="11.755869890616454"><ele>26.5</ele><time>2026-04-11T07:55:25Z</time></trkpt><trkpt lat="42.15397755387809" lon="11.755784152116098"><ele>25.666666666666664</ele><time>2026-04-11T07:55:26Z</time></trkpt><trkpt lat="42.154026999822236" lon="11.755721589149099"><ele>24.833333333333332</ele><time>2026-04-11T07:55:27Z</time></trkpt><trkpt lat="42.15409273355075" lon="11.755677833882482"><ele>24.0</ele><time>2026-04-11T07:55:28Z</time></trkpt><trkpt lat="42.15416487637163" lon="11.755629219853985"><ele>24.0</ele><time>2026-04-11T07:55:29Z</time></trkpt><trkpt lat="42.154242449621584" lon="11.755591450571597"><ele>24.0</ele><time>2026-04-11T07:55:30Z</time></trkpt><trkpt lat="42.154320780066044" lon="11.755572331715634"><ele>24.0</ele><time>2026-04-11T07:55:31Z</time></trkpt><trkpt lat="42.154410886419186" lon="11.755566375580115"><ele>24.0</ele><time>2026-04-11T07:55:32Z</time></trkpt><trkpt lat="42.15449742341042" lon="11.755566500795819"><ele>24.0</ele><time>2026-04-11T07:55:33Z</time></trkpt><trkpt lat="42.15458470812569" lon="11.755605226848946"><ele>24.0</ele><time>2026-04-11T07:55:34Z</time></trkpt><trkpt lat="42.154660160181194" lon="11.755688778877722"><ele>24.0</ele><time>2026-04-11T07:55:35Z</time></trkpt><trkpt lat="42.15474273976524" lon="11.755784933668"><ele>24.0</ele><time>2026-04-11T07:55:36Z</time></trkpt><trkpt lat="42.15483023645576" lon="11.755891019105997"><ele>24.0</ele><time>2026-04-11T07:55:37Z</time></trkpt><trkpt lat="42.15491694068229" lon="11.755992757360115"><ele>24.0</ele><time>2026-04-11T07:55:38Z</time></trkpt><trkpt lat="42.155004984938266" lon="11.756096067856342"><ele>23.75</ele><time>2026-04-11T07:55:39Z</time></trkpt><trkpt lat="42.15511086747929" lon="11.756220309741943"><ele>23.5</ele><time>2026-04-11T07:55:40Z</time></trkpt><trkpt lat="42.155213461402724" lon="11.756313390365937"><ele>23.25</ele><time>2026-04-11T07:55:41Z</time></trkpt><trkpt lat="42.15529078295583" lon="11.756427011380893"><ele>23.0</ele><time>2026-04-11T07:55:42Z</time></trkpt><trkpt lat="42.15536686768176" lon="11.756524189708864"><ele>23.0</ele><time>2026-04-11T07:55:43Z</time></trkpt><trkpt lat="42.155448208095585" lon="11.756620679862351"><ele>23.0</ele><time>2026-04-11T07:55:44Z</time></trkpt><trkpt lat="42.155548518554006" lon="11.75672976641658"><ele>23.0</ele><time>2026-04-11T07:55:45Z</time></trkpt><trkpt lat="42.15565592300751" lon="11.75685554173747"><ele>23.0</ele><time>2026-04-11T07:55:46Z</time></trkpt><trkpt lat="42.155792671411085" lon="11.757020807662173"><ele>23.0</ele><time>2026-04-11T07:55:47Z</time></trkpt><trkpt lat="42.15595053048662" lon="11.757196030977804"><ele>23.0</ele><time>2026-04-11T07:55:48Z</time></trkpt><trkpt lat="42.15609084434338" lon="11.757354007183679"><ele>23.0</ele><time>2026-04-11T07:55:49Z</time></trkpt><trkpt lat="42.15624342742163" lon="11.757536060675358"><ele>23.0</ele><time>2026-04-11T07:55:50Z</time></trkpt><trkpt lat="42.1563686851954" lon="11.757701761418138"><ele>23.0</ele><time>2026-04-11T07:55:51Z</time></trkpt><trkpt lat="42.156500741711774" lon="11.757841258851318"><ele>23.0</ele><time>2026-04-11T07:55:52Z</time></trkpt><trkpt lat="42.156638777751624" lon="11.757997393914136"><ele>22.666666666666668</ele><time>2026-04-11T07:55:53Z</time></trkpt><trkpt lat="42.15677931604013" lon="11.758156907340831"><ele>22.333333333333332</ele><time>2026-04-11T07:55:54Z</time></trkpt><trkpt lat="42.15692216222799" lon="11.758311178599989"><ele>22.0</ele><time>2026-04-11T07:55:55Z</time></trkpt><trkpt lat="42.157057044941865" lon="11.75845902102875"><ele>21.333333333333332</ele><time>2026-04-11T07:55:56Z</time></trkpt><trkpt lat="42.157193905309256" lon="11.758589520839786"><ele>20.666666666666668</ele><time>2026-04-11T07:55:57Z</time></trkpt><trkpt lat="42.15732944881098" lon="11.758729755155525"><ele>20.0</ele><time>2026-04-11T07:55:58Z</time></trkpt><trkpt lat="42.15745979010865" lon="11.758881766644638"><ele>20.0</ele><time>2026-04-11T07:55:59Z</time></trkpt><trkpt lat="42.15759537585536" lon="11.759017681538742"><ele>20.0</ele><time>2026-04-11T07:56:00Z</time></trkpt><trkpt lat="42.1577237749907" lon="11.759156301794754"><ele>20.0</ele><time>2026-04-11T07:56:01Z</time></trkpt><trkpt lat="42.157853174657106" lon="11.759301208040458"><ele>19.666666666666668</ele><time>2026-04-11T07:56:02Z</time></trkpt><trkpt lat="42.157978370722226" lon="11.759446899702784"><ele>19.333333333333332</ele><time>2026-04-11T07:56:03Z</time></trkpt><trkpt lat="42.15811550982871" lon="11.759566595874539"><ele>19.0</ele><time>2026-04-11T07:56:04Z</time></trkpt><trkpt lat="42.1582461370489" lon="11.759709183350443"><ele>19.0</ele><time>2026-04-11T07:56:05Z</time></trkpt><trkpt lat="42.15837513407463" lon="11.759854292896538"><ele>19.0</ele><time>2026-04-11T07:56:06Z</time></trkpt><trkpt lat="42.158509285447735" lon="11.760000809908638"><ele>19.0</ele><time>2026-04-11T07:56:07Z</time></trkpt><trkpt lat="42.15864391003314" lon="11.760135159273364"><ele>18.666666666666664</ele><time>2026-04-11T07:56:08Z</time></trkpt><trkpt lat="42.15877728424365" lon="11.76027767921771"><ele>18.333333333333332</ele><time>2026-04-11T07:56:09Z</time></trkpt><trkpt lat="42.15891369195185" lon="11.760415754118704"><ele>18.0</ele><time>2026-04-11T07:56:10Z</time></trkpt><trkpt lat="42.15902859366403" lon="11.760566673856038"><ele>18.0</ele><time>2026-04-11T07:56:11Z</time></trkpt><trkpt lat="42.159160736093774" lon="11.76071093996381"><ele>18.0</ele><time>2026-04-11T07:56:12Z</time></trkpt><trkpt lat="42.1592872549401" lon="11.760847554133118"><ele>18.0</ele><time>2026-04-11T07:56:13Z</time></trkpt><trkpt lat="42.159418699938335" lon="11.760985839426406"><ele>18.333333333333332</ele><time>2026-04-11T07:56:14Z</time></trkpt><trkpt lat="42.159546884845284" lon="11.761119227991005"><ele>18.666666666666664</ele><time>2026-04-11T07:56:15Z</time></trkpt><trkpt lat="42.159668119496" lon="11.761243895195031"><ele>19.0</ele><time>2026-04-11T07:56:16Z</time></trkpt><trkpt lat="42.15978304923402" lon="11.761361899519656"><ele>18.75</ele><time>2026-04-11T07:56:17Z</time></trkpt><trkpt lat="42.15990847811023" lon="11.76149033479386"><ele>18.5</ele><time>2026-04-11T07:56:18Z</time></trkpt><trkpt lat="42.160026584348884" lon="11.761610423301388"><ele>18.25</ele><time>2026-04-11T07:56:19Z</time></trkpt><trkpt lat="42.16014131639095" lon="11.761723521716782"><ele>18.0</ele><time>2026-04-11T07:56:20Z</time></trkpt><trkpt lat="42.16025990732312" lon="11.761839479861651"><ele>16.666666666666668</ele><time>2026-04-11T07:56:21Z</time></trkpt><trkpt lat="42.160389132278844" lon="11.761962319637794"><ele>15.333333333333334</ele><time>2026-04-11T07:56:22Z</time></trkpt><trkpt lat="42.1605209398165" lon="11.762087614883201"><ele>14.0</ele><time>2026-04-11T07:56:23Z</time></trkpt><trkpt lat="42.16064842904937" lon="11.762208966618832"><ele>13.0</ele><time>2026-04-11T07:56:24Z</time></trkpt><trkpt lat="42.160785790407516" lon="11.762322886782325"><ele>12.0</ele><time>2026-04-11T07:56:25Z</time></trkpt><trkpt lat="42.16090688802333" lon="11.762455196935246"><ele>11.0</ele><time>2026-04-11T07:56:26Z</time></trkpt><trkpt lat="42.1610287091103" lon="11.762555564166675"><ele>11.0</ele><time>2026-04-11T07:56:27Z</time></trkpt><trkpt lat="42.16113194655002" lon="11.76267086773482"><ele>11.0</ele><time>2026-04-11T07:56:28Z</time></trkpt><trkpt lat="42.161248138007444" lon="11.762782409816738"><ele>11.0</ele><time>2026-04-11T07:56:29Z</time></trkpt><trkpt lat="42.16136544647864" lon="11.762866046342529"><ele>11.0</ele><time>2026-04-11T07:56:30Z</time></trkpt><trkpt lat="42.16146801691168" lon="11.762964912775297"><ele>11.25</ele><time>2026-04-11T07:56:31Z</time></trkpt><trkpt lat="42.16155749480363" lon="11.763070258940086"><ele>11.5</ele><time>2026-04-11T07:56:32Z</time></trkpt><trkpt lat="42.161659629500065" lon="11.763166643888887"><ele>11.75</ele><time>2026-04-11T07:56:33Z</time></trkpt><trkpt lat="42.16175257933589" lon="11.763255490433636"><ele>12.0</ele><time>2026-04-11T07:56:34Z</time></trkpt><trkpt lat="42.16185326621101" lon="11.763357873495666"><ele>12.0</ele><time>2026-04-11T07:56:35Z</time></trkpt><trkpt lat="42.1619565547846" lon="11.76346593715607"><ele>12.0</ele><time>2026-04-11T07:56:36Z</time></trkpt><trkpt lat="42.162067258735846" lon="11.763577232051256"><ele>12.0</ele><time>2026-04-11T07:56:37Z</time></trkpt><trkpt lat="42.1621805572498" lon="11.76368471457514"><ele>12.0</ele><time>2026-04-11T07:56:38Z</time></trkpt><trkpt lat="42.16227160890829" lon="11.763788567915975"><ele>11.75</ele><time>2026-04-11T07:56:39Z</time></trkpt><trkpt lat="42.16237533991441" lon="11.763886977938764"><ele>11.5</ele><time>2026-04-11T07:56:40Z</time></trkpt><trkpt lat="42.16247640007354" lon="11.76397295235097"><ele>11.25</ele><time>2026-04-11T07:56:41Z</time></trkpt><trkpt lat="42.16256268500012" lon="11.764069928884311"><ele>11.0</ele><time>2026-04-11T07:56:42Z</time></trkpt><trkpt lat="42.16266421083955" lon="11.76416502818153"><ele>11.0</ele><time>2026-04-11T07:56:43Z</time></trkpt><trkpt lat="42.162784192334016" lon="11.764244997546866"><ele>11.0</ele><time>2026-04-11T07:56:44Z</time></trkpt><trkpt lat="42.16290049557155" lon="11.764312700194578"><ele>11.0</ele><time>2026-04-11T07:56:45Z</time></trkpt><trkpt lat="42.163028924977176" lon="11.764358501429365"><ele>11.0</ele><time>2026-04-11T07:56:46Z</time></trkpt><trkpt lat="42.16315489716123" lon="11.76438402739425"><ele>10.25</ele><time>2026-04-11T07:56:47Z</time></trkpt><trkpt lat="42.1632811586861" lon="11.764388915328256"><ele>9.5</ele><time>2026-04-11T07:56:48Z</time></trkpt><trkpt lat="42.163421509123346" lon="11.764355325486887"><ele>8.75</ele><time>2026-04-11T07:56:49Z</time></trkpt><trkpt lat="42.163575888797695" lon="11.764304146819205"><ele>8.0</ele><time>2026-04-11T07:56:50Z</time></trkpt><trkpt lat="42.163751849049085" lon="11.764217968032138"><ele>8.0</ele><time>2026-04-11T07:56:51Z</time></trkpt><trkpt lat="42.163936231100294" lon="11.764120114424765"><ele>8.0</ele><time>2026-04-11T07:56:52Z</time></trkpt><trkpt lat="42.1641290375699" lon="11.764020326551694"><ele>8.0</ele><time>2026-04-11T07:56:53Z</time></trkpt><trkpt lat="42.1643120237666" lon="11.763920175681234"><ele>7.0</ele><time>2026-04-11T07:56:54Z</time></trkpt><trkpt lat="42.16448130953951" lon="11.763823933800893"><ele>6.0</ele><time>2026-04-11T07:56:55Z</time></trkpt><trkpt lat="42.1646402431565" lon="11.763731105453715"><ele>5.0</ele><time>2026-04-11T07:56:56Z</time></trkpt><trkpt lat="42.16479280260319" lon="11.76364720462832"><ele>5.0</ele><time>2026-04-11T07:56:57Z</time></trkpt><trkpt lat="42.16494410580479" lon="11.76357308209848"><ele>5.0</ele><time>2026-04-11T07:56:58Z</time></trkpt><trkpt lat="42.16508911924635" lon="11.763498523155429"><ele>5.0</ele><time>2026-04-11T07:56:59Z</time></trkpt><trkpt lat="42.16521570639455" lon="11.763426188995707"><ele>5.0</ele><time>2026-04-11T07:57:00Z</time></trkpt><trkpt lat="42.165337493075526" lon="11.763354665692049"><ele>5.0</ele><time>2026-04-11T07:57:01Z</time></trkpt><trkpt lat="42.16543022603204" lon="11.763283503440373"><ele>5.0</ele><time>2026-04-11T07:57:02Z</time></trkpt><trkpt lat="42.16553330042115" lon="11.763232562778924"><ele>5.0</ele><time>2026-04-11T07:57:03Z</time></trkpt><trkpt lat="42.16560461124376" lon="11.763164223948552"><ele>5.0</ele><time>2026-04-11T07:57:04Z</time></trkpt><trkpt lat="42.16569415599093" lon="11.76313617284328"><ele>5.0</ele><time>2026-04-11T07:57:05Z</time></trkpt><trkpt lat="42.165785140511424" lon="11.763128253200113"><ele>5.0</ele><time>2026-04-11T07:57:06Z</time></trkpt><trkpt lat="42.16585340886181" lon="11.763140653884715"><ele>5.0</ele><time>2026-04-11T07:57:07Z</time></trkpt><trkpt lat="42.16591773958901" lon="11.76312520592125"><ele>5.0</ele><time>2026-04-11T07:57:08Z</time></trkpt><trkpt lat="42.16596633042654" lon="11.763022484144242"><ele>5.0</ele><time>2026-04-11T07:57:09Z</time></trkpt><trkpt lat="42.1660063182479" lon="11.7629229968927"><ele>5.0</ele><time>2026-04-11T07:57:10Z</time></trkpt><trkpt lat="42.1659926275895" lon="11.762793688237416"><ele>5.0</ele><time>2026-04-11T07:57:11Z</time></trkpt><trkpt lat="42.16606236957165" lon="11.762638226177856"><ele>5.0</ele><time>2026-04-11T07:57:12Z</time></trkpt><trkpt lat="42.16611756948273" lon="11.762491445674554"><ele>5.0</ele><time>2026-04-11T07:57:13Z</time></trkpt><trkpt lat="42.16623645028363" lon="11.762377956899313"><ele>5.0</ele><time>2026-04-11T07:57:14Z</time></trkpt><trkpt lat="42.16635165282718" lon="11.762198670790621"><ele>5.0</ele><time>2026-04-11T07:57:15Z</time></trkpt><trkpt lat="42.16649659455808" lon="11.762024269784702"><ele>5.0</ele><time>2026-04-11T07:57:16Z</time></trkpt><trkpt lat="42.166647980744756" lon="11.761812003514503"><ele>5.0</ele><time>2026-04-11T07:57:17Z</time></trkpt><trkpt lat="42.1668095112633" lon="11.761584263689377"><ele>5.0</ele><time>2026-04-11T07:57:18Z</time></trkpt><trkpt lat="42.16695791928793" lon="11.761354989709337"><ele>5.0</ele><time>2026-04-11T07:57:19Z</time></trkpt><trkpt lat="42.16710333402992" lon="11.761157015118616"><ele>5.0</ele><time>2026-04-11T07:57:20Z</time></trkpt><trkpt lat="42.167254778830014" lon="11.76096237508094"><ele>4.333333333333334</ele><time>2026-04-11T07:57:21Z</time></trkpt><trkpt lat="42.1674001028723" lon="11.760776609820455"><ele>3.666666666666667</ele><time>2026-04-11T07:57:22Z</time></trkpt><trkpt lat="42.16754208644849" lon="11.760576477354828"><ele>3.0</ele><time>2026-04-11T07:57:23Z</time></trkpt><trkpt lat="42.167693788104515" lon="11.760371948965775"><ele>3.333333333333333</ele><time>2026-04-11T07:57:24Z</time></trkpt><trkpt lat="42.16783660415684" lon="11.760183044401623"><ele>3.6666666666666665</ele><time>2026-04-11T07:57:25Z</time></trkpt><trkpt lat="42.167974937777785" lon="11.75998409869476"><ele>4.0</ele><time>2026-04-11T07:57:26Z</time></trkpt><trkpt lat="42.168098243486156" lon="11.759806024376147"><ele>3.6666666666666665</ele><time>2026-04-11T07:57:27Z</time></trkpt><trkpt lat="42.16823139085204" lon="11.759624477759386"><ele>3.333333333333333</ele><time>2026-04-11T07:57:28Z</time></trkpt><trkpt lat="42.16837453988953" lon="11.75941443003437"><ele>3.0</ele><time>2026-04-11T07:57:29Z</time></trkpt><trkpt lat="42.16853986597332" lon="11.759193224319391"><ele>3.0</ele><time>2026-04-11T07:57:30Z</time></trkpt><trkpt lat="42.16868994454909" lon="11.75898438274554"><ele>3.0</ele><time>2026-04-11T07:57:31Z</time></trkpt><trkpt lat="42.1688434545986" lon="11.758770329360761"><ele>3.0</ele><time>2026-04-11T07:57:32Z</time></trkpt><trkpt lat="42.16900263142178" lon="11.758528763747877"><ele>3.0</ele><time>2026-04-11T07:57:33Z</time></trkpt><trkpt lat="42.169155042028855" lon="11.75831651876334"><ele>3.0</ele><time>2026-04-11T07:57:34Z</time></trkpt><trkpt lat="42.169289825157" lon="11.758121515150881"><ele>3.0</ele><time>2026-04-11T07:57:35Z</time></trkpt><trkpt lat="42.1694274867884" lon="11.757937750268239"><ele>3.0</ele><time>2026-04-11T07:57:36Z</time></trkpt><trkpt lat="42.169565279383605" lon="11.757738300046803"><ele>3.0</ele><time>2026-04-11T07:57:37Z</time></trkpt><trkpt lat="42.16969516081949" lon="11.757550018215946"><ele>3.0</ele><time>2026-04-11T07:57:38Z</time></trkpt><trkpt lat="42.16982624643482" lon="11.757376718505135"><ele>3.333333333333333</ele><time>2026-04-11T07:57:39Z</time></trkpt><trkpt lat="42.16994155357185" lon="11.757199459166246"><ele>3.6666666666666665</ele><time>2026-04-11T07:57:40Z</time></trkpt><trkpt lat="42.17004910194866" lon="11.75703904951098"><ele>4.0</ele><time>2026-04-11T07:57:41Z</time></trkpt><trkpt lat="42.170157871413124" lon="11.756876286758914"><ele>3.0</ele><time>2026-04-11T07:57:42Z</time></trkpt><trkpt lat="42.17026568805172" lon="11.75672759262735"><ele>2.0</ele><time>2026-04-11T07:57:43Z</time></trkpt><trkpt lat="42.17036779165097" lon="11.756577575371908"><ele>1.0</ele><time>2026-04-11T07:57:44Z</time></trkpt><trkpt lat="42.170472103906015" lon="11.75643203954582"><ele>1.0</ele><time>2026-04-11T07:57:45Z</time></trkpt><trkpt lat="42.17058711191204" lon="11.756291513548332"><ele>1.0</ele><time>2026-04-11T07:57:46Z</time></trkpt><trkpt lat="42.170691031618304" lon="11.75615147458915"><ele>1.0</ele><time>2026-04-11T07:57:47Z</time></trkpt><trkpt lat="42.17085034873662" lon="11.756020377218958"><ele>0.6666666666666666</ele><time>2026-04-11T07:57:48Z</time></trkpt><trkpt lat="42.17101874526248" lon="11.75588370795508"><ele>0.3333333333333333</ele><time>2026-04-11T07:57:49Z</time></trkpt><trkpt lat="42.17119691343733" lon="11.755743878803305"><ele>0.0</ele><time>2026-04-11T07:57:50Z</time></trkpt><trkpt lat="42.17138467664405" lon="11.755622899949069"><ele>0.0</ele><time>2026-04-11T07:57:51Z</time></trkpt><trkpt lat="42.17155492801724" lon="11.75551727323855"><ele>0.0</ele><time>2026-04-11T07:57:52Z</time></trkpt><trkpt lat="42.171711033669894" lon="11.75541857755356"><ele>0.0</ele><time>2026-04-11T07:57:53Z</time></trkpt><trkpt lat="42.17185954214963" lon="11.755325337423782"><ele>0.0</ele><time>2026-04-11T07:57:54Z</time></trkpt><trkpt lat="42.17201003519161" lon="11.755234328070598"><ele>0.0</ele><time>2026-04-11T07:57:55Z</time></trkpt><trkpt lat="42.17213813982791" lon="11.755143068783147"><ele>0.0</ele><time>2026-04-11T07:57:56Z</time></trkpt><trkpt lat="42.172280456585966" lon="11.755069689742909"><ele>0.0</ele><time>2026-04-11T07:57:57Z</time></trkpt><trkpt lat="42.17242247245555" lon="11.754985483229143"><ele>0.0</ele><time>2026-04-11T07:57:58Z</time></trkpt><trkpt lat="42.17258453775975" lon="11.754889605638166"><ele>0.0</ele><time>2026-04-11T07:57:59Z</time></trkpt><trkpt lat="42.172768528308175" lon="11.754780757034109"><ele>0.0</ele><time>2026-04-11T07:58:00Z</time></trkpt><trkpt lat="42.17295183311888" lon="11.754673015107661"><ele>0.0</ele><time>2026-04-11T07:58:01Z</time></trkpt><trkpt lat="42.17314890175386" lon="11.7545571743791"><ele>0.0</ele><time>2026-04-11T07:58:02Z</time></trkpt><trkpt lat="42.173338938374854" lon="11.754445467209804"><ele>0.0</ele><time>2026-04-11T07:58:03Z</time></trkpt><trkpt lat="42.17351863575054" lon="11.75433965387676"><ele>0.0</ele><time>2026-04-11T07:58:04Z</time></trkpt><trkpt lat="42.17369507710404" lon="11.75423566030301"><ele>0.0</ele><time>2026-04-11T07:58:05Z</time></trkpt><trkpt lat="42.173870973153925" lon="11.75413198812767"><ele>0.0</ele><time>2026-04-11T07:58:06Z</time></trkpt><trkpt lat="42.17405480878716" lon="11.754023636426357"><ele>0.0</ele><time>2026-04-11T07:58:07Z</time></trkpt><trkpt lat="42.17423150657357" lon="11.753903450528274"><ele>0.0</ele><time>2026-04-11T07:58:08Z</time></trkpt><trkpt lat="42.1744131634121" lon="11.753801630720583"><ele>0.0</ele><time>2026-04-11T07:58:09Z</time></trkpt><trkpt lat="42.17459188800739" lon="11.753699225080611"><ele>0.0</ele><time>2026-04-11T07:58:10Z</time></trkpt><trkpt lat="42.174769204444274" lon="11.75360331812139"><ele>0.0</ele><time>2026-04-11T07:58:11Z</time></trkpt><trkpt lat="42.174939854361035" lon="11.753505916279543"><ele>0.3333333333333333</ele><time>2026-04-11T07:58:12Z</time></trkpt><trkpt lat="42.17511164667174" lon="11.753400011597009"><ele>0.6666666666666666</ele><time>2026-04-11T07:58:13Z</time></trkpt><trkpt lat="42.175262146304675" lon="11.753304703068151"><ele>1.0</ele><time>2026-04-11T07:58:14Z</time></trkpt><trkpt lat="42.17542066325812" lon="11.753215118330376"><ele>1.0</ele><time>2026-04-11T07:58:15Z</time></trkpt><trkpt lat="42.17556326602003" lon="11.753125121635735"><ele>1.0</ele><time>2026-04-11T07:58:16Z</time></trkpt><trkpt lat="42.17570601556302" lon="11.753035905464674"><ele>1.0</ele><time>2026-04-11T07:58:17Z</time></trkpt><trkpt lat="42.17584015881733" lon="11.752946676870945"><ele>0.6666666666666666</ele><time>2026-04-11T07:58:18Z</time></trkpt><trkpt lat="42.1759809897073" lon="11.752870390484293"><ele>0.3333333333333333</ele><time>2026-04-11T07:58:19Z</time></trkpt><trkpt lat="42.1761173527723" lon="11.752780792821158"><ele>0.0</ele><time>2026-04-11T07:58:20Z</time></trkpt><trkpt lat="42.17625748918586" lon="11.75269461718638"><ele>0.25</ele><time>2026-04-11T07:58:21Z</time></trkpt><trkpt lat="42.17638794374373" lon="11.752612460876371"><ele>0.5</ele><time>2026-04-11T07:58:22Z</time></trkpt><trkpt lat="42.17651876491116" lon="11.752551206553482"><ele>0.75</ele><time>2026-04-11T07:58:23Z</time></trkpt><trkpt lat="42.17664863578689" lon="11.752473773295113"><ele>1.0</ele><time>2026-04-11T07:58:24Z</time></trkpt><trkpt lat="42.17677803028602" lon="11.752396788726768"><ele>1.0</ele><time>2026-04-11T07:58:25Z</time></trkpt><trkpt lat="42.1768892073865" lon="11.752312786783833"><ele>1.0</ele><time>2026-04-11T07:58:26Z</time></trkpt><trkpt lat="42.176997656458774" lon="11.75226612004084"><ele>1.0</ele><time>2026-04-11T07:58:27Z</time></trkpt><trkpt lat="42.17712534167823" lon="11.752190744213273"><ele>1.0</ele><time>2026-04-11T07:58:28Z</time></trkpt><trkpt lat="42.1772232995644" lon="11.75212741006501"><ele>0.9999999999999999</ele><time>2026-04-11T07:58:29Z</time></trkpt><trkpt lat="42.17731733989978" lon="11.752073053782954"><ele>1.0</ele><time>2026-04-11T07:58:30Z</time></trkpt><trkpt lat="42.17740865316965" lon="11.752018384045929"><ele>1.0</ele><time>2026-04-11T07:58:31Z</time></trkpt><trkpt lat="42.17748872046935" lon="11.751971854708597"><ele>1.0</ele><time>2026-04-11T07:58:32Z</time></trkpt><trkpt lat="42.17756327118657" lon="11.751929945132124"><ele>0.9999999999999999</ele><time>2026-04-11T07:58:33Z</time></trkpt><trkpt lat="42.17763720299639" lon="11.751897920420664"><ele>1.0</ele><time>2026-04-11T07:58:34Z</time></trkpt><trkpt lat="42.17771541909105" lon="11.751887206158973"><ele>0.9999999999999999</ele><time>2026-04-11T07:58:35Z</time></trkpt><trkpt lat="42.1777828186576" lon="11.751891274101673"><ele>1.0</ele><time>2026-04-11T07:58:36Z</time></trkpt><trkpt lat="42.17785620109755" lon="11.751878249560518"><ele>1.0</ele><time>2026-04-11T07:58:37Z</time></trkpt><trkpt lat="42.17793313944411" lon="11.751838950477602"><ele>1.0</ele><time>2026-04-11T07:58:38Z</time></trkpt><trkpt lat="42.177987973077244" lon="11.75177236188039"><ele>0.9999999999999999</ele><time>2026-04-11T07:58:39Z</time></trkpt><trkpt lat="42.17804298013946" lon="11.751682015550688"><ele>1.0</ele><time>2026-04-11T07:58:40Z</time></trkpt><trkpt lat="42.17813563140852" lon="11.751607502978109"><ele>0.75</ele><time>2026-04-11T07:58:41Z</time></trkpt><trkpt lat="42.17824921175074" lon="11.751529276786798"><ele>0.5</ele><time>2026-04-11T07:58:42Z</time></trkpt><trkpt lat="42.178373432724975" lon="11.751466436073878"><ele>0.25</ele><time>2026-04-11T07:58:43Z</time></trkpt><trkpt lat="42.17851274917603" lon="11.751380580764673"><ele>0.0</ele><time>2026-04-11T07:58:44Z</time></trkpt><trkpt lat="42.17867943620301" lon="11.751278655230024"><ele>0.0</ele><time>2026-04-11T07:58:45Z</time></trkpt><trkpt lat="42.17885689062218" lon="11.75118018313445"><ele>0.0</ele><time>2026-04-11T07:58:46Z</time></trkpt><trkpt lat="42.17904634050306" lon="11.751056547818576"><ele>0.0</ele><time>2026-04-11T07:58:47Z</time></trkpt><trkpt lat="42.17923347968193" lon="11.750949785365925"><ele>0.3333333333333333</ele><time>2026-04-11T07:58:48Z</time></trkpt><trkpt lat="42.1794112755959" lon="11.750839779489976"><ele>0.6666666666666666</ele><time>2026-04-11T07:58:49Z</time></trkpt><trkpt lat="42.179585187544625" lon="11.750733541107868"><ele>1.0</ele><time>2026-04-11T07:58:50Z</time></trkpt><trkpt lat="42.17977007562407" lon="11.75062967273818"><ele>1.0</ele><time>2026-04-11T07:58:51Z</time></trkpt><trkpt lat="42.17995453474742" lon="11.750522517940416"><ele>1.0</ele><time>2026-04-11T07:58:52Z</time></trkpt><trkpt lat="42.1801540732478" lon="11.750393981044297"><ele>1.0</ele><time>2026-04-11T07:58:53Z</time></trkpt><trkpt lat="42.18035547974986" lon="11.750271847681134"><ele>1.0</ele><time>2026-04-11T07:58:54Z</time></trkpt><trkpt lat="42.18054407384971" lon="11.75015936391723"><ele>1.0</ele><time>2026-04-11T07:58:55Z</time></trkpt><trkpt lat="42.18071863314257" lon="11.750054138030205"><ele>1.0</ele><time>2026-04-11T07:58:56Z</time></trkpt><trkpt lat="42.18089143716087" lon="11.749939863156666"><ele>0.6666666666666666</ele><time>2026-04-11T07:58:57Z</time></trkpt><trkpt lat="42.18108643263875" lon="11.749835370755143"><ele>0.3333333333333333</ele><time>2026-04-11T07:58:58Z</time></trkpt><trkpt lat="42.181276831464665" lon="11.74972280572322"><ele>0.0</ele><time>2026-04-11T07:58:59Z</time></trkpt><trkpt lat="42.181475367666145" lon="11.749609928094273"><ele>0.3333333333333333</ele><time>2026-04-11T07:59:00Z</time></trkpt><trkpt lat="42.18167032737729" lon="11.749502926007324"><ele>0.6666666666666666</ele><time>2026-04-11T07:59:01Z</time></trkpt><trkpt lat="42.1818645353055" lon="11.749384766070348"><ele>1.0</ele><time>2026-04-11T07:59:02Z</time></trkpt><trkpt lat="42.18205972046487" lon="11.749260016301172"><ele>1.0</ele><time>2026-04-11T07:59:03Z</time></trkpt><trkpt lat="42.18224281206275" lon="11.749151411290425"><ele>1.0</ele><time>2026-04-11T07:59:04Z</time></trkpt><trkpt lat="42.18240577531856" lon="11.749048524425376"><ele>1.0</ele><time>2026-04-11T07:59:05Z</time></trkpt><trkpt lat="42.18256115753742" lon="11.748960969859747"><ele>0.6666666666666666</ele><time>2026-04-11T07:59:06Z</time></trkpt><trkpt lat="42.18271280460996" lon="11.74889009982822"><ele>0.3333333333333333</ele><time>2026-04-11T07:59:07Z</time></trkpt><trkpt lat="42.18284737373616" lon="11.74881110112033"><ele>0.0</ele><time>2026-04-11T07:59:08Z</time></trkpt><trkpt lat="42.18299681417247" lon="11.748715994574152"><ele>0.0</ele><time>2026-04-11T07:59:09Z</time></trkpt><trkpt lat="42.1831444368493" lon="11.748623219029302"><ele>0.0</ele><time>2026-04-11T07:59:10Z</time></trkpt><trkpt lat="42.18330851389753" lon="11.748523002268907"><ele>0.0</ele><time>2026-04-11T07:59:11Z</time></trkpt><trkpt lat="42.183481815892804" lon="11.74842685689425"><ele>-0.3333333333333333</ele><time>2026-04-11T07:59:12Z</time></trkpt><trkpt lat="42.18365738221674" lon="11.748315499877235"><ele>-0.6666666666666666</ele><time>2026-04-11T07:59:13Z</time></trkpt><trkpt lat="42.1838259475999" lon="11.748224266666345"><ele>-1.0</ele><time>2026-04-11T07:59:14Z</time></trkpt><trkpt lat="42.184002814909306" lon="11.748124900859708"><ele>-0.3333333333333333</ele><time>2026-04-11T07:59:15Z</time></trkpt><trkpt lat="42.18417895218008" lon="11.748034620761027"><ele>0.3333333333333333</ele><time>2026-04-11T07:59:16Z</time></trkpt><trkpt lat="42.18434488105296" lon="11.747924025559113"><ele>1.0</ele><time>2026-04-11T07:59:17Z</time></trkpt><trkpt lat="42.184494686049085" lon="11.747820137907246"><ele>1.0</ele><time>2026-04-11T07:59:18Z</time></trkpt><trkpt lat="42.184662699127166" lon="11.747724088080778"><ele>1.0</ele><time>2026-04-11T07:59:18.999Z</time></trkpt><trkpt lat="42.18482767112341" lon="11.747624309891993"><ele>1.0</ele><time>2026-04-11T07:59:19.999Z</time></trkpt><trkpt lat="42.18501497889646" lon="11.747528985131245"><ele>1.0</ele><time>2026-04-11T07:59:20.999Z</time></trkpt><trkpt lat="42.18520220566451" lon="11.747425976360628"><ele>1.0</ele><time>2026-04-11T07:59:21.999Z</time></trkpt><trkpt lat="42.18536134062942" lon="11.747337688081506"><ele>1.0</ele><time>2026-04-11T07:59:22.999Z</time></trkpt><trkpt lat="42.18551066649747" lon="11.747248246744924"><ele>1.0</ele><time>2026-04-11T07:59:23.999Z</time></trkpt><trkpt lat="42.18566496510918" lon="11.747169279800007"><ele>1.0</ele><time>2026-04-11T07:59:25Z</time></trkpt><trkpt lat="42.18580938694926" lon="11.747079038322381"><ele>1.0</ele><time>2026-04-11T07:59:26Z</time></trkpt><trkpt lat="42.1859607887812" lon="11.746992736128455"><ele>2.3333333333333335</ele><time>2026-04-11T07:59:27Z</time></trkpt><trkpt lat="42.186104875184625" lon="11.74690022277996"><ele>3.666666666666667</ele><time>2026-04-11T07:59:28Z</time></trkpt><trkpt lat="42.186252836244904" lon="11.746808784049886"><ele>5.0</ele><time>2026-04-11T07:59:29Z</time></trkpt><trkpt lat="42.18641792668312" lon="11.746723477383894"><ele>6.333333333333334</ele><time>2026-04-11T07:59:30Z</time></trkpt><trkpt lat="42.18658665804688" lon="11.746620543335025"><ele>7.666666666666667</ele><time>2026-04-11T07:59:31Z</time></trkpt><trkpt lat="42.18673733893237" lon="11.746515554121286"><ele>9.0</ele><time>2026-04-11T07:59:32Z</time></trkpt><trkpt lat="42.18688681228433" lon="11.746395878385098"><ele>9.0</ele><time>2026-04-11T07:59:33Z</time></trkpt><trkpt lat="42.187033095239975" lon="11.746308484262848"><ele>9.0</ele><time>2026-04-11T07:59:34Z</time></trkpt><trkpt lat="42.18717729452968" lon="11.746223254759727"><ele>9.0</ele><time>2026-04-11T07:59:35Z</time></trkpt><trkpt lat="42.18731782045013" lon="11.746138458107376"><ele>10.0</ele><time>2026-04-11T07:59:36Z</time></trkpt><trkpt lat="42.187458041612004" lon="11.74605721504006"><ele>11.0</ele><time>2026-04-11T07:59:37Z</time></trkpt><trkpt lat="42.187594452751135" lon="11.745975921472949"><ele>12.0</ele><time>2026-04-11T07:59:38Z</time></trkpt><trkpt lat="42.18775292712256" lon="11.745890807249998"><ele>12.333333333333332</ele><time>2026-04-11T07:59:39Z</time></trkpt><trkpt lat="42.18789869578657" lon="11.74581999343244"><ele>12.666666666666666</ele><time>2026-04-11T07:59:40Z</time></trkpt><trkpt lat="42.188046568270224" lon="11.745729208915398"><ele>13.0</ele><time>2026-04-11T07:59:41Z</time></trkpt><trkpt lat="42.18819484336804" lon="11.745635106971438"><ele>13.333333333333332</ele><time>2026-04-11T07:59:42Z</time></trkpt><trkpt lat="42.18835324072019" lon="11.745543045213225"><ele>13.666666666666668</ele><time>2026-04-11T07:59:43Z</time></trkpt><trkpt lat="42.188499754876595" lon="11.745446113862293"><ele>14.0</ele><time>2026-04-11T07:59:44Z</time></trkpt><trkpt lat="42.18864323078275" lon="11.7453697146303"><ele>14.0</ele><time>2026-04-11T07:59:45Z</time></trkpt><trkpt lat="42.188784005878766" lon="11.745275380311835"><ele>14.0</ele><time>2026-04-11T07:59:46Z</time></trkpt><trkpt lat="42.188919429028054" lon="11.745187277338491"><ele>14.0</ele><time>2026-04-11T07:59:47Z</time></trkpt><trkpt lat="42.189046454170594" lon="11.745098221794533"><ele>13.666666666666668</ele><time>2026-04-11T07:59:48Z</time></trkpt><trkpt lat="42.18918981733881" lon="11.74500873398233"><ele>13.333333333333332</ele><time>2026-04-11T07:59:49Z</time></trkpt><trkpt lat="42.189338216479534" lon="11.744916795777895"><ele>13.0</ele><time>2026-04-11T07:59:50Z</time></trkpt><trkpt lat="42.18948666514468" lon="11.744824210067886"><ele>13.0</ele><time>2026-04-11T07:59:51Z</time></trkpt><trkpt lat="42.18966089962516" lon="11.744735121091612"><ele>13.0</ele><time>2026-04-11T07:59:52Z</time></trkpt><trkpt lat="42.18982384712669" lon="11.744638196351262"><ele>13.0</ele><time>2026-04-11T07:59:53Z</time></trkpt><trkpt lat="42.18998519137515" lon="11.744519000369351"><ele>13.0</ele><time>2026-04-11T07:59:54Z</time></trkpt><trkpt lat="42.190173523503844" lon="11.744430267002013"><ele>13.0</ele><time>2026-04-11T07:59:55Z</time></trkpt><trkpt lat="42.190329324499494" lon="11.744338191214412"><ele>13.0</ele><time>2026-04-11T07:59:56Z</time></trkpt><trkpt lat="42.1904972075869" lon="11.744238944545694"><ele>12.333333333333332</ele><time>2026-04-11T07:59:57Z</time></trkpt><trkpt lat="42.19064799850131" lon="11.744149802276562"><ele>11.666666666666666</ele><time>2026-04-11T07:59:58Z</time></trkpt><trkpt lat="42.19081432486619" lon="11.744051475977344"><ele>11.0</ele><time>2026-04-11T07:59:59Z</time></trkpt><trkpt lat="42.190975294508824" lon="11.743956316317805"><ele>11.0</ele><time>2026-04-11T08:00:00Z</time></trkpt><trkpt lat="42.191148859842365" lon="11.743853710541813"><ele>11.0</ele><time>2026-04-11T08:00:01Z</time></trkpt><trkpt lat="42.19133104366588" lon="11.743746617327803"><ele>11.0</ele><time>2026-04-11T08:00:02Z</time></trkpt><trkpt lat="42.191488835589986" lon="11.743652192186117"><ele>11.0</ele><time>2026-04-11T08:00:03Z</time></trkpt><trkpt lat="42.191637430503114" lon="11.743552453998019"><ele>11.0</ele><time>2026-04-11T08:00:04Z</time></trkpt><trkpt lat="42.19180222108494" lon="11.74346144467073"><ele>11.0</ele><time>2026-04-11T08:00:05Z</time></trkpt><trkpt lat="42.191958736567514" lon="11.743374961916379"><ele>11.0</ele><time>2026-04-11T08:00:06Z</time></trkpt><trkpt lat="42.19210876517764" lon="11.743291838455361"><ele>11.0</ele><time>2026-04-11T08:00:07Z</time></trkpt><trkpt lat="42.1922699042779" lon="11.743204804084321"><ele>11.0</ele><time>2026-04-11T08:00:08Z</time></trkpt><trkpt lat="42.192414429936996" lon="11.74310635286286"><ele>10.666666666666666</ele><time>2026-04-11T08:00:09Z</time></trkpt><trkpt lat="42.19257943683817" lon="11.743018089193143"><ele>10.333333333333334</ele><time>2026-04-11T08:00:10Z</time></trkpt><trkpt lat="42.19272864215255" lon="11.742921641765347"><ele>10.0</ele><time>2026-04-11T08:00:11Z</time></trkpt><trkpt lat="42.19288037637276" lon="11.742827282534986"><ele>10.0</ele><time>2026-04-11T08:00:12Z</time></trkpt><trkpt lat="42.19302901972194" lon="11.742736189899109"><ele>10.0</ele><time>2026-04-11T08:00:13Z</time></trkpt><trkpt lat="42.19318286292022" lon="11.74265128278288"><ele>10.0</ele><time>2026-04-11T08:00:14Z</time></trkpt><trkpt lat="42.19333337877565" lon="11.742578624298583"><ele>10.666666666666668</ele><time>2026-04-11T08:00:15Z</time></trkpt><trkpt lat="42.19348020146571" lon="11.742493054124276"><ele>11.333333333333334</ele><time>2026-04-11T08:00:16Z</time></trkpt><trkpt lat="42.19363538915918" lon="11.742404052244124"><ele>12.0</ele><time>2026-04-11T08:00:17Z</time></trkpt><trkpt lat="42.19378514370449" lon="11.74232030255136"><ele>12.0</ele><time>2026-04-11T08:00:18Z</time></trkpt><trkpt lat="42.19393010235999" lon="11.74223559824945"><ele>12.0</ele><time>2026-04-11T08:00:19Z</time></trkpt><trkpt lat="42.194067215545985" lon="11.742145641319292"><ele>12.0</ele><time>2026-04-11T08:00:20Z</time></trkpt><trkpt lat="42.194215043058335" lon="11.742040235682513"><ele>11.666666666666666</ele><time>2026-04-11T08:00:21Z</time></trkpt><trkpt lat="42.19435799937068" lon="11.741946848743716"><ele>11.333333333333332</ele><time>2026-04-11T08:00:22Z</time></trkpt><trkpt lat="42.194502554998685" lon="11.741861287155286"><ele>11.0</ele><time>2026-04-11T08:00:23Z</time></trkpt><trkpt lat="42.194641991434096" lon="11.741778908841683"><ele>11.0</ele><time>2026-04-11T08:00:24Z</time></trkpt><trkpt lat="42.19478426634275" lon="11.741701557783589"><ele>11.0</ele><time>2026-04-11T08:00:25Z</time></trkpt><trkpt lat="42.19494414559059" lon="11.741604214894716"><ele>11.0</ele><time>2026-04-11T08:00:26Z</time></trkpt><trkpt lat="42.195090654726684" lon="11.741518277656148"><ele>11.0</ele><time>2026-04-11T08:00:27Z</time></trkpt><trkpt lat="42.195233687122744" lon="11.741434390445349"><ele>11.0</ele><time>2026-04-11T08:00:28Z</time></trkpt><trkpt lat="42.19537404116713" lon="11.741346563362868"><ele>11.0</ele><time>2026-04-11T08:00:29Z</time></trkpt><trkpt lat="42.195509573496864" lon="11.741261877477674"><ele>11.0</ele><time>2026-04-11T08:00:30Z</time></trkpt><trkpt lat="42.19564789458664" lon="11.74117176695408"><ele>11.0</ele><time>2026-04-11T08:00:31Z</time></trkpt><trkpt lat="42.19578798299501" lon="11.741094622697423"><ele>11.0</ele><time>2026-04-11T08:00:32Z</time></trkpt><trkpt lat="42.19592998113085" lon="11.741015179625816"><ele>11.0</ele><time>2026-04-11T08:00:33Z</time></trkpt><trkpt lat="42.19606993869275" lon="11.740931503744767"><ele>11.0</ele><time>2026-04-11T08:00:34Z</time></trkpt><trkpt lat="42.19620961230306" lon="11.74084500654121"><ele>11.0</ele><time>2026-04-11T08:00:35Z</time></trkpt><trkpt lat="42.19635003140698" lon="11.740758793567803"><ele>11.0</ele><time>2026-04-11T08:00:36Z</time></trkpt><trkpt lat="42.19649067419952" lon="11.740678461046347"><ele>11.0</ele><time>2026-04-11T08:00:37Z</time></trkpt><trkpt lat="42.19662637417252" lon="11.740594140167541"><ele>11.0</ele><time>2026-04-11T08:00:38Z</time></trkpt><trkpt lat="42.1967596885452" lon="11.740506223488007"><ele>11.0</ele><time>2026-04-11T08:00:39Z</time></trkpt><trkpt lat="42.19689651674398" lon="11.740421701470481"><ele>11.0</ele><time>2026-04-11T08:00:40Z</time></trkpt><trkpt lat="42.197032588898814" lon="11.74034519124981"><ele>11.0</ele><time>2026-04-11T08:00:41Z</time></trkpt><trkpt lat="42.19716968855028" lon="11.740267874662667"><ele>11.0</ele><time>2026-04-11T08:00:42Z</time></trkpt><trkpt lat="42.197303981902294" lon="11.740184521777476"><ele>11.25</ele><time>2026-04-11T08:00:43Z</time></trkpt><trkpt lat="42.19743072844137" lon="11.740106410199596"><ele>11.5</ele><time>2026-04-11T08:00:44Z</time></trkpt><trkpt lat="42.197554779141825" lon="11.740031892857104"><ele>11.75</ele><time>2026-04-11T08:00:45Z</time></trkpt><trkpt lat="42.19767405091278" lon="11.739963518759138"><ele>12.0</ele><time>2026-04-11T08:00:46Z</time></trkpt><trkpt lat="42.197788706080004" lon="11.739898099655466"><ele>12.0</ele><time>2026-04-11T08:00:47Z</time></trkpt><trkpt lat="42.19790677821315" lon="11.739828715867095"><ele>12.0</ele><time>2026-04-11T08:00:48Z</time></trkpt><trkpt lat="42.19803425792173" lon="11.739753617167215"><ele>12.0</ele><time>2026-04-11T08:00:49Z</time></trkpt><trkpt lat="42.19818360224003" lon="11.739658986268967"><ele>12.0</ele><time>2026-04-11T08:00:50Z</time></trkpt><trkpt lat="42.198310676451946" lon="11.739584882066582"><ele>12.5</ele><time>2026-04-11T08:00:51Z</time></trkpt><trkpt lat="42.19845080001327" lon="11.739512066451274"><ele>13.0</ele><time>2026-04-11T08:00:52Z</time></trkpt><trkpt lat="42.198584289657475" lon="11.739428690229886"><ele>13.5</ele><time>2026-04-11T08:00:53Z</time></trkpt><trkpt lat="42.198719752530444" lon="11.739340059046498"><ele>14.0</ele><time>2026-04-11T08:00:54Z</time></trkpt><trkpt lat="42.198849918253536" lon="11.739264932202488"><ele>14.25</ele><time>2026-04-11T08:00:55Z</time></trkpt><trkpt lat="42.19896902285954" lon="11.739197830401627"><ele>14.5</ele><time>2026-04-11T08:00:56Z</time></trkpt><trkpt lat="42.199086370247905" lon="11.73913049431948"><ele>14.75</ele><time>2026-04-11T08:00:57Z</time></trkpt><trkpt lat="42.199204665315364" lon="11.739062130726811"><ele>15.0</ele><time>2026-04-11T08:00:58Z</time></trkpt><trkpt lat="42.19932304031189" lon="11.738987161483012"><ele>15.25</ele><time>2026-04-11T08:00:59Z</time></trkpt><trkpt lat="42.1994541535205" lon="11.738906810798328"><ele>15.5</ele><time>2026-04-11T08:01:00Z</time></trkpt><trkpt lat="42.19957557251886" lon="11.738832102025325"><ele>15.75</ele><time>2026-04-11T08:01:01Z</time></trkpt><trkpt lat="42.199702071976645" lon="11.73875759845598"><ele>16.0</ele><time>2026-04-11T08:01:02Z</time></trkpt><trkpt lat="42.19982752876909" lon="11.73868855261269"><ele>15.0</ele><time>2026-04-11T08:01:03Z</time></trkpt><trkpt lat="42.199954313120024" lon="11.738617994885121"><ele>14.0</ele><time>2026-04-11T08:01:04Z</time></trkpt><trkpt lat="42.20007895014339" lon="11.738545186689604"><ele>13.0</ele><time>2026-04-11T08:01:05Z</time></trkpt><trkpt lat="42.20020010152557" lon="11.738472035963092"><ele>12.0</ele><time>2026-04-11T08:01:06Z</time></trkpt><trkpt lat="42.200309609823556" lon="11.738407266673665"><ele>11.75</ele><time>2026-04-11T08:01:07Z</time></trkpt><trkpt lat="42.20041206926796" lon="11.738348920307782"><ele>11.5</ele><time>2026-04-11T08:01:08Z</time></trkpt><trkpt lat="42.20052620344775" lon="11.738287061558145"><ele>11.25</ele><time>2026-04-11T08:01:09Z</time></trkpt><trkpt lat="42.20063377639783" lon="11.738229390653101"><ele>11.0</ele><time>2026-04-11T08:01:10Z</time></trkpt><trkpt lat="42.20073789132877" lon="11.738175443198541"><ele>10.600000000000001</ele><time>2026-04-11T08:01:11Z</time></trkpt><trkpt lat="42.200841319255304" lon="11.73812343260526"><ele>10.200000000000001</ele><time>2026-04-11T08:01:12Z</time></trkpt><trkpt lat="42.20094510567399" lon="11.738070269062272"><ele>9.8</ele><time>2026-04-11T08:01:13Z</time></trkpt><trkpt lat="42.20104258873643" lon="11.738023829520497"><ele>9.4</ele><time>2026-04-11T08:01:14Z</time></trkpt><trkpt lat="42.20112163920147" lon="11.73799245569816"><ele>9.0</ele><time>2026-04-11T08:01:15Z</time></trkpt><trkpt lat="42.201186206741404" lon="11.737950544908069"><ele>9.0</ele><time>2026-04-11T08:01:16Z</time></trkpt><trkpt lat="42.201270168588934" lon="11.737975782763082"><ele>9.0</ele><time>2026-04-11T08:01:17Z</time></trkpt><trkpt lat="42.201355827366186" lon="11.737990823389993"><ele>9.0</ele><time>2026-04-11T08:01:18Z</time></trkpt><trkpt lat="42.20143261494181" lon="11.738015446811252"><ele>9.0</ele><time>2026-04-11T08:01:19Z</time></trkpt><trkpt lat="42.20148731325999" lon="11.737965455859714"><ele>9.0</ele><time>2026-04-11T08:01:20Z</time></trkpt><trkpt lat="42.20153362260196" lon="11.737880220784904"><ele>9.0</ele><time>2026-04-11T08:01:21Z</time></trkpt><trkpt lat="42.20161465451972" lon="11.73777187958209"><ele>9.0</ele><time>2026-04-11T08:01:22Z</time></trkpt><trkpt lat="42.201656946875936" lon="11.737603421136743"><ele>9.0</ele><time>2026-04-11T08:01:23Z</time></trkpt><trkpt lat="42.201774456879825" lon="11.737577081411402"><ele>9.0</ele><time>2026-04-11T08:01:24Z</time></trkpt><trkpt lat="42.20191046782708" lon="11.737483626498367"><ele>9.0</ele><time>2026-04-11T08:01:25Z</time></trkpt><trkpt lat="42.20208517504724" lon="11.737385873594677"><ele>9.0</ele><time>2026-04-11T08:01:26Z</time></trkpt><trkpt lat="42.20228442609031" lon="11.73727314089732"><ele>9.0</ele><time>2026-04-11T08:01:27Z</time></trkpt><trkpt lat="42.20245546698021" lon="11.73716425817578"><ele>9.0</ele><time>2026-04-11T08:01:28Z</time></trkpt><trkpt lat="42.20262881267444" lon="11.737058820926157"><ele>7.666666666666667</ele><time>2026-04-11T08:01:29Z</time></trkpt><trkpt lat="42.202796222237204" lon="11.736937994770692"><ele>6.333333333333334</ele><time>2026-04-11T08:01:29.999Z</time></trkpt><trkpt lat="42.20294077038012" lon="11.73683029111286"><ele>5.0</ele><time>2026-04-11T08:01:31Z</time></trkpt><trkpt lat="42.203081805747374" lon="11.736759878469842"><ele>4.666666666666667</ele><time>2026-04-11T08:01:32Z</time></trkpt><trkpt lat="42.203259956866205" lon="11.73663811135805"><ele>4.333333333333333</ele><time>2026-04-11T08:01:33Z</time></trkpt><trkpt lat="42.20341566565244" lon="11.736544340559924"><ele>4.0</ele><time>2026-04-11T08:01:34Z</time></trkpt><trkpt lat="42.203561885429686" lon="11.73645846034864"><ele>4.0</ele><time>2026-04-11T08:01:35Z</time></trkpt><trkpt lat="42.20371920357342" lon="11.736360711373708"><ele>4.0</ele><time>2026-04-11T08:01:36Z</time></trkpt><trkpt lat="42.203875836430115" lon="11.736288331913213"><ele>4.0</ele><time>2026-04-11T08:01:37Z</time></trkpt><trkpt lat="42.204014702925996" lon="11.736203187651405"><ele>3.6666666666666665</ele><time>2026-04-11T08:01:38Z</time></trkpt><trkpt lat="42.20414736845555" lon="11.73610750857642"><ele>3.333333333333333</ele><time>2026-04-11T08:01:39Z</time></trkpt><trkpt lat="42.20429415836242" lon="11.736038616807274"><ele>3.0</ele><time>2026-04-11T08:01:40Z</time></trkpt><trkpt lat="42.20443665994722" lon="11.73595377911544"><ele>3.0</ele><time>2026-04-11T08:01:41Z</time></trkpt><trkpt lat="42.2045749037622" lon="11.735871439326333"><ele>3.0</ele><time>2026-04-11T08:01:42Z</time></trkpt><trkpt lat="42.20472333476224" lon="11.735783031914735"><ele>3.0</ele><time>2026-04-11T08:01:43Z</time></trkpt><trkpt lat="42.20487766360605" lon="11.73569111170879"><ele>4.333333333333334</ele><time>2026-04-11T08:01:44Z</time></trkpt><trkpt lat="42.20503640798403" lon="11.735596561451716"><ele>5.666666666666667</ele><time>2026-04-11T08:01:45Z</time></trkpt><trkpt lat="42.20519434481705" lon="11.735504813926164"><ele>7.0</ele><time>2026-04-11T08:01:46Z</time></trkpt><trkpt lat="42.205357998716046" lon="11.735417881255282"><ele>7.0</ele><time>2026-04-11T08:01:47Z</time></trkpt><trkpt lat="42.20552558299458" lon="11.735344910896288"><ele>7.0</ele><time>2026-04-11T08:01:48Z</time></trkpt><trkpt lat="42.20568477602838" lon="11.735283892093666"><ele>7.0</ele><time>2026-04-11T08:01:49Z</time></trkpt><trkpt lat="42.2058445682868" lon="11.735228739640919"><ele>7.333333333333334</ele><time>2026-04-11T08:01:50Z</time></trkpt><trkpt lat="42.20599876651436" lon="11.735189200954627"><ele>7.666666666666666</ele><time>2026-04-11T08:01:51Z</time></trkpt><trkpt lat="42.20616948558881" lon="11.735160197124927"><ele>8.0</ele><time>2026-04-11T08:01:52Z</time></trkpt><trkpt lat="42.20630702777627" lon="11.735132483808448"><ele>8.0</ele><time>2026-04-11T08:01:53Z</time></trkpt><trkpt lat="42.20644782474503" lon="11.73511339008001"><ele>8.0</ele><time>2026-04-11T08:01:54Z</time></trkpt><trkpt lat="42.20658668004511" lon="11.735127212834993"><ele>8.0</ele><time>2026-04-11T08:01:55Z</time></trkpt><trkpt lat="42.206720420884714" lon="11.735130864809145"><ele>8.0</ele><time>2026-04-11T08:01:56Z</time></trkpt><trkpt lat="42.20687066437682" lon="11.735143545703075"><ele>8.333333333333332</ele><time>2026-04-11T08:01:57Z</time></trkpt><trkpt lat="42.20703101696597" lon="11.735144228058354"><ele>8.666666666666666</ele><time>2026-04-11T08:01:58Z</time></trkpt><trkpt lat="42.20724045380212" lon="11.735201310936928"><ele>9.0</ele><time>2026-04-11T08:01:59Z</time></trkpt><trkpt lat="42.20744831025479" lon="11.735260749597513"><ele>9.0</ele><time>2026-04-11T08:02:00Z</time></trkpt><trkpt lat="42.207645613431005" lon="11.735312519807168"><ele>9.0</ele><time>2026-04-11T08:02:01Z</time></trkpt><trkpt lat="42.20782584847746" lon="11.735390496344445"><ele>9.0</ele><time>2026-04-11T08:02:02Z</time></trkpt><trkpt lat="42.20799546406563" lon="11.73544597942503"><ele>9.0</ele><time>2026-04-11T08:02:03Z</time></trkpt><trkpt lat="42.20814881507382" lon="11.735498387222794"><ele>9.0</ele><time>2026-04-11T08:02:04Z</time></trkpt><trkpt lat="42.208314600171846" lon="11.735555044368596"><ele>9.0</ele><time>2026-04-11T08:02:05Z</time></trkpt><trkpt lat="42.208475164352166" lon="11.735609917166824"><ele>9.0</ele><time>2026-04-11T08:02:06Z</time></trkpt><trkpt lat="42.20862728958011" lon="11.735661906094291"><ele>9.0</ele><time>2026-04-11T08:02:07Z</time></trkpt><trkpt lat="42.20879441565807" lon="11.735703398781068"><ele>9.0</ele><time>2026-04-11T08:02:08Z</time></trkpt><trkpt lat="42.20895560331302" lon="11.735762349130063"><ele>8.333333333333334</ele><time>2026-04-11T08:02:09Z</time></trkpt><trkpt lat="42.20909466714698" lon="11.735802822746502"><ele>7.666666666666667</ele><time>2026-04-11T08:02:10Z</time></trkpt><trkpt lat="42.209259584442854" lon="11.735866979575151"><ele>7.0</ele><time>2026-04-11T08:02:11Z</time></trkpt><trkpt lat="42.20944883660022" lon="11.735943243018406"><ele>7.0</ele><time>2026-04-11T08:02:12Z</time></trkpt><trkpt lat="42.209642910684956" lon="11.736010452690609"><ele>7.0</ele><time>2026-04-11T08:02:13Z</time></trkpt><trkpt lat="42.209847880109436" lon="11.736076085079409"><ele>7.0</ele><time>2026-04-11T08:02:14Z</time></trkpt><trkpt lat="42.210046171484805" lon="11.736133921575842"><ele>7.0</ele><time>2026-04-11T08:02:15Z</time></trkpt><trkpt lat="42.21023642147215" lon="11.736189909073326"><ele>7.0</ele><time>2026-04-11T08:02:16Z</time></trkpt><trkpt lat="42.21043262250191" lon="11.73627078788717"><ele>7.0</ele><time>2026-04-11T08:02:17Z</time></trkpt><trkpt lat="42.210629376945136" lon="11.736337131649563"><ele>7.666666666666667</ele><time>2026-04-11T08:02:18Z</time></trkpt><trkpt lat="42.21082900004564" lon="11.736404442694655"><ele>8.333333333333334</ele><time>2026-04-11T08:02:19Z</time></trkpt><trkpt lat="42.21102436335279" lon="11.736470317353744"><ele>9.0</ele><time>2026-04-11T08:02:20Z</time></trkpt><trkpt lat="42.21121879918699" lon="11.73653554457165"><ele>9.0</ele><time>2026-04-11T08:02:21Z</time></trkpt><trkpt lat="42.21142098378516" lon="11.736603256410158"><ele>9.0</ele><time>2026-04-11T08:02:22Z</time></trkpt><trkpt lat="42.21160709936727" lon="11.736665586731638"><ele>9.0</ele><time>2026-04-11T08:02:23Z</time></trkpt><trkpt lat="42.211796758180775" lon="11.736729103728438"><ele>9.0</ele><time>2026-04-11T08:02:24Z</time></trkpt><trkpt lat="42.211997159550634" lon="11.736796218416705"><ele>9.0</ele><time>2026-04-11T08:02:25Z</time></trkpt><trkpt lat="42.21219531308655" lon="11.736862580273481"><ele>9.0</ele><time>2026-04-11T08:02:26Z</time></trkpt><trkpt lat="42.21238286780185" lon="11.736925842191768"><ele>9.666666666666666</ele><time>2026-04-11T08:02:27Z</time></trkpt><trkpt lat="42.21255509716424" lon="11.736983997387517"><ele>10.333333333333332</ele><time>2026-04-11T08:02:28Z</time></trkpt><trkpt lat="42.21272096093616" lon="11.737040003227607"><ele>11.0</ele><time>2026-04-11T08:02:29Z</time></trkpt><trkpt lat="42.212900934272746" lon="11.73710077320347"><ele>11.0</ele><time>2026-04-11T08:02:30Z</time></trkpt><trkpt lat="42.21308056692807" lon="11.737142941884235"><ele>11.0</ele><time>2026-04-11T08:02:31Z</time></trkpt><trkpt lat="42.21327267436303" lon="11.737226295493189"><ele>11.0</ele><time>2026-04-11T08:02:32Z</time></trkpt><trkpt lat="42.21349238978059" lon="11.737300484861866"><ele>11.0</ele><time>2026-04-11T08:02:33Z</time></trkpt><trkpt lat="42.2136871192655" lon="11.737366237543823"><ele>11.0</ele><time>2026-04-11T08:02:34Z</time></trkpt><trkpt lat="42.21387318727528" lon="11.737409741153725"><ele>11.0</ele><time>2026-04-11T08:02:35Z</time></trkpt><trkpt lat="42.21404787922477" lon="11.737473790271126"><ele>11.0</ele><time>2026-04-11T08:02:36Z</time></trkpt><trkpt lat="42.21422355057374" lon="11.73754952346619"><ele>11.0</ele><time>2026-04-11T08:02:37Z</time></trkpt><trkpt lat="42.214401790242256" lon="11.73761489334859"><ele>11.0</ele><time>2026-04-11T08:02:38Z</time></trkpt><trkpt lat="42.21458383650379" lon="11.737687718039"><ele>11.333333333333332</ele><time>2026-04-11T08:02:39Z</time></trkpt><trkpt lat="42.21476341221408" lon="11.737748595412333"><ele>11.666666666666666</ele><time>2026-04-11T08:02:40Z</time></trkpt><trkpt lat="42.21493696201128" lon="11.737803306521482"><ele>12.0</ele><time>2026-04-11T08:02:41Z</time></trkpt><trkpt lat="42.21512104978038" lon="11.73786625046585"><ele>12.333333333333332</ele><time>2026-04-11T08:02:42Z</time></trkpt><trkpt lat="42.21527390878213" lon="11.737921855174413"><ele>12.666666666666666</ele><time>2026-04-11T08:02:43Z</time></trkpt><trkpt lat="42.21544734602062" lon="11.737984720300174"><ele>13.0</ele><time>2026-04-11T08:02:44Z</time></trkpt><trkpt lat="42.21562092020431" lon="11.738047990548539"><ele>13.0</ele><time>2026-04-11T08:02:45Z</time></trkpt><trkpt lat="42.21578209237223" lon="11.738098722604414"><ele>13.0</ele><time>2026-04-11T08:02:46Z</time></trkpt><trkpt lat="42.215950890977616" lon="11.73814868501637"><ele>13.0</ele><time>2026-04-11T08:02:47Z</time></trkpt><trkpt lat="42.21610949909007" lon="11.738202665616301"><ele>13.0</ele><time>2026-04-11T08:02:48Z</time></trkpt><trkpt lat="42.2162708304672" lon="11.738256639196203"><ele>13.0</ele><time>2026-04-11T08:02:49Z</time></trkpt><trkpt lat="42.21641857883319" lon="11.738301347581158"><ele>13.0</ele><time>2026-04-11T08:02:50Z</time></trkpt><trkpt lat="42.21657898319702" lon="11.738353745751404"><ele>12.25</ele><time>2026-04-11T08:02:51Z</time></trkpt><trkpt lat="42.21672668767936" lon="11.738411024119868"><ele>11.5</ele><time>2026-04-11T08:02:52Z</time></trkpt><trkpt lat="42.21686680437997" lon="11.73846122108614"><ele>10.75</ele><time>2026-04-11T08:02:53Z</time></trkpt><trkpt lat="42.21700807440103" lon="11.738486575593473"><ele>10.0</ele><time>2026-04-11T08:02:54Z</time></trkpt><trkpt lat="42.21710358278544" lon="11.738478731330614"><ele>10.0</ele><time>2026-04-11T08:02:55Z</time></trkpt><trkpt lat="42.21724442422181" lon="11.73844674831185"><ele>10.0</ele><time>2026-04-11T08:02:56Z</time></trkpt><trkpt lat="42.217379566703244" lon="11.738408455619467"><ele>10.0</ele><time>2026-04-11T08:02:57Z</time></trkpt><trkpt lat="42.21751964707555" lon="11.738336762825059"><ele>10.0</ele><time>2026-04-11T08:02:58Z</time></trkpt><trkpt lat="42.21769995310613" lon="11.73825454426033"><ele>10.666666666666668</ele><time>2026-04-11T08:02:59Z</time></trkpt><trkpt lat="42.217907178978706" lon="11.738182586771893"><ele>11.333333333333334</ele><time>2026-04-11T08:03:00Z</time></trkpt><trkpt lat="42.21813430318961" lon="11.738122604491165"><ele>12.0</ele><time>2026-04-11T08:03:01Z</time></trkpt><trkpt lat="42.21836210809737" lon="11.738051464713138"><ele>13.0</ele><time>2026-04-11T08:03:02Z</time></trkpt><trkpt lat="42.21854843213194" lon="11.737993278650528"><ele>14.0</ele><time>2026-04-11T08:03:03Z</time></trkpt><trkpt lat="42.21875061515833" lon="11.737930140198598"><ele>15.0</ele><time>2026-04-11T08:03:04Z</time></trkpt><trkpt lat="42.21893097847793" lon="11.737874469608965"><ele>15.333333333333332</ele><time>2026-04-11T08:03:05Z</time></trkpt><trkpt lat="42.2191212696197" lon="11.737815881949762"><ele>15.666666666666666</ele><time>2026-04-11T08:03:06Z</time></trkpt><trkpt lat="42.21930813867052" lon="11.737758347913275"><ele>16.0</ele><time>2026-04-11T08:03:07Z</time></trkpt><trkpt lat="42.219497170814684" lon="11.737688518704077"><ele>15.666666666666666</ele><time>2026-04-11T08:03:08Z</time></trkpt><trkpt lat="42.21966491999882" lon="11.737640504004503"><ele>15.333333333333332</ele><time>2026-04-11T08:03:09Z</time></trkpt><trkpt lat="42.21983603889879" lon="11.737585620261006"><ele>15.0</ele><time>2026-04-11T08:03:10Z</time></trkpt><trkpt lat="42.22002254232446" lon="11.737544221703462"><ele>15.0</ele><time>2026-04-11T08:03:11Z</time></trkpt><trkpt lat="42.22018948515465" lon="11.737493443333452"><ele>15.0</ele><time>2026-04-11T08:03:12Z</time></trkpt><trkpt lat="42.22034113891495" lon="11.73744155446423"><ele>15.0</ele><time>2026-04-11T08:03:13Z</time></trkpt><trkpt lat="42.22049710182476" lon="11.737387167805137"><ele>15.333333333333332</ele><time>2026-04-11T08:03:14Z</time></trkpt><trkpt lat="42.22065871357762" lon="11.737341874374291"><ele>15.666666666666666</ele><time>2026-04-11T08:03:15Z</time></trkpt><trkpt lat="42.22081243244454" lon="11.737295303003668"><ele>16.0</ele><time>2026-04-11T08:03:16Z</time></trkpt><trkpt lat="42.22097714112009" lon="11.73724410016339"><ele>16.0</ele><time>2026-04-11T08:03:17Z</time></trkpt><trkpt lat="42.22112490347578" lon="11.737202959213803"><ele>16.0</ele><time>2026-04-11T08:03:18Z</time></trkpt><trkpt lat="42.22125615647917" lon="11.737166958422648"><ele>16.0</ele><time>2026-04-11T08:03:19Z</time></trkpt><trkpt lat="42.22138231648114" lon="11.737125908391993"><ele>16.0</ele><time>2026-04-11T08:03:20Z</time></trkpt><trkpt lat="42.221496261286255" lon="11.737079273301013"><ele>16.0</ele><time>2026-04-11T08:03:21Z</time></trkpt><trkpt lat="42.22162858748366" lon="11.737022267362542"><ele>16.0</ele><time>2026-04-11T08:03:22Z</time></trkpt><trkpt lat="42.22174819576781" lon="11.736937936680405"><ele>16.0</ele><time>2026-04-11T08:03:23Z</time></trkpt><trkpt lat="42.22187962002579" lon="11.736832215525256"><ele>16.0</ele><time>2026-04-11T08:03:23.999Z</time></trkpt><trkpt lat="42.22199052413629" lon="11.73670960898774"><ele>15.75</ele><time>2026-04-11T08:03:24.999Z</time></trkpt><trkpt lat="42.222087931530446" lon="11.736573168293889"><ele>15.5</ele><time>2026-04-11T08:03:25.999Z</time></trkpt><trkpt lat="42.22219187606307" lon="11.736429001448162"><ele>15.25</ele><time>2026-04-11T08:03:26.999Z</time></trkpt><trkpt lat="42.22227731232574" lon="11.736288485782797"><ele>15.0</ele><time>2026-04-11T08:03:27.999Z</time></trkpt><trkpt lat="42.2223564863335" lon="11.736120283758671"><ele>15.333333333333332</ele><time>2026-04-11T08:03:28.999Z</time></trkpt><trkpt lat="42.222417550193725" lon="11.735935002779728"><ele>15.666666666666666</ele><time>2026-04-11T08:03:29.999Z</time></trkpt><trkpt lat="42.22248928790918" lon="11.73569678171892"><ele>16.0</ele><time>2026-04-11T08:03:30.999Z</time></trkpt><trkpt lat="42.222556217003095" lon="11.735486799784056"><ele>16.0</ele><time>2026-04-11T08:03:31.999Z</time></trkpt><trkpt lat="42.22262033444634" lon="11.735244035472547"><ele>16.0</ele><time>2026-04-11T08:03:32.999Z</time></trkpt><trkpt lat="42.22270546805476" lon="11.7349790602365"><ele>16.0</ele><time>2026-04-11T08:03:33.999Z</time></trkpt><trkpt lat="42.22278939054472" lon="11.734724477959857"><ele>16.0</ele><time>2026-04-11T08:03:34.999Z</time></trkpt><trkpt lat="42.222858543838505" lon="11.73446914602585"><ele>16.0</ele><time>2026-04-11T08:03:35.999Z</time></trkpt><trkpt lat="42.22292992392304" lon="11.734199241651783"><ele>16.0</ele><time>2026-04-11T08:03:37Z</time></trkpt><trkpt lat="42.22297508704784" lon="11.73387075204712"><ele>16.0</ele><time>2026-04-11T08:03:38Z</time></trkpt><trkpt lat="42.22305165819011" lon="11.733622134970624"><ele>16.0</ele><time>2026-04-11T08:03:39Z</time></trkpt><trkpt lat="42.2231222443251" lon="11.73334733621111"><ele>16.0</ele><time>2026-04-11T08:03:40Z</time></trkpt><trkpt lat="42.22318147891642" lon="11.733078656855728"><ele>16.0</ele><time>2026-04-11T08:03:41Z</time></trkpt><trkpt lat="42.22325033507272" lon="11.732860770554279"><ele>16.0</ele><time>2026-04-11T08:03:42Z</time></trkpt><trkpt lat="42.223308740341196" lon="11.732645849029334"><ele>16.0</ele><time>2026-04-11T08:03:43Z</time></trkpt><trkpt lat="42.223372576342804" lon="11.732409818385165"><ele>16.0</ele><time>2026-04-11T08:03:44Z</time></trkpt><trkpt lat="42.22342217785701" lon="11.73218973857487"><ele>16.0</ele><time>2026-04-11T08:03:45Z</time></trkpt><trkpt lat="42.22351012198735" lon="11.731997253260996"><ele>16.0</ele><time>2026-04-11T08:03:46Z</time></trkpt><trkpt lat="42.223558944784635" lon="11.731747278856846"><ele>15.666666666666666</ele><time>2026-04-11T08:03:47Z</time></trkpt><trkpt lat="42.22366558454652" lon="11.731504132402787"><ele>15.333333333333332</ele><time>2026-04-11T08:03:48Z</time></trkpt><trkpt lat="42.22371875344595" lon="11.731293588677268"><ele>15.0</ele><time>2026-04-11T08:03:49Z</time></trkpt><trkpt lat="42.22375525141713" lon="11.731109978833869"><ele>15.0</ele><time>2026-04-11T08:03:50Z</time></trkpt><trkpt lat="42.22381745329467" lon="11.730915798220355"><ele>15.0</ele><time>2026-04-11T08:03:51Z</time></trkpt><trkpt lat="42.223858694779835" lon="11.730715702089448"><ele>15.0</ele><time>2026-04-11T08:03:52Z</time></trkpt><trkpt lat="42.223929766262394" lon="11.730529803317623"><ele>15.25</ele><time>2026-04-11T08:03:53Z</time></trkpt><trkpt lat="42.22398529806885" lon="11.730341684122594"><ele>15.5</ele><time>2026-04-11T08:03:54Z</time></trkpt><trkpt lat="42.224043983888514" lon="11.730196052445297"><ele>15.75</ele><time>2026-04-11T08:03:55Z</time></trkpt><trkpt lat="42.22412657125151" lon="11.730059213608687"><ele>16.0</ele><time>2026-04-11T08:03:56Z</time></trkpt><trkpt lat="42.224219772745805" lon="11.729902756998323"><ele>16.333333333333332</ele><time>2026-04-11T08:03:57Z</time></trkpt><trkpt lat="42.224330416802765" lon="11.729756502129964"><ele>16.666666666666668</ele><time>2026-04-11T08:03:58Z</time></trkpt><trkpt lat="42.224438104205966" lon="11.729618838587397"><ele>17.0</ele><time>2026-04-11T08:03:59Z</time></trkpt><trkpt lat="42.22456660641649" lon="11.729456470319901"><ele>17.0</ele><time>2026-04-11T08:04:00Z</time></trkpt><trkpt lat="42.22472150044582" lon="11.72927463668501"><ele>17.0</ele><time>2026-04-11T08:04:01Z</time></trkpt><trkpt lat="42.22488603455402" lon="11.729077413370584"><ele>17.0</ele><time>2026-04-11T08:04:02Z</time></trkpt><trkpt lat="42.2250467950913" lon="11.728896758033336"><ele>17.0</ele><time>2026-04-11T08:04:03Z</time></trkpt><trkpt lat="42.22517933247854" lon="11.72872940031379"><ele>17.0</ele><time>2026-04-11T08:04:04Z</time></trkpt><trkpt lat="42.22531483824407" lon="11.728552606837921"><ele>17.0</ele><time>2026-04-11T08:04:05Z</time></trkpt><trkpt lat="42.22545326047697" lon="11.728410865903836"><ele>16.0</ele><time>2026-04-11T08:04:06Z</time></trkpt><trkpt lat="42.22558771625234" lon="11.728253735332556"><ele>15.0</ele><time>2026-04-11T08:04:07Z</time></trkpt><trkpt lat="42.225725604079166" lon="11.728073851398204"><ele>14.0</ele><time>2026-04-11T08:04:08Z</time></trkpt><trkpt lat="42.225857142781024" lon="11.727905301986729"><ele>13.666666666666668</ele><time>2026-04-11T08:04:09Z</time></trkpt><trkpt lat="42.22597307678731" lon="11.72776906045881"><ele>13.333333333333332</ele><time>2026-04-11T08:04:10Z</time></trkpt><trkpt lat="42.22612411303307" lon="11.727605964662716"><ele>13.0</ele><time>2026-04-11T08:04:11Z</time></trkpt><trkpt lat="42.22625942113729" lon="11.727448008249334"><ele>13.0</ele><time>2026-04-11T08:04:12Z</time></trkpt><trkpt lat="42.226399518777434" lon="11.727255728920658"><ele>13.0</ele><time>2026-04-11T08:04:13Z</time></trkpt><trkpt lat="42.226538034832146" lon="11.727117006512543"><ele>13.0</ele><time>2026-04-11T08:04:14Z</time></trkpt><trkpt lat="42.22667309772771" lon="11.726956256781467"><ele>12.0</ele><time>2026-04-11T08:04:15Z</time></trkpt><trkpt lat="42.22680387777325" lon="11.726770320423107"><ele>11.0</ele><time>2026-04-11T08:04:16Z</time></trkpt><trkpt lat="42.22693674788995" lon="11.726641389765213"><ele>10.0</ele><time>2026-04-11T08:04:17Z</time></trkpt><trkpt lat="42.2270728867056" lon="11.726478804448943"><ele>10.0</ele><time>2026-04-11T08:04:18Z</time></trkpt><trkpt lat="42.22720857203518" lon="11.72631676078199"><ele>10.0</ele><time>2026-04-11T08:04:19Z</time></trkpt><trkpt lat="42.22735021283768" lon="11.726147604789443"><ele>10.0</ele><time>2026-04-11T08:04:20Z</time></trkpt><trkpt lat="42.22745010337902" lon="11.72600327004163"><ele>9.666666666666668</ele><time>2026-04-11T08:04:21Z</time></trkpt><trkpt lat="42.22756445960983" lon="11.725864394561963"><ele>9.333333333333334</ele><time>2026-04-11T08:04:22Z</time></trkpt><trkpt lat="42.22769217764822" lon="11.725739211607161"><ele>9.0</ele><time>2026-04-11T08:04:23Z</time></trkpt><trkpt lat="42.227811573281905" lon="11.72557734250876"><ele>9.0</ele><time>2026-04-11T08:04:24Z</time></trkpt><trkpt lat="42.22794090414685" lon="11.725432599570684"><ele>9.0</ele><time>2026-04-11T08:04:25Z</time></trkpt><trkpt lat="42.22806100496262" lon="11.725291423903684"><ele>9.0</ele><time>2026-04-11T08:04:26Z</time></trkpt><trkpt lat="42.228151261953506" lon="11.72518019676812"><ele>9.0</ele><time>2026-04-11T08:04:27Z</time></trkpt><trkpt lat="42.22826929880476" lon="11.725036999541798"><ele>9.25</ele><time>2026-04-11T08:04:28Z</time></trkpt><trkpt lat="42.228394134486344" lon="11.724927201376259"><ele>9.5</ele><time>2026-04-11T08:04:29Z</time></trkpt><trkpt lat="42.22848690430957" lon="11.724805468947087"><ele>9.75</ele><time>2026-04-11T08:04:30Z</time></trkpt><trkpt lat="42.22856838445275" lon="11.724689356119459"><ele>10.0</ele><time>2026-04-11T08:04:31Z</time></trkpt><trkpt lat="42.228666221449785" lon="11.724576884641351"><ele>10.0</ele><time>2026-04-11T08:04:32Z</time></trkpt><trkpt lat="42.228774401101354" lon="11.724489070749454"><ele>10.0</ele><time>2026-04-11T08:04:33Z</time></trkpt><trkpt lat="42.228875283105836" lon="11.724384469997519"><ele>10.0</ele><time>2026-04-11T08:04:34Z</time></trkpt><trkpt lat="42.22896957693217" lon="11.724286035571176"><ele>10.0</ele><time>2026-04-11T08:04:35Z</time></trkpt><trkpt lat="42.229058460274864" lon="11.724193659623836"><ele>10.0</ele><time>2026-04-11T08:04:36Z</time></trkpt><trkpt lat="42.22912549047861" lon="11.724106237199642"><ele>10.0</ele><time>2026-04-11T08:04:37Z</time></trkpt><trkpt lat="42.2291939901667" lon="11.72402651948954"><ele>10.0</ele><time>2026-04-11T08:04:38Z</time></trkpt><trkpt lat="42.229276289434296" lon="11.723921286471887"><ele>10.0</ele><time>2026-04-11T08:04:39Z</time></trkpt><trkpt lat="42.229345079705" lon="11.72385922126548"><ele>10.0</ele><time>2026-04-11T08:04:40Z</time></trkpt><trkpt lat="42.22940809565426" lon="11.723790291080936"><ele>10.0</ele><time>2026-04-11T08:04:41Z</time></trkpt><trkpt lat="42.22946251550568" lon="11.723735772820724"><ele>10.0</ele><time>2026-04-11T08:04:42Z</time></trkpt><trkpt lat="42.229531841401375" lon="11.72363299652991"><ele>10.0</ele><time>2026-04-11T08:04:44Z</time></trkpt><trkpt lat="42.229631077588856" lon="11.723702593040978"><ele>10.0</ele><time>2026-04-11T08:04:45Z</time></trkpt><trkpt lat="42.22976422952359" lon="11.723728291156494"><ele>10.0</ele><time>2026-04-11T08:04:47Z</time></trkpt><trkpt lat="42.22983251874342" lon="11.723722636673097"><ele>9.666666666666668</ele><time>2026-04-11T08:04:48Z</time></trkpt><trkpt lat="42.229894556793305" lon="11.723785793260241"><ele>9.333333333333334</ele><time>2026-04-11T08:04:49Z</time></trkpt><trkpt lat="42.229977467993784" lon="11.723863132383917"><ele>9.0</ele><time>2026-04-11T08:04:50Z</time></trkpt><trkpt lat="42.230038397694166" lon="11.723955636892812"><ele>8.666666666666666</ele><time>2026-04-11T08:04:51Z</time></trkpt><trkpt lat="42.230102623335064" lon="11.724043876969965"><ele>8.333333333333332</ele><time>2026-04-11T08:04:52Z</time></trkpt><trkpt lat="42.230160431323675" lon="11.724118587807478"><ele>8.0</ele><time>2026-04-11T08:04:53Z</time></trkpt><trkpt lat="42.23021170269543" lon="11.724203752804467"><ele>7.999999999999999</ele><time>2026-04-11T08:04:54Z</time></trkpt><trkpt lat="42.23026873947992" lon="11.72428632529062"><ele>8.0</ele><time>2026-04-11T08:04:55Z</time></trkpt><trkpt lat="42.230341158453065" lon="11.724397872079683"><ele>8.0</ele><time>2026-04-11T08:04:57Z</time></trkpt><trkpt lat="42.23039791005794" lon="11.724496867928993"><ele>8.0</ele><time>2026-04-11T08:05:00Z</time></trkpt><trkpt lat="42.23046187963843" lon="11.72455853307051"><ele>7.999999999999999</ele><time>2026-04-11T08:05:56Z</time></trkpt><trkpt lat="42.230520528392894" lon="11.724598101373159"><ele>8.0</ele><time>2026-04-11T08:05:57Z</time></trkpt><trkpt lat="42.23057022757322" lon="11.72465161451279"><ele>8.200000000000001</ele><time>2026-04-11T08:05:58Z</time></trkpt><trkpt lat="42.230624225134086" lon="11.724718524633008"><ele>8.4</ele><time>2026-04-11T08:05:59Z</time></trkpt><trkpt lat="42.230684923462256" lon="11.724790280033472"><ele>8.600000000000001</ele><time>2026-04-11T08:06:00Z</time></trkpt><trkpt lat="42.23078944660642" lon="11.724892815468259"><ele>8.8</ele><time>2026-04-11T08:06:01Z</time></trkpt><trkpt lat="42.23087797661745" lon="11.724981035087115"><ele>9.0</ele><time>2026-04-11T08:06:02Z</time></trkpt><trkpt lat="42.23098172484626" lon="11.725103471618764"><ele>9.0</ele><time>2026-04-11T08:06:03Z</time></trkpt><trkpt lat="42.23111691440817" lon="11.725246597251223"><ele>9.0</ele><time>2026-04-11T08:06:04Z</time></trkpt><trkpt lat="42.231267720632175" lon="11.725375173389173"><ele>9.0</ele><time>2026-04-11T08:06:05Z</time></trkpt><trkpt lat="42.23141535038462" lon="11.725510345697192"><ele>9.333333333333334</ele><time>2026-04-11T08:06:06Z</time></trkpt><trkpt lat="42.23155217394564" lon="11.725618996252551"><ele>9.666666666666668</ele><time>2026-04-11T08:06:07Z</time></trkpt><trkpt lat="42.23169137586408" lon="11.725754678904218"><ele>10.0</ele><time>2026-04-11T08:06:08Z</time></trkpt><trkpt lat="42.23182364339041" lon="11.725899187694846"><ele>10.0</ele><time>2026-04-11T08:06:09Z</time></trkpt><trkpt lat="42.23198095959658" lon="11.725998256343553"><ele>10.0</ele><time>2026-04-11T08:06:10Z</time></trkpt><trkpt lat="42.23213296001372" lon="11.72611914702592"><ele>10.0</ele><time>2026-04-11T08:06:11Z</time></trkpt><trkpt lat="42.2322958966402" lon="11.726224717102825"><ele>10.333333333333334</ele><time>2026-04-11T08:06:12Z</time></trkpt><trkpt lat="42.2324405520166" lon="11.726341009738386"><ele>10.666666666666666</ele><time>2026-04-11T08:06:13Z</time></trkpt><trkpt lat="42.23257428157444" lon="11.726472135505318"><ele>11.0</ele><time>2026-04-11T08:06:14Z</time></trkpt><trkpt lat="42.232711199210634" lon="11.726577940379826"><ele>11.0</ele><time>2026-04-11T08:06:15Z</time></trkpt><trkpt lat="42.23283276524181" lon="11.72667203541565"><ele>11.0</ele><time>2026-04-11T08:06:16Z</time></trkpt><trkpt lat="42.23297882370248" lon="11.726725537415115"><ele>11.0</ele><time>2026-04-11T08:06:17Z</time></trkpt><trkpt lat="42.23312450306526" lon="11.726807406194457"><ele>11.0</ele><time>2026-04-11T08:06:18Z</time></trkpt><trkpt lat="42.233260268158595" lon="11.726874039127228"><ele>10.666666666666666</ele><time>2026-04-11T08:06:19Z</time></trkpt><trkpt lat="42.23340543761751" lon="11.726931313815491"><ele>10.333333333333334</ele><time>2026-04-11T08:06:20Z</time></trkpt><trkpt lat="42.23355846129544" lon="11.727005155270747"><ele>10.0</ele><time>2026-04-11T08:06:21Z</time></trkpt><trkpt lat="42.23370057723974" lon="11.727057281510042"><ele>10.0</ele><time>2026-04-11T08:06:22Z</time></trkpt><trkpt lat="42.233833048763394" lon="11.72710129917442"><ele>10.0</ele><time>2026-04-11T08:06:23Z</time></trkpt><trkpt lat="42.23397058333175" lon="11.72714816970213"><ele>10.0</ele><time>2026-04-11T08:06:24Z</time></trkpt><trkpt lat="42.23410925078369" lon="11.72722228440243"><ele>10.0</ele><time>2026-04-11T08:06:25Z</time></trkpt><trkpt lat="42.2342620721133" lon="11.727256049974457"><ele>10.0</ele><time>2026-04-11T08:06:26Z</time></trkpt><trkpt lat="42.23440018938498" lon="11.727323417656606"><ele>10.0</ele><time>2026-04-11T08:06:27Z</time></trkpt><trkpt lat="42.23452537074293" lon="11.727361775423503"><ele>10.0</ele><time>2026-04-11T08:06:28Z</time></trkpt><trkpt lat="42.234643474975464" lon="11.727396351826235"><ele>10.0</ele><time>2026-04-11T08:06:29Z</time></trkpt><trkpt lat="42.23475868756731" lon="11.727429737544066"><ele>10.2</ele><time>2026-04-11T08:06:30Z</time></trkpt><trkpt lat="42.23486975456018" lon="11.727460830255216"><ele>10.4</ele><time>2026-04-11T08:06:31Z</time></trkpt><trkpt lat="42.23497238074694" lon="11.727466242673282"><ele>10.600000000000001</ele><time>2026-04-11T08:06:32Z</time></trkpt><trkpt lat="42.235070306878704" lon="11.727495796966517"><ele>10.8</ele><time>2026-04-11T08:06:33Z</time></trkpt><trkpt lat="42.235163203281196" lon="11.727523393695384"><ele>11.0</ele><time>2026-04-11T08:06:34Z</time></trkpt><trkpt lat="42.2352755973916" lon="11.727554580446814"><ele>11.0</ele><time>2026-04-11T08:06:35Z</time></trkpt><trkpt lat="42.23541685414153" lon="11.727592550585978"><ele>11.0</ele><time>2026-04-11T08:06:36Z</time></trkpt><trkpt lat="42.23555272022644" lon="11.727630825827312"><ele>11.0</ele><time>2026-04-11T08:06:37Z</time></trkpt><trkpt lat="42.235714804075336" lon="11.727683293610427"><ele>11.0</ele><time>2026-04-11T08:06:38Z</time></trkpt><trkpt lat="42.235858392902394" lon="11.727738272918081"><ele>11.25</ele><time>2026-04-11T08:06:39Z</time></trkpt><trkpt lat="42.236009555636144" lon="11.727775768689671"><ele>11.5</ele><time>2026-04-11T08:06:40Z</time></trkpt><trkpt lat="42.23614761128218" lon="11.727836857242313"><ele>11.75</ele><time>2026-04-11T08:06:41Z</time></trkpt><trkpt lat="42.23627828514154" lon="11.727891423218415"><ele>12.0</ele><time>2026-04-11T08:06:42Z</time></trkpt><trkpt lat="42.23641878310439" lon="11.727957533598685"><ele>12.666666666666668</ele><time>2026-04-11T08:06:43Z</time></trkpt><trkpt lat="42.23657924132892" lon="11.72803941434438"><ele>13.333333333333334</ele><time>2026-04-11T08:06:44Z</time></trkpt><trkpt lat="42.23671923649933" lon="11.728118204889805"><ele>14.0</ele><time>2026-04-11T08:06:45Z</time></trkpt><trkpt lat="42.23686767234764" lon="11.728177663323438"><ele>14.0</ele><time>2026-04-11T08:06:46Z</time></trkpt><trkpt lat="42.23699980374091" lon="11.728240252789957"><ele>14.0</ele><time>2026-04-11T08:06:47Z</time></trkpt><trkpt lat="42.23713864572598" lon="11.72833389344563"><ele>14.0</ele><time>2026-04-11T08:06:48Z</time></trkpt><trkpt lat="42.23728860031004" lon="11.728398583286914"><ele>14.75</ele><time>2026-04-11T08:06:49Z</time></trkpt><trkpt lat="42.237424649279056" lon="11.72847463630475"><ele>15.5</ele><time>2026-04-11T08:06:50Z</time></trkpt><trkpt lat="42.23756610686169" lon="11.728558546089376"><ele>16.25</ele><time>2026-04-11T08:06:51Z</time></trkpt><trkpt lat="42.2376982031783" lon="11.728635404007804"><ele>17.0</ele><time>2026-04-11T08:06:52Z</time></trkpt><trkpt lat="42.23781571806424" lon="11.728711449499029"><ele>17.0</ele><time>2026-04-11T08:06:53Z</time></trkpt><trkpt lat="42.23794020494847" lon="11.728791554954206"><ele>17.0</ele><time>2026-04-11T08:06:54Z</time></trkpt><trkpt lat="42.23805565023873" lon="11.72887718973707"><ele>17.0</ele><time>2026-04-11T08:06:55Z</time></trkpt><trkpt lat="42.23817062451435" lon="11.728967469940178"><ele>17.0</ele><time>2026-04-11T08:06:56Z</time></trkpt><trkpt lat="42.23828435571859" lon="11.729069773761793"><ele>17.0</ele><time>2026-04-11T08:06:57Z</time></trkpt><trkpt lat="42.238391442683344" lon="11.729176765266557"><ele>17.0</ele><time>2026-04-11T08:06:58Z</time></trkpt><trkpt lat="42.23849501651084" lon="11.729286337693972"><ele>17.0</ele><time>2026-04-11T08:06:59Z</time></trkpt><trkpt lat="42.238588342613504" lon="11.729399760525512"><ele>17.0</ele><time>2026-04-11T08:07:00Z</time></trkpt><trkpt lat="42.23867629619066" lon="11.72951373298305"><ele>17.0</ele><time>2026-04-11T08:07:01Z</time></trkpt><trkpt lat="42.23876309645664" lon="11.729636455478477"><ele>17.0</ele><time>2026-04-11T08:07:02Z</time></trkpt><trkpt lat="42.23884109336009" lon="11.729760363875105"><ele>17.0</ele><time>2026-04-11T08:07:03Z</time></trkpt><trkpt lat="42.23890787599071" lon="11.72987524930413"><ele>17.0</ele><time>2026-04-11T08:07:04Z</time></trkpt><trkpt lat="42.23896729807938" lon="11.72998035760299"><ele>17.0</ele><time>2026-04-11T08:07:05Z</time></trkpt><trkpt lat="42.23901827642406" lon="11.73007718716657"><ele>17.0</ele><time>2026-04-11T08:07:06Z</time></trkpt><trkpt lat="42.239065453721196" lon="11.730163041625753"><ele>17.0</ele><time>2026-04-11T08:07:07Z</time></trkpt><trkpt lat="42.239106070091914" lon="11.730247345644"><ele>17.0</ele><time>2026-04-11T08:07:08Z</time></trkpt><trkpt lat="42.23913215596473" lon="11.730331269150497"><ele>17.0</ele><time>2026-04-11T08:07:09Z</time></trkpt><trkpt lat="42.239194188390805" lon="11.730442161834521"><ele>17.0</ele><time>2026-04-11T08:07:11Z</time></trkpt><trkpt lat="42.239129566614025" lon="11.730555275331419"><ele>17.0</ele><time>2026-04-11T08:07:12Z</time></trkpt><trkpt lat="42.23907803024797" lon="11.730615104737359"><ele>17.0</ele><time>2026-04-11T08:07:15Z</time></trkpt><trkpt lat="42.239246235525556" lon="11.730324357947667"><ele>17.0</ele><time>2026-04-11T08:07:35.999Z</time></trkpt><trkpt lat="42.23916945657821" lon="11.730214053216601"><ele>17.0</ele><time>2026-04-11T08:07:36.999Z</time></trkpt><trkpt lat="42.23907808958311" lon="11.73008250854065"><ele>17.0</ele><time>2026-04-11T08:07:37.999Z</time></trkpt><trkpt lat="42.23899118178869" lon="11.729936806328219"><ele>17.0</ele><time>2026-04-11T08:07:38.999Z</time></trkpt><trkpt lat="42.238904323326075" lon="11.729777812325974"><ele>17.0</ele><time>2026-04-11T08:07:39.999Z</time></trkpt><trkpt lat="42.23880777653815" lon="11.72960386435081"><ele>17.0</ele><time>2026-04-11T08:07:40.999Z</time></trkpt><trkpt lat="42.23871971984678" lon="11.729477345672803"><ele>17.0</ele><time>2026-04-11T08:07:41.999Z</time></trkpt><trkpt lat="42.2386133498445" lon="11.729342541428306"><ele>17.0</ele><time>2026-04-11T08:07:42.999Z</time></trkpt><trkpt lat="42.238513990764936" lon="11.729224566531043"><ele>17.0</ele><time>2026-04-11T08:07:43.999Z</time></trkpt><trkpt lat="42.238409648876406" lon="11.729113820654172"><ele>17.0</ele><time>2026-04-11T08:07:44.999Z</time></trkpt><trkpt lat="42.23830796317913" lon="11.729008714899681"><ele>17.0</ele><time>2026-04-11T08:07:45.999Z</time></trkpt><trkpt lat="42.23820028601812" lon="11.728910671846808"><ele>17.0</ele><time>2026-04-11T08:07:46.999Z</time></trkpt><trkpt lat="42.238088218591884" lon="11.728820583535537"><ele>17.0</ele><time>2026-04-11T08:07:47.999Z</time></trkpt><trkpt lat="42.237961856580185" lon="11.728729201151301"><ele>17.0</ele><time>2026-04-11T08:07:49Z</time></trkpt><trkpt lat="42.237822529259745" lon="11.728642025287291"><ele>17.0</ele><time>2026-04-11T08:07:50Z</time></trkpt><trkpt lat="42.23767382861615" lon="11.728550579120478"><ele>17.0</ele><time>2026-04-11T08:07:51Z</time></trkpt><trkpt lat="42.237528590719165" lon="11.728469854818712"><ele>17.0</ele><time>2026-04-11T08:07:52Z</time></trkpt><trkpt lat="42.23737753628128" lon="11.72838138849627"><ele>17.0</ele><time>2026-04-11T08:07:53Z</time></trkpt><trkpt lat="42.23719248778439" lon="11.728273702755224"><ele>17.0</ele><time>2026-04-11T08:07:54Z</time></trkpt><trkpt lat="42.23699636784429" lon="11.728162253913522"><ele>16.0</ele><time>2026-04-11T08:07:55Z</time></trkpt><trkpt lat="42.23681510738547" lon="11.728059856593742"><ele>15.0</ele><time>2026-04-11T08:07:56Z</time></trkpt><trkpt lat="42.23664269772216" lon="11.727967156057026"><ele>14.0</ele><time>2026-04-11T08:07:57Z</time></trkpt><trkpt lat="42.23647458654899" lon="11.727879716759146"><ele>13.333333333333334</ele><time>2026-04-11T08:07:58Z</time></trkpt><trkpt lat="42.23630706314755" lon="11.727803616721689"><ele>12.666666666666668</ele><time>2026-04-11T08:07:59Z</time></trkpt><trkpt lat="42.23614658879371" lon="11.727739078185166"><ele>12.0</ele><time>2026-04-11T08:08:00Z</time></trkpt><trkpt lat="42.23599553989653" lon="11.72767953483314"><ele>11.666666666666666</ele><time>2026-04-11T08:08:01Z</time></trkpt><trkpt lat="42.23584039718648" lon="11.727630455797525"><ele>11.333333333333332</ele><time>2026-04-11T08:08:02Z</time></trkpt><trkpt lat="42.23568222483542" lon="11.727587370811426"><ele>11.0</ele><time>2026-04-11T08:08:03Z</time></trkpt><trkpt lat="42.23552889686645" lon="11.727543673695703"><ele>11.0</ele><time>2026-04-11T08:08:04Z</time></trkpt><trkpt lat="42.23537779236673" lon="11.727504088503768"><ele>11.0</ele><time>2026-04-11T08:08:05Z</time></trkpt><trkpt lat="42.23522722626365" lon="11.727469624949666"><ele>11.0</ele><time>2026-04-11T08:08:06Z</time></trkpt><trkpt lat="42.23507556637891" lon="11.727440252965962"><ele>11.0</ele><time>2026-04-11T08:08:07Z</time></trkpt><trkpt lat="42.23492402037511" lon="11.72740291436214"><ele>11.0</ele><time>2026-04-11T08:08:08Z</time></trkpt><trkpt lat="42.23476543776724" lon="11.727358018592778"><ele>11.0</ele><time>2026-04-11T08:08:09Z</time></trkpt><trkpt lat="42.23462782933569" lon="11.727316695329563"><ele>10.75</ele><time>2026-04-11T08:08:10Z</time></trkpt><trkpt lat="42.234495011051024" lon="11.727274566030628"><ele>10.5</ele><time>2026-04-11T08:08:11Z</time></trkpt><trkpt lat="42.23436672894602" lon="11.72723480108576"><ele>10.25</ele><time>2026-04-11T08:08:12Z</time></trkpt><trkpt lat="42.234240384065515" lon="11.72719139160586"><ele>10.0</ele><time>2026-04-11T08:08:13Z</time></trkpt><trkpt lat="42.23410972345024" lon="11.727147780693503"><ele>10.0</ele><time>2026-04-11T08:08:14Z</time></trkpt><trkpt lat="42.233972450355" lon="11.72710435186062"><ele>10.0</ele><time>2026-04-11T08:08:15Z</time></trkpt><trkpt lat="42.233839401050545" lon="11.727060381675694"><ele>10.0</ele><time>2026-04-11T08:08:16Z</time></trkpt><trkpt lat="42.23370649748125" lon="11.727016309206013"><ele>10.0</ele><time>2026-04-11T08:08:17Z</time></trkpt><trkpt lat="42.23358799782378" lon="11.726961009242956"><ele>10.0</ele><time>2026-04-11T08:08:18Z</time></trkpt><trkpt lat="42.233461253284666" lon="11.726912398802398"><ele>10.0</ele><time>2026-04-11T08:08:19Z</time></trkpt><trkpt lat="42.23334296247408" lon="11.726862980522357"><ele>10.0</ele><time>2026-04-11T08:08:20Z</time></trkpt><trkpt lat="42.233230228220314" lon="11.726783752727387"><ele>10.0</ele><time>2026-04-11T08:08:21Z</time></trkpt><trkpt lat="42.23312439075935" lon="11.726724920087804"><ele>10.25</ele><time>2026-04-11T08:08:22Z</time></trkpt><trkpt lat="42.232998393072016" lon="11.726653491864635"><ele>10.5</ele><time>2026-04-11T08:08:23Z</time></trkpt><trkpt lat="42.232861053516956" lon="11.72657116359971"><ele>10.75</ele><time>2026-04-11T08:08:24Z</time></trkpt><trkpt lat="42.23272962363815" lon="11.726489593462125"><ele>11.0</ele><time>2026-04-11T08:08:25Z</time></trkpt><trkpt lat="42.2325854203509" lon="11.726397632066336"><ele>11.0</ele><time>2026-04-11T08:08:26Z</time></trkpt><trkpt lat="42.23244816562788" lon="11.726304108690291"><ele>11.0</ele><time>2026-04-11T08:08:27Z</time></trkpt><trkpt lat="42.232299624538996" lon="11.726196691975375"><ele>11.0</ele><time>2026-04-11T08:08:28Z</time></trkpt><trkpt lat="42.232158167676374" lon="11.726090277567057"><ele>10.666666666666666</ele><time>2026-04-11T08:08:29Z</time></trkpt><trkpt lat="42.23201892319143" lon="11.725979578170085"><ele>10.333333333333334</ele><time>2026-04-11T08:08:30Z</time></trkpt><trkpt lat="42.23187800559764" lon="11.72588770903586"><ele>10.0</ele><time>2026-04-11T08:08:31Z</time></trkpt><trkpt lat="42.23176026819797" lon="11.72576910798592"><ele>10.0</ele><time>2026-04-11T08:08:32Z</time></trkpt><trkpt lat="42.23162214731918" lon="11.725656785206391"><ele>10.0</ele><time>2026-04-11T08:08:33Z</time></trkpt><trkpt lat="42.231473534323136" lon="11.725508458764711"><ele>10.0</ele><time>2026-04-11T08:08:34Z</time></trkpt><trkpt lat="42.23134748403004" lon="11.725382988801124"><ele>9.666666666666668</ele><time>2026-04-11T08:08:35Z</time></trkpt><trkpt lat="42.23122722416272" lon="11.725254725766694"><ele>9.333333333333334</ele><time>2026-04-11T08:08:36Z</time></trkpt><trkpt lat="42.23110600895818" lon="11.725127520102292"><ele>9.0</ele><time>2026-04-11T08:08:37Z</time></trkpt><trkpt lat="42.23097347351886" lon="11.724991633516558"><ele>9.0</ele><time>2026-04-11T08:08:38Z</time></trkpt><trkpt lat="42.230859254669625" lon="11.72485719867343"><ele>9.0</ele><time>2026-04-11T08:08:39Z</time></trkpt><trkpt lat="42.230739160010835" lon="11.72470661275423"><ele>9.0</ele><time>2026-04-11T08:08:40Z</time></trkpt><trkpt lat="42.230628664755905" lon="11.724577975479203"><ele>9.0</ele><time>2026-04-11T08:08:41Z</time></trkpt><trkpt lat="42.23051656004321" lon="11.724446408770145"><ele>9.0</ele><time>2026-04-11T08:08:42Z</time></trkpt><trkpt lat="42.2304170783743" lon="11.724325526956317"><ele>9.0</ele><time>2026-04-11T08:08:43Z</time></trkpt><trkpt lat="42.2303325559855" lon="11.724241417996485"><ele>9.0</ele><time>2026-04-11T08:08:44Z</time></trkpt><trkpt lat="42.23024987936045" lon="11.72416044183617"><ele>8.8</ele><time>2026-04-11T08:08:45Z</time></trkpt><trkpt lat="42.230165986441435" lon="11.72406311202062"><ele>8.600000000000001</ele><time>2026-04-11T08:08:46Z</time></trkpt><trkpt lat="42.230091815696696" lon="11.723975433208587"><ele>8.4</ele><time>2026-04-11T08:08:47Z</time></trkpt><trkpt lat="42.230028941555254" lon="11.723885467660136"><ele>8.200000000000001</ele><time>2026-04-11T08:08:48Z</time></trkpt><trkpt lat="42.229973317242184" lon="11.723808279889507"><ele>8.0</ele><time>2026-04-11T08:08:49Z</time></trkpt><trkpt lat="42.22989700032537" lon="11.72369181990371"><ele>8.0</ele><time>2026-04-11T08:08:51Z</time></trkpt><trkpt lat="42.22987201586998" lon="11.723583638345458"><ele>8.0</ele><time>2026-04-11T08:08:52Z</time></trkpt><trkpt lat="42.22989355212817" lon="11.723383734827722"><ele>8.0</ele><time>2026-04-11T08:08:54Z</time></trkpt><trkpt lat="42.22991276971865" lon="11.723245253688367"><ele>8.0</ele><time>2026-04-11T08:08:55Z</time></trkpt><trkpt lat="42.229952122530584" lon="11.723117491667127"><ele>8.0</ele><time>2026-04-11T08:08:56Z</time></trkpt><trkpt lat="42.230017790755255" lon="11.72296331044271"><ele>8.25</ele><time>2026-04-11T08:08:57Z</time></trkpt><trkpt lat="42.23010460818152" lon="11.722853816259738"><ele>8.5</ele><time>2026-04-11T08:08:58Z</time></trkpt><trkpt lat="42.23021994234103" lon="11.7227133260203"><ele>8.75</ele><time>2026-04-11T08:08:59Z</time></trkpt><trkpt lat="42.23033052890096" lon="11.722579752769136"><ele>9.0</ele><time>2026-04-11T08:09:00Z</time></trkpt><trkpt lat="42.23046241507339" lon="11.722426015675017"><ele>9.0</ele><time>2026-04-11T08:09:01Z</time></trkpt><trkpt lat="42.23057843785122" lon="11.722283360444779"><ele>9.0</ele><time>2026-04-11T08:09:02Z</time></trkpt><trkpt lat="42.230705529975346" lon="11.722160124639386"><ele>9.0</ele><time>2026-04-11T08:09:03Z</time></trkpt><trkpt lat="42.23081468824741" lon="11.72200308551325"><ele>9.0</ele><time>2026-04-11T08:09:04Z</time></trkpt><trkpt lat="42.23092992144923" lon="11.721868846945362"><ele>9.0</ele><time>2026-04-11T08:09:05Z</time></trkpt><trkpt lat="42.23106257200464" lon="11.721727452549821"><ele>9.0</ele><time>2026-04-11T08:09:06Z</time></trkpt><trkpt lat="42.231180896564" lon="11.721585863328503"><ele>9.0</ele><time>2026-04-11T08:09:07Z</time></trkpt><trkpt lat="42.231315882080025" lon="11.721457509258169"><ele>9.0</ele><time>2026-04-11T08:09:08Z</time></trkpt><trkpt lat="42.231468557841836" lon="11.721329171056738"><ele>9.0</ele><time>2026-04-11T08:09:09Z</time></trkpt><trkpt lat="42.23159995451795" lon="11.721171775783063"><ele>8.333333333333334</ele><time>2026-04-11T08:09:10Z</time></trkpt><trkpt lat="42.23175008579243" lon="11.720995915912454"><ele>7.666666666666667</ele><time>2026-04-11T08:09:11Z</time></trkpt><trkpt lat="42.23189572093578" lon="11.720812137389407"><ele>7.0</ele><time>2026-04-11T08:09:12Z</time></trkpt><trkpt lat="42.232023716664166" lon="11.72064734385824"><ele>7.0</ele><time>2026-04-11T08:09:13Z</time></trkpt><trkpt lat="42.23215453978722" lon="11.720484342196464"><ele>7.0</ele><time>2026-04-11T08:09:14Z</time></trkpt><trkpt lat="42.23226977040114" lon="11.720330150463713"><ele>7.0</ele><time>2026-04-11T08:09:15Z</time></trkpt><trkpt lat="42.23238333168497" lon="11.7201655954463"><ele>7.333333333333334</ele><time>2026-04-11T08:09:16Z</time></trkpt><trkpt lat="42.23251585434542" lon="11.720021035542109"><ele>7.666666666666666</ele><time>2026-04-11T08:09:17Z</time></trkpt><trkpt lat="42.232640216251966" lon="11.719854158526191"><ele>8.0</ele><time>2026-04-11T08:09:18Z</time></trkpt><trkpt lat="42.23276412752516" lon="11.719694117295237"><ele>8.0</ele><time>2026-04-11T08:09:19Z</time></trkpt><trkpt lat="42.23291074102026" lon="11.719534788125614"><ele>8.0</ele><time>2026-04-11T08:09:20Z</time></trkpt><trkpt lat="42.23303692126672" lon="11.719372551572615"><ele>8.0</ele><time>2026-04-11T08:09:21Z</time></trkpt><trkpt lat="42.233170436481025" lon="11.71922535453363"><ele>8.0</ele><time>2026-04-11T08:09:22Z</time></trkpt><trkpt lat="42.23330629804413" lon="11.71906344726192"><ele>8.0</ele><time>2026-04-11T08:09:23Z</time></trkpt><trkpt lat="42.23344826469188" lon="11.718894264667043"><ele>8.0</ele><time>2026-04-11T08:09:24Z</time></trkpt><trkpt lat="42.23358575885701" lon="11.718730411761003"><ele>8.0</ele><time>2026-04-11T08:09:25Z</time></trkpt><trkpt lat="42.233730952892486" lon="11.71855738305071"><ele>8.0</ele><time>2026-04-11T08:09:26Z</time></trkpt><trkpt lat="42.23388422983637" lon="11.718374721695456"><ele>8.0</ele><time>2026-04-11T08:09:27Z</time></trkpt><trkpt lat="42.23403067584568" lon="11.718200200879703"><ele>8.333333333333332</ele><time>2026-04-11T08:09:28Z</time></trkpt><trkpt lat="42.23418098984829" lon="11.718021606039045"><ele>8.666666666666666</ele><time>2026-04-11T08:09:29Z</time></trkpt><trkpt lat="42.23432780551364" lon="11.717847747660974"><ele>9.0</ele><time>2026-04-11T08:09:30Z</time></trkpt><trkpt lat="42.234478602988" lon="11.717669174171883"><ele>9.5</ele><time>2026-04-11T08:09:31Z</time></trkpt><trkpt lat="42.23464395976968" lon="11.717473359427665"><ele>10.0</ele><time>2026-04-11T08:09:32Z</time></trkpt><trkpt lat="42.234827975520126" lon="11.71725507596715"><ele>10.0</ele><time>2026-04-11T08:09:33Z</time></trkpt><trkpt lat="42.23499146068364" lon="11.717060229465492"><ele>10.0</ele><time>2026-04-11T08:09:34Z</time></trkpt><trkpt lat="42.235147356058604" lon="11.716874428609016"><ele>10.0</ele><time>2026-04-11T08:09:35Z</time></trkpt><trkpt lat="42.23530580542511" lon="11.716685584044034"><ele>9.666666666666668</ele><time>2026-04-11T08:09:36Z</time></trkpt><trkpt lat="42.23544845087833" lon="11.716490171436858"><ele>9.333333333333334</ele><time>2026-04-11T08:09:37Z</time></trkpt><trkpt lat="42.23561709399531" lon="11.716315836472463"><ele>9.0</ele><time>2026-04-11T08:09:38Z</time></trkpt><trkpt lat="42.23575531429116" lon="11.716130582688885"><ele>8.666666666666666</ele><time>2026-04-11T08:09:39Z</time></trkpt><trkpt lat="42.23590051858234" lon="11.71595744419734"><ele>8.333333333333332</ele><time>2026-04-11T08:09:40Z</time></trkpt><trkpt lat="42.23605330563092" lon="11.715791614578178"><ele>8.0</ele><time>2026-04-11T08:09:41Z</time></trkpt><trkpt lat="42.23620035001632" lon="11.715615616671508"><ele>8.0</ele><time>2026-04-11T08:09:42Z</time></trkpt><trkpt lat="42.23634112457809" lon="11.715423852156073"><ele>8.0</ele><time>2026-04-11T08:09:43Z</time></trkpt><trkpt lat="42.23649638334762" lon="11.715254135086772"><ele>8.0</ele><time>2026-04-11T08:09:44Z</time></trkpt><trkpt lat="42.236642038053965" lon="11.715094877869424"><ele>8.333333333333332</ele><time>2026-04-11T08:09:45Z</time></trkpt><trkpt lat="42.23679716740603" lon="11.714927247158899"><ele>8.666666666666666</ele><time>2026-04-11T08:09:46Z</time></trkpt><trkpt lat="42.236938705572435" lon="11.714761545991177"><ele>9.0</ele><time>2026-04-11T08:09:47Z</time></trkpt><trkpt lat="42.23710575345665" lon="11.7145997709984"><ele>9.0</ele><time>2026-04-11T08:09:48Z</time></trkpt><trkpt lat="42.237231215188515" lon="11.71444032819563"><ele>9.0</ele><time>2026-04-11T08:09:49Z</time></trkpt><trkpt lat="42.237357887236506" lon="11.714266789738598"><ele>9.0</ele><time>2026-04-11T08:09:50Z</time></trkpt><trkpt lat="42.23748939555977" lon="11.714108097970346"><ele>8.666666666666666</ele><time>2026-04-11T08:09:51Z</time></trkpt><trkpt lat="42.23762335682024" lon="11.713962872296603"><ele>8.333333333333332</ele><time>2026-04-11T08:09:52Z</time></trkpt><trkpt lat="42.23775442265079" lon="11.713820130066381"><ele>8.0</ele><time>2026-04-11T08:09:53Z</time></trkpt><trkpt lat="42.23787622047782" lon="11.713671408671434"><ele>8.0</ele><time>2026-04-11T08:09:54Z</time></trkpt><trkpt lat="42.23800928550255" lon="11.713527522865794"><ele>8.0</ele><time>2026-04-11T08:09:55Z</time></trkpt><trkpt lat="42.23814112680597" lon="11.713390328815631"><ele>8.0</ele><time>2026-04-11T08:09:56Z</time></trkpt><trkpt lat="42.23826491379084" lon="11.713261519567116"><ele>8.666666666666666</ele><time>2026-04-11T08:09:57Z</time></trkpt><trkpt lat="42.23843595066772" lon="11.713121720879283"><ele>9.333333333333334</ele><time>2026-04-11T08:09:58Z</time></trkpt><trkpt lat="42.23861217098241" lon="11.712987552568757"><ele>10.0</ele><time>2026-04-11T08:09:59Z</time></trkpt><trkpt lat="42.23880585786726" lon="11.712852582331148"><ele>9.666666666666668</ele><time>2026-04-11T08:10:00Z</time></trkpt><trkpt lat="42.23898548896211" lon="11.712722241373271"><ele>9.333333333333334</ele><time>2026-04-11T08:10:01Z</time></trkpt><trkpt lat="42.23918927117873" lon="11.712587218544426"><ele>9.0</ele><time>2026-04-11T08:10:02Z</time></trkpt><trkpt lat="42.239370042307534" lon="11.712460901932092"><ele>9.0</ele><time>2026-04-11T08:10:03Z</time></trkpt><trkpt lat="42.239549896395275" lon="11.71233692193198"><ele>9.0</ele><time>2026-04-11T08:10:04Z</time></trkpt><trkpt lat="42.23973473568182" lon="11.712214430433713"><ele>9.0</ele><time>2026-04-11T08:10:05Z</time></trkpt><trkpt lat="42.23991547054755" lon="11.712092377551683"><ele>9.0</ele><time>2026-04-11T08:10:06Z</time></trkpt><trkpt lat="42.24008892421319" lon="11.711978947769088"><ele>9.0</ele><time>2026-04-11T08:10:07Z</time></trkpt><trkpt lat="42.24025709762979" lon="11.711866047271279"><ele>9.0</ele><time>2026-04-11T08:10:08Z</time></trkpt><trkpt lat="42.24041329060095" lon="11.71175757190923"><ele>8.333333333333334</ele><time>2026-04-11T08:10:09Z</time></trkpt><trkpt lat="42.24057666480352" lon="11.711672371242743"><ele>7.666666666666667</ele><time>2026-04-11T08:10:10Z</time></trkpt><trkpt lat="42.240722185303134" lon="11.711574618160963"><ele>7.0</ele><time>2026-04-11T08:10:11Z</time></trkpt><trkpt lat="42.24089182716958" lon="11.711462485363825"><ele>6.666666666666667</ele><time>2026-04-11T08:10:12Z</time></trkpt><trkpt lat="42.24106297358357" lon="11.711330046341514"><ele>6.333333333333334</ele><time>2026-04-11T08:10:13Z</time></trkpt><trkpt lat="42.24123528814547" lon="11.711219601916058"><ele>6.0</ele><time>2026-04-11T08:10:14Z</time></trkpt><trkpt lat="42.24140342200562" lon="11.711123176348968"><ele>5.666666666666667</ele><time>2026-04-11T08:10:15Z</time></trkpt><trkpt lat="42.241563672903965" lon="11.710994284607565"><ele>5.333333333333334</ele><time>2026-04-11T08:10:16Z</time></trkpt><trkpt lat="42.24173449306566" lon="11.710882312054375"><ele>5.0</ele><time>2026-04-11T08:10:17Z</time></trkpt><trkpt lat="42.24190126252624" lon="11.710767727146262"><ele>5.0</ele><time>2026-04-11T08:10:18Z</time></trkpt><trkpt lat="42.24207089026041" lon="11.71067929085632"><ele>5.0</ele><time>2026-04-11T08:10:19Z</time></trkpt><trkpt lat="42.24222407318204" lon="11.710576005337948"><ele>5.0</ele><time>2026-04-11T08:10:20Z</time></trkpt><trkpt lat="42.242385079366976" lon="11.710466127787942"><ele>5.0</ele><time>2026-04-11T08:10:21Z</time></trkpt><trkpt lat="42.24255033336406" lon="11.710358360648787"><ele>5.0</ele><time>2026-04-11T08:10:22Z</time></trkpt><trkpt lat="42.24270857410313" lon="11.710255930797837"><ele>5.0</ele><time>2026-04-11T08:10:23Z</time></trkpt><trkpt lat="42.24285060830917" lon="11.710160269936715"><ele>4.333333333333334</ele><time>2026-04-11T08:10:24Z</time></trkpt><trkpt lat="42.24300791961684" lon="11.7100534347829"><ele>3.666666666666667</ele><time>2026-04-11T08:10:25Z</time></trkpt><trkpt lat="42.24317113175208" lon="11.709943595612351"><ele>3.0</ele><time>2026-04-11T08:10:26Z</time></trkpt><trkpt lat="42.243326570093586" lon="11.709838156890447"><ele>2.3333333333333335</ele><time>2026-04-11T08:10:27Z</time></trkpt><trkpt lat="42.243463630902326" lon="11.70974467309122"><ele>1.6666666666666665</ele><time>2026-04-11T08:10:28Z</time></trkpt><trkpt lat="42.24358697240658" lon="11.709662058764527"><ele>1.0</ele><time>2026-04-11T08:10:29Z</time></trkpt><trkpt lat="42.24375294148944" lon="11.709553072155138"><ele>1.0</ele><time>2026-04-11T08:10:30Z</time></trkpt><trkpt lat="42.243896957238356" lon="11.709457838679986"><ele>1.0</ele><time>2026-04-11T08:10:31Z</time></trkpt><trkpt lat="42.24404329344844" lon="11.709361070614566"><ele>1.0</ele><time>2026-04-11T08:10:32Z</time></trkpt><trkpt lat="42.24419300430768" lon="11.709262070948146"><ele>1.0</ele><time>2026-04-11T08:10:33Z</time></trkpt><trkpt lat="42.24434160430476" lon="11.709163805885709"><ele>1.0</ele><time>2026-04-11T08:10:34Z</time></trkpt><trkpt lat="42.24449279413662" lon="11.709063818288106"><ele>1.0</ele><time>2026-04-11T08:10:35Z</time></trkpt><trkpt lat="42.24464383616284" lon="11.708963156952205"><ele>1.6666666666666665</ele><time>2026-04-11T08:10:36Z</time></trkpt><trkpt lat="42.2448003690971" lon="11.70885882489744"><ele>2.3333333333333335</ele><time>2026-04-11T08:10:37Z</time></trkpt><trkpt lat="42.244946844851" lon="11.708737425360711"><ele>3.0</ele><time>2026-04-11T08:10:38Z</time></trkpt><trkpt lat="42.24509752444503" lon="11.708660341861885"><ele>3.333333333333333</ele><time>2026-04-11T08:10:39Z</time></trkpt><trkpt lat="42.24524671729871" lon="11.708560689465278"><ele>3.6666666666666665</ele><time>2026-04-11T08:10:40Z</time></trkpt><trkpt lat="42.24541976651998" lon="11.708456219087083"><ele>4.0</ele><time>2026-04-11T08:10:41Z</time></trkpt><trkpt lat="42.24559625745484" lon="11.70834545003372"><ele>3.6666666666666665</ele><time>2026-04-11T08:10:42Z</time></trkpt><trkpt lat="42.245786457097665" lon="11.70821957699974"><ele>3.333333333333333</ele><time>2026-04-11T08:10:43Z</time></trkpt><trkpt lat="42.24597465689608" lon="11.708104266054233"><ele>3.0</ele><time>2026-04-11T08:10:44Z</time></trkpt><trkpt lat="42.24616315872887" lon="11.707986044777916"><ele>3.0</ele><time>2026-04-11T08:10:45Z</time></trkpt><trkpt lat="42.24634011402743" lon="11.7078713636354"><ele>3.0</ele><time>2026-04-11T08:10:46Z</time></trkpt><trkpt lat="42.24651652659368" lon="11.707750367449023"><ele>3.0</ele><time>2026-04-11T08:10:47Z</time></trkpt><trkpt lat="42.24669191173995" lon="11.707637301115481"><ele>3.0</ele><time>2026-04-11T08:10:48Z</time></trkpt><trkpt lat="42.24687929614039" lon="11.70751515442438"><ele>3.0</ele><time>2026-04-11T08:10:49Z</time></trkpt><trkpt lat="42.24705333871353" lon="11.707393585143258"><ele>3.0</ele><time>2026-04-11T08:10:50Z</time></trkpt><trkpt lat="42.24720851200798" lon="11.707282193056981"><ele>3.0</ele><time>2026-04-11T08:10:51Z</time></trkpt><trkpt lat="42.24736197621642" lon="11.707170073505118"><ele>3.0</ele><time>2026-04-11T08:10:52Z</time></trkpt><trkpt lat="42.24751217642672" lon="11.70706377274614"><ele>3.0</ele><time>2026-04-11T08:10:53Z</time></trkpt><trkpt lat="42.24768705088288" lon="11.706955511323844"><ele>3.0</ele><time>2026-04-11T08:10:54Z</time></trkpt><trkpt lat="42.247834128584884" lon="11.70683709261509"><ele>3.0</ele><time>2026-04-11T08:10:55Z</time></trkpt><trkpt lat="42.247996482770496" lon="11.706738817280973"><ele>3.0</ele><time>2026-04-11T08:10:56Z</time></trkpt><trkpt lat="42.2481320107442" lon="11.706648613675544"><ele>3.0</ele><time>2026-04-11T08:10:57Z</time></trkpt><trkpt lat="42.24827774111404" lon="11.706558331306816"><ele>3.0</ele><time>2026-04-11T08:10:58Z</time></trkpt><trkpt lat="42.24841826694174" lon="11.706473812561313"><ele>3.0</ele><time>2026-04-11T08:10:59Z</time></trkpt><trkpt lat="42.2485508681745" lon="11.706376249504125"><ele>3.0</ele><time>2026-04-11T08:11:00Z</time></trkpt><trkpt lat="42.24869814105599" lon="11.706298209072223"><ele>3.0</ele><time>2026-04-11T08:11:01Z</time></trkpt><trkpt lat="42.248846913671734" lon="11.70623553626021"><ele>3.0</ele><time>2026-04-11T08:11:02Z</time></trkpt><trkpt lat="42.24901188352177" lon="11.70618240835922"><ele>3.0</ele><time>2026-04-11T08:11:03Z</time></trkpt><trkpt lat="42.24919067129836" lon="11.706141146166777"><ele>3.0</ele><time>2026-04-11T08:11:04Z</time></trkpt><trkpt lat="42.24935822414945" lon="11.706114790991245"><ele>3.0</ele><time>2026-04-11T08:11:05Z</time></trkpt><trkpt lat="42.24951834354958" lon="11.706090503874183"><ele>3.0</ele><time>2026-04-11T08:11:06Z</time></trkpt><trkpt lat="42.2496701208597" lon="11.706084430340532"><ele>3.0</ele><time>2026-04-11T08:11:07Z</time></trkpt><trkpt lat="42.24981814625157" lon="11.70608555546452"><ele>3.0</ele><time>2026-04-11T08:11:08Z</time></trkpt><trkpt lat="42.249956651535214" lon="11.706084188521453"><ele>3.0</ele><time>2026-04-11T08:11:09Z</time></trkpt><trkpt lat="42.2501000428086" lon="11.706076383609181"><ele>3.5</ele><time>2026-04-11T08:11:10Z</time></trkpt><trkpt lat="42.25025475066528" lon="11.70606896799971"><ele>4.0</ele><time>2026-04-11T08:11:11Z</time></trkpt><trkpt lat="42.25040584617396" lon="11.70606403317943"><ele>4.5</ele><time>2026-04-11T08:11:12Z</time></trkpt><trkpt lat="42.25053750858626" lon="11.706055599944403"><ele>5.0</ele><time>2026-04-11T08:11:13Z</time></trkpt><trkpt lat="42.25066444666477" lon="11.706051017880636"><ele>5.0</ele><time>2026-04-11T08:11:14Z</time></trkpt><trkpt lat="42.25078322833425" lon="11.706043946939928"><ele>5.0</ele><time>2026-04-11T08:11:15Z</time></trkpt><trkpt lat="42.25089071791326" lon="11.706039462749493"><ele>5.0</ele><time>2026-04-11T08:11:16Z</time></trkpt><trkpt lat="42.250983303970465" lon="11.706034784131802"><ele>5.0</ele><time>2026-04-11T08:11:17Z</time></trkpt><trkpt lat="42.25106694058237" lon="11.706036888335237"><ele>5.0</ele><time>2026-04-11T08:11:18Z</time></trkpt><trkpt lat="42.2511467038316" lon="11.706059080317738"><ele>4.8</ele><time>2026-04-11T08:11:19Z</time></trkpt><trkpt lat="42.25121787616097" lon="11.706106548799049"><ele>4.6</ele><time>2026-04-11T08:11:20Z</time></trkpt><trkpt lat="42.25128765467195" lon="11.7061680763503"><ele>4.4</ele><time>2026-04-11T08:11:21Z</time></trkpt><trkpt lat="42.251356446931254" lon="11.706199373873028"><ele>4.2</ele><time>2026-04-11T08:11:22Z</time></trkpt><trkpt lat="42.251492050099074" lon="11.706196203273393"><ele>4.0</ele><time>2026-04-11T08:11:24Z</time></trkpt><trkpt lat="42.25157257284145" lon="11.706085104847405"><ele>4.75</ele><time>2026-04-11T08:11:25Z</time></trkpt><trkpt lat="42.25167050054566" lon="11.70602223177267"><ele>5.5</ele><time>2026-04-11T08:11:26Z</time></trkpt><trkpt lat="42.25178048694875" lon="11.705990636572432"><ele>6.25</ele><time>2026-04-11T08:11:27Z</time></trkpt><trkpt lat="42.25192588999121" lon="11.70600955201133"><ele>7.0</ele><time>2026-04-11T08:11:28Z</time></trkpt><trkpt lat="42.25209712782826" lon="11.705982615805318"><ele>7.0</ele><time>2026-04-11T08:11:29Z</time></trkpt><trkpt lat="42.25228614894086" lon="11.705982329412182"><ele>7.0</ele><time>2026-04-11T08:11:30Z</time></trkpt><trkpt lat="42.25246982629159" lon="11.705969213734846"><ele>7.0</ele><time>2026-04-11T08:11:31Z</time></trkpt><trkpt lat="42.252687522937315" lon="11.705963737247496"><ele>7.5</ele><time>2026-04-11T08:11:32Z</time></trkpt><trkpt lat="42.25292357299613" lon="11.70595675745731"><ele>8.0</ele><time>2026-04-11T08:11:33Z</time></trkpt><trkpt lat="42.25317623103737" lon="11.705942401196804"><ele>8.0</ele><time>2026-04-11T08:11:34Z</time></trkpt><trkpt lat="42.25341816783419" lon="11.705932271870468"><ele>8.0</ele><time>2026-04-11T08:11:35Z</time></trkpt><trkpt lat="42.25364297981212" lon="11.705921173123913"><ele>8.0</ele><time>2026-04-11T08:11:36Z</time></trkpt><trkpt lat="42.25384998130412" lon="11.7059092719787"><ele>8.0</ele><time>2026-04-11T08:11:37Z</time></trkpt><trkpt lat="42.25406506111989" lon="11.705897636613933"><ele>8.0</ele><time>2026-04-11T08:11:38Z</time></trkpt><trkpt lat="42.254265959394566" lon="11.705911995747327"><ele>9.0</ele><time>2026-04-11T08:11:39Z</time></trkpt><trkpt lat="42.25446545472841" lon="11.705885035879621"><ele>10.0</ele><time>2026-04-11T08:11:40Z</time></trkpt><trkpt lat="42.254667855696596" lon="11.705880360825907"><ele>11.0</ele><time>2026-04-11T08:11:41Z</time></trkpt><trkpt lat="42.25486667859636" lon="11.70587709327817"><ele>11.666666666666666</ele><time>2026-04-11T08:11:42Z</time></trkpt><trkpt lat="42.25506057288372" lon="11.705869550371037"><ele>12.333333333333332</ele><time>2026-04-11T08:11:43Z</time></trkpt><trkpt lat="42.255248657926046" lon="11.705861726109159"><ele>13.0</ele><time>2026-04-11T08:11:44Z</time></trkpt><trkpt lat="42.255431152829416" lon="11.705857868480063"><ele>13.0</ele><time>2026-04-11T08:11:45Z</time></trkpt><trkpt lat="42.25561133306851" lon="11.705855440905891"><ele>13.0</ele><time>2026-04-11T08:11:46Z</time></trkpt><trkpt lat="42.25578873501252" lon="11.70585428937945"><ele>13.0</ele><time>2026-04-11T08:11:47Z</time></trkpt><trkpt lat="42.25597019744517" lon="11.705847044078133"><ele>13.333333333333332</ele><time>2026-04-11T08:11:48Z</time></trkpt><trkpt lat="42.256157180440624" lon="11.705837093752871"><ele>13.666666666666668</ele><time>2026-04-11T08:11:49Z</time></trkpt><trkpt lat="42.25634545184617" lon="11.705831277656303"><ele>14.0</ele><time>2026-04-11T08:11:50Z</time></trkpt><trkpt lat="42.25654039996025" lon="11.705826885899592"><ele>14.0</ele><time>2026-04-11T08:11:51Z</time></trkpt><trkpt lat="42.25673713875107" lon="11.705822562375975"><ele>14.0</ele><time>2026-04-11T08:11:52Z</time></trkpt><trkpt lat="42.2569320714415" lon="11.70581600277523"><ele>14.0</ele><time>2026-04-11T08:11:53Z</time></trkpt><trkpt lat="42.25712424658931" lon="11.70580754963284"><ele>13.666666666666668</ele><time>2026-04-11T08:11:54Z</time></trkpt><trkpt lat="42.25731948270819" lon="11.705792874748628"><ele>13.333333333333332</ele><time>2026-04-11T08:11:55Z</time></trkpt><trkpt lat="42.257528786114214" lon="11.705783626506875"><ele>13.0</ele><time>2026-04-11T08:11:56Z</time></trkpt><trkpt lat="42.257749009777676" lon="11.705770473118594"><ele>13.0</ele><time>2026-04-11T08:11:57Z</time></trkpt><trkpt lat="42.25794469356665" lon="11.705766783488048"><ele>13.0</ele><time>2026-04-11T08:11:58Z</time></trkpt><trkpt lat="42.25812717774066" lon="11.705758056223152"><ele>13.0</ele><time>2026-04-11T08:11:59Z</time></trkpt><trkpt lat="42.25830704020099" lon="11.705749456362959"><ele>13.0</ele><time>2026-04-11T08:12:00Z</time></trkpt><trkpt lat="42.2584869356734" lon="11.70574877575032"><ele>13.0</ele><time>2026-04-11T08:12:01Z</time></trkpt><trkpt lat="42.25866746518863" lon="11.705742834001276"><ele>13.0</ele><time>2026-04-11T08:12:02Z</time></trkpt><trkpt lat="42.25885268734095" lon="11.7057354664159"><ele>12.666666666666666</ele><time>2026-04-11T08:12:03Z</time></trkpt><trkpt lat="42.259033575088004" lon="11.705726998153203"><ele>12.333333333333332</ele><time>2026-04-11T08:12:04Z</time></trkpt><trkpt lat="42.25922230233749" lon="11.705707952162857"><ele>12.0</ele><time>2026-04-11T08:12:05Z</time></trkpt><trkpt lat="42.25942275315848" lon="11.705670049819814"><ele>12.0</ele><time>2026-04-11T08:12:06Z</time></trkpt><trkpt lat="42.25961291393222" lon="11.705621811012112"><ele>12.0</ele><time>2026-04-11T08:12:07Z</time></trkpt><trkpt lat="42.25979783040386" lon="11.705555988631444"><ele>12.0</ele><time>2026-04-11T08:12:08Z</time></trkpt><trkpt lat="42.25997895174111" lon="11.705476120830129"><ele>13.666666666666668</ele><time>2026-04-11T08:12:09Z</time></trkpt><trkpt lat="42.26014157206301" lon="11.70538646337375"><ele>15.333333333333334</ele><time>2026-04-11T08:12:10Z</time></trkpt><trkpt lat="42.26030315721608" lon="11.705289238722512"><ele>17.0</ele><time>2026-04-11T08:12:11Z</time></trkpt><trkpt lat="42.26046827129985" lon="11.705169246480231"><ele>17.333333333333336</ele><time>2026-04-11T08:12:12Z</time></trkpt><trkpt lat="42.26062661139157" lon="11.705029662233247"><ele>17.666666666666668</ele><time>2026-04-11T08:12:13Z</time></trkpt><trkpt lat="42.2607846160858" lon="11.704907899220025"><ele>18.0</ele><time>2026-04-11T08:12:14Z</time></trkpt><trkpt lat="42.26092452189127" lon="11.704774618829719"><ele>18.0</ele><time>2026-04-11T08:12:15Z</time></trkpt><trkpt lat="42.2610704705351" lon="11.704607383379242"><ele>18.0</ele><time>2026-04-11T08:12:16Z</time></trkpt><trkpt lat="42.26119971899206" lon="11.704480266863328"><ele>18.0</ele><time>2026-04-11T08:12:17Z</time></trkpt><trkpt lat="42.26132548017206" lon="11.704318823409151"><ele>18.333333333333332</ele><time>2026-04-11T08:12:18Z</time></trkpt><trkpt lat="42.26143819577392" lon="11.7041566819565"><ele>18.666666666666664</ele><time>2026-04-11T08:12:19Z</time></trkpt><trkpt lat="42.26155060414885" lon="11.703986486082673"><ele>19.0</ele><time>2026-04-11T08:12:20Z</time></trkpt><trkpt lat="42.26166444249426" lon="11.703809116550072"><ele>20.0</ele><time>2026-04-11T08:12:21Z</time></trkpt><trkpt lat="42.2617662405638" lon="11.70364963454627"><ele>21.0</ele><time>2026-04-11T08:12:22Z</time></trkpt><trkpt lat="42.261870544916725" lon="11.703483794373431"><ele>22.0</ele><time>2026-04-11T08:12:23Z</time></trkpt><trkpt lat="42.261962848277186" lon="11.703337035042178"><ele>22.0</ele><time>2026-04-11T08:12:24Z</time></trkpt><trkpt lat="42.262055754874936" lon="11.703189316816749"><ele>22.0</ele><time>2026-04-11T08:12:25Z</time></trkpt><trkpt lat="42.26214906683969" lon="11.703040954049422"><ele>22.0</ele><time>2026-04-11T08:12:26Z</time></trkpt><trkpt lat="42.262250697874556" lon="11.702880627612807"><ele>22.0</ele><time>2026-04-11T08:12:27Z</time></trkpt><trkpt lat="42.2623544096322" lon="11.702719051433307"><ele>21.666666666666664</ele><time>2026-04-11T08:12:28Z</time></trkpt><trkpt lat="42.26245562611356" lon="11.702561362532606"><ele>21.333333333333332</ele><time>2026-04-11T08:12:29Z</time></trkpt><trkpt lat="42.262561886581764" lon="11.70239581330349"><ele>21.0</ele><time>2026-04-11T08:12:30Z</time></trkpt><trkpt lat="42.26266870800175" lon="11.702228205046644"><ele>21.0</ele><time>2026-04-11T08:12:31Z</time></trkpt><trkpt lat="42.26277392954954" lon="11.70206310721117"><ele>21.0</ele><time>2026-04-11T08:12:32Z</time></trkpt><trkpt lat="42.262876349450394" lon="11.701902405302212"><ele>21.0</ele><time>2026-04-11T08:12:33Z</time></trkpt><trkpt lat="42.26297946637183" lon="11.70174060974275"><ele>21.0</ele><time>2026-04-11T08:12:34Z</time></trkpt><trkpt lat="42.263075696535424" lon="11.701589224825838"><ele>21.0</ele><time>2026-04-11T08:12:35Z</time></trkpt><trkpt lat="42.26317988174087" lon="11.701423850450006"><ele>21.0</ele><time>2026-04-11T08:12:36Z</time></trkpt><trkpt lat="42.263285685767826" lon="11.701254937956373"><ele>21.333333333333332</ele><time>2026-04-11T08:12:37Z</time></trkpt><trkpt lat="42.26338806790132" lon="11.701091165263621"><ele>21.666666666666664</ele><time>2026-04-11T08:12:38Z</time></trkpt><trkpt lat="42.26348686392532" lon="11.700933879165813"><ele>22.0</ele><time>2026-04-11T08:12:39Z</time></trkpt><trkpt lat="42.26357662817402" lon="11.700761675204355"><ele>22.666666666666664</ele><time>2026-04-11T08:12:40Z</time></trkpt><trkpt lat="42.263702457492016" lon="11.700605740425186"><ele>23.333333333333332</ele><time>2026-04-11T08:12:41Z</time></trkpt><trkpt lat="42.263814328251065" lon="11.700437594689896"><ele>24.0</ele><time>2026-04-11T08:12:42Z</time></trkpt><trkpt lat="42.263921347604494" lon="11.700286152451529"><ele>25.0</ele><time>2026-04-11T08:12:43Z</time></trkpt><trkpt lat="42.26402445373212" lon="11.700127766184677"><ele>26.0</ele><time>2026-04-11T08:12:44Z</time></trkpt><trkpt lat="42.26413636363669" lon="11.699969684250346"><ele>27.0</ele><time>2026-04-11T08:12:45Z</time></trkpt><trkpt lat="42.26424543133528" lon="11.699789820656534"><ele>27.0</ele><time>2026-04-11T08:12:46Z</time></trkpt><trkpt lat="42.26433919520096" lon="11.699625429322587"><ele>27.0</ele><time>2026-04-11T08:12:47Z</time></trkpt><trkpt lat="42.26443997113662" lon="11.699448503565382"><ele>27.0</ele><time>2026-04-11T08:12:48Z</time></trkpt><trkpt lat="42.26453853333599" lon="11.699268141927675"><ele>26.333333333333336</ele><time>2026-04-11T08:12:49Z</time></trkpt><trkpt lat="42.26464123040859" lon="11.699089874260858"><ele>25.666666666666668</ele><time>2026-04-11T08:12:50Z</time></trkpt><trkpt lat="42.26474910876811" lon="11.698916124564617"><ele>25.0</ele><time>2026-04-11T08:12:51Z</time></trkpt><trkpt lat="42.264861000147754" lon="11.698737508079594"><ele>24.333333333333336</ele><time>2026-04-11T08:12:52Z</time></trkpt><trkpt lat="42.264988139987565" lon="11.698567126322963"><ele>23.666666666666668</ele><time>2026-04-11T08:12:53Z</time></trkpt><trkpt lat="42.26510402447129" lon="11.698384284961943"><ele>23.0</ele><time>2026-04-11T08:12:54Z</time></trkpt><trkpt lat="42.26522022345708" lon="11.698200947390152"><ele>23.0</ele><time>2026-04-11T08:12:55Z</time></trkpt><trkpt lat="42.26533208387993" lon="11.6980244551352"><ele>23.0</ele><time>2026-04-11T08:12:56Z</time></trkpt><trkpt lat="42.265436124109954" lon="11.697829715298484"><ele>23.0</ele><time>2026-04-11T08:12:57Z</time></trkpt><trkpt lat="42.26554603466007" lon="11.697663102942872"><ele>24.0</ele><time>2026-04-11T08:12:58Z</time></trkpt><trkpt lat="42.26564671675039" lon="11.69751085939293"><ele>25.0</ele><time>2026-04-11T08:12:59Z</time></trkpt><trkpt lat="42.26574080581785" lon="11.697373449390046"><ele>26.0</ele><time>2026-04-11T08:13:00Z</time></trkpt><trkpt lat="42.26583333011364" lon="11.697254622034261"><ele>27.0</ele><time>2026-04-11T08:13:01Z</time></trkpt><trkpt lat="42.26590654792799" lon="11.697144515511285"><ele>27.0</ele><time>2026-04-11T08:13:02Z</time></trkpt><trkpt lat="42.26597260454218" lon="11.697052247169154"><ele>27.000000000000004</ele><time>2026-04-11T08:13:03Z</time></trkpt><trkpt lat="42.26603632230375" lon="11.696962266944853"><ele>27.000000000000004</ele><time>2026-04-11T08:13:04Z</time></trkpt><trkpt lat="42.26609358785798" lon="11.696870862551872"><ele>27.0</ele><time>2026-04-11T08:13:05Z</time></trkpt><trkpt lat="42.26614798219686" lon="11.696779372130083"><ele>27.0</ele><time>2026-04-11T08:13:06Z</time></trkpt><trkpt lat="42.266206529380966" lon="11.696680492334815"><ele>26.6</ele><time>2026-04-11T08:13:07Z</time></trkpt><trkpt lat="42.26626451151342" lon="11.696574591243296"><ele>26.200000000000003</ele><time>2026-04-11T08:13:08Z</time></trkpt><trkpt lat="42.266319065312956" lon="11.696471989603427"><ele>25.8</ele><time>2026-04-11T08:13:09Z</time></trkpt><trkpt lat="42.26638957009167" lon="11.696354763815611"><ele>25.4</ele><time>2026-04-11T08:13:10Z</time></trkpt><trkpt lat="42.26646382239145" lon="11.696239924931014"><ele>25.0</ele><time>2026-04-11T08:13:11Z</time></trkpt><trkpt lat="42.2665279312382" lon="11.696133203948701"><ele>24.2</ele><time>2026-04-11T08:13:12Z</time></trkpt><trkpt lat="42.266596820739956" lon="11.696022428711565"><ele>23.4</ele><time>2026-04-11T08:13:13Z</time></trkpt><trkpt lat="42.26666101569268" lon="11.695908581573432"><ele>22.6</ele><time>2026-04-11T08:13:14Z</time></trkpt><trkpt lat="42.26673991811959" lon="11.695790797215183"><ele>21.8</ele><time>2026-04-11T08:13:15Z</time></trkpt><trkpt lat="42.266813410300614" lon="11.695678920865683"><ele>21.0</ele><time>2026-04-11T08:13:16Z</time></trkpt><trkpt lat="42.26689633338139" lon="11.695553698711311"><ele>21.0</ele><time>2026-04-11T08:13:17Z</time></trkpt><trkpt lat="42.26699181904254" lon="11.69539709062595"><ele>21.0</ele><time>2026-04-11T08:13:18Z</time></trkpt><trkpt lat="42.26709815224295" lon="11.695220015659629"><ele>21.0</ele><time>2026-04-11T08:13:19Z</time></trkpt><trkpt lat="42.26720863159645" lon="11.695034846306092"><ele>20.666666666666668</ele><time>2026-04-11T08:13:20Z</time></trkpt><trkpt lat="42.26732672108295" lon="11.694851490024158"><ele>20.333333333333336</ele><time>2026-04-11T08:13:21Z</time></trkpt><trkpt lat="42.267434304394726" lon="11.694683651228795"><ele>20.0</ele><time>2026-04-11T08:13:22Z</time></trkpt><trkpt lat="42.26753389483808" lon="11.694527556169808"><ele>20.0</ele><time>2026-04-11T08:13:23Z</time></trkpt><trkpt lat="42.26764181559109" lon="11.694358956788882"><ele>20.0</ele><time>2026-04-11T08:13:24Z</time></trkpt><trkpt lat="42.26773779804148" lon="11.694199212886822"><ele>20.0</ele><time>2026-04-11T08:13:25Z</time></trkpt><trkpt lat="42.267837421807194" lon="11.694044605433035"><ele>20.0</ele><time>2026-04-11T08:13:26Z</time></trkpt><trkpt lat="42.2679324334558" lon="11.693894769690244"><ele>20.0</ele><time>2026-04-11T08:13:27Z</time></trkpt><trkpt lat="42.26803809337039" lon="11.693759924227777"><ele>20.0</ele><time>2026-04-11T08:13:28Z</time></trkpt><trkpt lat="42.268127589242646" lon="11.693597509053374"><ele>20.0</ele><time>2026-04-11T08:13:29Z</time></trkpt><trkpt lat="42.268223856403914" lon="11.69344983624139"><ele>20.25</ele><time>2026-04-11T08:13:30Z</time></trkpt><trkpt lat="42.26831935307492" lon="11.693299750605545"><ele>20.5</ele><time>2026-04-11T08:13:31Z</time></trkpt><trkpt lat="42.26841582886652" lon="11.693154010491542"><ele>20.75</ele><time>2026-04-11T08:13:32Z</time></trkpt><trkpt lat="42.26850864119443" lon="11.693006779813318"><ele>21.0</ele><time>2026-04-11T08:13:33Z</time></trkpt><trkpt lat="42.268604490311326" lon="11.6928537659229"><ele>21.0</ele><time>2026-04-11T08:13:34Z</time></trkpt><trkpt lat="42.26869046107458" lon="11.692706350882307"><ele>21.0</ele><time>2026-04-11T08:13:35Z</time></trkpt><trkpt lat="42.26878884169729" lon="11.692565909002209"><ele>21.0</ele><time>2026-04-11T08:13:36Z</time></trkpt><trkpt lat="42.268884399020486" lon="11.692413350162356"><ele>21.0</ele><time>2026-04-11T08:13:37Z</time></trkpt><trkpt lat="42.26898271962625" lon="11.692262450904712"><ele>20.5</ele><time>2026-04-11T08:13:38Z</time></trkpt><trkpt lat="42.26907957202272" lon="11.692112906432923"><ele>20.0</ele><time>2026-04-11T08:13:39Z</time></trkpt><trkpt lat="42.26917702543953" lon="11.69196014055893"><ele>19.5</ele><time>2026-04-11T08:13:40Z</time></trkpt><trkpt lat="42.26926806087829" lon="11.69180952162916"><ele>19.0</ele><time>2026-04-11T08:13:41Z</time></trkpt><trkpt lat="42.26936420492931" lon="11.691652298839353"><ele>18.75</ele><time>2026-04-11T08:13:42Z</time></trkpt><trkpt lat="42.269466990187325" lon="11.69150836698178"><ele>18.5</ele><time>2026-04-11T08:13:43Z</time></trkpt><trkpt lat="42.26954785309887" lon="11.691378651398972"><ele>18.25</ele><time>2026-04-11T08:13:44Z</time></trkpt><trkpt lat="42.26964836544982" lon="11.691260398548554"><ele>18.0</ele><time>2026-04-11T08:13:45Z</time></trkpt><trkpt lat="42.26972324512443" lon="11.691143464555756"><ele>17.6</ele><time>2026-04-11T08:13:46Z</time></trkpt><trkpt lat="42.26979234504895" lon="11.69102666609165"><ele>17.200000000000003</ele><time>2026-04-11T08:13:47Z</time></trkpt><trkpt lat="42.26985822047798" lon="11.690909767433588"><ele>16.8</ele><time>2026-04-11T08:13:48Z</time></trkpt><trkpt lat="42.2699279943067" lon="11.690796905830272"><ele>16.400000000000002</ele><time>2026-04-11T08:13:49Z</time></trkpt><trkpt lat="42.26999863141973" lon="11.69068338649724"><ele>16.0</ele><time>2026-04-11T08:13:50Z</time></trkpt><trkpt lat="42.27006549826467" lon="11.690578099313974"><ele>16.0</ele><time>2026-04-11T08:13:51Z</time></trkpt><trkpt lat="42.270122973949874" lon="11.69047567475006"><ele>16.0</ele><time>2026-04-11T08:13:52Z</time></trkpt><trkpt lat="42.2701866191417" lon="11.690374014524364"><ele>16.0</ele><time>2026-04-11T08:13:53Z</time></trkpt><trkpt lat="42.270239536354566" lon="11.69027653131286"><ele>16.0</ele><time>2026-04-11T08:13:54Z</time></trkpt><trkpt lat="42.27030671436002" lon="11.690177485246327"><ele>16.0</ele><time>2026-04-11T08:13:55Z</time></trkpt><trkpt lat="42.27036546371582" lon="11.69007621585013"><ele>16.2</ele><time>2026-04-11T08:13:56Z</time></trkpt><trkpt lat="42.27042909989958" lon="11.689974608006553"><ele>16.400000000000002</ele><time>2026-04-11T08:13:57Z</time></trkpt><trkpt lat="42.2704967940569" lon="11.689872522117694"><ele>16.6</ele><time>2026-04-11T08:13:58Z</time></trkpt><trkpt lat="42.27056095744309" lon="11.689779145976035"><ele>16.8</ele><time>2026-04-11T08:13:59Z</time></trkpt><trkpt lat="42.270617377758825" lon="11.689679403756536"><ele>17.0</ele><time>2026-04-11T08:14:00Z</time></trkpt><trkpt lat="42.27067854394472" lon="11.689574993578873"><ele>17.2</ele><time>2026-04-11T08:14:01Z</time></trkpt><trkpt lat="42.27075050040759" lon="11.689466958386813"><ele>17.4</ele><time>2026-04-11T08:14:02Z</time></trkpt><trkpt lat="42.27083605952673" lon="11.68937693906121"><ele>17.6</ele><time>2026-04-11T08:14:03Z</time></trkpt><trkpt lat="42.270899882102974" lon="11.689272306201042"><ele>17.8</ele><time>2026-04-11T08:14:04Z</time></trkpt><trkpt lat="42.27096174523655" lon="11.689165308487707"><ele>18.0</ele><time>2026-04-11T08:14:05Z</time></trkpt><trkpt lat="42.27102421756727" lon="11.689069461716514"><ele>18.0</ele><time>2026-04-11T08:14:06Z</time></trkpt><trkpt lat="42.271081550599746" lon="11.688964805911736"><ele>18.0</ele><time>2026-04-11T08:14:07Z</time></trkpt><trkpt lat="42.271150525099785" lon="11.688856971199538"><ele>18.0</ele><time>2026-04-11T08:14:08Z</time></trkpt><trkpt lat="42.27121177658302" lon="11.688748615304817"><ele>18.0</ele><time>2026-04-11T08:14:09Z</time></trkpt><trkpt lat="42.27128288008978" lon="11.688635247605914"><ele>18.0</ele><time>2026-04-11T08:14:10Z</time></trkpt><trkpt lat="42.271348313999376" lon="11.688519659310826"><ele>17.0</ele><time>2026-04-11T08:14:11Z</time></trkpt><trkpt lat="42.271446380201574" lon="11.688398378853176"><ele>16.0</ele><time>2026-04-11T08:14:12Z</time></trkpt><trkpt lat="42.271542876475635" lon="11.688246329215543"><ele>15.0</ele><time>2026-04-11T08:14:13Z</time></trkpt><trkpt lat="42.27163862656192" lon="11.688070864478481"><ele>14.0</ele><time>2026-04-11T08:14:14Z</time></trkpt><trkpt lat="42.27174167628481" lon="11.687919512704994"><ele>14.0</ele><time>2026-04-11T08:14:15Z</time></trkpt><trkpt lat="42.27182851263145" lon="11.687776611784772"><ele>14.0</ele><time>2026-04-11T08:14:16Z</time></trkpt><trkpt lat="42.271924257590896" lon="11.687627111738815"><ele>14.0</ele><time>2026-04-11T08:14:17Z</time></trkpt><trkpt lat="42.272014810419215" lon="11.687477519494834"><ele>14.0</ele><time>2026-04-11T08:14:18Z</time></trkpt><trkpt lat="42.27212352322831" lon="11.687328967851895"><ele>14.0</ele><time>2026-04-11T08:14:19Z</time></trkpt><trkpt lat="42.27223085684608" lon="11.687158781306819"><ele>14.0</ele><time>2026-04-11T08:14:20Z</time></trkpt><trkpt lat="42.27234504475329" lon="11.686977839641367"><ele>14.0</ele><time>2026-04-11T08:14:21Z</time></trkpt><trkpt lat="42.27245708875901" lon="11.68680172522635"><ele>14.0</ele><time>2026-04-11T08:14:22Z</time></trkpt><trkpt lat="42.272568727563" lon="11.686626115060369"><ele>14.0</ele><time>2026-04-11T08:14:23Z</time></trkpt><trkpt lat="42.27268838635546" lon="11.686437881110102"><ele>14.0</ele><time>2026-04-11T08:14:24Z</time></trkpt><trkpt lat="42.27280329496742" lon="11.68625773147505"><ele>14.666666666666668</ele><time>2026-04-11T08:14:25Z</time></trkpt><trkpt lat="42.27291292271056" lon="11.686087361945427"><ele>15.333333333333332</ele><time>2026-04-11T08:14:26Z</time></trkpt><trkpt lat="42.27302270322853" lon="11.685916755015263"><ele>16.0</ele><time>2026-04-11T08:14:27Z</time></trkpt><trkpt lat="42.27314301686546" lon="11.685729778870742"><ele>16.666666666666664</ele><time>2026-04-11T08:14:28Z</time></trkpt><trkpt lat="42.27325567765695" lon="11.68555469571951"><ele>17.333333333333332</ele><time>2026-04-11T08:14:29Z</time></trkpt><trkpt lat="42.2733582352172" lon="11.68539486625425"><ele>18.0</ele><time>2026-04-11T08:14:30Z</time></trkpt><trkpt lat="42.273457719736285" lon="11.685216687718453"><ele>18.0</ele><time>2026-04-11T08:14:31Z</time></trkpt><trkpt lat="42.27356487953091" lon="11.68506073164298"><ele>18.0</ele><time>2026-04-11T08:14:32Z</time></trkpt><trkpt lat="42.27366902710574" lon="11.684901814257755"><ele>18.0</ele><time>2026-04-11T08:14:33Z</time></trkpt><trkpt lat="42.27377094520023" lon="11.684748958382315"><ele>18.0</ele><time>2026-04-11T08:14:34Z</time></trkpt><trkpt lat="42.27387385562623" lon="11.684590640871363"><ele>18.0</ele><time>2026-04-11T08:14:35Z</time></trkpt><trkpt lat="42.27398126769137" lon="11.684435343660875"><ele>18.0</ele><time>2026-04-11T08:14:36Z</time></trkpt><trkpt lat="42.27408434770672" lon="11.684282103416903"><ele>18.25</ele><time>2026-04-11T08:14:37Z</time></trkpt><trkpt lat="42.27417095840634" lon="11.684120701575214"><ele>18.5</ele><time>2026-04-11T08:14:38Z</time></trkpt><trkpt lat="42.27425676158842" lon="11.683964893156785"><ele>18.75</ele><time>2026-04-11T08:14:39Z</time></trkpt><trkpt lat="42.274351745791705" lon="11.683806942003287"><ele>19.0</ele><time>2026-04-11T08:14:40Z</time></trkpt><trkpt lat="42.27445034678114" lon="11.683666110760177"><ele>18.333333333333332</ele><time>2026-04-11T08:14:41Z</time></trkpt><trkpt lat="42.27455605650232" lon="11.683518513217624"><ele>17.666666666666668</ele><time>2026-04-11T08:14:42Z</time></trkpt><trkpt lat="42.27465181517519" lon="11.683358292212386"><ele>17.0</ele><time>2026-04-11T08:14:43Z</time></trkpt><trkpt lat="42.27475207039091" lon="11.683195400709058"><ele>17.0</ele><time>2026-04-11T08:14:44Z</time></trkpt><trkpt lat="42.27484101730844" lon="11.683032528190187"><ele>17.0</ele><time>2026-04-11T08:14:45Z</time></trkpt><trkpt lat="42.274933547918565" lon="11.68288685413289"><ele>17.0</ele><time>2026-04-11T08:14:46Z</time></trkpt><trkpt lat="42.27502950680145" lon="11.682734408245107"><ele>17.0</ele><time>2026-04-11T08:14:47Z</time></trkpt><trkpt lat="42.27514839737941" lon="11.682595199674816"><ele>17.5</ele><time>2026-04-11T08:14:48Z</time></trkpt><trkpt lat="42.27524476220885" lon="11.682457870626628"><ele>18.0</ele><time>2026-04-11T08:14:49Z</time></trkpt><trkpt lat="42.27533434068876" lon="11.682308700301464"><ele>18.5</ele><time>2026-04-11T08:14:50Z</time></trkpt><trkpt lat="42.27541455846731" lon="11.682153601765886"><ele>19.0</ele><time>2026-04-11T08:14:51Z</time></trkpt><trkpt lat="42.275515402542695" lon="11.682023070985577"><ele>18.25</ele><time>2026-04-11T08:14:52Z</time></trkpt><trkpt lat="42.27560814789269" lon="11.681889102812834"><ele>17.5</ele><time>2026-04-11T08:14:53Z</time></trkpt><trkpt lat="42.275682610469616" lon="11.681734316444865"><ele>16.75</ele><time>2026-04-11T08:14:54Z</time></trkpt><trkpt lat="42.275788249535125" lon="11.681582088507058"><ele>16.0</ele><time>2026-04-11T08:14:55Z</time></trkpt><trkpt lat="42.27587061469354" lon="11.681435656281458"><ele>16.0</ele><time>2026-04-11T08:14:56Z</time></trkpt><trkpt lat="42.27595639169759" lon="11.681284042603757"><ele>16.0</ele><time>2026-04-11T08:14:57Z</time></trkpt><trkpt lat="42.276044194915606" lon="11.681147684752533"><ele>16.0</ele><time>2026-04-11T08:14:58Z</time></trkpt><trkpt lat="42.27613211341224" lon="11.680996973741944"><ele>16.0</ele><time>2026-04-11T08:14:59Z</time></trkpt><trkpt lat="42.27622280671202" lon="11.680851552409154"><ele>16.25</ele><time>2026-04-11T08:15:00Z</time></trkpt><trkpt lat="42.27633494557471" lon="11.680721428082103"><ele>16.5</ele><time>2026-04-11T08:15:01Z</time></trkpt><trkpt lat="42.276421964066685" lon="11.680578308469714"><ele>16.75</ele><time>2026-04-11T08:15:02Z</time></trkpt><trkpt lat="42.27649637220531" lon="11.680448961345627"><ele>17.0</ele><time>2026-04-11T08:15:03Z</time></trkpt><trkpt lat="42.27658251302607" lon="11.680300978780203"><ele>17.75</ele><time>2026-04-11T08:15:04Z</time></trkpt><trkpt lat="42.276659841894165" lon="11.680149424692873"><ele>18.5</ele><time>2026-04-11T08:15:05Z</time></trkpt><trkpt lat="42.27676441053565" lon="11.68001271656776"><ele>19.25</ele><time>2026-04-11T08:15:06Z</time></trkpt><trkpt lat="42.27686354309075" lon="11.679855961391143"><ele>20.0</ele><time>2026-04-11T08:15:07Z</time></trkpt><trkpt lat="42.27697699778912" lon="11.679697296591716"><ele>20.0</ele><time>2026-04-11T08:15:08Z</time></trkpt><trkpt lat="42.27707852832373" lon="11.679543317938004"><ele>20.0</ele><time>2026-04-11T08:15:09Z</time></trkpt><trkpt lat="42.27717876859247" lon="11.679381475713248"><ele>20.0</ele><time>2026-04-11T08:15:10Z</time></trkpt><trkpt lat="42.277268234647295" lon="11.679241153654715"><ele>20.0</ele><time>2026-04-11T08:15:11Z</time></trkpt><trkpt lat="42.27736536837693" lon="11.679079732906168"><ele>19.0</ele><time>2026-04-11T08:15:12Z</time></trkpt><trkpt lat="42.27746037617972" lon="11.678944356687618"><ele>18.0</ele><time>2026-04-11T08:15:13Z</time></trkpt><trkpt lat="42.27754176038564" lon="11.678801775668031"><ele>17.0</ele><time>2026-04-11T08:15:14Z</time></trkpt><trkpt lat="42.27762444147468" lon="11.678660463377602"><ele>16.0</ele><time>2026-04-11T08:15:15Z</time></trkpt><trkpt lat="42.27771299167812" lon="11.678515780676205"><ele>16.0</ele><time>2026-04-11T08:15:16Z</time></trkpt><trkpt lat="42.27779167885874" lon="11.678397690822152"><ele>16.0</ele><time>2026-04-11T08:15:17Z</time></trkpt><trkpt lat="42.27789253134385" lon="11.678260407396474"><ele>16.0</ele><time>2026-04-11T08:15:18Z</time></trkpt><trkpt lat="42.277970124459024" lon="11.678129544428684"><ele>16.0</ele><time>2026-04-11T08:15:19Z</time></trkpt><trkpt lat="42.278049397097085" lon="11.677998149953098"><ele>16.0</ele><time>2026-04-11T08:15:20Z</time></trkpt><trkpt lat="42.27813353483997" lon="11.677867169394446"><ele>16.0</ele><time>2026-04-11T08:15:21Z</time></trkpt><trkpt lat="42.27821552161787" lon="11.677739997016905"><ele>16.0</ele><time>2026-04-11T08:15:22Z</time></trkpt><trkpt lat="42.27829320021462" lon="11.677620619633588"><ele>16.0</ele><time>2026-04-11T08:15:23Z</time></trkpt><trkpt lat="42.27837965170868" lon="11.677495570770244"><ele>16.25</ele><time>2026-04-11T08:15:24Z</time></trkpt><trkpt lat="42.27845710727766" lon="11.677380131751475"><ele>16.5</ele><time>2026-04-11T08:15:25Z</time></trkpt><trkpt lat="42.278534334462925" lon="11.677250977716215"><ele>16.75</ele><time>2026-04-11T08:15:26Z</time></trkpt><trkpt lat="42.27860897752571" lon="11.677130301339453"><ele>17.0</ele><time>2026-04-11T08:15:27Z</time></trkpt><trkpt lat="42.27867800872224" lon="11.677018076317035"><ele>17.0</ele><time>2026-04-11T08:15:28Z</time></trkpt><trkpt lat="42.27875641779971" lon="11.676900625167631"><ele>17.0</ele><time>2026-04-11T08:15:29Z</time></trkpt><trkpt lat="42.27884156613167" lon="11.676780828170553"><ele>17.0</ele><time>2026-04-11T08:15:30Z</time></trkpt><trkpt lat="42.27891633442582" lon="11.67667355956924"><ele>17.0</ele><time>2026-04-11T08:15:31Z</time></trkpt><trkpt lat="42.27899390814074" lon="11.676560109470218"><ele>17.0</ele><time>2026-04-11T08:15:32Z</time></trkpt><trkpt lat="42.27907116969077" lon="11.67644431909524"><ele>17.0</ele><time>2026-04-11T08:15:33Z</time></trkpt><trkpt lat="42.2791535388751" lon="11.676325326834325"><ele>17.0</ele><time>2026-04-11T08:15:34Z</time></trkpt><trkpt lat="42.279203539749474" lon="11.67620943675066"><ele>17.0</ele><time>2026-04-11T08:15:35Z</time></trkpt><trkpt lat="42.27926638425941" lon="11.676103100123706"><ele>17.0</ele><time>2026-04-11T08:15:36Z</time></trkpt><trkpt lat="42.27932952146442" lon="11.675978961417416"><ele>16.75</ele><time>2026-04-11T08:15:37Z</time></trkpt><trkpt lat="42.279393962266326" lon="11.67585636285797"><ele>16.5</ele><time>2026-04-11T08:15:38Z</time></trkpt><trkpt lat="42.27947167144134" lon="11.675739236845956"><ele>16.25</ele><time>2026-04-11T08:15:39Z</time></trkpt><trkpt lat="42.27954391410516" lon="11.675622227200696"><ele>16.0</ele><time>2026-04-11T08:15:40Z</time></trkpt><trkpt lat="42.2796214760772" lon="11.675503315991955"><ele>16.0</ele><time>2026-04-11T08:15:41Z</time></trkpt><trkpt lat="42.27970931008704" lon="11.675402419278376"><ele>16.0</ele><time>2026-04-11T08:15:42Z</time></trkpt><trkpt lat="42.27977712884242" lon="11.675298900227512"><ele>16.0</ele><time>2026-04-11T08:15:43Z</time></trkpt><trkpt lat="42.27984815125234" lon="11.675186649704"><ele>16.0</ele><time>2026-04-11T08:15:44Z</time></trkpt><trkpt lat="42.27991896347471" lon="11.675078032988012"><ele>16.0</ele><time>2026-04-11T08:15:45Z</time></trkpt><trkpt lat="42.279988556019035" lon="11.674971838715308"><ele>16.0</ele><time>2026-04-11T08:15:46Z</time></trkpt><trkpt lat="42.28004673600259" lon="11.674879950580957"><ele>16.0</ele><time>2026-04-11T08:15:47Z</time></trkpt><trkpt lat="42.28009887883093" lon="11.674763447116957"><ele>16.0</ele><time>2026-04-11T08:15:48Z</time></trkpt><trkpt lat="42.280177121804066" lon="11.674652182150677"><ele>16.0</ele><time>2026-04-11T08:15:49Z</time></trkpt><trkpt lat="42.28024857245885" lon="11.674541697116288"><ele>16.0</ele><time>2026-04-11T08:15:50Z</time></trkpt><trkpt lat="42.28030882444663" lon="11.674410616276086"><ele>15.75</ele><time>2026-04-11T08:15:51Z</time></trkpt><trkpt lat="42.28037959971387" lon="11.674284011278095"><ele>15.5</ele><time>2026-04-11T08:15:52Z</time></trkpt><trkpt lat="42.28045960962042" lon="11.674172808183798"><ele>15.25</ele><time>2026-04-11T08:15:53Z</time></trkpt><trkpt lat="42.280541550054494" lon="11.674039630351363"><ele>15.0</ele><time>2026-04-11T08:15:54Z</time></trkpt><trkpt lat="42.28061396356002" lon="11.67392474053597"><ele>14.5</ele><time>2026-04-11T08:15:55Z</time></trkpt><trkpt lat="42.280680137036995" lon="11.67380685331579"><ele>14.0</ele><time>2026-04-11T08:15:56Z</time></trkpt><trkpt lat="42.28075739519246" lon="11.673686809620301"><ele>13.5</ele><time>2026-04-11T08:15:57Z</time></trkpt><trkpt lat="42.280831452072306" lon="11.673562571080819"><ele>13.0</ele><time>2026-04-11T08:15:58Z</time></trkpt><trkpt lat="42.2809145468699" lon="11.673434280630493"><ele>13.0</ele><time>2026-04-11T08:15:59Z</time></trkpt><trkpt lat="42.280997525339764" lon="11.673327395775285"><ele>13.0</ele><time>2026-04-11T08:16:00Z</time></trkpt><trkpt lat="42.2810754904047" lon="11.673196854685337"><ele>13.0</ele><time>2026-04-11T08:16:01Z</time></trkpt><trkpt lat="42.2811475295146" lon="11.673066260345475"><ele>13.0</ele><time>2026-04-11T08:16:02Z</time></trkpt><trkpt lat="42.28125476695333" lon="11.672921557228259"><ele>13.333333333333332</ele><time>2026-04-11T08:16:03Z</time></trkpt><trkpt lat="42.28139569524379" lon="11.672752613666509"><ele>13.666666666666668</ele><time>2026-04-11T08:16:04Z</time></trkpt><trkpt lat="42.28150809258128" lon="11.672572052574195"><ele>14.0</ele><time>2026-04-11T08:16:05Z</time></trkpt><trkpt lat="42.28159653244902" lon="11.672433069341974"><ele>14.0</ele><time>2026-04-11T08:16:06Z</time></trkpt><trkpt lat="42.28165851834948" lon="11.672268167144964"><ele>14.0</ele><time>2026-04-11T08:16:07Z</time></trkpt><trkpt lat="42.281725705330835" lon="11.672158264921535"><ele>14.0</ele><time>2026-04-11T08:16:08Z</time></trkpt><trkpt lat="42.28178323842529" lon="11.672058078352162"><ele>14.0</ele><time>2026-04-11T08:16:09Z</time></trkpt><trkpt lat="42.281877181056544" lon="11.671963051836238"><ele>14.0</ele><time>2026-04-11T08:16:09.999Z</time></trkpt><trkpt lat="42.2819382999771" lon="11.671862240429178"><ele>13.999999999999998</ele><time>2026-04-11T08:16:10.999Z</time></trkpt><trkpt lat="42.28201069449142" lon="11.67174687218875"><ele>13.999999999999998</ele><time>2026-04-11T08:16:11.999Z</time></trkpt><trkpt lat="42.28207338260105" lon="11.671642866202037"><ele>14.0</ele><time>2026-04-11T08:16:13Z</time></trkpt><trkpt lat="42.28212583139395" lon="11.671545785901442"><ele>14.0</ele><time>2026-04-11T08:16:14Z</time></trkpt><trkpt lat="42.2822057340088" lon="11.671423628154535"><ele>14.0</ele><time>2026-04-11T08:16:15Z</time></trkpt><trkpt lat="42.282270475686516" lon="11.671318188166847"><ele>14.0</ele><time>2026-04-11T08:16:16Z</time></trkpt><trkpt lat="42.28237129063686" lon="11.671200970219834"><ele>14.0</ele><time>2026-04-11T08:16:17Z</time></trkpt><trkpt lat="42.28245385192192" lon="11.671066728353436"><ele>14.0</ele><time>2026-04-11T08:16:18Z</time></trkpt><trkpt lat="42.28251812952353" lon="11.670959044209987"><ele>14.25</ele><time>2026-04-11T08:16:19Z</time></trkpt><trkpt lat="42.28259051551893" lon="11.670833839048214"><ele>14.5</ele><time>2026-04-11T08:16:20Z</time></trkpt><trkpt lat="42.28265575846513" lon="11.670710395930769"><ele>14.75</ele><time>2026-04-11T08:16:21Z</time></trkpt><trkpt lat="42.28273760001762" lon="11.670590128963001"><ele>15.0</ele><time>2026-04-11T08:16:22Z</time></trkpt><trkpt lat="42.282814280409625" lon="11.670461846953689"><ele>15.0</ele><time>2026-04-11T08:16:23Z</time></trkpt><trkpt lat="42.282888808298516" lon="11.670318811306345"><ele>15.0</ele><time>2026-04-11T08:16:24Z</time></trkpt><trkpt lat="42.28297663641602" lon="11.670180406343329"><ele>15.0</ele><time>2026-04-11T08:16:25Z</time></trkpt><trkpt lat="42.28305835927609" lon="11.670044282775772"><ele>15.0</ele><time>2026-04-11T08:16:26Z</time></trkpt><trkpt lat="42.28316311617748" lon="11.66989440793737"><ele>14.333333333333332</ele><time>2026-04-11T08:16:27Z</time></trkpt><trkpt lat="42.283270493672994" lon="11.669725680322651"><ele>13.666666666666666</ele><time>2026-04-11T08:16:28Z</time></trkpt><trkpt lat="42.283389468614516" lon="11.669517943486145"><ele>13.0</ele><time>2026-04-11T08:16:29Z</time></trkpt><trkpt lat="42.283526441961264" lon="11.66929339567867"><ele>13.0</ele><time>2026-04-11T08:16:30Z</time></trkpt><trkpt lat="42.283682214926664" lon="11.669095776028371"><ele>13.0</ele><time>2026-04-11T08:16:31Z</time></trkpt><trkpt lat="42.283789129456665" lon="11.668922526465813"><ele>13.0</ele><time>2026-04-11T08:16:32Z</time></trkpt><trkpt lat="42.283897232212496" lon="11.66874766792812"><ele>13.0</ele><time>2026-04-11T08:16:33Z</time></trkpt><trkpt lat="42.28400886511362" lon="11.668565049279348"><ele>13.0</ele><time>2026-04-11T08:16:34Z</time></trkpt><trkpt lat="42.28412777627705" lon="11.668384301105423"><ele>13.0</ele><time>2026-04-11T08:16:35Z</time></trkpt><trkpt lat="42.28423494545787" lon="11.668199139852105"><ele>13.0</ele><time>2026-04-11T08:16:36Z</time></trkpt><trkpt lat="42.28434592586151" lon="11.668011115073044"><ele>13.0</ele><time>2026-04-11T08:16:37Z</time></trkpt><trkpt lat="42.284455302235074" lon="11.667826956633972"><ele>13.0</ele><time>2026-04-11T08:16:38Z</time></trkpt><trkpt lat="42.28456175793107" lon="11.667661257986316"><ele>13.333333333333332</ele><time>2026-04-11T08:16:39Z</time></trkpt><trkpt lat="42.28466825066147" lon="11.667492273357098"><ele>13.666666666666668</ele><time>2026-04-11T08:16:40Z</time></trkpt><trkpt lat="42.28477124967801" lon="11.667331566660968"><ele>14.0</ele><time>2026-04-11T08:16:41Z</time></trkpt><trkpt lat="42.2848725564956" lon="11.667174018191172"><ele>15.333333333333334</ele><time>2026-04-11T08:16:42Z</time></trkpt><trkpt lat="42.28498174246121" lon="11.667019672260178"><ele>16.666666666666668</ele><time>2026-04-11T08:16:43Z</time></trkpt><trkpt lat="42.2850772169725" lon="11.666858926290452"><ele>18.0</ele><time>2026-04-11T08:16:44Z</time></trkpt><trkpt lat="42.28517791001375" lon="11.666690013044219"><ele>18.0</ele><time>2026-04-11T08:16:45Z</time></trkpt><trkpt lat="42.285274673751175" lon="11.666544514813394"><ele>18.0</ele><time>2026-04-11T08:16:46Z</time></trkpt><trkpt lat="42.2853781178459" lon="11.666368042734403"><ele>18.0</ele><time>2026-04-11T08:16:47Z</time></trkpt><trkpt lat="42.28549302609372" lon="11.666218440452107"><ele>17.333333333333332</ele><time>2026-04-11T08:16:48Z</time></trkpt><trkpt lat="42.28560538000577" lon="11.666038447671879"><ele>16.666666666666664</ele><time>2026-04-11T08:16:49Z</time></trkpt><trkpt lat="42.285713513039944" lon="11.665872905041008"><ele>16.0</ele><time>2026-04-11T08:16:50Z</time></trkpt><trkpt lat="42.28582011502869" lon="11.66571333630666"><ele>16.0</ele><time>2026-04-11T08:16:51Z</time></trkpt><trkpt lat="42.28592568771766" lon="11.665553182905356"><ele>16.0</ele><time>2026-04-11T08:16:52Z</time></trkpt><trkpt lat="42.286030296835186" lon="11.665391850101857"><ele>16.0</ele><time>2026-04-11T08:16:53Z</time></trkpt><trkpt lat="42.28614644526287" lon="11.66522417707775"><ele>15.666666666666666</ele><time>2026-04-11T08:16:54Z</time></trkpt><trkpt lat="42.28626332046728" lon="11.66505171125616"><ele>15.333333333333332</ele><time>2026-04-11T08:16:55Z</time></trkpt><trkpt lat="42.28637386817857" lon="11.664879724781498"><ele>15.0</ele><time>2026-04-11T08:16:56Z</time></trkpt><trkpt lat="42.28648054224532" lon="11.664710109025112"><ele>15.0</ele><time>2026-04-11T08:16:57Z</time></trkpt><trkpt lat="42.28658781834993" lon="11.66454056356994"><ele>15.0</ele><time>2026-04-11T08:16:58Z</time></trkpt><trkpt lat="42.28668754008665" lon="11.664372529279355"><ele>15.0</ele><time>2026-04-11T08:16:59Z</time></trkpt><trkpt lat="42.28680854927078" lon="11.664214922383632"><ele>14.0</ele><time>2026-04-11T08:17:00Z</time></trkpt><trkpt lat="42.28691450315439" lon="11.664046839254205"><ele>13.0</ele><time>2026-04-11T08:17:01Z</time></trkpt><trkpt lat="42.287025234938646" lon="11.663876394248824"><ele>12.0</ele><time>2026-04-11T08:17:02Z</time></trkpt><trkpt lat="42.28713770389248" lon="11.663701113923656"><ele>11.333333333333334</ele><time>2026-04-11T08:17:03Z</time></trkpt><trkpt lat="42.287235576599045" lon="11.663536638214433"><ele>10.666666666666668</ele><time>2026-04-11T08:17:04Z</time></trkpt><trkpt lat="42.287344635916355" lon="11.663374936829817"><ele>10.0</ele><time>2026-04-11T08:17:05Z</time></trkpt><trkpt lat="42.28744229903391" lon="11.663199718331825"><ele>10.0</ele><time>2026-04-11T08:17:06Z</time></trkpt><trkpt lat="42.28753182855201" lon="11.663034278281971"><ele>10.0</ele><time>2026-04-11T08:17:07Z</time></trkpt><trkpt lat="42.287623745510416" lon="11.66286065637925"><ele>10.0</ele><time>2026-04-11T08:17:08Z</time></trkpt><trkpt lat="42.28772486289759" lon="11.662694120908288"><ele>10.0</ele><time>2026-04-11T08:17:09Z</time></trkpt><trkpt lat="42.287845072713836" lon="11.662505445615365"><ele>10.0</ele><time>2026-04-11T08:17:10Z</time></trkpt><trkpt lat="42.28796931688447" lon="11.662294697187312"><ele>10.0</ele><time>2026-04-11T08:17:11Z</time></trkpt><trkpt lat="42.288102342714296" lon="11.662073966411942"><ele>10.333333333333334</ele><time>2026-04-11T08:17:12Z</time></trkpt><trkpt lat="42.28822208697121" lon="11.661876408778108"><ele>10.666666666666666</ele><time>2026-04-11T08:17:13Z</time></trkpt><trkpt lat="42.288347752968654" lon="11.661665831473021"><ele>11.0</ele><time>2026-04-11T08:17:14Z</time></trkpt><trkpt lat="42.28848101372711" lon="11.66145801420047"><ele>11.0</ele><time>2026-04-11T08:17:15Z</time></trkpt><trkpt lat="42.28861374462246" lon="11.661278725572641"><ele>11.0</ele><time>2026-04-11T08:17:16Z</time></trkpt><trkpt lat="42.28873888092219" lon="11.661104735107179"><ele>11.0</ele><time>2026-04-11T08:17:17Z</time></trkpt><trkpt lat="42.28885160942572" lon="11.66093771128384"><ele>12.333333333333332</ele><time>2026-04-11T08:17:18Z</time></trkpt><trkpt lat="42.28895262045515" lon="11.660778228708724"><ele>13.666666666666666</ele><time>2026-04-11T08:17:19Z</time></trkpt><trkpt lat="42.28905367328563" lon="11.660615627748264"><ele>15.0</ele><time>2026-04-11T08:17:20Z</time></trkpt><trkpt lat="42.289148410009474" lon="11.660449781380319"><ele>15.0</ele><time>2026-04-11T08:17:21Z</time></trkpt><trkpt lat="42.28925164587309" lon="11.660290923751019"><ele>15.0</ele><time>2026-04-11T08:17:22Z</time></trkpt><trkpt lat="42.28935452720033" lon="11.660114070301638"><ele>15.0</ele><time>2026-04-11T08:17:23Z</time></trkpt><trkpt lat="42.28946107105319" lon="11.659953366150154"><ele>15.333333333333332</ele><time>2026-04-11T08:17:24Z</time></trkpt><trkpt lat="42.289570290909424" lon="11.6597890888055"><ele>15.666666666666666</ele><time>2026-04-11T08:17:25Z</time></trkpt><trkpt lat="42.28968221942997" lon="11.65962927985464"><ele>16.0</ele><time>2026-04-11T08:17:26Z</time></trkpt><trkpt lat="42.289786051905374" lon="11.65947023141365"><ele>15.5</ele><time>2026-04-11T08:17:27Z</time></trkpt><trkpt lat="42.289876461963104" lon="11.659310282074237"><ele>15.0</ele><time>2026-04-11T08:17:28Z</time></trkpt><trkpt lat="42.28997455635442" lon="11.659154055091603"><ele>14.5</ele><time>2026-04-11T08:17:29Z</time></trkpt><trkpt lat="42.29007029888012" lon="11.659004895392538"><ele>14.0</ele><time>2026-04-11T08:17:30Z</time></trkpt><trkpt lat="42.29017184121112" lon="11.65885236144929"><ele>14.0</ele><time>2026-04-11T08:17:31Z</time></trkpt><trkpt lat="42.29026982594244" lon="11.658687961716208"><ele>14.0</ele><time>2026-04-11T08:17:32Z</time></trkpt><trkpt lat="42.29036659619765" lon="11.658520455419792"><ele>14.0</ele><time>2026-04-11T08:17:33Z</time></trkpt><trkpt lat="42.29046974255011" lon="11.658351464676702"><ele>14.0</ele><time>2026-04-11T08:17:34Z</time></trkpt><trkpt lat="42.29056878036822" lon="11.658190119454174"><ele>14.0</ele><time>2026-04-11T08:17:35Z</time></trkpt><trkpt lat="42.290686058419794" lon="11.658045316861353"><ele>14.0</ele><time>2026-04-11T08:17:36Z</time></trkpt><trkpt lat="42.29077246895286" lon="11.657889958231316"><ele>14.333333333333334</ele><time>2026-04-11T08:17:37Z</time></trkpt><trkpt lat="42.290869325572736" lon="11.657728202490961"><ele>14.666666666666668</ele><time>2026-04-11T08:17:38Z</time></trkpt><trkpt lat="42.29096842204775" lon="11.657561948141682"><ele>15.0</ele><time>2026-04-11T08:17:39Z</time></trkpt><trkpt lat="42.29107294310493" lon="11.657379418326801"><ele>15.0</ele><time>2026-04-11T08:17:40Z</time></trkpt><trkpt lat="42.291172786123646" lon="11.657229658900397"><ele>15.0</ele><time>2026-04-11T08:17:41Z</time></trkpt><trkpt lat="42.29127038381098" lon="11.657086800714806"><ele>15.0</ele><time>2026-04-11T08:17:42Z</time></trkpt><trkpt lat="42.29137062478217" lon="11.65692792799161"><ele>15.0</ele><time>2026-04-11T08:17:43Z</time></trkpt><trkpt lat="42.291469436039264" lon="11.656771321237471"><ele>15.0</ele><time>2026-04-11T08:17:44Z</time></trkpt><trkpt lat="42.291604306625004" lon="11.656586490060489"><ele>15.0</ele><time>2026-04-11T08:17:45Z</time></trkpt><trkpt lat="42.2917241204535" lon="11.656392052071444"><ele>15.0</ele><time>2026-04-11T08:17:46Z</time></trkpt><trkpt lat="42.29184899763323" lon="11.656189553479633"><ele>14.333333333333332</ele><time>2026-04-11T08:17:47Z</time></trkpt><trkpt lat="42.29198117341229" lon="11.655991199586822"><ele>13.666666666666666</ele><time>2026-04-11T08:17:48Z</time></trkpt><trkpt lat="42.29210288782149" lon="11.655788170754292"><ele>13.0</ele><time>2026-04-11T08:17:49Z</time></trkpt><trkpt lat="42.29222348280455" lon="11.655582697263176"><ele>13.333333333333332</ele><time>2026-04-11T08:17:50Z</time></trkpt><trkpt lat="42.29233918370466" lon="11.655387851249364"><ele>13.666666666666668</ele><time>2026-04-11T08:17:51Z</time></trkpt><trkpt lat="42.29246068498918" lon="11.655195065317178"><ele>14.0</ele><time>2026-04-11T08:17:52Z</time></trkpt><trkpt lat="42.29257581251659" lon="11.655031874888373"><ele>14.333333333333334</ele><time>2026-04-11T08:17:53Z</time></trkpt><trkpt lat="42.29269090387058" lon="11.654853971574356"><ele>14.666666666666668</ele><time>2026-04-11T08:17:54Z</time></trkpt><trkpt lat="42.29282020610324" lon="11.654667013537157"><ele>15.0</ele><time>2026-04-11T08:17:55Z</time></trkpt><trkpt lat="42.29294862334653" lon="11.65447951723739"><ele>14.666666666666668</ele><time>2026-04-11T08:17:56Z</time></trkpt><trkpt lat="42.29307783996488" lon="11.654279757629602"><ele>14.333333333333334</ele><time>2026-04-11T08:17:57Z</time></trkpt><trkpt lat="42.29318194158666" lon="11.654081247356777"><ele>14.0</ele><time>2026-04-11T08:17:58Z</time></trkpt><trkpt lat="42.293288679293084" lon="11.653881983168045"><ele>14.0</ele><time>2026-04-11T08:17:59Z</time></trkpt><trkpt lat="42.29340058280514" lon="11.653684593466807"><ele>14.0</ele><time>2026-04-11T08:18:00Z</time></trkpt><trkpt lat="42.29352377785359" lon="11.653497644055568"><ele>14.0</ele><time>2026-04-11T08:18:01Z</time></trkpt><trkpt lat="42.29364058266861" lon="11.653334748315213"><ele>13.333333333333334</ele><time>2026-04-11T08:18:02Z</time></trkpt><trkpt lat="42.293755869165196" lon="11.653152114183998"><ele>12.666666666666668</ele><time>2026-04-11T08:18:03Z</time></trkpt><trkpt lat="42.29387023968239" lon="11.652970670808658"><ele>12.0</ele><time>2026-04-11T08:18:04Z</time></trkpt><trkpt lat="42.29398430060001" lon="11.65278817747353"><ele>10.333333333333334</ele><time>2026-04-11T08:18:05Z</time></trkpt><trkpt lat="42.29411304016261" lon="11.65258526670612"><ele>8.666666666666668</ele><time>2026-04-11T08:18:06Z</time></trkpt><trkpt lat="42.29422357885005" lon="11.652411042956512"><ele>7.0</ele><time>2026-04-11T08:18:06.999Z</time></trkpt><trkpt lat="42.29433823054507" lon="11.652230336546756"><ele>7.0</ele><time>2026-04-11T08:18:07.999Z</time></trkpt><trkpt lat="42.29444029203949" lon="11.652044725237982"><ele>7.0</ele><time>2026-04-11T08:18:08.999Z</time></trkpt><trkpt lat="42.29456354647855" lon="11.651875206567999"><ele>7.0</ele><time>2026-04-11T08:18:09.999Z</time></trkpt><trkpt lat="42.2946771816804" lon="11.651695642646793"><ele>8.666666666666668</ele><time>2026-04-11T08:18:10.999Z</time></trkpt><trkpt lat="42.294782932537515" lon="11.65152853739392"><ele>10.333333333333334</ele><time>2026-04-11T08:18:11.999Z</time></trkpt><trkpt lat="42.294883497355954" lon="11.65136987540225"><ele>12.0</ele><time>2026-04-11T08:18:12.999Z</time></trkpt><trkpt lat="42.29498858134985" lon="11.651204129816039"><ele>12.75</ele><time>2026-04-11T08:18:13.999Z</time></trkpt><trkpt lat="42.29508186380538" lon="11.651056998415452"><ele>13.5</ele><time>2026-04-11T08:18:14.999Z</time></trkpt><trkpt lat="42.29517213032275" lon="11.65091439173423"><ele>14.25</ele><time>2026-04-11T08:18:15.999Z</time></trkpt><trkpt lat="42.29524512948397" lon="11.650776029260399"><ele>15.0</ele><time>2026-04-11T08:18:16.999Z</time></trkpt><trkpt lat="42.295312993411365" lon="11.650666009028717"><ele>15.0</ele><time>2026-04-11T08:18:17.999Z</time></trkpt><trkpt lat="42.29537993252842" lon="11.650583749563738"><ele>15.0</ele><time>2026-04-11T08:18:19Z</time></trkpt><trkpt lat="42.295426300397295" lon="11.650509971840858"><ele>15.0</ele><time>2026-04-11T08:18:20Z</time></trkpt><trkpt lat="42.29548806786009" lon="11.650411691232637"><ele>15.0</ele><time>2026-04-11T08:18:21Z</time></trkpt><trkpt lat="42.295538390210176" lon="11.650331621308927"><ele>15.0</ele><time>2026-04-11T08:18:22Z</time></trkpt><trkpt lat="42.295598358281865" lon="11.650234241718843"><ele>15.0</ele><time>2026-04-11T08:18:23Z</time></trkpt><trkpt lat="42.29567013486654" lon="11.65011871423843"><ele>14.0</ele><time>2026-04-11T08:18:24Z</time></trkpt><trkpt lat="42.2957498458861" lon="11.649990417080064"><ele>13.0</ele><time>2026-04-11T08:18:25Z</time></trkpt><trkpt lat="42.29580987243747" lon="11.649868500999906"><ele>12.0</ele><time>2026-04-11T08:18:26Z</time></trkpt><trkpt lat="42.29588651297816" lon="11.649743977967969"><ele>11.0</ele><time>2026-04-11T08:18:27Z</time></trkpt><trkpt lat="42.295979959503505" lon="11.649599495150493"><ele>11.0</ele><time>2026-04-11T08:18:28Z</time></trkpt><trkpt lat="42.29609165344406" lon="11.649418911280947"><ele>11.0</ele><time>2026-04-11T08:18:29Z</time></trkpt><trkpt lat="42.296205478178756" lon="11.64926551545064"><ele>11.0</ele><time>2026-04-11T08:18:30Z</time></trkpt><trkpt lat="42.2963104438358" lon="11.64909980907121"><ele>11.0</ele><time>2026-04-11T08:18:31Z</time></trkpt><trkpt lat="42.29639889146778" lon="11.648957499025645"><ele>11.0</ele><time>2026-04-11T08:18:32Z</time></trkpt><trkpt lat="42.29648371106021" lon="11.648801655813763"><ele>11.0</ele><time>2026-04-11T08:18:33Z</time></trkpt><trkpt lat="42.29656849858279" lon="11.64867275765157"><ele>11.0</ele><time>2026-04-11T08:18:34Z</time></trkpt><trkpt lat="42.29666466508437" lon="11.648558045476323"><ele>11.25</ele><time>2026-04-11T08:18:35Z</time></trkpt><trkpt lat="42.296778990597694" lon="11.648449163562473"><ele>11.5</ele><time>2026-04-11T08:18:36Z</time></trkpt><trkpt lat="42.29688487644568" lon="11.648362025622536"><ele>11.75</ele><time>2026-04-11T08:18:37Z</time></trkpt><trkpt lat="42.29701745115571" lon="11.648328914868717"><ele>12.0</ele><time>2026-04-11T08:18:38Z</time></trkpt><trkpt lat="42.297138467923745" lon="11.648279343643768"><ele>12.25</ele><time>2026-04-11T08:18:39Z</time></trkpt><trkpt lat="42.29726483810539" lon="11.648276860743486"><ele>12.5</ele><time>2026-04-11T08:18:40Z</time></trkpt><trkpt lat="42.297397550834546" lon="11.648294222463083"><ele>12.75</ele><time>2026-04-11T08:18:41Z</time></trkpt><trkpt lat="42.297514554566476" lon="11.648338950347618"><ele>13.0</ele><time>2026-04-11T08:18:42Z</time></trkpt><trkpt lat="42.29764140006336" lon="11.64840549345973"><ele>13.0</ele><time>2026-04-11T08:18:43Z</time></trkpt><trkpt lat="42.29775106176017" lon="11.648518597861163"><ele>13.0</ele><time>2026-04-11T08:18:44Z</time></trkpt><trkpt lat="42.29786222176308" lon="11.648640808530741"><ele>13.0</ele><time>2026-04-11T08:18:45Z</time></trkpt><trkpt lat="42.29797750754156" lon="11.648762143470057"><ele>13.0</ele><time>2026-04-11T08:18:46Z</time></trkpt><trkpt lat="42.29810127119" lon="11.648900501153243"><ele>14.0</ele><time>2026-04-11T08:18:47Z</time></trkpt><trkpt lat="42.298234074667455" lon="11.649050229394083"><ele>15.0</ele><time>2026-04-11T08:18:48Z</time></trkpt><trkpt lat="42.29836938990383" lon="11.649209380036716"><ele>16.0</ele><time>2026-04-11T08:18:49Z</time></trkpt><trkpt lat="42.298485544004095" lon="11.649343047306024"><ele>16.25</ele><time>2026-04-11T08:18:50Z</time></trkpt><trkpt lat="42.29859186420287" lon="11.649476492990104"><ele>16.5</ele><time>2026-04-11T08:18:51Z</time></trkpt><trkpt lat="42.298694707400564" lon="11.649594467764599"><ele>16.75</ele><time>2026-04-11T08:18:52Z</time></trkpt><trkpt lat="42.29879079743045" lon="11.649702547086745"><ele>17.0</ele><time>2026-04-11T08:18:53Z</time></trkpt><trkpt lat="42.29888512204348" lon="11.649813134971444"><ele>17.0</ele><time>2026-04-11T08:18:54Z</time></trkpt><trkpt lat="42.29897624599289" lon="11.649928350876651"><ele>17.0</ele><time>2026-04-11T08:18:55Z</time></trkpt><trkpt lat="42.29906291378701" lon="11.65004333620976"><ele>17.0</ele><time>2026-04-11T08:18:56Z</time></trkpt><trkpt lat="42.29914763800888" lon="11.6501443874622"><ele>17.0</ele><time>2026-04-11T08:18:57Z</time></trkpt><trkpt lat="42.29924313843655" lon="11.650218408335094"><ele>17.0</ele><time>2026-04-11T08:18:58Z</time></trkpt><trkpt lat="42.29934739265797" lon="11.650276852102548"><ele>17.0</ele><time>2026-04-11T08:18:59Z</time></trkpt><trkpt lat="42.29946458802357" lon="11.650307842757938"><ele>17.0</ele><time>2026-04-11T08:19:00Z</time></trkpt><trkpt lat="42.2995897070878" lon="11.650318343158036"><ele>17.0</ele><time>2026-04-11T08:19:01Z</time></trkpt><trkpt lat="42.29971643147087" lon="11.650301138587166"><ele>16.666666666666668</ele><time>2026-04-11T08:19:02Z</time></trkpt><trkpt lat="42.29984425427551" lon="11.650256347371869"><ele>16.333333333333332</ele><time>2026-04-11T08:19:03Z</time></trkpt><trkpt lat="42.299994832003655" lon="11.650159084061022"><ele>16.0</ele><time>2026-04-11T08:19:04Z</time></trkpt><trkpt lat="42.30013992108401" lon="11.650080981747267"><ele>16.0</ele><time>2026-04-11T08:19:05Z</time></trkpt><trkpt lat="42.30027084739579" lon="11.650007746863073"><ele>16.0</ele><time>2026-04-11T08:19:06Z</time></trkpt><trkpt lat="42.300408139582096" lon="11.649985778869226"><ele>16.0</ele><time>2026-04-11T08:19:07Z</time></trkpt><trkpt lat="42.30054465948093" lon="11.649978899082866"><ele>16.0</ele><time>2026-04-11T08:19:08Z</time></trkpt><trkpt lat="42.3006895186292" lon="11.649984236107533"><ele>16.333333333333332</ele><time>2026-04-11T08:19:09Z</time></trkpt><trkpt lat="42.30083524814609" lon="11.650007680342364"><ele>16.666666666666668</ele><time>2026-04-11T08:19:10Z</time></trkpt><trkpt lat="42.300976152452755" lon="11.650056370480522"><ele>17.0</ele><time>2026-04-11T08:19:11Z</time></trkpt><trkpt lat="42.30113445062699" lon="11.65013608994076"><ele>17.0</ele><time>2026-04-11T08:19:12Z</time></trkpt><trkpt lat="42.3013119590922" lon="11.650227692832447"><ele>17.0</ele><time>2026-04-11T08:19:13Z</time></trkpt><trkpt lat="42.30150353043087" lon="11.650305677107479"><ele>17.0</ele><time>2026-04-11T08:19:14Z</time></trkpt><trkpt lat="42.30167349345239" lon="11.650389805248775"><ele>17.666666666666668</ele><time>2026-04-11T08:19:15Z</time></trkpt><trkpt lat="42.301839958274044" lon="11.650462424685932"><ele>18.333333333333332</ele><time>2026-04-11T08:19:16Z</time></trkpt><trkpt lat="42.30199811794323" lon="11.650533770817132"><ele>19.0</ele><time>2026-04-11T08:19:17Z</time></trkpt><trkpt lat="42.302161610323004" lon="11.650605018675819"><ele>19.333333333333332</ele><time>2026-04-11T08:19:18Z</time></trkpt><trkpt lat="42.30231518337895" lon="11.650676065594203"><ele>19.666666666666668</ele><time>2026-04-11T08:19:19Z</time></trkpt><trkpt lat="42.30246155429782" lon="11.65073480028806"><ele>20.0</ele><time>2026-04-11T08:19:20Z</time></trkpt><trkpt lat="42.302610438744196" lon="11.65079964983479"><ele>20.0</ele><time>2026-04-11T08:19:21Z</time></trkpt><trkpt lat="42.30275850712367" lon="11.650863022308602"><ele>20.0</ele><time>2026-04-11T08:19:22Z</time></trkpt><trkpt lat="42.302901886585026" lon="11.650920261554806"><ele>20.0</ele><time>2026-04-11T08:19:23Z</time></trkpt><trkpt lat="42.30305016930199" lon="11.650978533197389"><ele>20.0</ele><time>2026-04-11T08:19:24Z</time></trkpt><trkpt lat="42.303191141041886" lon="11.651041640567852"><ele>20.0</ele><time>2026-04-11T08:19:25Z</time></trkpt><trkpt lat="42.30333259801797" lon="11.651109963277163"><ele>20.0</ele><time>2026-04-11T08:19:26Z</time></trkpt><trkpt lat="42.30347692669436" lon="11.651164527767946"><ele>20.0</ele><time>2026-04-11T08:19:27Z</time></trkpt><trkpt lat="42.303625314773264" lon="11.651207915509435"><ele>20.0</ele><time>2026-04-11T08:19:28Z</time></trkpt><trkpt lat="42.30377274756762" lon="11.651268971371445"><ele>20.0</ele><time>2026-04-11T08:19:29Z</time></trkpt><trkpt lat="42.303921734259795" lon="11.651334486734083"><ele>20.0</ele><time>2026-04-11T08:19:30Z</time></trkpt><trkpt lat="42.30406291662356" lon="11.651399755086445"><ele>20.0</ele><time>2026-04-11T08:19:31Z</time></trkpt><trkpt lat="42.30419568408548" lon="11.651460391033678"><ele>20.0</ele><time>2026-04-11T08:19:32Z</time></trkpt><trkpt lat="42.30432691295253" lon="11.651506542193053"><ele>20.0</ele><time>2026-04-11T08:19:33Z</time></trkpt><trkpt lat="42.30444881237176" lon="11.651549296718455"><ele>20.0</ele><time>2026-04-11T08:19:34Z</time></trkpt><trkpt lat="42.304555881072034" lon="11.651605720854397"><ele>20.0</ele><time>2026-04-11T08:19:35Z</time></trkpt><trkpt lat="42.30465594023707" lon="11.65165041283684"><ele>20.0</ele><time>2026-04-11T08:19:36Z</time></trkpt><trkpt lat="42.30473853838153" lon="11.651679165008613"><ele>20.0</ele><time>2026-04-11T08:19:37Z</time></trkpt><trkpt lat="42.30480597067935" lon="11.651704450360201"><ele>20.0</ele><time>2026-04-11T08:19:38Z</time></trkpt><trkpt lat="42.304893023864246" lon="11.651741998364919"><ele>20.0</ele><time>2026-04-11T08:19:40Z</time></trkpt><trkpt lat="42.304818586352454" lon="11.651716025641369"><ele>20.0</ele><time>2026-04-11T08:20:55Z</time></trkpt><trkpt lat="42.3047371709646" lon="11.651681538049015"><ele>20.0</ele><time>2026-04-11T08:20:57Z</time></trkpt><trkpt lat="42.304555045636405" lon="11.651602775037786"><ele>20.0</ele><time>2026-04-11T08:20:59Z</time></trkpt><trkpt lat="42.30444397124699" lon="11.651529636802225"><ele>20.0</ele><time>2026-04-11T08:21:00Z</time></trkpt><trkpt lat="42.304325903808326" lon="11.651480026063513"><ele>20.0</ele><time>2026-04-11T08:21:01Z</time></trkpt><trkpt lat="42.30421964810343" lon="11.65142919710616"><ele>20.0</ele><time>2026-04-11T08:21:02Z</time></trkpt><trkpt lat="42.30412590714352" lon="11.651384096120376"><ele>20.0</ele><time>2026-04-11T08:21:03Z</time></trkpt><trkpt lat="42.30403511346001" lon="11.651342600248544"><ele>20.0</ele><time>2026-04-11T08:21:04Z</time></trkpt><trkpt lat="42.303963210013954" lon="11.651306275031855"><ele>20.0</ele><time>2026-04-11T08:21:05Z</time></trkpt><trkpt lat="42.30388198475333" lon="11.651268081352622"><ele>20.0</ele><time>2026-04-11T08:21:06Z</time></trkpt><trkpt lat="42.30377714306979" lon="11.651220455826394"><ele>20.0</ele><time>2026-04-11T08:21:07Z</time></trkpt><trkpt lat="42.30366764553114" lon="11.651168489870196"><ele>20.0</ele><time>2026-04-11T08:21:08Z</time></trkpt><trkpt lat="42.30353230551041" lon="11.651110474908505"><ele>20.0</ele><time>2026-04-11T08:21:09Z</time></trkpt><trkpt lat="42.30341733810168" lon="11.651059463611295"><ele>20.0</ele><time>2026-04-11T08:21:10Z</time></trkpt><trkpt lat="42.30329396733735" lon="11.65100253112803"><ele>20.0</ele><time>2026-04-11T08:21:11Z</time></trkpt><trkpt lat="42.30316239592066" lon="11.650943585486038"><ele>20.0</ele><time>2026-04-11T08:21:12Z</time></trkpt><trkpt lat="42.303011129441245" lon="11.650881165876509"><ele>20.0</ele><time>2026-04-11T08:21:13Z</time></trkpt><trkpt lat="42.30284909836793" lon="11.650808904930637"><ele>20.0</ele><time>2026-04-11T08:21:14Z</time></trkpt><trkpt lat="42.302694539096606" lon="11.650738512493946"><ele>20.0</ele><time>2026-04-11T08:21:15Z</time></trkpt><trkpt lat="42.30254801908208" lon="11.650677662654793"><ele>20.0</ele><time>2026-04-11T08:21:16Z</time></trkpt><trkpt lat="42.30240734933339" lon="11.650621470006769"><ele>20.0</ele><time>2026-04-11T08:21:17Z</time></trkpt><trkpt lat="42.3022672003185" lon="11.650567724078108"><ele>20.0</ele><time>2026-04-11T08:21:18Z</time></trkpt><trkpt lat="42.302138654692655" lon="11.65050473249242"><ele>20.0</ele><time>2026-04-11T08:21:19Z</time></trkpt><trkpt lat="42.30202202834565" lon="11.650448182996898"><ele>20.0</ele><time>2026-04-11T08:21:20Z</time></trkpt><trkpt lat="42.301898236041126" lon="11.650395221326184"><ele>19.75</ele><time>2026-04-11T08:21:21Z</time></trkpt><trkpt lat="42.30176403185457" lon="11.650330018985855"><ele>19.5</ele><time>2026-04-11T08:21:22Z</time></trkpt><trkpt lat="42.301645006816166" lon="11.650280218267278"><ele>19.25</ele><time>2026-04-11T08:21:23Z</time></trkpt><trkpt lat="42.301527761275885" lon="11.650227064066755"><ele>19.0</ele><time>2026-04-11T08:21:24Z</time></trkpt><trkpt lat="42.30139701001057" lon="11.650161248106194"><ele>18.599999999999998</ele><time>2026-04-11T08:21:25Z</time></trkpt><trkpt lat="42.30128937979578" lon="11.65010899800603"><ele>18.2</ele><time>2026-04-11T08:21:26Z</time></trkpt><trkpt lat="42.3011842720989" lon="11.650069249182716"><ele>17.799999999999997</ele><time>2026-04-11T08:21:27Z</time></trkpt><trkpt lat="42.30107981364217" lon="11.650023364893523"><ele>17.4</ele><time>2026-04-11T08:21:28Z</time></trkpt><trkpt lat="42.300976428926994" lon="11.649982664140854"><ele>17.0</ele><time>2026-04-11T08:21:29Z</time></trkpt><trkpt lat="42.300874402257" lon="11.64994259166715"><ele>17.0</ele><time>2026-04-11T08:21:30Z</time></trkpt><trkpt lat="42.300758859334884" lon="11.64990319039053"><ele>17.0</ele><time>2026-04-11T08:21:31Z</time></trkpt><trkpt lat="42.30065226874302" lon="11.649887465622884"><ele>17.0</ele><time>2026-04-11T08:21:32Z</time></trkpt><trkpt lat="42.300546891241254" lon="11.649891248468542"><ele>17.0</ele><time>2026-04-11T08:21:33Z</time></trkpt><trkpt lat="42.300430937823485" lon="11.649899222821656"><ele>17.0</ele><time>2026-04-11T08:21:34Z</time></trkpt><trkpt lat="42.300310533937605" lon="11.649927092724658"><ele>16.75</ele><time>2026-04-11T08:21:35Z</time></trkpt><trkpt lat="42.30019166400003" lon="11.649978851868816"><ele>16.5</ele><time>2026-04-11T08:21:36Z</time></trkpt><trkpt lat="42.30008485833623" lon="11.650047305625666"><ele>16.25</ele><time>2026-04-11T08:21:37Z</time></trkpt><trkpt lat="42.29997805788174" lon="11.650108952255925"><ele>16.0</ele><time>2026-04-11T08:21:38Z</time></trkpt><trkpt lat="42.29986410773537" lon="11.650161339360581"><ele>16.25</ele><time>2026-04-11T08:21:39Z</time></trkpt><trkpt lat="42.299742994579645" lon="11.650186853856802"><ele>16.5</ele><time>2026-04-11T08:21:40Z</time></trkpt><trkpt lat="42.29962342743886" lon="11.650200852236479"><ele>16.75</ele><time>2026-04-11T08:21:41Z</time></trkpt><trkpt lat="42.299501989985366" lon="11.650196276227836"><ele>17.0</ele><time>2026-04-11T08:21:42Z</time></trkpt><trkpt lat="42.29939683827926" lon="11.650166516437917"><ele>17.0</ele><time>2026-04-11T08:21:43Z</time></trkpt><trkpt lat="42.29928772015788" lon="11.650124225380495"><ele>17.0</ele><time>2026-04-11T08:21:44Z</time></trkpt><trkpt lat="42.299180127102375" lon="11.650054436150219"><ele>17.0</ele><time>2026-04-11T08:21:45Z</time></trkpt><trkpt lat="42.299083219623526" lon="11.649949546267358"><ele>17.0</ele><time>2026-04-11T08:21:46Z</time></trkpt><trkpt lat="42.298979289012024" lon="11.64984987906468"><ele>17.0</ele><time>2026-04-11T08:21:47Z</time></trkpt><trkpt lat="42.29889171810874" lon="11.649758194610213"><ele>17.0</ele><time>2026-04-11T08:21:48Z</time></trkpt><trkpt lat="42.29881142694456" lon="11.649638006655918"><ele>17.0</ele><time>2026-04-11T08:21:49Z</time></trkpt><trkpt lat="42.298738327978214" lon="11.649551471997789"><ele>17.0</ele><time>2026-04-11T08:21:50Z</time></trkpt><trkpt lat="42.29866475918968" lon="11.64946327053808"><ele>17.0</ele><time>2026-04-11T08:21:51Z</time></trkpt><trkpt lat="42.29859652933446" lon="11.649381219223557"><ele>16.8</ele><time>2026-04-11T08:21:52Z</time></trkpt><trkpt lat="42.29851658650298" lon="11.649291884926082"><ele>16.6</ele><time>2026-04-11T08:21:53Z</time></trkpt><trkpt lat="42.29843764380753" lon="11.64920377797858"><ele>16.400000000000002</ele><time>2026-04-11T08:21:54Z</time></trkpt><trkpt lat="42.29836358670302" lon="11.649123637296048"><ele>16.2</ele><time>2026-04-11T08:21:55Z</time></trkpt><trkpt lat="42.298293427846154" lon="11.64904800323782"><ele>16.0</ele><time>2026-04-11T08:21:56Z</time></trkpt><trkpt lat="42.29822193453817" lon="11.648965626770467"><ele>15.999999999999998</ele><time>2026-04-11T08:21:57Z</time></trkpt><trkpt lat="42.29815967022453" lon="11.648894204229455"><ele>16.0</ele><time>2026-04-11T08:21:57.999Z</time></trkpt><trkpt lat="42.2980969214832" lon="11.648819666640579"><ele>16.0</ele><time>2026-04-11T08:21:58.999Z</time></trkpt><trkpt lat="42.29803374073182" lon="11.648749107757066"><ele>16.0</ele><time>2026-04-11T08:21:59.999Z</time></trkpt><trkpt lat="42.29796754071225" lon="11.648672389043517"><ele>15.999999999999998</ele><time>2026-04-11T08:22:00.999Z</time></trkpt><trkpt lat="42.29790401739247" lon="11.648595358601204"><ele>16.0</ele><time>2026-04-11T08:22:01.999Z</time></trkpt><trkpt lat="42.29784840578522" lon="11.64852343133895"><ele>15.4</ele><time>2026-04-11T08:22:02.999Z</time></trkpt><trkpt lat="42.297799996431394" lon="11.648453727458401"><ele>14.8</ele><time>2026-04-11T08:22:03.999Z</time></trkpt><trkpt lat="42.297759815122625" lon="11.648380236867352"><ele>14.200000000000001</ele><time>2026-04-11T08:22:04.999Z</time></trkpt><trkpt lat="42.297669574521244" lon="11.648331694457678"><ele>13.600000000000001</ele><time>2026-04-11T08:22:06.999Z</time></trkpt><trkpt lat="42.297702287328875" lon="11.648145185344777"><ele>13.0</ele><time>2026-04-11T08:22:07.999Z</time></trkpt><trkpt lat="42.297707131828396" lon="11.64802021857803"><ele>13.0</ele><time>2026-04-11T08:22:09.999Z</time></trkpt><trkpt lat="42.29769335604148" lon="11.647922904401497"><ele>13.0</ele><time>2026-04-11T08:22:12.999Z</time></trkpt><trkpt lat="42.297666069294365" lon="11.647825830587385"><ele>13.0</ele><time>2026-04-11T08:22:20.999Z</time></trkpt><trkpt lat="42.29769127698602" lon="11.648001556290033"><ele>13.0</ele><time>2026-04-11T08:22:44Z</time></trkpt><trkpt lat="42.29770447091098" lon="11.648118201487726"><ele>13.0</ele><time>2026-04-11T08:22:45Z</time></trkpt><trkpt lat="42.29768878764504" lon="11.648249763311789"><ele>13.0</ele><time>2026-04-11T08:22:47Z</time></trkpt><trkpt lat="42.29767431231798" lon="11.648360486263169"><ele>13.0</ele><time>2026-04-11T08:22:49Z</time></trkpt><trkpt lat="42.298135663846786" lon="11.648185390110806"><ele>13.5</ele><time>2026-04-11T08:22:53Z</time></trkpt><trkpt lat="42.29839657431734" lon="11.64837154273507"><ele>14.0</ele><time>2026-04-11T08:22:54Z</time></trkpt><trkpt lat="42.29855074599051" lon="11.648510631653462"><ele>14.333333333333334</ele><time>2026-04-11T08:22:55Z</time></trkpt><trkpt lat="42.2987016341576" lon="11.64865429414349"><ele>14.666666666666668</ele><time>2026-04-11T08:22:56Z</time></trkpt><trkpt lat="42.29883645496299" lon="11.648784076969214"><ele>15.0</ele><time>2026-04-11T08:22:57Z</time></trkpt><trkpt lat="42.29895634238321" lon="11.64889559531936"><ele>15.0</ele><time>2026-04-11T08:22:58Z</time></trkpt><trkpt lat="42.299025485495015" lon="11.648937564349824"><ele>15.0</ele><time>2026-04-11T08:22:59Z</time></trkpt><trkpt lat="42.299119315605246" lon="11.649075234609413"><ele>15.0</ele><time>2026-04-11T08:23:00Z</time></trkpt><trkpt lat="42.29889185735947" lon="11.649813180184283"><ele>15.4</ele><time>2026-04-11T08:23:01Z</time></trkpt><trkpt lat="42.2989867005096" lon="11.649924890703103"><ele>15.8</ele><time>2026-04-11T08:23:02Z</time></trkpt><trkpt lat="42.299067570450134" lon="11.650037706439788"><ele>16.2</ele><time>2026-04-11T08:23:03Z</time></trkpt><trkpt lat="42.29914870239337" lon="11.650128631563689"><ele>16.6</ele><time>2026-04-11T08:23:04Z</time></trkpt><trkpt lat="42.29923130173895" lon="11.65019828381544"><ele>17.0</ele><time>2026-04-11T08:23:05Z</time></trkpt><trkpt lat="42.29932259774948" lon="11.650252860503088"><ele>17.0</ele><time>2026-04-11T08:23:06Z</time></trkpt><trkpt lat="42.29942338469434" lon="11.650279144995533"><ele>17.0</ele><time>2026-04-11T08:23:07Z</time></trkpt><trkpt lat="42.29953452715005" lon="11.65029698456448"><ele>17.0</ele><time>2026-04-11T08:23:08Z</time></trkpt><trkpt lat="42.29964528231253" lon="11.650284585426038"><ele>17.0</ele><time>2026-04-11T08:23:09Z</time></trkpt><trkpt lat="42.29977232063178" lon="11.65026935299442"><ele>16.75</ele><time>2026-04-11T08:23:10Z</time></trkpt><trkpt lat="42.29990774906348" lon="11.650208663746769"><ele>16.5</ele><time>2026-04-11T08:23:11Z</time></trkpt><trkpt lat="42.30004706689225" lon="11.650133503050343"><ele>16.25</ele><time>2026-04-11T08:23:12Z</time></trkpt><trkpt lat="42.300171934987304" lon="11.650057621186432"><ele>16.0</ele><time>2026-04-11T08:23:13Z</time></trkpt><trkpt lat="42.30029378347993" lon="11.649998548110144"><ele>16.0</ele><time>2026-04-11T08:23:14Z</time></trkpt><trkpt lat="42.30043323638518" lon="11.64999420388804"><ele>16.0</ele><time>2026-04-11T08:23:15Z</time></trkpt><trkpt lat="42.30057789626462" lon="11.649983979642828"><ele>16.0</ele><time>2026-04-11T08:23:16Z</time></trkpt><trkpt lat="42.300708809100406" lon="11.649988897458055"><ele>16.0</ele><time>2026-04-11T08:23:17Z</time></trkpt><trkpt lat="42.300845387995786" lon="11.650020238589923"><ele>16.333333333333332</ele><time>2026-04-11T08:23:18Z</time></trkpt><trkpt lat="42.30098780111853" lon="11.650068489782987"><ele>16.666666666666668</ele><time>2026-04-11T08:23:19Z</time></trkpt><trkpt lat="42.301150507946076" lon="11.650150720993395"><ele>17.0</ele><time>2026-04-11T08:23:20Z</time></trkpt><trkpt lat="42.30134728062609" lon="11.650242426795396"><ele>17.666666666666668</ele><time>2026-04-11T08:23:21Z</time></trkpt><trkpt lat="42.30154637372127" lon="11.650320675813026"><ele>18.333333333333332</ele><time>2026-04-11T08:23:22Z</time></trkpt><trkpt lat="42.301742984103484" lon="11.650406736138887"><ele>19.0</ele><time>2026-04-11T08:23:23Z</time></trkpt><trkpt lat="42.30192253983543" lon="11.650487690065795"><ele>19.0</ele><time>2026-04-11T08:23:24Z</time></trkpt><trkpt lat="42.30209023593145" lon="11.650564647947805"><ele>19.0</ele><time>2026-04-11T08:23:25Z</time></trkpt><trkpt lat="42.302257683954544" lon="11.650628230835663"><ele>19.0</ele><time>2026-04-11T08:23:26Z</time></trkpt><trkpt lat="42.30241398270617" lon="11.650691191975849"><ele>19.333333333333332</ele><time>2026-04-11T08:23:27Z</time></trkpt><trkpt lat="42.30257519350084" lon="11.650766579539658"><ele>19.666666666666668</ele><time>2026-04-11T08:23:28Z</time></trkpt><trkpt lat="42.302737188001814" lon="11.650830944763525"><ele>20.0</ele><time>2026-04-11T08:23:29Z</time></trkpt><trkpt lat="42.302893538893194" lon="11.6508990013393"><ele>20.0</ele><time>2026-04-11T08:23:30Z</time></trkpt><trkpt lat="42.30305315685796" lon="11.650969120871009"><ele>20.0</ele><time>2026-04-11T08:23:31Z</time></trkpt><trkpt lat="42.30321127136046" lon="11.651006715893336"><ele>20.0</ele><time>2026-04-11T08:23:32Z</time></trkpt><trkpt lat="42.30337022243719" lon="11.651078646450252"><ele>20.0</ele><time>2026-04-11T08:23:33Z</time></trkpt><trkpt lat="42.303532405259986" lon="11.65115645934806"><ele>20.0</ele><time>2026-04-11T08:23:34Z</time></trkpt><trkpt lat="42.30369694941526" lon="11.65122502488827"><ele>20.0</ele><time>2026-04-11T08:23:35Z</time></trkpt><trkpt lat="42.30386208055061" lon="11.651300961727552"><ele>20.0</ele><time>2026-04-11T08:23:36Z</time></trkpt><trkpt lat="42.30403127459686" lon="11.65136958471941"><ele>20.0</ele><time>2026-04-11T08:23:37Z</time></trkpt><trkpt lat="42.30420401114633" lon="11.651435204659657"><ele>20.0</ele><time>2026-04-11T08:23:38Z</time></trkpt><trkpt lat="42.304379957626196" lon="11.65153022230146"><ele>20.0</ele><time>2026-04-11T08:23:39Z</time></trkpt><trkpt lat="42.30456031880334" lon="11.651606623403001"><ele>20.0</ele><time>2026-04-11T08:23:40Z</time></trkpt><trkpt lat="42.30472924226007" lon="11.651678179481959"><ele>20.0</ele><time>2026-04-11T08:23:41Z</time></trkpt><trkpt lat="42.30489630367579" lon="11.65174912874958"><ele>20.333333333333336</ele><time>2026-04-11T08:23:42Z</time></trkpt><trkpt lat="42.30506438992855" lon="11.651821878826597"><ele>20.666666666666668</ele><time>2026-04-11T08:23:43Z</time></trkpt><trkpt lat="42.305228684644966" lon="11.65189298942543"><ele>21.0</ele><time>2026-04-11T08:23:44Z</time></trkpt><trkpt lat="42.30540848916161" lon="11.651947485492075"><ele>21.333333333333332</ele><time>2026-04-11T08:23:45Z</time></trkpt><trkpt lat="42.305574640095664" lon="11.652023544299599"><ele>21.666666666666664</ele><time>2026-04-11T08:23:46Z</time></trkpt><trkpt lat="42.3057518886835" lon="11.652104954331014"><ele>22.0</ele><time>2026-04-11T08:23:47Z</time></trkpt><trkpt lat="42.305923684274674" lon="11.652178237475358"><ele>22.666666666666664</ele><time>2026-04-11T08:23:48Z</time></trkpt><trkpt lat="42.30608844347092" lon="11.65224153361213"><ele>23.333333333333332</ele><time>2026-04-11T08:23:49Z</time></trkpt><trkpt lat="42.30626320610491" lon="11.652311774587695"><ele>24.0</ele><time>2026-04-11T08:23:50Z</time></trkpt><trkpt lat="42.30643660929379" lon="11.65239392314892"><ele>24.666666666666664</ele><time>2026-04-11T08:23:51Z</time></trkpt><trkpt lat="42.306606058022034" lon="11.652466756762701"><ele>25.333333333333332</ele><time>2026-04-11T08:23:52Z</time></trkpt><trkpt lat="42.30678014112881" lon="11.652543484772027"><ele>26.0</ele><time>2026-04-11T08:23:53Z</time></trkpt><trkpt lat="42.30694395973043" lon="11.65261840582968"><ele>26.0</ele><time>2026-04-11T08:23:54Z</time></trkpt><trkpt lat="42.307103075896855" lon="11.65268752557395"><ele>26.0</ele><time>2026-04-11T08:23:55Z</time></trkpt><trkpt lat="42.307265808569184" lon="11.652756883538522"><ele>26.0</ele><time>2026-04-11T08:23:56Z</time></trkpt><trkpt lat="42.307427489077575" lon="11.652821452100188"><ele>27.0</ele><time>2026-04-11T08:23:57Z</time></trkpt><trkpt lat="42.30759795822337" lon="11.652882688248427"><ele>28.0</ele><time>2026-04-11T08:23:58Z</time></trkpt><trkpt lat="42.307758512263895" lon="11.652961823292465"><ele>29.0</ele><time>2026-04-11T08:23:58.999Z</time></trkpt><trkpt lat="42.3079167520137" lon="11.653032109220389"><ele>29.666666666666664</ele><time>2026-04-11T08:23:59.999Z</time></trkpt><trkpt lat="42.30807814162153" lon="11.653097702560874"><ele>30.333333333333336</ele><time>2026-04-11T08:24:00.999Z</time></trkpt><trkpt lat="42.308231733668066" lon="11.65316777370778"><ele>31.0</ele><time>2026-04-11T08:24:01.999Z</time></trkpt><trkpt lat="42.308386669241344" lon="11.653246702719198"><ele>31.0</ele><time>2026-04-11T08:24:02.999Z</time></trkpt><trkpt lat="42.30853512747245" lon="11.65332972729903"><ele>31.0</ele><time>2026-04-11T08:24:03.999Z</time></trkpt><trkpt lat="42.30867641794903" lon="11.65338743648137"><ele>31.0</ele><time>2026-04-11T08:24:04.999Z</time></trkpt><trkpt lat="42.308815132002" lon="11.653441654374161"><ele>31.0</ele><time>2026-04-11T08:24:05.999Z</time></trkpt><trkpt lat="42.30893045802162" lon="11.653500281676804"><ele>31.0</ele><time>2026-04-11T08:24:06.999Z</time></trkpt><trkpt lat="42.30904707045296" lon="11.653553185931065"><ele>31.0</ele><time>2026-04-11T08:24:07.999Z</time></trkpt><trkpt lat="42.30915112847459" lon="11.6535980838187"><ele>31.0</ele><time>2026-04-11T08:24:08.999Z</time></trkpt><trkpt lat="42.30924336110017" lon="11.653640439948374"><ele>31.0</ele><time>2026-04-11T08:24:09.999Z</time></trkpt><trkpt lat="42.30933420794871" lon="11.653702782595603"><ele>31.0</ele><time>2026-04-11T08:24:10.999Z</time></trkpt><trkpt lat="42.309427684446256" lon="11.653761506344553"><ele>31.0</ele><time>2026-04-11T08:24:11.999Z</time></trkpt><trkpt lat="42.309508089548316" lon="11.653828629557758"><ele>31.0</ele><time>2026-04-11T08:24:12.999Z</time></trkpt><trkpt lat="42.30956735714777" lon="11.653897153856052"><ele>31.0</ele><time>2026-04-11T08:24:13.999Z</time></trkpt><trkpt lat="42.3096103537235" lon="11.653982311128209"><ele>31.0</ele><time>2026-04-11T08:24:14.999Z</time></trkpt><trkpt lat="42.30966245330567" lon="11.654066424764382"><ele>31.0</ele><time>2026-04-11T08:24:15.999Z</time></trkpt><trkpt lat="42.309718205294914" lon="11.654191360669198"><ele>31.0</ele><time>2026-04-11T08:24:16.999Z</time></trkpt><trkpt lat="42.30978737634016" lon="11.654321840366887"><ele>31.0</ele><time>2026-04-11T08:24:17.999Z</time></trkpt><trkpt lat="42.30986618626031" lon="11.654423085538433"><ele>31.0</ele><time>2026-04-11T08:24:18.999Z</time></trkpt><trkpt lat="42.309929582629145" lon="11.654591563234948"><ele>30.4</ele><time>2026-04-11T08:24:19.999Z</time></trkpt><trkpt lat="42.31001587626487" lon="11.65473911539105"><ele>29.8</ele><time>2026-04-11T08:24:20.999Z</time></trkpt><trkpt lat="42.31007830234399" lon="11.654868583388641"><ele>29.199999999999996</ele><time>2026-04-11T08:24:21.999Z</time></trkpt><trkpt lat="42.31012183986884" lon="11.654942752473353"><ele>28.599999999999998</ele><time>2026-04-11T08:24:22.999Z</time></trkpt><trkpt lat="42.31014824220147" lon="11.655021713019957"><ele>28.0</ele><time>2026-04-11T08:24:23.999Z</time></trkpt><trkpt lat="42.31016785789492" lon="11.655149797286464"><ele>28.0</ele><time>2026-04-11T08:24:24.999Z</time></trkpt><trkpt lat="42.31016845122603" lon="11.655267243201305"><ele>27.999999999999996</ele><time>2026-04-11T08:24:25.999Z</time></trkpt><trkpt lat="42.31014451186554" lon="11.655370876793514"><ele>27.999999999999996</ele><time>2026-04-11T08:24:26.999Z</time></trkpt><trkpt lat="42.31004842532623" lon="11.655398074853338"><ele>28.0</ele><time>2026-04-11T08:24:27.999Z</time></trkpt><trkpt lat="42.309976894983585" lon="11.655456592602782"><ele>28.0</ele><time>2026-04-11T08:24:28.999Z</time></trkpt><trkpt lat="42.309889969267296" lon="11.65553016726994"><ele>27.4</ele><time>2026-04-11T08:24:29.999Z</time></trkpt><trkpt lat="42.30979041394036" lon="11.655615973266558"><ele>26.799999999999997</ele><time>2026-04-11T08:24:30.999Z</time></trkpt><trkpt lat="42.309702715643645" lon="11.655679278538976"><ele>26.2</ele><time>2026-04-11T08:24:31.999Z</time></trkpt><trkpt lat="42.309613192892435" lon="11.655771015100017"><ele>25.6</ele><time>2026-04-11T08:24:32.999Z</time></trkpt><trkpt lat="42.30954197288243" lon="11.655845757315147"><ele>25.0</ele><time>2026-04-11T08:24:33.999Z</time></trkpt><trkpt lat="42.309477416980144" lon="11.655907583579419"><ele>25.0</ele><time>2026-04-11T08:24:34.999Z</time></trkpt><trkpt lat="42.30937086392831" lon="11.65596557979547"><ele>25.0</ele><time>2026-04-11T08:24:37Z</time></trkpt><trkpt lat="42.309248547998166" lon="11.6559266684289"><ele>25.0</ele><time>2026-04-11T08:24:39Z</time></trkpt><trkpt lat="42.309167899204695" lon="11.655841865644161"><ele>25.0</ele><time>2026-04-11T08:24:41Z</time></trkpt><trkpt lat="42.30912836191347" lon="11.655719347648295"><ele>25.0</ele><time>2026-04-11T08:24:43Z</time></trkpt><trkpt lat="42.30915526197691" lon="11.655596182662878"><ele>25.0</ele><time>2026-04-11T08:24:45Z</time></trkpt><trkpt lat="42.309209683711146" lon="11.65544503830188"><ele>25.0</ele><time>2026-04-11T08:24:47Z</time></trkpt><trkpt lat="42.309291905896764" lon="11.655365549728904"><ele>25.0</ele><time>2026-04-11T08:24:48Z</time></trkpt><trkpt lat="42.309378400639844" lon="11.655279907611684"><ele>25.0</ele><time>2026-04-11T08:24:49Z</time></trkpt><trkpt lat="42.30946889571946" lon="11.655176246341952"><ele>25.5</ele><time>2026-04-11T08:24:50Z</time></trkpt><trkpt lat="42.30959453981454" lon="11.655061564587166"><ele>26.0</ele><time>2026-04-11T08:24:51Z</time></trkpt><trkpt lat="42.309709833211194" lon="11.654958189104294"><ele>26.5</ele><time>2026-04-11T08:24:52Z</time></trkpt><trkpt lat="42.309838273159194" lon="11.654855429988158"><ele>27.0</ele><time>2026-04-11T08:24:53Z</time></trkpt><trkpt lat="42.30996384538665" lon="11.65474250887033"><ele>27.333333333333336</ele><time>2026-04-11T08:24:54Z</time></trkpt><trkpt lat="42.31010127161698" lon="11.654627651565601"><ele>27.666666666666668</ele><time>2026-04-11T08:24:55Z</time></trkpt><trkpt lat="42.31026834764822" lon="11.654524277461736"><ele>28.0</ele><time>2026-04-11T08:24:56Z</time></trkpt><trkpt lat="42.31042129482809" lon="11.654423301904895"><ele>29.0</ele><time>2026-04-11T08:24:57Z</time></trkpt><trkpt lat="42.310583488192364" lon="11.654320738388186"><ele>30.0</ele><time>2026-04-11T08:24:58Z</time></trkpt><trkpt lat="42.31072357962044" lon="11.654239212926283"><ele>31.0</ele><time>2026-04-11T08:24:59Z</time></trkpt><trkpt lat="42.310894593528566" lon="11.654143723015421"><ele>31.0</ele><time>2026-04-11T08:25:00Z</time></trkpt><trkpt lat="42.31105875494068" lon="11.65407526448414"><ele>31.0</ele><time>2026-04-11T08:25:01Z</time></trkpt><trkpt lat="42.311261055443616" lon="11.654021750962924"><ele>31.0</ele><time>2026-04-11T08:25:02Z</time></trkpt><trkpt lat="42.31143193330803" lon="11.653966687425207"><ele>30.0</ele><time>2026-04-11T08:25:03Z</time></trkpt><trkpt lat="42.31161005004139" lon="11.65392249049694"><ele>29.0</ele><time>2026-04-11T08:25:04Z</time></trkpt><trkpt lat="42.31180449063991" lon="11.653896907592284"><ele>28.0</ele><time>2026-04-11T08:25:05Z</time></trkpt><trkpt lat="42.311981631292596" lon="11.653883274721936"><ele>28.0</ele><time>2026-04-11T08:25:06Z</time></trkpt><trkpt lat="42.31216516394587" lon="11.653879185516148"><ele>28.0</ele><time>2026-04-11T08:25:07Z</time></trkpt><trkpt lat="42.31234091537711" lon="11.653864640584063"><ele>28.0</ele><time>2026-04-11T08:25:08Z</time></trkpt><trkpt lat="42.31253283450571" lon="11.653840858785458"><ele>25.666666666666668</ele><time>2026-04-11T08:25:09Z</time></trkpt><trkpt lat="42.31272186234867" lon="11.653814801117258"><ele>23.333333333333336</ele><time>2026-04-11T08:25:10Z</time></trkpt><trkpt lat="42.31290295853125" lon="11.653803613694954"><ele>21.0</ele><time>2026-04-11T08:25:11Z</time></trkpt><trkpt lat="42.31308702235182" lon="11.653787357218032"><ele>19.333333333333332</ele><time>2026-04-11T08:25:12Z</time></trkpt><trkpt lat="42.31327749729369" lon="11.653785283671466"><ele>17.666666666666664</ele><time>2026-04-11T08:25:13Z</time></trkpt><trkpt lat="42.313450804306385" lon="11.653775837837502"><ele>16.0</ele><time>2026-04-11T08:25:14Z</time></trkpt><trkpt lat="42.31363172805476" lon="11.653789637609071"><ele>16.0</ele><time>2026-04-11T08:25:15Z</time></trkpt><trkpt lat="42.31381349963717" lon="11.653774867979255"><ele>16.0</ele><time>2026-04-11T08:25:16Z</time></trkpt><trkpt lat="42.31400041670953" lon="11.653756043600852"><ele>16.0</ele><time>2026-04-11T08:25:17Z</time></trkpt><trkpt lat="42.314165785147544" lon="11.653740822252436"><ele>16.666666666666664</ele><time>2026-04-11T08:25:18Z</time></trkpt><trkpt lat="42.31436186022748" lon="11.653742843783592"><ele>17.333333333333332</ele><time>2026-04-11T08:25:19Z</time></trkpt><trkpt lat="42.31454102246834" lon="11.653739324601139"><ele>18.0</ele><time>2026-04-11T08:25:20Z</time></trkpt><trkpt lat="42.314718202734426" lon="11.65373447073765"><ele>18.0</ele><time>2026-04-11T08:25:21Z</time></trkpt><trkpt lat="42.31489100578872" lon="11.653723222387692"><ele>18.0</ele><time>2026-04-11T08:25:22Z</time></trkpt><trkpt lat="42.31506389684135" lon="11.653711305178327"><ele>18.0</ele><time>2026-04-11T08:25:23Z</time></trkpt><trkpt lat="42.3152368114909" lon="11.653693357606253"><ele>18.0</ele><time>2026-04-11T08:25:24Z</time></trkpt><trkpt lat="42.31541065167004" lon="11.653666961750828"><ele>18.0</ele><time>2026-04-11T08:25:25Z</time></trkpt><trkpt lat="42.31558443137989" lon="11.653630506110694"><ele>18.0</ele><time>2026-04-11T08:25:26Z</time></trkpt><trkpt lat="42.31575544059941" lon="11.653589089522633"><ele>17.0</ele><time>2026-04-11T08:25:27Z</time></trkpt><trkpt lat="42.31592485537928" lon="11.653535101605216"><ele>16.0</ele><time>2026-04-11T08:25:28Z</time></trkpt><trkpt lat="42.31609795885613" lon="11.653478199114701"><ele>15.0</ele><time>2026-04-11T08:25:29Z</time></trkpt><trkpt lat="42.316270548535975" lon="11.653414354790673"><ele>15.333333333333332</ele><time>2026-04-11T08:25:30Z</time></trkpt><trkpt lat="42.316443579574056" lon="11.65334297311289"><ele>15.666666666666666</ele><time>2026-04-11T08:25:31Z</time></trkpt><trkpt lat="42.31661168103543" lon="11.653262473976023"><ele>16.0</ele><time>2026-04-11T08:25:32Z</time></trkpt><trkpt lat="42.31677941494127" lon="11.653165727780326"><ele>16.0</ele><time>2026-04-11T08:25:33Z</time></trkpt><trkpt lat="42.31694896029839" lon="11.653062930554471"><ele>16.0</ele><time>2026-04-11T08:25:34Z</time></trkpt><trkpt lat="42.31711090965752" lon="11.652957065846856"><ele>16.0</ele><time>2026-04-11T08:25:35Z</time></trkpt><trkpt lat="42.3172710543975" lon="11.652846951243449"><ele>15.333333333333332</ele><time>2026-04-11T08:25:36Z</time></trkpt><trkpt lat="42.31742288365414" lon="11.65272651949316"><ele>14.666666666666668</ele><time>2026-04-11T08:25:37Z</time></trkpt><trkpt lat="42.31757625359268" lon="11.652600950969498"><ele>14.0</ele><time>2026-04-11T08:25:38Z</time></trkpt><trkpt lat="42.31772466055821" lon="11.65246895130751"><ele>14.0</ele><time>2026-04-11T08:25:39Z</time></trkpt><trkpt lat="42.317867047349466" lon="11.652328344882505"><ele>14.0</ele><time>2026-04-11T08:25:40Z</time></trkpt><trkpt lat="42.31801171025766" lon="11.652179585476823"><ele>14.0</ele><time>2026-04-11T08:25:41Z</time></trkpt><trkpt lat="42.31815478963382" lon="11.652024556378253"><ele>14.333333333333334</ele><time>2026-04-11T08:25:42Z</time></trkpt><trkpt lat="42.3182921752799" lon="11.651858869099296"><ele>14.666666666666668</ele><time>2026-04-11T08:25:43Z</time></trkpt><trkpt lat="42.31841940601194" lon="11.651682049108102"><ele>15.0</ele><time>2026-04-11T08:25:44Z</time></trkpt><trkpt lat="42.31854335280153" lon="11.651496017635338"><ele>15.0</ele><time>2026-04-11T08:25:45Z</time></trkpt><trkpt lat="42.31867003273796" lon="11.651309544880801"><ele>15.0</ele><time>2026-04-11T08:25:46Z</time></trkpt><trkpt lat="42.31880112159648" lon="11.651110091654648"><ele>15.0</ele><time>2026-04-11T08:25:47Z</time></trkpt><trkpt lat="42.318934205176724" lon="11.650906627357761"><ele>14.333333333333332</ele><time>2026-04-11T08:25:48Z</time></trkpt><trkpt lat="42.31907043886843" lon="11.650700989465586"><ele>13.666666666666666</ele><time>2026-04-11T08:25:49Z</time></trkpt><trkpt lat="42.31921161774539" lon="11.650490213516106"><ele>13.0</ele><time>2026-04-11T08:25:50Z</time></trkpt><trkpt lat="42.31935072746712" lon="11.650290590540363"><ele>13.0</ele><time>2026-04-11T08:25:51Z</time></trkpt><trkpt lat="42.31948720983522" lon="11.650085213490044"><ele>13.0</ele><time>2026-04-11T08:25:52Z</time></trkpt><trkpt lat="42.31962140169682" lon="11.649876668969144"><ele>13.0</ele><time>2026-04-11T08:25:53Z</time></trkpt><trkpt lat="42.319740538761955" lon="11.649679625710272"><ele>13.333333333333332</ele><time>2026-04-11T08:25:54Z</time></trkpt><trkpt lat="42.319862924096384" lon="11.649470154703737"><ele>13.666666666666668</ele><time>2026-04-11T08:25:55Z</time></trkpt><trkpt lat="42.319981670043084" lon="11.64924241934512"><ele>14.0</ele><time>2026-04-11T08:25:56Z</time></trkpt><trkpt lat="42.32009480679935" lon="11.649002414954946"><ele>14.0</ele><time>2026-04-11T08:25:57Z</time></trkpt><trkpt lat="42.32018320876773" lon="11.648760672714916"><ele>14.0</ele><time>2026-04-11T08:25:58Z</time></trkpt><trkpt lat="42.32029691027273" lon="11.648532111868269"><ele>14.0</ele><time>2026-04-11T08:25:59Z</time></trkpt><trkpt lat="42.32039956784578" lon="11.648306734598595"><ele>14.333333333333334</ele><time>2026-04-11T08:26:00Z</time></trkpt><trkpt lat="42.32048525367093" lon="11.648067595959077"><ele>14.666666666666668</ele><time>2026-04-11T08:26:01Z</time></trkpt><trkpt lat="42.32057324730685" lon="11.647813232962946"><ele>15.0</ele><time>2026-04-11T08:26:02Z</time></trkpt><trkpt lat="42.320645941331534" lon="11.647563481785738"><ele>15.666666666666668</ele><time>2026-04-11T08:26:03Z</time></trkpt><trkpt lat="42.320716383103914" lon="11.647307470097727"><ele>16.333333333333336</ele><time>2026-04-11T08:26:04Z</time></trkpt><trkpt lat="42.32078617201225" lon="11.64703968656741"><ele>17.0</ele><time>2026-04-11T08:26:05Z</time></trkpt><trkpt lat="42.32084782785154" lon="11.646767283373036"><ele>17.0</ele><time>2026-04-11T08:26:06Z</time></trkpt><trkpt lat="42.32090195013843" lon="11.646465945144529"><ele>17.0</ele><time>2026-04-11T08:26:07Z</time></trkpt><trkpt lat="42.32096280973843" lon="11.64615605286873"><ele>16.333333333333336</ele><time>2026-04-11T08:26:08Z</time></trkpt><trkpt lat="42.32102176640327" lon="11.645868638830597"><ele>15.666666666666668</ele><time>2026-04-11T08:26:09Z</time></trkpt><trkpt lat="42.32107384747516" lon="11.64559539011576"><ele>15.0</ele><time>2026-04-11T08:26:10Z</time></trkpt><trkpt lat="42.32113000194772" lon="11.64532499433245"><ele>14.333333333333332</ele><time>2026-04-11T08:26:11Z</time></trkpt><trkpt lat="42.321179360361036" lon="11.645074885555774"><ele>13.666666666666666</ele><time>2026-04-11T08:26:12Z</time></trkpt><trkpt lat="42.32122972030945" lon="11.644818039016114"><ele>13.0</ele><time>2026-04-11T08:26:13Z</time></trkpt><trkpt lat="42.32127734865207" lon="11.64457177740402"><ele>13.0</ele><time>2026-04-11T08:26:14Z</time></trkpt><trkpt lat="42.321327870822934" lon="11.644334375197285"><ele>13.0</ele><time>2026-04-11T08:26:15Z</time></trkpt><trkpt lat="42.32138312299743" lon="11.644107442424941"><ele>13.0</ele><time>2026-04-11T08:26:16Z</time></trkpt><trkpt lat="42.32143994871031" lon="11.643872172099462"><ele>13.666666666666666</ele><time>2026-04-11T08:26:17Z</time></trkpt><trkpt lat="42.321507734656116" lon="11.64364456821333"><ele>14.333333333333332</ele><time>2026-04-11T08:26:18Z</time></trkpt><trkpt lat="42.3215843644552" lon="11.643433529702879"><ele>15.0</ele><time>2026-04-11T08:26:19Z</time></trkpt><trkpt lat="42.3216688633414" lon="11.643219172672856"><ele>15.333333333333332</ele><time>2026-04-11T08:26:20Z</time></trkpt><trkpt lat="42.32176738294397" lon="11.6430076011779"><ele>15.666666666666666</ele><time>2026-04-11T08:26:21Z</time></trkpt><trkpt lat="42.321879071899005" lon="11.642801056721396"><ele>16.0</ele><time>2026-04-11T08:26:22Z</time></trkpt><trkpt lat="42.32199837975531" lon="11.642602880375449"><ele>16.0</ele><time>2026-04-11T08:26:23Z</time></trkpt><trkpt lat="42.32212933627238" lon="11.642412256421029"><ele>16.0</ele><time>2026-04-11T08:26:24Z</time></trkpt><trkpt lat="42.322257467806686" lon="11.642230502341224"><ele>16.0</ele><time>2026-04-11T08:26:25Z</time></trkpt><trkpt lat="42.322397139201406" lon="11.642056333557912"><ele>16.666666666666664</ele><time>2026-04-11T08:26:26Z</time></trkpt><trkpt lat="42.322543601899945" lon="11.641877974820705"><ele>17.333333333333332</ele><time>2026-04-11T08:26:27Z</time></trkpt><trkpt lat="42.32269645816395" lon="11.64169534800147"><ele>18.0</ele><time>2026-04-11T08:26:28Z</time></trkpt><trkpt lat="42.32284261825274" lon="11.641514539362086"><ele>18.0</ele><time>2026-04-11T08:26:29Z</time></trkpt><trkpt lat="42.32298691150502" lon="11.64133501798321"><ele>18.0</ele><time>2026-04-11T08:26:30Z</time></trkpt><trkpt lat="42.32312973786615" lon="11.641163798945874"><ele>18.0</ele><time>2026-04-11T08:26:31Z</time></trkpt><trkpt lat="42.32327372264253" lon="11.640991708525409"><ele>17.666666666666668</ele><time>2026-04-11T08:26:32Z</time></trkpt><trkpt lat="42.323414107980994" lon="11.640821618314073"><ele>17.333333333333336</ele><time>2026-04-11T08:26:33Z</time></trkpt><trkpt lat="42.3235564867582" lon="11.640648834685686"><ele>17.0</ele><time>2026-04-11T08:26:34Z</time></trkpt><trkpt lat="42.32371531175389" lon="11.640478353410428"><ele>17.666666666666668</ele><time>2026-04-11T08:26:35Z</time></trkpt><trkpt lat="42.323870947950816" lon="11.64028133812373"><ele>18.333333333333332</ele><time>2026-04-11T08:26:36Z</time></trkpt><trkpt lat="42.324018996496854" lon="11.64010501157741"><ele>19.0</ele><time>2026-04-11T08:26:37Z</time></trkpt><trkpt lat="42.32415302970393" lon="11.63993680798555"><ele>20.0</ele><time>2026-04-11T08:26:38Z</time></trkpt><trkpt lat="42.32428848059062" lon="11.639777594477831"><ele>21.0</ele><time>2026-04-11T08:26:39Z</time></trkpt><trkpt lat="42.32441924780486" lon="11.6395757867122"><ele>22.0</ele><time>2026-04-11T08:26:39.999Z</time></trkpt><trkpt lat="42.32454393824234" lon="11.639403042985286"><ele>23.333333333333332</ele><time>2026-04-11T08:26:40.999Z</time></trkpt><trkpt lat="42.32466439203559" lon="11.639214710473958"><ele>24.666666666666664</ele><time>2026-04-11T08:26:41.999Z</time></trkpt><trkpt lat="42.32476605501116" lon="11.639005335798977"><ele>26.0</ele><time>2026-04-11T08:26:43Z</time></trkpt><trkpt lat="42.32486455441416" lon="11.638792254630548"><ele>26.666666666666664</ele><time>2026-04-11T08:26:44Z</time></trkpt><trkpt lat="42.32496111946977" lon="11.638574783211107"><ele>27.333333333333336</ele><time>2026-04-11T08:26:45Z</time></trkpt><trkpt lat="42.32504478724039" lon="11.638342822664205"><ele>28.0</ele><time>2026-04-11T08:26:46Z</time></trkpt><trkpt lat="42.325123114482274" lon="11.638121146008906"><ele>28.0</ele><time>2026-04-11T08:26:47Z</time></trkpt><trkpt lat="42.32517532500769" lon="11.637910384390368"><ele>28.0</ele><time>2026-04-11T08:26:48Z</time></trkpt><trkpt lat="42.32522032435631" lon="11.637689774613351"><ele>28.0</ele><time>2026-04-11T08:26:49Z</time></trkpt><trkpt lat="42.32526427780957" lon="11.637461030277283"><ele>28.0</ele><time>2026-04-11T08:26:50Z</time></trkpt><trkpt lat="42.32529840361024" lon="11.637219255124231"><ele>28.0</ele><time>2026-04-11T08:26:51Z</time></trkpt><trkpt lat="42.32534854415104" lon="11.636997010698527"><ele>28.0</ele><time>2026-04-11T08:26:52Z</time></trkpt><trkpt lat="42.32538743026531" lon="11.636763105816561"><ele>28.666666666666668</ele><time>2026-04-11T08:26:53Z</time></trkpt><trkpt lat="42.32544060512103" lon="11.63653456887635"><ele>29.333333333333336</ele><time>2026-04-11T08:26:54Z</time></trkpt><trkpt lat="42.325481593458974" lon="11.636295300301466"><ele>30.0</ele><time>2026-04-11T08:26:55Z</time></trkpt><trkpt lat="42.32552167215061" lon="11.636069949969938"><ele>30.666666666666664</ele><time>2026-04-11T08:26:56Z</time></trkpt><trkpt lat="42.32557172460576" lon="11.635845503320668"><ele>31.333333333333332</ele><time>2026-04-11T08:26:57Z</time></trkpt><trkpt lat="42.32560928143867" lon="11.635614923247505"><ele>32.0</ele><time>2026-04-11T08:26:58Z</time></trkpt><trkpt lat="42.32565141705154" lon="11.635395221147938"><ele>32.666666666666664</ele><time>2026-04-11T08:26:59Z</time></trkpt><trkpt lat="42.32570632078811" lon="11.63517819536043"><ele>33.333333333333336</ele><time>2026-04-11T08:27:00Z</time></trkpt><trkpt lat="42.32577125541983" lon="11.634962798282542"><ele>34.0</ele><time>2026-04-11T08:27:01Z</time></trkpt><trkpt lat="42.325850331657016" lon="11.634761327636568"><ele>34.0</ele><time>2026-04-11T08:27:02Z</time></trkpt><trkpt lat="42.32593813392186" lon="11.634562856554792"><ele>34.0</ele><time>2026-04-11T08:27:03Z</time></trkpt><trkpt lat="42.32604338541426" lon="11.634351222876228"><ele>34.0</ele><time>2026-04-11T08:27:04Z</time></trkpt><trkpt lat="42.32614996090206" lon="11.634157386751054"><ele>34.0</ele><time>2026-04-11T08:27:05Z</time></trkpt><trkpt lat="42.32627691080945" lon="11.633961550903091"><ele>34.0</ele><time>2026-04-11T08:27:06Z</time></trkpt><trkpt lat="42.32640694102843" lon="11.63377719317499"><ele>34.0</ele><time>2026-04-11T08:27:07Z</time></trkpt><trkpt lat="42.326549886709195" lon="11.633594658518138"><ele>33.66666666666667</ele><time>2026-04-11T08:27:08Z</time></trkpt><trkpt lat="42.32667836164025" lon="11.633409583736805"><ele>33.333333333333336</ele><time>2026-04-11T08:27:09Z</time></trkpt><trkpt lat="42.326844199033246" lon="11.63324483958887"><ele>33.0</ele><time>2026-04-11T08:27:10Z</time></trkpt><trkpt lat="42.32702227942629" lon="11.633061001133795"><ele>33.0</ele><time>2026-04-11T08:27:11Z</time></trkpt><trkpt lat="42.32720780344121" lon="11.632882234337643"><ele>33.0</ele><time>2026-04-11T08:27:12Z</time></trkpt><trkpt lat="42.327388192532396" lon="11.632708250599148"><ele>33.0</ele><time>2026-04-11T08:27:13Z</time></trkpt><trkpt lat="42.32756937045194" lon="11.632531595699172"><ele>33.333333333333336</ele><time>2026-04-11T08:27:14Z</time></trkpt><trkpt lat="42.32773254683609" lon="11.632374218631984"><ele>33.66666666666667</ele><time>2026-04-11T08:27:15Z</time></trkpt><trkpt lat="42.32790152822661" lon="11.63220822531122"><ele>34.0</ele><time>2026-04-11T08:27:16Z</time></trkpt><trkpt lat="42.32809381998084" lon="11.63207220345168"><ele>33.66666666666667</ele><time>2026-04-11T08:27:17Z</time></trkpt><trkpt lat="42.32825268252029" lon="11.63193499624155"><ele>33.333333333333336</ele><time>2026-04-11T08:27:18Z</time></trkpt><trkpt lat="42.328413836348304" lon="11.63178050559638"><ele>33.0</ele><time>2026-04-11T08:27:19Z</time></trkpt><trkpt lat="42.32857660926138" lon="11.631622949518416"><ele>33.0</ele><time>2026-04-11T08:27:20Z</time></trkpt><trkpt lat="42.328735518526855" lon="11.631465859448188"><ele>33.0</ele><time>2026-04-11T08:27:21Z</time></trkpt><trkpt lat="42.32888147273641" lon="11.631302478252332"><ele>33.0</ele><time>2026-04-11T08:27:22Z</time></trkpt><trkpt lat="42.329026406289195" lon="11.631137514552185"><ele>33.0</ele><time>2026-04-11T08:27:23Z</time></trkpt><trkpt lat="42.32918650762946" lon="11.630978124007276"><ele>33.0</ele><time>2026-04-11T08:27:24Z</time></trkpt><trkpt lat="42.32933654343392" lon="11.63081728192873"><ele>33.0</ele><time>2026-04-11T08:27:25Z</time></trkpt><trkpt lat="42.32948791376197" lon="11.630646289695228"><ele>33.0</ele><time>2026-04-11T08:27:26Z</time></trkpt><trkpt lat="42.329629604089035" lon="11.630475538117418"><ele>33.0</ele><time>2026-04-11T08:27:27Z</time></trkpt><trkpt lat="42.32977482103117" lon="11.63030796152138"><ele>33.0</ele><time>2026-04-11T08:27:28Z</time></trkpt><trkpt lat="42.329928712061665" lon="11.630130841689704"><ele>33.666666666666664</ele><time>2026-04-11T08:27:29Z</time></trkpt><trkpt lat="42.33007979637099" lon="11.6299558916568"><ele>34.33333333333333</ele><time>2026-04-11T08:27:30Z</time></trkpt><trkpt lat="42.3302449433741" lon="11.629778291431158"><ele>35.0</ele><time>2026-04-11T08:27:31Z</time></trkpt><trkpt lat="42.33039509903258" lon="11.629611916970097"><ele>34.666666666666664</ele><time>2026-04-11T08:27:32Z</time></trkpt><trkpt lat="42.330520751282954" lon="11.629439100628511"><ele>34.333333333333336</ele><time>2026-04-11T08:27:33Z</time></trkpt><trkpt lat="42.330658961648396" lon="11.629275382442701"><ele>34.0</ele><time>2026-04-11T08:27:34Z</time></trkpt><trkpt lat="42.33079228658981" lon="11.629109364940716"><ele>34.0</ele><time>2026-04-11T08:27:35Z</time></trkpt><trkpt lat="42.330929161265864" lon="11.628947899477303"><ele>34.0</ele><time>2026-04-11T08:27:36Z</time></trkpt><trkpt lat="42.331064499877094" lon="11.628784845284667"><ele>34.0</ele><time>2026-04-11T08:27:37Z</time></trkpt><trkpt lat="42.33120023604404" lon="11.62862256308052"><ele>34.0</ele><time>2026-04-11T08:27:38Z</time></trkpt><trkpt lat="42.33133342246586" lon="11.628457031625318"><ele>34.0</ele><time>2026-04-11T08:27:39Z</time></trkpt><trkpt lat="42.33146666839449" lon="11.628291911349766"><ele>34.0</ele><time>2026-04-11T08:27:40Z</time></trkpt><trkpt lat="42.331596854181285" lon="11.628126625994112"><ele>34.0</ele><time>2026-04-11T08:27:41Z</time></trkpt><trkpt lat="42.331728783817375" lon="11.62796630686845"><ele>34.0</ele><time>2026-04-11T08:27:42Z</time></trkpt><trkpt lat="42.33186225795907" lon="11.627807691716187"><ele>34.0</ele><time>2026-04-11T08:27:43Z</time></trkpt><trkpt lat="42.331996040385874" lon="11.627648567671633"><ele>34.0</ele><time>2026-04-11T08:27:44Z</time></trkpt><trkpt lat="42.332129643849676" lon="11.627485186891086"><ele>34.0</ele><time>2026-04-11T08:27:45Z</time></trkpt><trkpt lat="42.332265322024256" lon="11.627323043440256"><ele>34.0</ele><time>2026-04-11T08:27:46Z</time></trkpt><trkpt lat="42.332402493029704" lon="11.627158694983148"><ele>34.0</ele><time>2026-04-11T08:27:47Z</time></trkpt><trkpt lat="42.33254010775682" lon="11.62699336392514"><ele>34.0</ele><time>2026-04-11T08:27:48Z</time></trkpt><trkpt lat="42.332680934837725" lon="11.626830278098499"><ele>34.0</ele><time>2026-04-11T08:27:49Z</time></trkpt><trkpt lat="42.332820949648095" lon="11.626665439004015"><ele>34.0</ele><time>2026-04-11T08:27:50Z</time></trkpt><trkpt lat="42.33295864161084" lon="11.62650014941103"><ele>34.0</ele><time>2026-04-11T08:27:51Z</time></trkpt><trkpt lat="42.33309746381464" lon="11.62633465448874"><ele>34.0</ele><time>2026-04-11T08:27:52Z</time></trkpt><trkpt lat="42.33323663123236" lon="11.62616494374624"><ele>33.66666666666667</ele><time>2026-04-11T08:27:53Z</time></trkpt><trkpt lat="42.33337876973523" lon="11.62599868052656"><ele>33.333333333333336</ele><time>2026-04-11T08:27:54Z</time></trkpt><trkpt lat="42.33352309717346" lon="11.625829537290112"><ele>33.0</ele><time>2026-04-11T08:27:55Z</time></trkpt><trkpt lat="42.33366070267822" lon="11.625656062141866"><ele>33.0</ele><time>2026-04-11T08:27:56Z</time></trkpt><trkpt lat="42.333789137266486" lon="11.625477056264746"><ele>33.0</ele><time>2026-04-11T08:27:57Z</time></trkpt><trkpt lat="42.33392800051821" lon="11.62530265824374"><ele>33.0</ele><time>2026-04-11T08:27:58Z</time></trkpt><trkpt lat="42.33406772759997" lon="11.625132086482374"><ele>32.333333333333336</ele><time>2026-04-11T08:27:59Z</time></trkpt><trkpt lat="42.334206729117405" lon="11.624960503053229"><ele>31.666666666666668</ele><time>2026-04-11T08:28:00Z</time></trkpt><trkpt lat="42.334343776702035" lon="11.624788844001207"><ele>31.0</ele><time>2026-04-11T08:28:01Z</time></trkpt><trkpt lat="42.33448047011931" lon="11.62462198882787"><ele>30.0</ele><time>2026-04-11T08:28:02Z</time></trkpt><trkpt lat="42.33461900248954" lon="11.624453668321902"><ele>29.0</ele><time>2026-04-11T08:28:03Z</time></trkpt><trkpt lat="42.334758534859894" lon="11.624284131715571"><ele>28.0</ele><time>2026-04-11T08:28:04Z</time></trkpt><trkpt lat="42.334901271511065" lon="11.62411375169088"><ele>28.0</ele><time>2026-04-11T08:28:05Z</time></trkpt><trkpt lat="42.33503938816192" lon="11.623941326665461"><ele>28.0</ele><time>2026-04-11T08:28:06Z</time></trkpt><trkpt lat="42.33517939909504" lon="11.623772421860282"><ele>28.0</ele><time>2026-04-11T08:28:07Z</time></trkpt><trkpt lat="42.33531925731705" lon="11.623601875096908"><ele>26.666666666666668</ele><time>2026-04-11T08:28:08Z</time></trkpt><trkpt lat="42.33546397268849" lon="11.623434356917233"><ele>25.333333333333336</ele><time>2026-04-11T08:28:09Z</time></trkpt><trkpt lat="42.33560769250779" lon="11.623262880691861"><ele>24.0</ele><time>2026-04-11T08:28:10Z</time></trkpt><trkpt lat="42.335749874140475" lon="11.62309100671299"><ele>24.0</ele><time>2026-04-11T08:28:11Z</time></trkpt><trkpt lat="42.335886056822" lon="11.62291961996952"><ele>24.0</ele><time>2026-04-11T08:28:12Z</time></trkpt><trkpt lat="42.33602257907989" lon="11.622751913420911"><ele>24.0</ele><time>2026-04-11T08:28:13Z</time></trkpt><trkpt lat="42.336163296109106" lon="11.622585974512056"><ele>23.666666666666668</ele><time>2026-04-11T08:28:14Z</time></trkpt><trkpt lat="42.33630052887408" lon="11.622416467399736"><ele>23.333333333333336</ele><time>2026-04-11T08:28:15Z</time></trkpt><trkpt lat="42.336440099888726" lon="11.622248975885176"><ele>23.0</ele><time>2026-04-11T08:28:16Z</time></trkpt><trkpt lat="42.336581181250786" lon="11.622078663198709"><ele>25.0</ele><time>2026-04-11T08:28:17Z</time></trkpt><trkpt lat="42.3367225763551" lon="11.62190696355819"><ele>27.0</ele><time>2026-04-11T08:28:18Z</time></trkpt><trkpt lat="42.33687354459831" lon="11.621726826708127"><ele>29.0</ele><time>2026-04-11T08:28:19Z</time></trkpt><trkpt lat="42.33701999521238" lon="11.621551015339383"><ele>29.0</ele><time>2026-04-11T08:28:20Z</time></trkpt><trkpt lat="42.33716315034669" lon="11.62137823420445"><ele>29.0</ele><time>2026-04-11T08:28:21Z</time></trkpt><trkpt lat="42.33730866547935" lon="11.621206526689287"><ele>29.0</ele><time>2026-04-11T08:28:22Z</time></trkpt><trkpt lat="42.33745738598926" lon="11.621036386722631"><ele>30.666666666666664</ele><time>2026-04-11T08:28:23Z</time></trkpt><trkpt lat="42.33760488548171" lon="11.620868950373211"><ele>32.333333333333336</ele><time>2026-04-11T08:28:24Z</time></trkpt><trkpt lat="42.33775072414518" lon="11.620700775695811"><ele>34.0</ele><time>2026-04-11T08:28:25Z</time></trkpt><trkpt lat="42.33789464553139" lon="11.620528541797844"><ele>34.0</ele><time>2026-04-11T08:28:26Z</time></trkpt><trkpt lat="42.33803450554025" lon="11.620358852801985"><ele>34.0</ele><time>2026-04-11T08:28:27Z</time></trkpt><trkpt lat="42.33816967571129" lon="11.62018943479873"><ele>34.0</ele><time>2026-04-11T08:28:28Z</time></trkpt><trkpt lat="42.33831996467952" lon="11.62002771880495"><ele>35.333333333333336</ele><time>2026-04-11T08:28:29Z</time></trkpt><trkpt lat="42.338460526457425" lon="11.619869094953337"><ele>36.666666666666664</ele><time>2026-04-11T08:28:30Z</time></trkpt><trkpt lat="42.33860300633522" lon="11.619719739998391"><ele>38.0</ele><time>2026-04-11T08:28:31Z</time></trkpt><trkpt lat="42.33873921763273" lon="11.619578087075016"><ele>38.0</ele><time>2026-04-11T08:28:32Z</time></trkpt><trkpt lat="42.338869481438664" lon="11.619439781561294"><ele>38.0</ele><time>2026-04-11T08:28:33Z</time></trkpt><trkpt lat="42.33900406825814" lon="11.619312582802054"><ele>38.0</ele><time>2026-04-11T08:28:34Z</time></trkpt><trkpt lat="42.33913961824985" lon="11.619187800375853"><ele>38.0</ele><time>2026-04-11T08:28:35Z</time></trkpt><trkpt lat="42.339272011813186" lon="11.619068964461135"><ele>38.0</ele><time>2026-04-11T08:28:36Z</time></trkpt><trkpt lat="42.33940212073465" lon="11.618952667052193"><ele>38.0</ele><time>2026-04-11T08:28:37Z</time></trkpt><trkpt lat="42.339535446144566" lon="11.618841091842558"><ele>38.0</ele><time>2026-04-11T08:28:38Z</time></trkpt><trkpt lat="42.339666654127505" lon="11.618721930427668"><ele>38.0</ele><time>2026-04-11T08:28:39Z</time></trkpt><trkpt lat="42.33980273588261" lon="11.618611449782723"><ele>38.0</ele><time>2026-04-11T08:28:40Z</time></trkpt><trkpt lat="42.33993717873713" lon="11.618497395881251"><ele>38.33333333333333</ele><time>2026-04-11T08:28:41Z</time></trkpt><trkpt lat="42.34007272578107" lon="11.618379880827797"><ele>38.666666666666664</ele><time>2026-04-11T08:28:42Z</time></trkpt><trkpt lat="42.3402117485463" lon="11.618275425549196"><ele>39.0</ele><time>2026-04-11T08:28:43Z</time></trkpt><trkpt lat="42.34034765638709" lon="11.618169302696597"><ele>39.0</ele><time>2026-04-11T08:28:44Z</time></trkpt><trkpt lat="42.34049000908499" lon="11.618063704698645"><ele>39.0</ele><time>2026-04-11T08:28:44.999Z</time></trkpt><trkpt lat="42.340634664004966" lon="11.617961277482404"><ele>39.0</ele><time>2026-04-11T08:28:45.999Z</time></trkpt><trkpt lat="42.34078030416897" lon="11.617851315690945"><ele>39.0</ele><time>2026-04-11T08:28:46.999Z</time></trkpt><trkpt lat="42.340924309352616" lon="11.617750000397605"><ele>39.0</ele><time>2026-04-11T08:28:47.999Z</time></trkpt><trkpt lat="42.34107929616698" lon="11.617637107414115"><ele>39.0</ele><time>2026-04-11T08:28:49Z</time></trkpt><trkpt lat="42.341232565746814" lon="11.617526932694219"><ele>39.333333333333336</ele><time>2026-04-11T08:28:50Z</time></trkpt><trkpt lat="42.341386519564246" lon="11.617413813953643"><ele>39.66666666666667</ele><time>2026-04-11T08:28:51Z</time></trkpt><trkpt lat="42.34153366205338" lon="11.617310035882012"><ele>40.0</ele><time>2026-04-11T08:28:52Z</time></trkpt><trkpt lat="42.34167784853015" lon="11.61720995306729"><ele>40.0</ele><time>2026-04-11T08:28:53Z</time></trkpt><trkpt lat="42.34182071217033" lon="11.617101066164956"><ele>40.0</ele><time>2026-04-11T08:28:54Z</time></trkpt><trkpt lat="42.34196288526435" lon="11.616999012631776"><ele>40.0</ele><time>2026-04-11T08:28:55Z</time></trkpt><trkpt lat="42.342105499849374" lon="11.616885310037475"><ele>40.0</ele><time>2026-04-11T08:28:56Z</time></trkpt><trkpt lat="42.34224817243323" lon="11.616780779136368"><ele>40.0</ele><time>2026-04-11T08:28:57Z</time></trkpt><trkpt lat="42.34238445593044" lon="11.61667829008561"><ele>40.0</ele><time>2026-04-11T08:28:58Z</time></trkpt><trkpt lat="42.34253431011725" lon="11.616568152880552"><ele>40.0</ele><time>2026-04-11T08:28:59Z</time></trkpt><trkpt lat="42.342673782949674" lon="11.616471816063457"><ele>40.0</ele><time>2026-04-11T08:29:00Z</time></trkpt><trkpt lat="42.34281535033147" lon="11.616378823838934"><ele>40.0</ele><time>2026-04-11T08:29:01Z</time></trkpt><trkpt lat="42.342960104200706" lon="11.61627849758928"><ele>40.0</ele><time>2026-04-11T08:29:02Z</time></trkpt><trkpt lat="42.34309095828661" lon="11.616191926516477"><ele>40.0</ele><time>2026-04-11T08:29:03Z</time></trkpt><trkpt lat="42.34322390899428" lon="11.616098164538647"><ele>40.0</ele><time>2026-04-11T08:29:04Z</time></trkpt><trkpt lat="42.34334949010059" lon="11.616008308122248"><ele>40.0</ele><time>2026-04-11T08:29:05Z</time></trkpt><trkpt lat="42.34347668680919" lon="11.615930636348406"><ele>39.75</ele><time>2026-04-11T08:29:06Z</time></trkpt><trkpt lat="42.343602518864884" lon="11.615848173321808"><ele>39.5</ele><time>2026-04-11T08:29:07Z</time></trkpt><trkpt lat="42.343735360404814" lon="11.61575328079135"><ele>39.25</ele><time>2026-04-11T08:29:08Z</time></trkpt><trkpt lat="42.34385589514978" lon="11.615662565119518"><ele>39.0</ele><time>2026-04-11T08:29:09Z</time></trkpt><trkpt lat="42.34398126629825" lon="11.615571052721034"><ele>39.0</ele><time>2026-04-11T08:29:10Z</time></trkpt><trkpt lat="42.34410877529734" lon="11.615468672271003"><ele>39.0</ele><time>2026-04-11T08:29:11Z</time></trkpt><trkpt lat="42.34422452675084" lon="11.615371134370145"><ele>39.0</ele><time>2026-04-11T08:29:12Z</time></trkpt><trkpt lat="42.34434507413583" lon="11.615270889670446"><ele>39.0</ele><time>2026-04-11T08:29:13Z</time></trkpt><trkpt lat="42.34444781328098" lon="11.615180955152926"><ele>39.0</ele><time>2026-04-11T08:29:14Z</time></trkpt><trkpt lat="42.34452748460432" lon="11.615114048823955"><ele>39.0</ele><time>2026-04-11T08:29:15Z</time></trkpt><trkpt lat="42.34462047901151" lon="11.615061273435582"><ele>39.0</ele><time>2026-04-11T08:29:16Z</time></trkpt><trkpt lat="42.34471404771842" lon="11.61500536577154"><ele>39.0</ele><time>2026-04-11T08:29:17Z</time></trkpt><trkpt lat="42.344803276515584" lon="11.614941920799883"><ele>39.0</ele><time>2026-04-11T08:29:18Z</time></trkpt><trkpt lat="42.344908366695876" lon="11.614847894434382"><ele>39.0</ele><time>2026-04-11T08:29:19Z</time></trkpt><trkpt lat="42.34505516538771" lon="11.614758116580635"><ele>39.0</ele><time>2026-04-11T08:29:20Z</time></trkpt><trkpt lat="42.3452113538906" lon="11.614645666455376"><ele>39.0</ele><time>2026-04-11T08:29:21Z</time></trkpt><trkpt lat="42.34536888278292" lon="11.61453474923287"><ele>38.333333333333336</ele><time>2026-04-11T08:29:22Z</time></trkpt><trkpt lat="42.3455080266244" lon="11.614434855058422"><ele>37.66666666666667</ele><time>2026-04-11T08:29:23Z</time></trkpt><trkpt lat="42.34565674712355" lon="11.614328065232668"><ele>37.0</ele><time>2026-04-11T08:29:24Z</time></trkpt><trkpt lat="42.34580978758723" lon="11.614205957266137"><ele>37.0</ele><time>2026-04-11T08:29:25Z</time></trkpt><trkpt lat="42.34599149394338" lon="11.614092524135708"><ele>37.0</ele><time>2026-04-11T08:29:26Z</time></trkpt><trkpt lat="42.34617139567559" lon="11.613965814313113"><ele>37.0</ele><time>2026-04-11T08:29:27Z</time></trkpt><trkpt lat="42.34633426697896" lon="11.613850837814098"><ele>37.0</ele><time>2026-04-11T08:29:28Z</time></trkpt><trkpt lat="42.346480284929534" lon="11.613741850884765"><ele>37.0</ele><time>2026-04-11T08:29:29Z</time></trkpt><trkpt lat="42.346625526627065" lon="11.613626212839907"><ele>37.0</ele><time>2026-04-11T08:29:30Z</time></trkpt><trkpt lat="42.346760636241235" lon="11.613535753907385"><ele>37.0</ele><time>2026-04-11T08:29:31Z</time></trkpt><trkpt lat="42.34690223573214" lon="11.613443628384353"><ele>37.0</ele><time>2026-04-11T08:29:32Z</time></trkpt><trkpt lat="42.34702523362684" lon="11.613347161637416"><ele>37.0</ele><time>2026-04-11T08:29:33Z</time></trkpt><trkpt lat="42.347142765796654" lon="11.613261639254315"><ele>37.0</ele><time>2026-04-11T08:29:34Z</time></trkpt><trkpt lat="42.34725560158324" lon="11.613175919876248"><ele>37.2</ele><time>2026-04-11T08:29:35Z</time></trkpt><trkpt lat="42.34736484068925" lon="11.61309652772833"><ele>37.400000000000006</ele><time>2026-04-11T08:29:36Z</time></trkpt><trkpt lat="42.347472092492424" lon="11.613023995316883"><ele>37.599999999999994</ele><time>2026-04-11T08:29:37Z</time></trkpt><trkpt lat="42.347552241048696" lon="11.612938021755447"><ele>37.8</ele><time>2026-04-11T08:29:38Z</time></trkpt><trkpt lat="42.34762895063145" lon="11.612845385334122"><ele>38.0</ele><time>2026-04-11T08:29:39Z</time></trkpt><trkpt lat="42.347701620386815" lon="11.612757583740523"><ele>38.0</ele><time>2026-04-11T08:29:40Z</time></trkpt><trkpt lat="42.34776799033257" lon="11.6126796467056"><ele>38.0</ele><time>2026-04-11T08:29:41Z</time></trkpt><trkpt lat="42.347831008723126" lon="11.612614508841624"><ele>38.0</ele><time>2026-04-11T08:29:42Z</time></trkpt><trkpt lat="42.347890316233844" lon="11.612558048423978"><ele>38.0</ele><time>2026-04-11T08:29:43Z</time></trkpt><trkpt lat="42.34794437765056" lon="11.612498302830634"><ele>38.0</ele><time>2026-04-11T08:29:44Z</time></trkpt><trkpt lat="42.348018689495646" lon="11.612498240964472"><ele>38.0</ele><time>2026-04-11T08:29:45Z</time></trkpt><trkpt lat="42.348135578854276" lon="11.612507370544096"><ele>37.6</ele><time>2026-04-11T08:29:47Z</time></trkpt><trkpt lat="42.34825252417074" lon="11.612551633273592"><ele>37.199999999999996</ele><time>2026-04-11T08:29:49Z</time></trkpt><trkpt lat="42.34831249851334" lon="11.612581485112386"><ele>36.8</ele><time>2026-04-11T08:29:50Z</time></trkpt><trkpt lat="42.34841460681817" lon="11.612589887581088"><ele>36.4</ele><time>2026-04-11T08:29:52Z</time></trkpt><trkpt lat="42.348505784922324" lon="11.612548655151047"><ele>36.0</ele><time>2026-04-11T08:29:54Z</time></trkpt><trkpt lat="42.34857000108804" lon="11.612473730224275"><ele>36.0</ele><time>2026-04-11T08:29:56Z</time></trkpt><trkpt lat="42.348631547941665" lon="11.612359415414447"><ele>36.0</ele><time>2026-04-11T08:29:58Z</time></trkpt><trkpt lat="42.34863457305048" lon="11.612240915547677"><ele>36.0</ele><time>2026-04-11T08:30:00Z</time></trkpt><trkpt lat="42.348583495849354" lon="11.612140403326324"><ele>36.0</ele><time>2026-04-11T08:30:02Z</time></trkpt><trkpt lat="42.348552357564564" lon="11.612033285875665"><ele>36.0</ele><time>2026-04-11T08:30:04Z</time></trkpt><trkpt lat="42.34850688580939" lon="11.611944783423858"><ele>36.0</ele><time>2026-04-11T08:30:06Z</time></trkpt><trkpt lat="42.34854119504673" lon="11.611773515146622"><ele>36.4</ele><time>2026-04-11T08:30:08Z</time></trkpt><trkpt lat="42.34853306186912" lon="11.611620674167053"><ele>36.8</ele><time>2026-04-11T08:30:10Z</time></trkpt><trkpt lat="42.34861035708851" lon="11.611584648791437"><ele>37.199999999999996</ele><time>2026-04-11T08:30:11Z</time></trkpt><trkpt lat="42.34867533222727" lon="11.6114683433013"><ele>37.6</ele><time>2026-04-11T08:30:13Z</time></trkpt><trkpt lat="42.34871989532632" lon="11.61140342052526"><ele>38.0</ele><time>2026-04-11T08:30:14Z</time></trkpt><trkpt lat="42.3487816495937" lon="11.611306528176542"><ele>38.0</ele><time>2026-04-11T08:30:16Z</time></trkpt><trkpt lat="42.34885263566436" lon="11.61123277955574"><ele>38.0</ele><time>2026-04-11T08:30:19Z</time></trkpt><trkpt lat="42.348910478321095" lon="11.611154857499594"><ele>38.0</ele><time>2026-04-11T08:30:21Z</time></trkpt><trkpt lat="42.34895302228741" lon="11.61109202133374"><ele>38.0</ele><time>2026-04-11T08:30:24Z</time></trkpt><trkpt lat="42.348891713104834" lon="11.611167502846344"><ele>38.0</ele><time>2026-04-11T08:30:28Z</time></trkpt><trkpt lat="42.34871255700344" lon="11.61119117382141"><ele>38.0</ele><time>2026-04-11T08:30:29Z</time></trkpt><trkpt lat="42.34869809945552" lon="11.611292233315902"><ele>38.0</ele><time>2026-04-11T08:30:33Z</time></trkpt><trkpt lat="42.348647221562295" lon="11.611348590667435"><ele>38.0</ele><time>2026-04-11T08:30:34Z</time></trkpt><trkpt lat="42.34858587680578" lon="11.611429506367113"><ele>38.0</ele><time>2026-04-11T08:30:35Z</time></trkpt><trkpt lat="42.34852396878651" lon="11.611499720691123"><ele>38.0</ele><time>2026-04-11T08:30:36Z</time></trkpt><trkpt lat="42.348455081989094" lon="11.61160974789014"><ele>38.0</ele><time>2026-04-11T08:30:38Z</time></trkpt><trkpt lat="42.3483982244767" lon="11.611540391327202"><ele>38.0</ele><time>2026-04-11T08:30:58Z</time></trkpt><trkpt lat="42.348378988455494" lon="11.611415847969264"><ele>38.0</ele><time>2026-04-11T08:31:00Z</time></trkpt><trkpt lat="42.34835977379655" lon="11.611319323592577"><ele>38.0</ele><time>2026-04-11T08:31:02Z</time></trkpt><trkpt lat="42.348304272357375" lon="11.611224345930886"><ele>38.0</ele><time>2026-04-11T08:31:05Z</time></trkpt><trkpt lat="42.34826854098904" lon="11.611116797666767"><ele>38.0</ele><time>2026-04-11T08:31:08Z</time></trkpt><trkpt lat="42.34829769409776" lon="11.611018822397316"><ele>38.0</ele><time>2026-04-11T08:31:38Z</time></trkpt></trkseg><trkseg><trkpt lat="42.34878997420905" lon="11.61133296530866"><ele>38.0</ele><time>2026-04-11T09:49:44Z</time></trkpt><trkpt lat="42.34884273848773" lon="11.6112350519831"><ele>38.0</ele><time>2026-04-11T09:49:47Z</time></trkpt><trkpt lat="42.348897715829345" lon="11.611181613237559"><ele>38.0</ele><time>2026-04-11T09:49:49Z</time></trkpt><trkpt lat="42.34895305978393" lon="11.611124286226982"><ele>38.0</ele><time>2026-04-11T09:49:51Z</time></trkpt><trkpt lat="42.348981215767395" lon="11.611022896341268"><ele>38.0</ele><time>2026-04-11T09:49:55Z</time></trkpt><trkpt lat="42.34892254960847" lon="11.611061092463228"><ele>38.0</ele><time>2026-04-11T09:49:58Z</time></trkpt><trkpt lat="42.34886653474386" lon="11.611170665195099"><ele>38.0</ele><time>2026-04-11T09:50:03Z</time></trkpt><trkpt lat="42.348806136960995" lon="11.611285708873554"><ele>38.0</ele><time>2026-04-11T09:50:05Z</time></trkpt><trkpt lat="42.34871348219633" lon="11.611407284818485"><ele>38.0</ele><time>2026-04-11T09:50:08Z</time></trkpt><trkpt lat="42.34865637829151" lon="11.611471794118996"><ele>38.0</ele><time>2026-04-11T09:50:09Z</time></trkpt><trkpt lat="42.34858862545347" lon="11.611540180843146"><ele>38.0</ele><time>2026-04-11T09:50:10Z</time></trkpt><trkpt lat="42.34853325902253" lon="11.611614660452652"><ele>38.0</ele><time>2026-04-11T09:50:11Z</time></trkpt><trkpt lat="42.34847549468224" lon="11.611689222010751"><ele>38.0</ele><time>2026-04-11T09:50:12Z</time></trkpt><trkpt lat="42.34839684761125" lon="11.611786839590765"><ele>38.0</ele><time>2026-04-11T09:50:14Z</time></trkpt><trkpt lat="42.34835411219186" lon="11.611869402483922"><ele>38.0</ele><time>2026-04-11T09:50:15Z</time></trkpt><trkpt lat="42.34830310681376" lon="11.611940380661506"><ele>38.0</ele><time>2026-04-11T09:50:16Z</time></trkpt><trkpt lat="42.34825912882168" lon="11.612006148588021"><ele>38.0</ele><time>2026-04-11T09:50:17Z</time></trkpt><trkpt lat="42.348180800322744" lon="11.612141781925153"><ele>37.6</ele><time>2026-04-11T09:50:19Z</time></trkpt><trkpt lat="42.34813217433241" lon="11.612240795215849"><ele>37.199999999999996</ele><time>2026-04-11T09:50:21Z</time></trkpt><trkpt lat="42.34816924218324" lon="11.612344250290601"><ele>36.8</ele><time>2026-04-11T09:50:22Z</time></trkpt><trkpt lat="42.34822088106108" lon="11.612484728628791"><ele>36.4</ele><time>2026-04-11T09:50:24Z</time></trkpt><trkpt lat="42.348287733947416" lon="11.612583159510928"><ele>36.0</ele><time>2026-04-11T09:50:26Z</time></trkpt><trkpt lat="42.34845922004715" lon="11.61261049644174"><ele>36.0</ele><time>2026-04-11T09:50:29Z</time></trkpt><trkpt lat="42.3485325598248" lon="11.612547108692837"><ele>36.0</ele><time>2026-04-11T09:50:30Z</time></trkpt><trkpt lat="42.34858954975299" lon="11.612471514758436"><ele>36.0</ele><time>2026-04-11T09:50:31Z</time></trkpt><trkpt lat="42.34869505445986" lon="11.612431007227807"><ele>36.0</ele><time>2026-04-11T09:50:32Z</time></trkpt><trkpt lat="42.34878691842267" lon="11.612377118123709"><ele>36.0</ele><time>2026-04-11T09:50:33Z</time></trkpt><trkpt lat="42.348867862850696" lon="11.612343438803155"><ele>36.2</ele><time>2026-04-11T09:50:34Z</time></trkpt><trkpt lat="42.3489176112316" lon="11.612281357203765"><ele>36.400000000000006</ele><time>2026-04-11T09:50:35Z</time></trkpt><trkpt lat="42.34899950439369" lon="11.612316280425794"><ele>36.6</ele><time>2026-04-11T09:50:36Z</time></trkpt><trkpt lat="42.349065155102984" lon="11.612343055327015"><ele>36.800000000000004</ele><time>2026-04-11T09:50:37Z</time></trkpt><trkpt lat="42.34920009442701" lon="11.612426364417898"><ele>37.0</ele><time>2026-04-11T09:50:39Z</time></trkpt><trkpt lat="42.34926789856776" lon="11.61248783434517"><ele>37.0</ele><time>2026-04-11T09:50:40Z</time></trkpt><trkpt lat="42.34935115563245" lon="11.612572666596561"><ele>37.0</ele><time>2026-04-11T09:50:41Z</time></trkpt><trkpt lat="42.349420311568494" lon="11.612669606486229"><ele>37.0</ele><time>2026-04-11T09:50:42Z</time></trkpt><trkpt lat="42.349479361154515" lon="11.61276443200698"><ele>37.0</ele><time>2026-04-11T09:50:43Z</time></trkpt><trkpt lat="42.34952475715992" lon="11.61284382714011"><ele>37.0</ele><time>2026-04-11T09:50:44Z</time></trkpt><trkpt lat="42.34956396843206" lon="11.612925661778347"><ele>37.0</ele><time>2026-04-11T09:50:45Z</time></trkpt><trkpt lat="42.34960166288251" lon="11.613016187759651"><ele>37.0</ele><time>2026-04-11T09:50:46Z</time></trkpt><trkpt lat="42.34963597488674" lon="11.61309273932839"><ele>37.0</ele><time>2026-04-11T09:50:47Z</time></trkpt><trkpt lat="42.349696703470144" lon="11.613210139021087"><ele>37.0</ele><time>2026-04-11T09:50:48Z</time></trkpt><trkpt lat="42.34972790854622" lon="11.613406944784929"><ele>37.0</ele><time>2026-04-11T09:50:49Z</time></trkpt><trkpt lat="42.34977741343027" lon="11.613623390772098"><ele>37.25</ele><time>2026-04-11T09:50:50Z</time></trkpt><trkpt lat="42.34980832416821" lon="11.613831206381729"><ele>37.5</ele><time>2026-04-11T09:50:51Z</time></trkpt><trkpt lat="42.34984037615703" lon="11.61402369843053"><ele>37.75</ele><time>2026-04-11T09:50:52Z</time></trkpt><trkpt lat="42.349861697330645" lon="11.61419073974869"><ele>38.0</ele><time>2026-04-11T09:50:53Z</time></trkpt><trkpt lat="42.3498758187667" lon="11.61433913931617"><ele>38.0</ele><time>2026-04-11T09:50:54Z</time></trkpt><trkpt lat="42.34988474566169" lon="11.614483535547746"><ele>38.0</ele><time>2026-04-11T09:50:55Z</time></trkpt><trkpt lat="42.349895458409215" lon="11.614645226412657"><ele>38.0</ele><time>2026-04-11T09:50:56Z</time></trkpt><trkpt lat="42.34990299043148" lon="11.614809187544685"><ele>38.0</ele><time>2026-04-11T09:50:57Z</time></trkpt><trkpt lat="42.34990921902419" lon="11.614960279087372"><ele>38.0</ele><time>2026-04-11T09:50:58Z</time></trkpt><trkpt lat="42.34991871080362" lon="11.615109184563375"><ele>38.0</ele><time>2026-04-11T09:50:59Z</time></trkpt><trkpt lat="42.34992728921388" lon="11.615253501481323"><ele>38.0</ele><time>2026-04-11T09:51:00Z</time></trkpt><trkpt lat="42.3499337848082" lon="11.61539605464468"><ele>38.0</ele><time>2026-04-11T09:51:01Z</time></trkpt><trkpt lat="42.34994162652393" lon="11.61554173121758"><ele>38.0</ele><time>2026-04-11T09:51:02Z</time></trkpt><trkpt lat="42.34994954649088" lon="11.615691831626625"><ele>38.25</ele><time>2026-04-11T09:51:03Z</time></trkpt><trkpt lat="42.34995385995043" lon="11.6158554464084"><ele>38.5</ele><time>2026-04-11T09:51:04Z</time></trkpt><trkpt lat="42.349965858821996" lon="11.61605543356421"><ele>38.75</ele><time>2026-04-11T09:51:05Z</time></trkpt><trkpt lat="42.349980261247225" lon="11.616288483553971"><ele>39.0</ele><time>2026-04-11T09:51:06Z</time></trkpt><trkpt lat="42.34999559991553" lon="11.616560207226055"><ele>39.333333333333336</ele><time>2026-04-11T09:51:07Z</time></trkpt><trkpt lat="42.35001280705862" lon="11.616810124941589"><ele>39.66666666666667</ele><time>2026-04-11T09:51:08Z</time></trkpt><trkpt lat="42.35002419461016" lon="11.617048757051322"><ele>40.0</ele><time>2026-04-11T09:51:09Z</time></trkpt><trkpt lat="42.35003628410746" lon="11.617267108041736"><ele>40.0</ele><time>2026-04-11T09:51:10Z</time></trkpt><trkpt lat="42.35004557100098" lon="11.617487051462218"><ele>40.0</ele><time>2026-04-11T09:51:11Z</time></trkpt><trkpt lat="42.35006144646251" lon="11.617703456689096"><ele>40.0</ele><time>2026-04-11T09:51:12Z</time></trkpt><trkpt lat="42.350072934148386" lon="11.6179204213951"><ele>40.0</ele><time>2026-04-11T09:51:13Z</time></trkpt><trkpt lat="42.35007970458158" lon="11.618122797116762"><ele>40.0</ele><time>2026-04-11T09:51:14Z</time></trkpt><trkpt lat="42.350097648660906" lon="11.618325948780326"><ele>40.0</ele><time>2026-04-11T09:51:15Z</time></trkpt><trkpt lat="42.350108120606656" lon="11.618542290275313"><ele>40.66666666666667</ele><time>2026-04-11T09:51:16Z</time></trkpt><trkpt lat="42.350093432685064" lon="11.61875948366583"><ele>41.333333333333336</ele><time>2026-04-11T09:51:17Z</time></trkpt><trkpt lat="42.350101023892385" lon="11.61895739443253"><ele>42.0</ele><time>2026-04-11T09:51:18Z</time></trkpt><trkpt lat="42.350114164203845" lon="11.619160335367232"><ele>42.0</ele><time>2026-04-11T09:51:19Z</time></trkpt><trkpt lat="42.35012357975071" lon="11.619361269145434"><ele>42.0</ele><time>2026-04-11T09:51:20Z</time></trkpt><trkpt lat="42.350136618733146" lon="11.619563405258061"><ele>42.0</ele><time>2026-04-11T09:51:21Z</time></trkpt><trkpt lat="42.35014873983234" lon="11.619753995986148"><ele>42.0</ele><time>2026-04-11T09:51:22Z</time></trkpt><trkpt lat="42.35015794149468" lon="11.619954300094538"><ele>42.0</ele><time>2026-04-11T09:51:23Z</time></trkpt><trkpt lat="42.350167483005364" lon="11.62014701806611"><ele>42.0</ele><time>2026-04-11T09:51:24Z</time></trkpt><trkpt lat="42.35017497593775" lon="11.620347392330503"><ele>42.0</ele><time>2026-04-11T09:51:25Z</time></trkpt><trkpt lat="42.35018152698269" lon="11.62056508846174"><ele>42.0</ele><time>2026-04-11T09:51:26Z</time></trkpt><trkpt lat="42.350192486232956" lon="11.620816258579236"><ele>42.0</ele><time>2026-04-11T09:51:27Z</time></trkpt><trkpt lat="42.3502128357865" lon="11.621047271578735"><ele>42.0</ele><time>2026-04-11T09:51:28Z</time></trkpt><trkpt lat="42.35022389798464" lon="11.621279219356545"><ele>42.0</ele><time>2026-04-11T09:51:29Z</time></trkpt><trkpt lat="42.3502379917953" lon="11.621547255444565"><ele>42.0</ele><time>2026-04-11T09:51:30Z</time></trkpt><trkpt lat="42.35026412441575" lon="11.621809835667504"><ele>42.0</ele><time>2026-04-11T09:51:31Z</time></trkpt><trkpt lat="42.35027454867878" lon="11.622091848579398"><ele>42.333333333333336</ele><time>2026-04-11T09:51:32Z</time></trkpt><trkpt lat="42.350284030742436" lon="11.622336373191319"><ele>42.66666666666667</ele><time>2026-04-11T09:51:33Z</time></trkpt><trkpt lat="42.35029638245657" lon="11.622585981728124"><ele>43.0</ele><time>2026-04-11T09:51:34Z</time></trkpt><trkpt lat="42.35031496491764" lon="11.622830565048881"><ele>43.333333333333336</ele><time>2026-04-11T09:51:35Z</time></trkpt><trkpt lat="42.350317316647825" lon="11.623058174107571"><ele>43.666666666666664</ele><time>2026-04-11T09:51:36Z</time></trkpt><trkpt lat="42.35032965679607" lon="11.623286322711476"><ele>44.0</ele><time>2026-04-11T09:51:37Z</time></trkpt><trkpt lat="42.35034252550127" lon="11.623529842753275"><ele>43.666666666666664</ele><time>2026-04-11T09:51:38Z</time></trkpt><trkpt lat="42.35035190380267" lon="11.62377848786099"><ele>43.333333333333336</ele><time>2026-04-11T09:51:39Z</time></trkpt><trkpt lat="42.350358449025855" lon="11.624036493857504"><ele>43.0</ele><time>2026-04-11T09:51:40Z</time></trkpt><trkpt lat="42.35037152074336" lon="11.624303502534326"><ele>43.0</ele><time>2026-04-11T09:51:41Z</time></trkpt><trkpt lat="42.35038021566354" lon="11.624575398301301"><ele>43.0</ele><time>2026-04-11T09:51:42Z</time></trkpt><trkpt lat="42.350392843554225" lon="11.624850793737785"><ele>43.0</ele><time>2026-04-11T09:51:43Z</time></trkpt><trkpt lat="42.350414239459376" lon="11.625120482841234"><ele>43.0</ele><time>2026-04-11T09:51:44Z</time></trkpt><trkpt lat="42.350429590024454" lon="11.625396881861878"><ele>43.0</ele><time>2026-04-11T09:51:45Z</time></trkpt><trkpt lat="42.35043863557948" lon="11.625671133245973"><ele>43.0</ele><time>2026-04-11T09:51:46Z</time></trkpt><trkpt lat="42.35045643817141" lon="11.625942303367319"><ele>43.333333333333336</ele><time>2026-04-11T09:51:47Z</time></trkpt><trkpt lat="42.35046676622871" lon="11.626218880230446"><ele>43.666666666666664</ele><time>2026-04-11T09:51:48Z</time></trkpt><trkpt lat="42.35047680352799" lon="11.626486475157918"><ele>44.0</ele><time>2026-04-11T09:51:49Z</time></trkpt><trkpt lat="42.35049211366154" lon="11.626764083877557"><ele>43.666666666666664</ele><time>2026-04-11T09:51:50Z</time></trkpt><trkpt lat="42.350508694798854" lon="11.627034236556248"><ele>43.333333333333336</ele><time>2026-04-11T09:51:51Z</time></trkpt><trkpt lat="42.35052485555325" lon="11.627296145498539"><ele>43.0</ele><time>2026-04-11T09:51:52Z</time></trkpt><trkpt lat="42.35054337751643" lon="11.62754568932469"><ele>42.333333333333336</ele><time>2026-04-11T09:51:53Z</time></trkpt><trkpt lat="42.3505607267218" lon="11.627795398548441"><ele>41.666666666666664</ele><time>2026-04-11T09:51:54Z</time></trkpt><trkpt lat="42.35058182896913" lon="11.628051199819044"><ele>41.0</ele><time>2026-04-11T09:51:55Z</time></trkpt><trkpt lat="42.35059656114115" lon="11.628315921011938"><ele>41.0</ele><time>2026-04-11T09:51:56Z</time></trkpt><trkpt lat="42.35060945987879" lon="11.628574961078714"><ele>41.0</ele><time>2026-04-11T09:51:57Z</time></trkpt><trkpt lat="42.35062255915055" lon="11.628828935863396"><ele>41.0</ele><time>2026-04-11T09:51:58Z</time></trkpt><trkpt lat="42.35063287159812" lon="11.629072563265032"><ele>41.33333333333333</ele><time>2026-04-11T09:51:59Z</time></trkpt><trkpt lat="42.350644630956346" lon="11.62932445096738"><ele>41.666666666666664</ele><time>2026-04-11T09:52:00Z</time></trkpt><trkpt lat="42.35064699042697" lon="11.629576931940766"><ele>42.0</ele><time>2026-04-11T09:52:01Z</time></trkpt><trkpt lat="42.35066498272208" lon="11.629821672504784"><ele>42.0</ele><time>2026-04-11T09:52:02Z</time></trkpt><trkpt lat="42.35068801929985" lon="11.630072337734264"><ele>42.0</ele><time>2026-04-11T09:52:03Z</time></trkpt><trkpt lat="42.350717634982956" lon="11.63031019886914"><ele>42.0</ele><time>2026-04-11T09:52:04Z</time></trkpt><trkpt lat="42.350761226574754" lon="11.630541549140892"><ele>42.333333333333336</ele><time>2026-04-11T09:52:05Z</time></trkpt><trkpt lat="42.35082160564221" lon="11.63077624666726"><ele>42.66666666666667</ele><time>2026-04-11T09:52:06Z</time></trkpt><trkpt lat="42.35089849881979" lon="11.630961342953084"><ele>43.0</ele><time>2026-04-11T09:52:07Z</time></trkpt><trkpt lat="42.350987054439415" lon="11.631171124682997"><ele>43.333333333333336</ele><time>2026-04-11T09:52:08Z</time></trkpt><trkpt lat="42.35108927604269" lon="11.63137717443091"><ele>43.666666666666664</ele><time>2026-04-11T09:52:09Z</time></trkpt><trkpt lat="42.35121329379381" lon="11.631577899679064"><ele>44.0</ele><time>2026-04-11T09:52:10Z</time></trkpt><trkpt lat="42.351356821297564" lon="11.631777581696836"><ele>44.5</ele><time>2026-04-11T09:52:11Z</time></trkpt><trkpt lat="42.35149849228784" lon="11.632004397161614"><ele>45.0</ele><time>2026-04-11T09:52:11.999Z</time></trkpt><trkpt lat="42.35166732387444" lon="11.63221886320267"><ele>45.0</ele><time>2026-04-11T09:52:12.999Z</time></trkpt><trkpt lat="42.35182153486266" lon="11.632435927294997"><ele>45.0</ele><time>2026-04-11T09:52:13.999Z</time></trkpt><trkpt lat="42.351961457082" lon="11.632648459638826"><ele>45.0</ele><time>2026-04-11T09:52:14.999Z</time></trkpt><trkpt lat="42.352114085500354" lon="11.632849518130003"><ele>44.333333333333336</ele><time>2026-04-11T09:52:15.999Z</time></trkpt><trkpt lat="42.352267299491785" lon="11.633055582146476"><ele>43.66666666666667</ele><time>2026-04-11T09:52:16.999Z</time></trkpt><trkpt lat="42.352426676337664" lon="11.63327771529427"><ele>43.0</ele><time>2026-04-11T09:52:17.999Z</time></trkpt><trkpt lat="42.352573918390874" lon="11.633479431803924"><ele>42.66666666666667</ele><time>2026-04-11T09:52:18.999Z</time></trkpt><trkpt lat="42.352710943325015" lon="11.633681091080563"><ele>42.333333333333336</ele><time>2026-04-11T09:52:19.999Z</time></trkpt><trkpt lat="42.352855100668414" lon="11.633883279185627"><ele>42.0</ele><time>2026-04-11T09:52:20.999Z</time></trkpt><trkpt lat="42.35298815941872" lon="11.634062217264006"><ele>42.0</ele><time>2026-04-11T09:52:21.999Z</time></trkpt><trkpt lat="42.353120456101145" lon="11.63424775385149"><ele>42.0</ele><time>2026-04-11T09:52:22.999Z</time></trkpt><trkpt lat="42.35326420864217" lon="11.634447948783395"><ele>42.0</ele><time>2026-04-11T09:52:23.999Z</time></trkpt><trkpt lat="42.353399271192515" lon="11.634629780126748"><ele>42.333333333333336</ele><time>2026-04-11T09:52:24.999Z</time></trkpt><trkpt lat="42.35353493478722" lon="11.63481998222811"><ele>42.66666666666667</ele><time>2026-04-11T09:52:26Z</time></trkpt><trkpt lat="42.35366682997208" lon="11.634987953662332"><ele>43.0</ele><time>2026-04-11T09:52:27Z</time></trkpt><trkpt lat="42.353799088963996" lon="11.635151628147067"><ele>43.66666666666667</ele><time>2026-04-11T09:52:28Z</time></trkpt><trkpt lat="42.3539242133905" lon="11.635320621667521"><ele>44.333333333333336</ele><time>2026-04-11T09:52:29Z</time></trkpt><trkpt lat="42.35404288587843" lon="11.635485755206478"><ele>45.0</ele><time>2026-04-11T09:52:30Z</time></trkpt><trkpt lat="42.354160992868835" lon="11.63565845386769"><ele>45.0</ele><time>2026-04-11T09:52:31Z</time></trkpt><trkpt lat="42.35428077435585" lon="11.635810234255668"><ele>45.0</ele><time>2026-04-11T09:52:32Z</time></trkpt><trkpt lat="42.354398424214565" lon="11.635977971913311"><ele>45.0</ele><time>2026-04-11T09:52:33Z</time></trkpt><trkpt lat="42.354523906296905" lon="11.636168782817016"><ele>45.0</ele><time>2026-04-11T09:52:34Z</time></trkpt><trkpt lat="42.35466247882233" lon="11.636361743246837"><ele>45.0</ele><time>2026-04-11T09:52:35Z</time></trkpt><trkpt lat="42.354818339739055" lon="11.636567999388234"><ele>45.0</ele><time>2026-04-11T09:52:36Z</time></trkpt><trkpt lat="42.354974998075235" lon="11.636782659363124"><ele>44.5</ele><time>2026-04-11T09:52:37Z</time></trkpt><trkpt lat="42.35514243460914" lon="11.637005630242138"><ele>44.0</ele><time>2026-04-11T09:52:38Z</time></trkpt><trkpt lat="42.35532619499637" lon="11.637252633921893"><ele>44.0</ele><time>2026-04-11T09:52:39Z</time></trkpt><trkpt lat="42.35550713250921" lon="11.63750066649128"><ele>44.0</ele><time>2026-04-11T09:52:40Z</time></trkpt><trkpt lat="42.35567015751682" lon="11.63773460824007"><ele>44.0</ele><time>2026-04-11T09:52:41Z</time></trkpt><trkpt lat="42.35582048979184" lon="11.63793489601859"><ele>44.0</ele><time>2026-04-11T09:52:42Z</time></trkpt><trkpt lat="42.35596126624612" lon="11.638142925762903"><ele>44.0</ele><time>2026-04-11T09:52:43Z</time></trkpt><trkpt lat="42.35610746526704" lon="11.63835560438605"><ele>44.0</ele><time>2026-04-11T09:52:44Z</time></trkpt><trkpt lat="42.3562505410046" lon="11.638555681945945"><ele>44.0</ele><time>2026-04-11T09:52:45Z</time></trkpt><trkpt lat="42.35639374572066" lon="11.638755851075977"><ele>44.0</ele><time>2026-04-11T09:52:46Z</time></trkpt><trkpt lat="42.35653778958678" lon="11.638966978825824"><ele>44.33333333333333</ele><time>2026-04-11T09:52:47Z</time></trkpt><trkpt lat="42.35666717452699" lon="11.639170969486965"><ele>44.666666666666664</ele><time>2026-04-11T09:52:48Z</time></trkpt><trkpt lat="42.35682107101201" lon="11.639338290176253"><ele>45.0</ele><time>2026-04-11T09:52:49Z</time></trkpt><trkpt lat="42.35696348955409" lon="11.639531529859216"><ele>45.333333333333336</ele><time>2026-04-11T09:52:50Z</time></trkpt><trkpt lat="42.35709857299909" lon="11.639714436193575"><ele>45.66666666666667</ele><time>2026-04-11T09:52:51Z</time></trkpt><trkpt lat="42.357233260844716" lon="11.639911167259406"><ele>46.0</ele><time>2026-04-11T09:52:52Z</time></trkpt><trkpt lat="42.357370492500685" lon="11.64010483839566"><ele>45.66666666666667</ele><time>2026-04-11T09:52:53Z</time></trkpt><trkpt lat="42.3575156552026" lon="11.64030404852605"><ele>45.333333333333336</ele><time>2026-04-11T09:52:54Z</time></trkpt><trkpt lat="42.357657176101135" lon="11.640508340628493"><ele>45.0</ele><time>2026-04-11T09:52:55Z</time></trkpt><trkpt lat="42.35779091795631" lon="11.64068085705982"><ele>45.0</ele><time>2026-04-11T09:52:56Z</time></trkpt><trkpt lat="42.357935965718994" lon="11.640874991519386"><ele>45.0</ele><time>2026-04-11T09:52:57Z</time></trkpt><trkpt lat="42.35806900396024" lon="11.64106606550173"><ele>45.0</ele><time>2026-04-11T09:52:58Z</time></trkpt><trkpt lat="42.35820927073714" lon="11.641270983186944"><ele>45.333333333333336</ele><time>2026-04-11T09:52:59Z</time></trkpt><trkpt lat="42.35835119524028" lon="11.641467263820582"><ele>45.66666666666667</ele><time>2026-04-11T09:53:00Z</time></trkpt><trkpt lat="42.35848368790988" lon="11.641652347520441"><ele>46.0</ele><time>2026-04-11T09:53:01Z</time></trkpt><trkpt lat="42.35861787925462" lon="11.64183704644461"><ele>46.0</ele><time>2026-04-11T09:53:02Z</time></trkpt><trkpt lat="42.358748409821246" lon="11.64201155555633"><ele>46.0</ele><time>2026-04-11T09:53:03Z</time></trkpt><trkpt lat="42.35887549254769" lon="11.642182410894694"><ele>46.0</ele><time>2026-04-11T09:53:04Z</time></trkpt><trkpt lat="42.358996924617045" lon="11.642335658647296"><ele>46.0</ele><time>2026-04-11T09:53:05Z</time></trkpt><trkpt lat="42.35910944382401" lon="11.642489343042008"><ele>46.0</ele><time>2026-04-11T09:53:06Z</time></trkpt><trkpt lat="42.35921779748735" lon="11.642627218824241"><ele>46.0</ele><time>2026-04-11T09:53:07Z</time></trkpt><trkpt lat="42.359327784880115" lon="11.64278348130209"><ele>46.0</ele><time>2026-04-11T09:53:08Z</time></trkpt><trkpt lat="42.3594448091467" lon="11.642953363072511"><ele>46.0</ele><time>2026-04-11T09:53:09Z</time></trkpt><trkpt lat="42.3595533105233" lon="11.64311719865732"><ele>46.0</ele><time>2026-04-11T09:53:10Z</time></trkpt><trkpt lat="42.35964273710432" lon="11.643247639378306"><ele>46.199999999999996</ele><time>2026-04-11T09:53:11Z</time></trkpt><trkpt lat="42.35971608076888" lon="11.643385805740529"><ele>46.4</ele><time>2026-04-11T09:53:12Z</time></trkpt><trkpt lat="42.359787379922096" lon="11.643486175887187"><ele>46.6</ele><time>2026-04-11T09:53:13Z</time></trkpt><trkpt lat="42.35985153167475" lon="11.643582789391525"><ele>46.8</ele><time>2026-04-11T09:53:14Z</time></trkpt><trkpt lat="42.35989782654068" lon="11.643698316531705"><ele>47.0</ele><time>2026-04-11T09:53:15Z</time></trkpt><trkpt lat="42.359917241362574" lon="11.643805381170099"><ele>47.166666666666664</ele><time>2026-04-11T09:53:16Z</time></trkpt><trkpt lat="42.359966555827725" lon="11.643876258786058"><ele>47.33333333333333</ele><time>2026-04-11T09:53:17Z</time></trkpt><trkpt lat="42.360009466100415" lon="11.643947312442865"><ele>47.5</ele><time>2026-04-11T09:53:18Z</time></trkpt><trkpt lat="42.36005049960438" lon="11.644015258422652"><ele>47.666666666666664</ele><time>2026-04-11T09:53:19Z</time></trkpt><trkpt lat="42.36014219331106" lon="11.644146373964116"><ele>47.833333333333336</ele><time>2026-04-11T09:53:21Z</time></trkpt><trkpt lat="42.360229408550985" lon="11.644177924081943"><ele>48.0</ele><time>2026-04-11T09:53:22Z</time></trkpt><trkpt lat="42.36034356629467" lon="11.644225934966599"><ele>48.0</ele><time>2026-04-11T09:53:23Z</time></trkpt><trkpt lat="42.36044728228511" lon="11.64432126130001"><ele>48.0</ele><time>2026-04-11T09:53:24Z</time></trkpt><trkpt lat="42.36055563929601" lon="11.644444087643071"><ele>48.0</ele><time>2026-04-11T09:53:25Z</time></trkpt><trkpt lat="42.360661396225474" lon="11.644590600906026"><ele>48.0</ele><time>2026-04-11T09:53:26Z</time></trkpt><trkpt lat="42.36076642929279" lon="11.644761535953682"><ele>48.25</ele><time>2026-04-11T09:53:27Z</time></trkpt><trkpt lat="42.36088612310433" lon="11.644923395307705"><ele>48.5</ele><time>2026-04-11T09:53:28Z</time></trkpt><trkpt lat="42.36097872316153" lon="11.64505884032562"><ele>48.75</ele><time>2026-04-11T09:53:29Z</time></trkpt><trkpt lat="42.36106429656582" lon="11.64519644985862"><ele>49.0</ele><time>2026-04-11T09:53:30Z</time></trkpt><trkpt lat="42.36118621495321" lon="11.645326118520003"><ele>49.666666666666664</ele><time>2026-04-11T09:53:31Z</time></trkpt><trkpt lat="42.361317547830716" lon="11.645435532864385"><ele>50.33333333333333</ele><time>2026-04-11T09:53:32Z</time></trkpt><trkpt lat="42.361454047871874" lon="11.645526183788494"><ele>51.0</ele><time>2026-04-11T09:53:33Z</time></trkpt><trkpt lat="42.36160542136418" lon="11.645593360702001"><ele>49.666666666666664</ele><time>2026-04-11T09:53:34Z</time></trkpt><trkpt lat="42.36175294327768" lon="11.645645309342061"><ele>48.33333333333333</ele><time>2026-04-11T09:53:35Z</time></trkpt><trkpt lat="42.36189825730078" lon="11.645686187050332"><ele>47.0</ele><time>2026-04-11T09:53:36Z</time></trkpt><trkpt lat="42.362050152086404" lon="11.645700425025309"><ele>47.0</ele><time>2026-04-11T09:53:37Z</time></trkpt><trkpt lat="42.362203555267556" lon="11.645687443339817"><ele>47.0</ele><time>2026-04-11T09:53:38Z</time></trkpt><trkpt lat="42.36238057587682" lon="11.645642074379024"><ele>47.0</ele><time>2026-04-11T09:53:39Z</time></trkpt><trkpt lat="42.362573208750206" lon="11.645604221451848"><ele>47.0</ele><time>2026-04-11T09:53:40Z</time></trkpt><trkpt lat="42.36277405452365" lon="11.645578603585927"><ele>47.0</ele><time>2026-04-11T09:53:41Z</time></trkpt><trkpt lat="42.36295767063655" lon="11.645552200342989"><ele>47.0</ele><time>2026-04-11T09:53:42Z</time></trkpt><trkpt lat="42.363126404655546" lon="11.645533135158244"><ele>46.33333333333333</ele><time>2026-04-11T09:53:43Z</time></trkpt><trkpt lat="42.3632994651677" lon="11.645507309929519"><ele>45.666666666666664</ele><time>2026-04-11T09:53:44Z</time></trkpt><trkpt lat="42.363475297312924" lon="11.645485228359375"><ele>45.0</ele><time>2026-04-11T09:53:45Z</time></trkpt><trkpt lat="42.363640810958195" lon="11.645452349614908"><ele>45.0</ele><time>2026-04-11T09:53:46Z</time></trkpt><trkpt lat="42.363803091455885" lon="11.645428337750163"><ele>45.0</ele><time>2026-04-11T09:53:47Z</time></trkpt><trkpt lat="42.36397254927713" lon="11.645406238881598"><ele>45.0</ele><time>2026-04-11T09:53:48Z</time></trkpt><trkpt lat="42.364137204604134" lon="11.645377672780038"><ele>43.333333333333336</ele><time>2026-04-11T09:53:49Z</time></trkpt><trkpt lat="42.3643079874888" lon="11.645368490673777"><ele>41.66666666666667</ele><time>2026-04-11T09:53:50Z</time></trkpt><trkpt lat="42.364466135183356" lon="11.645361462575064"><ele>40.0</ele><time>2026-04-11T09:53:51Z</time></trkpt><trkpt lat="42.364634968069986" lon="11.645369633981417"><ele>37.66666666666667</ele><time>2026-04-11T09:53:52Z</time></trkpt><trkpt lat="42.36480447861883" lon="11.645390232422743"><ele>35.333333333333336</ele><time>2026-04-11T09:53:53Z</time></trkpt><trkpt lat="42.364979260770305" lon="11.645419042069504"><ele>33.0</ele><time>2026-04-11T09:53:54Z</time></trkpt><trkpt lat="42.36514862632958" lon="11.645462683367295"><ele>33.0</ele><time>2026-04-11T09:53:55Z</time></trkpt><trkpt lat="42.36533088108344" lon="11.645511551057703"><ele>33.0</ele><time>2026-04-11T09:53:56Z</time></trkpt><trkpt lat="42.365517783619275" lon="11.645585163180817"><ele>33.0</ele><time>2026-04-11T09:53:57Z</time></trkpt><trkpt lat="42.36569802703513" lon="11.645676026110342"><ele>32.666666666666664</ele><time>2026-04-11T09:53:58Z</time></trkpt><trkpt lat="42.36588080591847" lon="11.64577152038236"><ele>32.33333333333333</ele><time>2026-04-11T09:53:59Z</time></trkpt><trkpt lat="42.36608018149439" lon="11.6458922048551"><ele>32.0</ele><time>2026-04-11T09:54:00Z</time></trkpt><trkpt lat="42.36624636158099" lon="11.646002091718284"><ele>31.0</ele><time>2026-04-11T09:54:01Z</time></trkpt><trkpt lat="42.36641977583674" lon="11.646121538393873"><ele>30.0</ele><time>2026-04-11T09:54:02Z</time></trkpt><trkpt lat="42.366606014112996" lon="11.646260930510199"><ele>29.0</ele><time>2026-04-11T09:54:03Z</time></trkpt><trkpt lat="42.366808662921834" lon="11.646400053455746"><ele>28.5</ele><time>2026-04-11T09:54:04Z</time></trkpt><trkpt lat="42.36701975597822" lon="11.646532598481539"><ele>28.0</ele><time>2026-04-11T09:54:05Z</time></trkpt><trkpt lat="42.367217833394534" lon="11.64666372726203"><ele>27.333333333333336</ele><time>2026-04-11T09:54:06Z</time></trkpt><trkpt lat="42.36740962094382" lon="11.646782744508359"><ele>26.666666666666664</ele><time>2026-04-11T09:54:07Z</time></trkpt><trkpt lat="42.36759258759564" lon="11.646902840430425"><ele>26.0</ele><time>2026-04-11T09:54:08Z</time></trkpt><trkpt lat="42.36777825298759" lon="11.64702552926579"><ele>26.0</ele><time>2026-04-11T09:54:09Z</time></trkpt><trkpt lat="42.367962691516865" lon="11.64715217914257"><ele>26.0</ele><time>2026-04-11T09:54:10Z</time></trkpt><trkpt lat="42.36815257546088" lon="11.64727591842456"><ele>26.0</ele><time>2026-04-11T09:54:11Z</time></trkpt><trkpt lat="42.36832809677306" lon="11.647390969684038"><ele>23.666666666666664</ele><time>2026-04-11T09:54:12Z</time></trkpt><trkpt lat="42.36850760533496" lon="11.64751385321997"><ele>21.333333333333332</ele><time>2026-04-11T09:54:13Z</time></trkpt><trkpt lat="42.368691158013135" lon="11.647633410581246"><ele>19.0</ele><time>2026-04-11T09:54:14Z</time></trkpt><trkpt lat="42.36889254345687" lon="11.647758327829948"><ele>18.666666666666664</ele><time>2026-04-11T09:54:15Z</time></trkpt><trkpt lat="42.36909298816521" lon="11.647887992718681"><ele>18.333333333333332</ele><time>2026-04-11T09:54:16Z</time></trkpt><trkpt lat="42.36928651483116" lon="11.648007700316434"><ele>18.0</ele><time>2026-04-11T09:54:17Z</time></trkpt><trkpt lat="42.369467136957674" lon="11.648129222689263"><ele>18.0</ele><time>2026-04-11T09:54:18Z</time></trkpt><trkpt lat="42.369653772450285" lon="11.648256804033952"><ele>18.0</ele><time>2026-04-11T09:54:19Z</time></trkpt><trkpt lat="42.36984710088804" lon="11.64838032732967"><ele>18.0</ele><time>2026-04-11T09:54:20Z</time></trkpt><trkpt lat="42.37004353978968" lon="11.648507250810265"><ele>18.333333333333332</ele><time>2026-04-11T09:54:21Z</time></trkpt><trkpt lat="42.37023622872111" lon="11.648631040733832"><ele>18.666666666666664</ele><time>2026-04-11T09:54:22Z</time></trkpt><trkpt lat="42.37042376076693" lon="11.64875249384268"><ele>19.0</ele><time>2026-04-11T09:54:23Z</time></trkpt><trkpt lat="42.37060183613469" lon="11.648867200201899"><ele>21.666666666666664</ele><time>2026-04-11T09:54:24Z</time></trkpt><trkpt lat="42.37076963694646" lon="11.648972678217923"><ele>24.333333333333332</ele><time>2026-04-11T09:54:25Z</time></trkpt><trkpt lat="42.37094190487026" lon="11.649091529738522"><ele>27.0</ele><time>2026-04-11T09:54:26Z</time></trkpt><trkpt lat="42.3711116596965" lon="11.649208845952321"><ele>27.0</ele><time>2026-04-11T09:54:27Z</time></trkpt><trkpt lat="42.37128645366543" lon="11.649326082217483"><ele>27.0</ele><time>2026-04-11T09:54:28Z</time></trkpt><trkpt lat="42.37144001367751" lon="11.649443550926796"><ele>27.0</ele><time>2026-04-11T09:54:29Z</time></trkpt><trkpt lat="42.37158773922109" lon="11.64956974825079"><ele>28.666666666666664</ele><time>2026-04-11T09:54:30Z</time></trkpt><trkpt lat="42.37172872010537" lon="11.649696307288622"><ele>30.333333333333332</ele><time>2026-04-11T09:54:31Z</time></trkpt><trkpt lat="42.37185553659726" lon="11.649828592648948"><ele>32.0</ele><time>2026-04-11T09:54:32Z</time></trkpt><trkpt lat="42.37198078065833" lon="11.649968205026138"><ele>32.0</ele><time>2026-04-11T09:54:33Z</time></trkpt><trkpt lat="42.372107576350444" lon="11.65011291174974"><ele>32.0</ele><time>2026-04-11T09:54:34Z</time></trkpt><trkpt lat="42.37225094550203" lon="11.65029233821573"><ele>32.0</ele><time>2026-04-11T09:54:35Z</time></trkpt><trkpt lat="42.372394181472885" lon="11.650489496786069"><ele>33.666666666666664</ele><time>2026-04-11T09:54:36Z</time></trkpt><trkpt lat="42.37255607140104" lon="11.65069406962144"><ele>35.333333333333336</ele><time>2026-04-11T09:54:37Z</time></trkpt><trkpt lat="42.37270147993127" lon="11.650866917760851"><ele>37.0</ele><time>2026-04-11T09:54:38Z</time></trkpt><trkpt lat="42.37284047380056" lon="11.651047863111236"><ele>37.333333333333336</ele><time>2026-04-11T09:54:39Z</time></trkpt><trkpt lat="42.372977862629206" lon="11.65122370263462"><ele>37.666666666666664</ele><time>2026-04-11T09:54:40Z</time></trkpt><trkpt lat="42.37311908566892" lon="11.651397538764586"><ele>38.0</ele><time>2026-04-11T09:54:41Z</time></trkpt><trkpt lat="42.37326749443206" lon="11.651588749461597"><ele>39.33333333333333</ele><time>2026-04-11T09:54:42Z</time></trkpt><trkpt lat="42.37341823968361" lon="11.651774202661377"><ele>40.666666666666664</ele><time>2026-04-11T09:54:43Z</time></trkpt><trkpt lat="42.373557891451476" lon="11.651958835830882"><ele>42.0</ele><time>2026-04-11T09:54:44Z</time></trkpt><trkpt lat="42.373689946657144" lon="11.652134841104766"><ele>42.333333333333336</ele><time>2026-04-11T09:54:45Z</time></trkpt><trkpt lat="42.37383444814634" lon="11.652307105538052"><ele>42.66666666666667</ele><time>2026-04-11T09:54:46Z</time></trkpt><trkpt lat="42.3739722504953" lon="11.652482985817572"><ele>43.0</ele><time>2026-04-11T09:54:47Z</time></trkpt><trkpt lat="42.374099547905026" lon="11.65266561967108"><ele>43.66666666666667</ele><time>2026-04-11T09:54:48Z</time></trkpt><trkpt lat="42.37423216424118" lon="11.652841769288768"><ele>44.333333333333336</ele><time>2026-04-11T09:54:49Z</time></trkpt><trkpt lat="42.374360788324154" lon="11.653009316136519"><ele>45.0</ele><time>2026-04-11T09:54:50Z</time></trkpt><trkpt lat="42.3744969194585" lon="11.653183574968388"><ele>45.0</ele><time>2026-04-11T09:54:51Z</time></trkpt><trkpt lat="42.37463050887028" lon="11.653347600165272"><ele>45.0</ele><time>2026-04-11T09:54:52Z</time></trkpt><trkpt lat="42.37476393143671" lon="11.653519492730949"><ele>45.0</ele><time>2026-04-11T09:54:53Z</time></trkpt><trkpt lat="42.37489297587349" lon="11.65368552862678"><ele>45.666666666666664</ele><time>2026-04-11T09:54:54Z</time></trkpt><trkpt lat="42.37501914792112" lon="11.653859999376891"><ele>46.33333333333333</ele><time>2026-04-11T09:54:55Z</time></trkpt><trkpt lat="42.37515184735877" lon="11.654036694958315"><ele>47.0</ele><time>2026-04-11T09:54:56Z</time></trkpt><trkpt lat="42.37529635535794" lon="11.654231771676741"><ele>47.0</ele><time>2026-04-11T09:54:57Z</time></trkpt><trkpt lat="42.375444901644826" lon="11.65442458325863"><ele>47.0</ele><time>2026-04-11T09:54:58Z</time></trkpt><trkpt lat="42.37558735041138" lon="11.654595283352648"><ele>47.0</ele><time>2026-04-11T09:54:59Z</time></trkpt><trkpt lat="42.37571747956313" lon="11.654768274501667"><ele>48.33333333333333</ele><time>2026-04-11T09:55:00Z</time></trkpt><trkpt lat="42.37584877870751" lon="11.65492982201881"><ele>49.666666666666664</ele><time>2026-04-11T09:55:01Z</time></trkpt><trkpt lat="42.37598462570371" lon="11.655097378775851"><ele>51.0</ele><time>2026-04-11T09:55:02Z</time></trkpt><trkpt lat="42.376122257973456" lon="11.65525281583598"><ele>51.0</ele><time>2026-04-11T09:55:03Z</time></trkpt><trkpt lat="42.37628958633328" lon="11.655419001990175"><ele>51.0</ele><time>2026-04-11T09:55:04Z</time></trkpt><trkpt lat="42.376472129846" lon="11.655581481465601"><ele>51.0</ele><time>2026-04-11T09:55:05Z</time></trkpt><trkpt lat="42.37664839710386" lon="11.655718502530792"><ele>51.0</ele><time>2026-04-11T09:55:06Z</time></trkpt><trkpt lat="42.37681865242458" lon="11.655842432763276"><ele>51.0</ele><time>2026-04-11T09:55:07Z</time></trkpt><trkpt lat="42.37701444230471" lon="11.65595946065667"><ele>51.0</ele><time>2026-04-11T09:55:08Z</time></trkpt><trkpt lat="42.37720578478468" lon="11.656064893713387"><ele>51.0</ele><time>2026-04-11T09:55:09Z</time></trkpt><trkpt lat="42.37738691663091" lon="11.656159614181425"><ele>51.0</ele><time>2026-04-11T09:55:10Z</time></trkpt><trkpt lat="42.377565313183" lon="11.656234212877573"><ele>51.0</ele><time>2026-04-11T09:55:11Z</time></trkpt><trkpt lat="42.377750287820184" lon="11.65631323417021"><ele>51.0</ele><time>2026-04-11T09:55:12Z</time></trkpt><trkpt lat="42.3779326285031" lon="11.656392531534301"><ele>51.0</ele><time>2026-04-11T09:55:13Z</time></trkpt><trkpt lat="42.37811406980854" lon="11.65646588462436"><ele>51.0</ele><time>2026-04-11T09:55:14Z</time></trkpt><trkpt lat="42.378290405011555" lon="11.656550962722037"><ele>52.33333333333333</ele><time>2026-04-11T09:55:15Z</time></trkpt><trkpt lat="42.37846385394297" lon="11.656638706020807"><ele>53.666666666666664</ele><time>2026-04-11T09:55:16Z</time></trkpt><trkpt lat="42.37863195294837" lon="11.656712728339372"><ele>55.0</ele><time>2026-04-11T09:55:17Z</time></trkpt><trkpt lat="42.37879443477319" lon="11.656809182329706"><ele>56.0</ele><time>2026-04-11T09:55:18Z</time></trkpt><trkpt lat="42.378959322160945" lon="11.656886986990262"><ele>57.0</ele><time>2026-04-11T09:55:19Z</time></trkpt><trkpt lat="42.37913989759332" lon="11.656972194295872"><ele>58.0</ele><time>2026-04-11T09:55:20Z</time></trkpt><trkpt lat="42.37931871409658" lon="11.657055386474688"><ele>58.0</ele><time>2026-04-11T09:55:21Z</time></trkpt><trkpt lat="42.379504313502494" lon="11.657139309855074"><ele>58.0</ele><time>2026-04-11T09:55:22Z</time></trkpt><trkpt lat="42.379684217037585" lon="11.657222502781291"><ele>58.0</ele><time>2026-04-11T09:55:23Z</time></trkpt><trkpt lat="42.37986028149363" lon="11.657312693428949"><ele>57.666666666666664</ele><time>2026-04-11T09:55:24Z</time></trkpt><trkpt lat="42.38006388574321" lon="11.657405372651873"><ele>57.33333333333333</ele><time>2026-04-11T09:55:25Z</time></trkpt><trkpt lat="42.38027012584667" lon="11.657543455528073"><ele>57.0</ele><time>2026-04-11T09:55:26Z</time></trkpt><trkpt lat="42.38046923523846" lon="11.65769585321316"><ele>56.5</ele><time>2026-04-11T09:55:27Z</time></trkpt><trkpt lat="42.380675512726114" lon="11.65784837091489"><ele>56.0</ele><time>2026-04-11T09:55:28Z</time></trkpt><trkpt lat="42.38087533222716" lon="11.658003579982951"><ele>56.0</ele><time>2026-04-11T09:55:29Z</time></trkpt><trkpt lat="42.38106972648522" lon="11.658163044532294"><ele>56.0</ele><time>2026-04-11T09:55:30Z</time></trkpt><trkpt lat="42.38126707120397" lon="11.658331608754255"><ele>56.5</ele><time>2026-04-11T09:55:31Z</time></trkpt><trkpt lat="42.38147030189097" lon="11.658497148821315"><ele>57.0</ele><time>2026-04-11T09:55:32Z</time></trkpt><trkpt lat="42.38167943239371" lon="11.658668509875621"><ele>57.0</ele><time>2026-04-11T09:55:33Z</time></trkpt><trkpt lat="42.38190465799947" lon="11.65885102085327"><ele>57.0</ele><time>2026-04-11T09:55:34Z</time></trkpt><trkpt lat="42.38212589634659" lon="11.65904926705598"><ele>57.0</ele><time>2026-04-11T09:55:35Z</time></trkpt><trkpt lat="42.382357162236715" lon="11.65923675175488"><ele>57.0</ele><time>2026-04-11T09:55:36Z</time></trkpt><trkpt lat="42.382588278524295" lon="11.659424115186612"><ele>57.5</ele><time>2026-04-11T09:55:37Z</time></trkpt><trkpt lat="42.382827844187624" lon="11.659618578558772"><ele>58.0</ele><time>2026-04-11T09:55:38Z</time></trkpt><trkpt lat="42.383041257921214" lon="11.65979210621868"><ele>59.0</ele><time>2026-04-11T09:55:39Z</time></trkpt><trkpt lat="42.383249930082926" lon="11.659941728720186"><ele>60.0</ele><time>2026-04-11T09:55:40Z</time></trkpt><trkpt lat="42.38344680321066" lon="11.660113927088657"><ele>60.0</ele><time>2026-04-11T09:55:41Z</time></trkpt><trkpt lat="42.38364998865359" lon="11.660273598884313"><ele>60.0</ele><time>2026-04-11T09:55:42Z</time></trkpt><trkpt lat="42.38384398739442" lon="11.660431060505388"><ele>61.0</ele><time>2026-04-11T09:55:43Z</time></trkpt><trkpt lat="42.38403735454372" lon="11.660592791974686"><ele>62.0</ele><time>2026-04-11T09:55:44Z</time></trkpt><trkpt lat="42.3842373668485" lon="11.66075697668586"><ele>62.0</ele><time>2026-04-11T09:55:45Z</time></trkpt><trkpt lat="42.38442834934478" lon="11.660910018430474"><ele>62.0</ele><time>2026-04-11T09:55:46Z</time></trkpt><trkpt lat="42.38461355152068" lon="11.661065713361534"><ele>62.0</ele><time>2026-04-11T09:55:47Z</time></trkpt><trkpt lat="42.38479314251453" lon="11.661214648205286"><ele>61.66666666666667</ele><time>2026-04-11T09:55:48Z</time></trkpt><trkpt lat="42.384981507164355" lon="11.661361661208149"><ele>61.33333333333333</ele><time>2026-04-11T09:55:49Z</time></trkpt><trkpt lat="42.38516428972528" lon="11.661504360727259"><ele>61.0</ele><time>2026-04-11T09:55:50Z</time></trkpt><trkpt lat="42.385352442917416" lon="11.66165209761302"><ele>61.0</ele><time>2026-04-11T09:55:51Z</time></trkpt><trkpt lat="42.38553964132319" lon="11.661803261165078"><ele>61.0</ele><time>2026-04-11T09:55:52Z</time></trkpt><trkpt lat="42.385719315937116" lon="11.661951647611767"><ele>61.0</ele><time>2026-04-11T09:55:53Z</time></trkpt><trkpt lat="42.385894642264205" lon="11.662090462702805"><ele>61.0</ele><time>2026-04-11T09:55:54Z</time></trkpt><trkpt lat="42.386067410637736" lon="11.66223751461575"><ele>61.0</ele><time>2026-04-11T09:55:55Z</time></trkpt><trkpt lat="42.386246314910636" lon="11.662390438839239"><ele>61.0</ele><time>2026-04-11T09:55:56Z</time></trkpt><trkpt lat="42.38642492481467" lon="11.662537388368575"><ele>61.0</ele><time>2026-04-11T09:55:57Z</time></trkpt><trkpt lat="42.38661469318399" lon="11.662687320997218"><ele>61.0</ele><time>2026-04-11T09:55:58Z</time></trkpt><trkpt lat="42.38679969744035" lon="11.662833686631606"><ele>61.0</ele><time>2026-04-11T09:55:59Z</time></trkpt><trkpt lat="42.38698731793403" lon="11.6629770306934"><ele>61.0</ele><time>2026-04-11T09:56:00Z</time></trkpt><trkpt lat="42.38717126356722" lon="11.663129375188193"><ele>61.0</ele><time>2026-04-11T09:56:01Z</time></trkpt><trkpt lat="42.38735953468044" lon="11.66327910609567"><ele>61.0</ele><time>2026-04-11T09:56:02Z</time></trkpt><trkpt lat="42.387539790238215" lon="11.663423002739872"><ele>61.33333333333333</ele><time>2026-04-11T09:56:03Z</time></trkpt><trkpt lat="42.38771933814538" lon="11.66359343675382"><ele>61.66666666666667</ele><time>2026-04-11T09:56:04Z</time></trkpt><trkpt lat="42.38790939124973" lon="11.66374811642076"><ele>62.0</ele><time>2026-04-11T09:56:05Z</time></trkpt><trkpt lat="42.388100612380626" lon="11.663903746723033"><ele>62.333333333333336</ele><time>2026-04-11T09:56:06Z</time></trkpt><trkpt lat="42.388280775498686" lon="11.664050377185665"><ele>62.66666666666667</ele><time>2026-04-11T09:56:07Z</time></trkpt><trkpt lat="42.388466812883756" lon="11.664201788560385"><ele>63.0</ele><time>2026-04-11T09:56:08Z</time></trkpt><trkpt lat="42.38864846234299" lon="11.664349628701324"><ele>62.66666666666667</ele><time>2026-04-11T09:56:09Z</time></trkpt><trkpt lat="42.388841865035744" lon="11.664506584861513"><ele>62.333333333333336</ele><time>2026-04-11T09:56:10Z</time></trkpt><trkpt lat="42.38902378884246" lon="11.664653893335856"><ele>62.0</ele><time>2026-04-11T09:56:11Z</time></trkpt><trkpt lat="42.389202399366646" lon="11.664798518924014"><ele>62.0</ele><time>2026-04-11T09:56:12Z</time></trkpt><trkpt lat="42.38937758875683" lon="11.66494037434188"><ele>62.0</ele><time>2026-04-11T09:56:13Z</time></trkpt><trkpt lat="42.38953867580138" lon="11.6650708107239"><ele>62.0</ele><time>2026-04-11T09:56:14Z</time></trkpt><trkpt lat="42.3897065455085" lon="11.665207381106226"><ele>62.0</ele><time>2026-04-11T09:56:15Z</time></trkpt><trkpt lat="42.38987755310849" lon="11.665347247883197"><ele>62.0</ele><time>2026-04-11T09:56:16Z</time></trkpt><trkpt lat="42.390046996842635" lon="11.665485835580053"><ele>62.0</ele><time>2026-04-11T09:56:17Z</time></trkpt><trkpt lat="42.3902123558024" lon="11.665623678522381"><ele>62.0</ele><time>2026-04-11T09:56:18Z</time></trkpt><trkpt lat="42.39037817810431" lon="11.665745921532785"><ele>62.0</ele><time>2026-04-11T09:56:19Z</time></trkpt><trkpt lat="42.390532416446455" lon="11.66589894174548"><ele>62.0</ele><time>2026-04-11T09:56:20Z</time></trkpt><trkpt lat="42.39068796356924" lon="11.666064723440467"><ele>62.0</ele><time>2026-04-11T09:56:21Z</time></trkpt><trkpt lat="42.39083305398472" lon="11.666233697149584"><ele>62.0</ele><time>2026-04-11T09:56:22Z</time></trkpt><trkpt lat="42.390973495174926" lon="11.66641581775549"><ele>62.0</ele><time>2026-04-11T09:56:23Z</time></trkpt><trkpt lat="42.39112357452945" lon="11.666619801478932"><ele>62.0</ele><time>2026-04-11T09:56:24Z</time></trkpt><trkpt lat="42.39127567123532" lon="11.666830737686336"><ele>62.0</ele><time>2026-04-11T09:56:25Z</time></trkpt><trkpt lat="42.39141519097298" lon="11.667057707796456"><ele>62.0</ele><time>2026-04-11T09:56:26Z</time></trkpt><trkpt lat="42.391559815484825" lon="11.667289452138881"><ele>61.66666666666667</ele><time>2026-04-11T09:56:27Z</time></trkpt><trkpt lat="42.391702094937244" lon="11.66750066104116"><ele>61.33333333333333</ele><time>2026-04-11T09:56:28Z</time></trkpt><trkpt lat="42.39183709966862" lon="11.667718179839461"><ele>61.0</ele><time>2026-04-11T09:56:29Z</time></trkpt><trkpt lat="42.391976628430584" lon="11.667937572309718"><ele>60.666666666666664</ele><time>2026-04-11T09:56:30Z</time></trkpt><trkpt lat="42.39211533379699" lon="11.668155478349895"><ele>60.33333333333333</ele><time>2026-04-11T09:56:31Z</time></trkpt><trkpt lat="42.392245530490214" lon="11.668368722801413"><ele>60.0</ele><time>2026-04-11T09:56:32Z</time></trkpt><trkpt lat="42.3923897954431" lon="11.668602824333956"><ele>60.66666666666667</ele><time>2026-04-11T09:56:33Z</time></trkpt><trkpt lat="42.392539079427486" lon="11.668827417660541"><ele>61.333333333333336</ele><time>2026-04-11T09:56:34Z</time></trkpt><trkpt lat="42.39268603862593" lon="11.669045032265833"><ele>62.0</ele><time>2026-04-11T09:56:35Z</time></trkpt><trkpt lat="42.39282181364058" lon="11.669258628597305"><ele>61.66666666666667</ele><time>2026-04-11T09:56:36Z</time></trkpt><trkpt lat="42.39295236439207" lon="11.669468389382036"><ele>61.33333333333333</ele><time>2026-04-11T09:56:37Z</time></trkpt><trkpt lat="42.393075821406775" lon="11.669687643668214"><ele>61.0</ele><time>2026-04-11T09:56:38Z</time></trkpt><trkpt lat="42.39319823948999" lon="11.669913259460445"><ele>61.666666666666664</ele><time>2026-04-11T09:56:39Z</time></trkpt><trkpt lat="42.393335251992596" lon="11.670146638410143"><ele>62.33333333333333</ele><time>2026-04-11T09:56:40Z</time></trkpt><trkpt lat="42.3934746262938" lon="11.670361934712236"><ele>63.0</ele><time>2026-04-11T09:56:41Z</time></trkpt><trkpt lat="42.39359055949833" lon="11.67056761667159"><ele>63.0</ele><time>2026-04-11T09:56:42Z</time></trkpt><trkpt lat="42.393707291004944" lon="11.670774263839096"><ele>63.0</ele><time>2026-04-11T09:56:43Z</time></trkpt><trkpt lat="42.39382232396601" lon="11.670981921174924"><ele>63.0</ele><time>2026-04-11T09:56:44Z</time></trkpt><trkpt lat="42.39394176723273" lon="11.671183776260378"><ele>63.33333333333333</ele><time>2026-04-11T09:56:45Z</time></trkpt><trkpt lat="42.394078761457706" lon="11.671391685023751"><ele>63.666666666666664</ele><time>2026-04-11T09:56:46Z</time></trkpt><trkpt lat="42.394209035045044" lon="11.671616271496534"><ele>64.0</ele><time>2026-04-11T09:56:47Z</time></trkpt><trkpt lat="42.394339747826116" lon="11.671835602223188"><ele>64.66666666666666</ele><time>2026-04-11T09:56:48Z</time></trkpt><trkpt lat="42.3944424339228" lon="11.672052407389456"><ele>65.33333333333333</ele><time>2026-04-11T09:56:49Z</time></trkpt><trkpt lat="42.39457500146746" lon="11.672267574636358"><ele>66.0</ele><time>2026-04-11T09:56:50Z</time></trkpt><trkpt lat="42.394702815701145" lon="11.672474294031868"><ele>66.0</ele><time>2026-04-11T09:56:51Z</time></trkpt><trkpt lat="42.39483173252803" lon="11.672667953935004"><ele>66.0</ele><time>2026-04-11T09:56:52Z</time></trkpt><trkpt lat="42.39496260157872" lon="11.672878041883019"><ele>66.0</ele><time>2026-04-11T09:56:53Z</time></trkpt><trkpt lat="42.39510079308101" lon="11.673096957119538"><ele>66.33333333333333</ele><time>2026-04-11T09:56:54Z</time></trkpt><trkpt lat="42.39523831138304" lon="11.673315911327697"><ele>66.66666666666666</ele><time>2026-04-11T09:56:55Z</time></trkpt><trkpt lat="42.395369514268275" lon="11.67352698987573"><ele>67.0</ele><time>2026-04-11T09:56:56Z</time></trkpt><trkpt lat="42.39548920542516" lon="11.673733029834628"><ele>67.33333333333333</ele><time>2026-04-11T09:56:57Z</time></trkpt><trkpt lat="42.39558790070995" lon="11.67394337762368"><ele>67.66666666666667</ele><time>2026-04-11T09:56:58Z</time></trkpt><trkpt lat="42.395700188940104" lon="11.674156169303638"><ele>68.0</ele><time>2026-04-11T09:56:59Z</time></trkpt><trkpt lat="42.395799280902445" lon="11.674366738024592"><ele>68.0</ele><time>2026-04-11T09:57:00Z</time></trkpt><trkpt lat="42.39590072224568" lon="11.674587018903035"><ele>68.0</ele><time>2026-04-11T09:57:01Z</time></trkpt><trkpt lat="42.395990672052626" lon="11.674827407369348"><ele>68.0</ele><time>2026-04-11T09:57:02Z</time></trkpt><trkpt lat="42.39607361772276" lon="11.675093196269577"><ele>68.0</ele><time>2026-04-11T09:57:03Z</time></trkpt><trkpt lat="42.39616194985374" lon="11.675371576819037"><ele>68.0</ele><time>2026-04-11T09:57:04Z</time></trkpt><trkpt lat="42.396247078872996" lon="11.67564591162629"><ele>68.0</ele><time>2026-04-11T09:57:05Z</time></trkpt><trkpt lat="42.39632469529086" lon="11.675911657138135"><ele>67.33333333333334</ele><time>2026-04-11T09:57:06Z</time></trkpt><trkpt lat="42.39640125297472" lon="11.676179361226405"><ele>66.66666666666667</ele><time>2026-04-11T09:57:07Z</time></trkpt><trkpt lat="42.39648251367775" lon="11.676443951613019"><ele>66.0</ele><time>2026-04-11T09:57:08Z</time></trkpt><trkpt lat="42.39656286287906" lon="11.676711249259544"><ele>66.33333333333333</ele><time>2026-04-11T09:57:09Z</time></trkpt><trkpt lat="42.39664093874575" lon="11.676977527705555"><ele>66.66666666666666</ele><time>2026-04-11T09:57:10Z</time></trkpt><trkpt lat="42.396724148864315" lon="11.677252908748716"><ele>67.0</ele><time>2026-04-11T09:57:11Z</time></trkpt><trkpt lat="42.39680435384388" lon="11.677519130715293"><ele>67.0</ele><time>2026-04-11T09:57:12Z</time></trkpt><trkpt lat="42.396882553451235" lon="11.6777662800381"><ele>67.0</ele><time>2026-04-11T09:57:13Z</time></trkpt><trkpt lat="42.396961210751584" lon="11.67802431826318"><ele>67.0</ele><time>2026-04-11T09:57:14Z</time></trkpt><trkpt lat="42.39703841546737" lon="11.678282433262815"><ele>67.33333333333333</ele><time>2026-04-11T09:57:15Z</time></trkpt><trkpt lat="42.39711774252847" lon="11.678551778877683"><ele>67.66666666666667</ele><time>2026-04-11T09:57:16Z</time></trkpt><trkpt lat="42.39719356379339" lon="11.678815314861607"><ele>68.0</ele><time>2026-04-11T09:57:17Z</time></trkpt><trkpt lat="42.39728062855395" lon="11.67907663541731"><ele>68.33333333333334</ele><time>2026-04-11T09:57:18Z</time></trkpt><trkpt lat="42.39736005039574" lon="11.679343131959529"><ele>68.66666666666667</ele><time>2026-04-11T09:57:19Z</time></trkpt><trkpt lat="42.397439352753004" lon="11.679589392046555"><ele>69.0</ele><time>2026-04-11T09:57:20Z</time></trkpt><trkpt lat="42.39751130349593" lon="11.679847881844726"><ele>69.0</ele><time>2026-04-11T09:57:21Z</time></trkpt><trkpt lat="42.39758945621643" lon="11.680101635722874"><ele>69.0</ele><time>2026-04-11T09:57:22Z</time></trkpt><trkpt lat="42.39766885303915" lon="11.680359108241289"><ele>69.0</ele><time>2026-04-11T09:57:23Z</time></trkpt><trkpt lat="42.39774659840682" lon="11.680606442972904"><ele>69.0</ele><time>2026-04-11T09:57:24Z</time></trkpt><trkpt lat="42.397821923152264" lon="11.680849517994526"><ele>69.0</ele><time>2026-04-11T09:57:25Z</time></trkpt><trkpt lat="42.397896651422705" lon="11.681106207925476"><ele>69.0</ele><time>2026-04-11T09:57:26Z</time></trkpt><trkpt lat="42.39796838839695" lon="11.681367784071085"><ele>69.33333333333333</ele><time>2026-04-11T09:57:27Z</time></trkpt><trkpt lat="42.3980474596899" lon="11.68161843547045"><ele>69.66666666666666</ele><time>2026-04-11T09:57:28Z</time></trkpt><trkpt lat="42.39812426135991" lon="11.681873288775"><ele>70.0</ele><time>2026-04-11T09:57:29Z</time></trkpt><trkpt lat="42.39820120251612" lon="11.682140348982655"><ele>70.33333333333333</ele><time>2026-04-11T09:57:30Z</time></trkpt><trkpt lat="42.398288387853555" lon="11.682394013171857"><ele>70.66666666666667</ele><time>2026-04-11T09:57:31Z</time></trkpt><trkpt lat="42.39837098264352" lon="11.682638991049075"><ele>71.0</ele><time>2026-04-11T09:57:32Z</time></trkpt><trkpt lat="42.39844802048527" lon="11.682905479973552"><ele>72.0</ele><time>2026-04-11T09:57:33Z</time></trkpt><trkpt lat="42.39852972816163" lon="11.683151374561987"><ele>73.0</ele><time>2026-04-11T09:57:34Z</time></trkpt><trkpt lat="42.398606852671655" lon="11.683420171116541"><ele>74.0</ele><time>2026-04-11T09:57:35Z</time></trkpt><trkpt lat="42.39867817596069" lon="11.6836650211517"><ele>74.33333333333334</ele><time>2026-04-11T09:57:36Z</time></trkpt><trkpt lat="42.39874984617908" lon="11.683921500728465"><ele>74.66666666666667</ele><time>2026-04-11T09:57:37Z</time></trkpt><trkpt lat="42.39882588135808" lon="11.684163040275353"><ele>75.0</ele><time>2026-04-11T09:57:38Z</time></trkpt><trkpt lat="42.39890497437235" lon="11.684406116558687"><ele>75.0</ele><time>2026-04-11T09:57:39Z</time></trkpt><trkpt lat="42.3989859167104" lon="11.684656079933086"><ele>75.0</ele><time>2026-04-11T09:57:40Z</time></trkpt><trkpt lat="42.39907590987487" lon="11.684924704063286"><ele>75.0</ele><time>2026-04-11T09:57:41Z</time></trkpt><trkpt lat="42.399150336847065" lon="11.68518836151126"><ele>75.0</ele><time>2026-04-11T09:57:42Z</time></trkpt><trkpt lat="42.399233900775386" lon="11.685440335412268"><ele>75.0</ele><time>2026-04-11T09:57:43Z</time></trkpt><trkpt lat="42.39931496939819" lon="11.68569655134852"><ele>75.0</ele><time>2026-04-11T09:57:44Z</time></trkpt><trkpt lat="42.39940761736652" lon="11.685962752418163"><ele>75.0</ele><time>2026-04-11T09:57:45Z</time></trkpt><trkpt lat="42.399503865258566" lon="11.686247790133946"><ele>75.0</ele><time>2026-04-11T09:57:46Z</time></trkpt><trkpt lat="42.39959124125998" lon="11.68655489583357"><ele>75.33333333333333</ele><time>2026-04-11T09:57:47Z</time></trkpt><trkpt lat="42.39968201486779" lon="11.686852031715997"><ele>75.66666666666666</ele><time>2026-04-11T09:57:48Z</time></trkpt><trkpt lat="42.39976387745264" lon="11.687089198925932"><ele>76.0</ele><time>2026-04-11T09:57:49Z</time></trkpt><trkpt lat="42.399837256237305" lon="11.68734269613003"><ele>76.0</ele><time>2026-04-11T09:57:50Z</time></trkpt><trkpt lat="42.39990325204218" lon="11.687586355789401"><ele>76.0</ele><time>2026-04-11T09:57:51Z</time></trkpt><trkpt lat="42.39997175530849" lon="11.687834445340622"><ele>76.0</ele><time>2026-04-11T09:57:52Z</time></trkpt><trkpt lat="42.400050243310936" lon="11.688078179278499"><ele>76.0</ele><time>2026-04-11T09:57:53Z</time></trkpt><trkpt lat="42.40011143238584" lon="11.688274899700115"><ele>76.0</ele><time>2026-04-11T09:57:54Z</time></trkpt><trkpt lat="42.40017821097839" lon="11.688494990400574"><ele>76.0</ele><time>2026-04-11T09:57:55Z</time></trkpt><trkpt lat="42.40023782796391" lon="11.68872313472991"><ele>76.33333333333333</ele><time>2026-04-11T09:57:56Z</time></trkpt><trkpt lat="42.400307955936775" lon="11.688958779024691"><ele>76.66666666666667</ele><time>2026-04-11T09:57:57Z</time></trkpt><trkpt lat="42.40038250337068" lon="11.689189981918608"><ele>77.0</ele><time>2026-04-11T09:57:58Z</time></trkpt><trkpt lat="42.40045628323416" lon="11.689428271136176"><ele>76.66666666666667</ele><time>2026-04-11T09:57:59Z</time></trkpt><trkpt lat="42.40052767548012" lon="11.68968255930126"><ele>76.33333333333333</ele><time>2026-04-11T09:58:00Z</time></trkpt><trkpt lat="42.400606844738014" lon="11.689918653512112"><ele>76.0</ele><time>2026-04-11T09:58:01Z</time></trkpt><trkpt lat="42.40068172940512" lon="11.690168958480065"><ele>77.0</ele><time>2026-04-11T09:58:02Z</time></trkpt><trkpt lat="42.40075866228437" lon="11.690418897570868"><ele>78.0</ele><time>2026-04-11T09:58:03Z</time></trkpt><trkpt lat="42.40082780872514" lon="11.690657813033392"><ele>79.0</ele><time>2026-04-11T09:58:04Z</time></trkpt><trkpt lat="42.40088982983055" lon="11.69087104874237"><ele>79.0</ele><time>2026-04-11T09:58:05Z</time></trkpt><trkpt lat="42.40095107976502" lon="11.691090703341628"><ele>79.0</ele><time>2026-04-11T09:58:06Z</time></trkpt><trkpt lat="42.401030254528635" lon="11.691320150940943"><ele>79.0</ele><time>2026-04-11T09:58:07Z</time></trkpt><trkpt lat="42.401117841940625" lon="11.69153790345263"><ele>79.33333333333333</ele><time>2026-04-11T09:58:08Z</time></trkpt><trkpt lat="42.401226803705605" lon="11.69175590228976"><ele>79.66666666666667</ele><time>2026-04-11T09:58:09Z</time></trkpt><trkpt lat="42.401343322449364" lon="11.691958987168698"><ele>80.0</ele><time>2026-04-11T09:58:10Z</time></trkpt><trkpt lat="42.40145419174101" lon="11.692173449983756"><ele>80.66666666666667</ele><time>2026-04-11T09:58:11Z</time></trkpt><trkpt lat="42.401559532701974" lon="11.692402430865597"><ele>81.33333333333333</ele><time>2026-04-11T09:58:12Z</time></trkpt><trkpt lat="42.40165730605781" lon="11.692581308093787"><ele>82.0</ele><time>2026-04-11T09:58:13Z</time></trkpt><trkpt lat="42.401760901132555" lon="11.69277662798357"><ele>82.0</ele><time>2026-04-11T09:58:14Z</time></trkpt><trkpt lat="42.40185970378461" lon="11.692960174488302"><ele>82.0</ele><time>2026-04-11T09:58:15Z</time></trkpt><trkpt lat="42.40194587435846" lon="11.693127192308923"><ele>82.0</ele><time>2026-04-11T09:58:16Z</time></trkpt><trkpt lat="42.402033946196035" lon="11.69328931168517"><ele>82.0</ele><time>2026-04-11T09:58:17Z</time></trkpt><trkpt lat="42.40209793162228" lon="11.693428573271348"><ele>82.0</ele><time>2026-04-11T09:58:18Z</time></trkpt><trkpt lat="42.40217541672317" lon="11.69357785599105"><ele>82.0</ele><time>2026-04-11T09:58:19Z</time></trkpt><trkpt lat="42.40227549362769" lon="11.6936932297238"><ele>82.0</ele><time>2026-04-11T09:58:20Z</time></trkpt><trkpt lat="42.40236789624133" lon="11.6938022347079"><ele>82.25</ele><time>2026-04-11T09:58:21Z</time></trkpt><trkpt lat="42.40248127539151" lon="11.69390847940559"><ele>82.5</ele><time>2026-04-11T09:58:22Z</time></trkpt><trkpt lat="42.402617359955194" lon="11.69397962991544"><ele>82.75</ele><time>2026-04-11T09:58:23Z</time></trkpt><trkpt lat="42.40275140919226" lon="11.694031688285738"><ele>83.0</ele><time>2026-04-11T09:58:24Z</time></trkpt><trkpt lat="42.40288694301774" lon="11.694054836912247"><ele>82.33333333333334</ele><time>2026-04-11T09:58:25Z</time></trkpt><trkpt lat="42.40302647934267" lon="11.69403790064501"><ele>81.66666666666667</ele><time>2026-04-11T09:58:26Z</time></trkpt><trkpt lat="42.403200557008404" lon="11.694030756807148"><ele>81.0</ele><time>2026-04-11T09:58:27Z</time></trkpt><trkpt lat="42.40336822768122" lon="11.693999049512922"><ele>81.0</ele><time>2026-04-11T09:58:28Z</time></trkpt><trkpt lat="42.40351769821785" lon="11.693965556738119"><ele>81.0</ele><time>2026-04-11T09:58:29Z</time></trkpt><trkpt lat="42.40365790230748" lon="11.693952000017799"><ele>81.0</ele><time>2026-04-11T09:58:30Z</time></trkpt><trkpt lat="42.4038002729483" lon="11.693955739876623"><ele>81.0</ele><time>2026-04-11T09:58:31Z</time></trkpt><trkpt lat="42.40393536556041" lon="11.693995912336046"><ele>79.66666666666667</ele><time>2026-04-11T09:58:32Z</time></trkpt><trkpt lat="42.40408936460599" lon="11.69405798815664"><ele>78.33333333333334</ele><time>2026-04-11T09:58:33Z</time></trkpt><trkpt lat="42.4042473355659" lon="11.694151124912612"><ele>77.0</ele><time>2026-04-11T09:58:34Z</time></trkpt><trkpt lat="42.4044127042207" lon="11.694249759180666"><ele>77.0</ele><time>2026-04-11T09:58:35Z</time></trkpt><trkpt lat="42.40457184159382" lon="11.694361491921384"><ele>77.0</ele><time>2026-04-11T09:58:36Z</time></trkpt><trkpt lat="42.40471809715066" lon="11.694464487677804"><ele>77.0</ele><time>2026-04-11T09:58:37Z</time></trkpt><trkpt lat="42.40488400253417" lon="11.69454814561784"><ele>76.0</ele><time>2026-04-11T09:58:38Z</time></trkpt><trkpt lat="42.405020743624206" lon="11.694648035752747"><ele>75.0</ele><time>2026-04-11T09:58:39Z</time></trkpt><trkpt lat="42.40513687785521" lon="11.694710588408748"><ele>74.0</ele><time>2026-04-11T09:58:40Z</time></trkpt><trkpt lat="42.40527910652681" lon="11.694819555158285"><ele>73.0</ele><time>2026-04-11T09:58:40.999Z</time></trkpt><trkpt lat="42.40543336870975" lon="11.694886997743106"><ele>72.0</ele><time>2026-04-11T09:58:41.999Z</time></trkpt><trkpt lat="42.4055612063479" lon="11.694958740129316"><ele>71.0</ele><time>2026-04-11T09:58:42.999Z</time></trkpt><trkpt lat="42.405697786937445" lon="11.695044840017333"><ele>70.0</ele><time>2026-04-11T09:58:44Z</time></trkpt><trkpt lat="42.40585359402372" lon="11.695130363826447"><ele>70.0</ele><time>2026-04-11T09:58:45Z</time></trkpt><trkpt lat="42.40600657839955" lon="11.695196007859204"><ele>70.0</ele><time>2026-04-11T09:58:46Z</time></trkpt><trkpt lat="42.40617535123791" lon="11.695254564112648"><ele>70.0</ele><time>2026-04-11T09:58:47Z</time></trkpt><trkpt lat="42.406352316206835" lon="11.695277641446902"><ele>69.0</ele><time>2026-04-11T09:58:48Z</time></trkpt><trkpt lat="42.406573699007204" lon="11.695339183726484"><ele>68.0</ele><time>2026-04-11T09:58:49Z</time></trkpt><trkpt lat="42.40678248156291" lon="11.695382019518771"><ele>67.0</ele><time>2026-04-11T09:58:50Z</time></trkpt><trkpt lat="42.406979187305396" lon="11.695459679864864"><ele>67.0</ele><time>2026-04-11T09:58:51Z</time></trkpt><trkpt lat="42.407150198853984" lon="11.695502893646122"><ele>67.0</ele><time>2026-04-11T09:58:52Z</time></trkpt><trkpt lat="42.407317172778825" lon="11.695527657891637"><ele>67.0</ele><time>2026-04-11T09:58:53Z</time></trkpt><trkpt lat="42.40746393057449" lon="11.695598704279801"><ele>67.66666666666666</ele><time>2026-04-11T09:58:54Z</time></trkpt><trkpt lat="42.40761639169092" lon="11.695657460111763"><ele>68.33333333333333</ele><time>2026-04-11T09:58:55Z</time></trkpt><trkpt lat="42.40776015231582" lon="11.695745578574387"><ele>69.0</ele><time>2026-04-11T09:58:56Z</time></trkpt><trkpt lat="42.407912169436315" lon="11.695854428438757"><ele>68.66666666666667</ele><time>2026-04-11T09:58:57Z</time></trkpt><trkpt lat="42.408071056471464" lon="11.695997171217792"><ele>68.33333333333334</ele><time>2026-04-11T09:58:58Z</time></trkpt><trkpt lat="42.40821604995493" lon="11.696138526739421"><ele>68.0</ele><time>2026-04-11T09:58:59Z</time></trkpt><trkpt lat="42.40837523122538" lon="11.696302441310042"><ele>68.33333333333334</ele><time>2026-04-11T09:59:00Z</time></trkpt><trkpt lat="42.40853063726288" lon="11.696472810315635"><ele>68.66666666666667</ele><time>2026-04-11T09:59:01Z</time></trkpt><trkpt lat="42.40867775024516" lon="11.69661943176518"><ele>69.0</ele><time>2026-04-11T09:59:02Z</time></trkpt><trkpt lat="42.40882778539894" lon="11.696787029346684"><ele>71.33333333333333</ele><time>2026-04-11T09:59:03Z</time></trkpt><trkpt lat="42.40897452687111" lon="11.69694615568798"><ele>73.66666666666666</ele><time>2026-04-11T09:59:04Z</time></trkpt><trkpt lat="42.40911275096642" lon="11.697107465315998"><ele>76.0</ele><time>2026-04-11T09:59:05Z</time></trkpt><trkpt lat="42.40925265535437" lon="11.697253087486173"><ele>76.0</ele><time>2026-04-11T09:59:06Z</time></trkpt><trkpt lat="42.40939411819803" lon="11.69743372040751"><ele>76.0</ele><time>2026-04-11T09:59:07Z</time></trkpt><trkpt lat="42.40954389632915" lon="11.697604802412"><ele>76.0</ele><time>2026-04-11T09:59:08Z</time></trkpt><trkpt lat="42.40969609478088" lon="11.697772125649623"><ele>75.33333333333333</ele><time>2026-04-11T09:59:09Z</time></trkpt><trkpt lat="42.40984971026521" lon="11.69792902519319"><ele>74.66666666666667</ele><time>2026-04-11T09:59:10Z</time></trkpt><trkpt lat="42.41001264919569" lon="11.698071192411739"><ele>74.0</ele><time>2026-04-11T09:59:11Z</time></trkpt><trkpt lat="42.410168642534465" lon="11.698225371127656"><ele>74.0</ele><time>2026-04-11T09:59:12Z</time></trkpt><trkpt lat="42.41031586377387" lon="11.698380612245382"><ele>74.0</ele><time>2026-04-11T09:59:13Z</time></trkpt><trkpt lat="42.41046799372136" lon="11.698529145810946"><ele>74.0</ele><time>2026-04-11T09:59:14Z</time></trkpt><trkpt lat="42.410622463772526" lon="11.698678254663955"><ele>74.66666666666667</ele><time>2026-04-11T09:59:15Z</time></trkpt><trkpt lat="42.410758446688575" lon="11.698808381480378"><ele>75.33333333333333</ele><time>2026-04-11T09:59:16Z</time></trkpt><trkpt lat="42.41090155612743" lon="11.698941504225344"><ele>76.0</ele><time>2026-04-11T09:59:17Z</time></trkpt><trkpt lat="42.4110429397704" lon="11.699075726818156"><ele>76.0</ele><time>2026-04-11T09:59:18Z</time></trkpt><trkpt lat="42.41118244823332" lon="11.699210043172522"><ele>76.0</ele><time>2026-04-11T09:59:19Z</time></trkpt><trkpt lat="42.41132675771138" lon="11.699346299868996"><ele>76.0</ele><time>2026-04-11T09:59:20Z</time></trkpt><trkpt lat="42.411460806657125" lon="11.699478076217634"><ele>75.66666666666666</ele><time>2026-04-11T09:59:21Z</time></trkpt><trkpt lat="42.411595323651404" lon="11.69960464815272"><ele>75.33333333333333</ele><time>2026-04-11T09:59:22Z</time></trkpt><trkpt lat="42.411728495319934" lon="11.699725060400588"><ele>75.0</ele><time>2026-04-11T09:59:23Z</time></trkpt><trkpt lat="42.41186219740931" lon="11.699841890072475"><ele>75.0</ele><time>2026-04-11T09:59:24Z</time></trkpt><trkpt lat="42.41201440450335" lon="11.699963307464152"><ele>75.0</ele><time>2026-04-11T09:59:25Z</time></trkpt><trkpt lat="42.412191621847406" lon="11.700091848716816"><ele>75.0</ele><time>2026-04-11T09:59:26Z</time></trkpt><trkpt lat="42.41238501772473" lon="11.700206773528757"><ele>74.33333333333333</ele><time>2026-04-11T09:59:27Z</time></trkpt><trkpt lat="42.41257118301347" lon="11.70029982455206"><ele>73.66666666666666</ele><time>2026-04-11T09:59:28Z</time></trkpt><trkpt lat="42.41276431428889" lon="11.700408028468512"><ele>73.0</ele><time>2026-04-11T09:59:29Z</time></trkpt><trkpt lat="42.41295117603305" lon="11.700485622332074"><ele>73.66666666666666</ele><time>2026-04-11T09:59:30Z</time></trkpt><trkpt lat="42.41313283937349" lon="11.700568580631586"><ele>74.33333333333333</ele><time>2026-04-11T09:59:31Z</time></trkpt><trkpt lat="42.413291649226544" lon="11.700659984204911"><ele>75.0</ele><time>2026-04-11T09:59:32Z</time></trkpt><trkpt lat="42.413453426686786" lon="11.70077831089751"><ele>75.0</ele><time>2026-04-11T09:59:33Z</time></trkpt><trkpt lat="42.41362246854089" lon="11.700920520816503"><ele>75.0</ele><time>2026-04-11T09:59:34Z</time></trkpt><trkpt lat="42.41381369020939" lon="11.701091928794725"><ele>75.0</ele><time>2026-04-11T09:59:35Z</time></trkpt><trkpt lat="42.413976051736604" lon="11.70125478519621"><ele>77.0</ele><time>2026-04-11T09:59:36Z</time></trkpt><trkpt lat="42.41415521856948" lon="11.70141405994736"><ele>79.0</ele><time>2026-04-11T09:59:37Z</time></trkpt><trkpt lat="42.414338520871944" lon="11.701586477841733"><ele>81.0</ele><time>2026-04-11T09:59:38Z</time></trkpt><trkpt lat="42.41448469811949" lon="11.701728898852588"><ele>81.0</ele><time>2026-04-11T09:59:39Z</time></trkpt><trkpt lat="42.41464125741577" lon="11.701870023530457"><ele>81.0</ele><time>2026-04-11T09:59:40Z</time></trkpt><trkpt lat="42.41478940621057" lon="11.70199911701132"><ele>81.0</ele><time>2026-04-11T09:59:41Z</time></trkpt><trkpt lat="42.4149284729945" lon="11.70211893199207"><ele>82.66666666666667</ele><time>2026-04-11T09:59:42Z</time></trkpt><trkpt lat="42.41506155509568" lon="11.70223975007735"><ele>84.33333333333334</ele><time>2026-04-11T09:59:43Z</time></trkpt><trkpt lat="42.415204280159955" lon="11.702357257057276"><ele>86.0</ele><time>2026-04-11T09:59:44Z</time></trkpt><trkpt lat="42.415320516865414" lon="11.702479350116386"><ele>86.0</ele><time>2026-04-11T09:59:45Z</time></trkpt><trkpt lat="42.41542985747662" lon="11.702566704263754"><ele>86.0</ele><time>2026-04-11T09:59:46Z</time></trkpt><trkpt lat="42.41553538230293" lon="11.70270029924577"><ele>86.0</ele><time>2026-04-11T09:59:47Z</time></trkpt><trkpt lat="42.415636541987375" lon="11.702846647807341"><ele>86.0</ele><time>2026-04-11T09:59:48Z</time></trkpt><trkpt lat="42.41574629388994" lon="11.703010311959229"><ele>87.66666666666667</ele><time>2026-04-11T09:59:49Z</time></trkpt><trkpt lat="42.41586943353389" lon="11.703174914376692"><ele>89.33333333333333</ele><time>2026-04-11T09:59:50Z</time></trkpt><trkpt lat="42.41601076282452" lon="11.703322721184291"><ele>91.0</ele><time>2026-04-11T09:59:51Z</time></trkpt><trkpt lat="42.41617441833301" lon="11.703458304491088"><ele>91.66666666666666</ele><time>2026-04-11T09:59:52Z</time></trkpt><trkpt lat="42.41635496587147" lon="11.703597407706933"><ele>92.33333333333333</ele><time>2026-04-11T09:59:53Z</time></trkpt><trkpt lat="42.41653568925498" lon="11.703733208756475"><ele>93.0</ele><time>2026-04-11T09:59:54Z</time></trkpt><trkpt lat="42.41671096588888" lon="11.7038455152695"><ele>93.0</ele><time>2026-04-11T09:59:55Z</time></trkpt><trkpt lat="42.41687297748289" lon="11.703943554663077"><ele>93.0</ele><time>2026-04-11T09:59:56Z</time></trkpt><trkpt lat="42.41702195783674" lon="11.704047769278915"><ele>93.0</ele><time>2026-04-11T09:59:57Z</time></trkpt><trkpt lat="42.41718128159362" lon="11.704176296573262"><ele>93.66666666666667</ele><time>2026-04-11T09:59:58Z</time></trkpt><trkpt lat="42.41734426699959" lon="11.704315252518443"><ele>94.33333333333334</ele><time>2026-04-11T09:59:59Z</time></trkpt><trkpt lat="42.41749994062289" lon="11.704470425364988"><ele>95.0</ele><time>2026-04-11T10:00:00Z</time></trkpt><trkpt lat="42.41762837653145" lon="11.704626464467385"><ele>95.0</ele><time>2026-04-11T10:00:01Z</time></trkpt><trkpt lat="42.417767127668725" lon="11.704784632196953"><ele>95.0</ele><time>2026-04-11T10:00:02Z</time></trkpt><trkpt lat="42.41791718179699" lon="11.704936457123221"><ele>95.0</ele><time>2026-04-11T10:00:03Z</time></trkpt><trkpt lat="42.418061342996985" lon="11.705075757948583"><ele>95.0</ele><time>2026-04-11T10:00:04Z</time></trkpt><trkpt lat="42.41820039234648" lon="11.705217248887108"><ele>95.0</ele><time>2026-04-11T10:00:05Z</time></trkpt><trkpt lat="42.41834288094846" lon="11.705335118244202"><ele>95.0</ele><time>2026-04-11T10:00:06Z</time></trkpt><trkpt lat="42.418490255958446" lon="11.705459496171079"><ele>94.33333333333334</ele><time>2026-04-11T10:00:07Z</time></trkpt><trkpt lat="42.41863176454942" lon="11.705584097612858"><ele>93.66666666666667</ele><time>2026-04-11T10:00:08Z</time></trkpt><trkpt lat="42.41876362387126" lon="11.70570435290329"><ele>93.0</ele><time>2026-04-11T10:00:09Z</time></trkpt><trkpt lat="42.418890248507374" lon="11.705827011788434"><ele>93.0</ele><time>2026-04-11T10:00:10Z</time></trkpt><trkpt lat="42.4190141775114" lon="11.705961411077137"><ele>93.0</ele><time>2026-04-11T10:00:11Z</time></trkpt><trkpt lat="42.41914868414604" lon="11.70611638278583"><ele>93.0</ele><time>2026-04-11T10:00:12Z</time></trkpt><trkpt lat="42.419266201944396" lon="11.706263984999861"><ele>93.0</ele><time>2026-04-11T10:00:13Z</time></trkpt><trkpt lat="42.419377300610854" lon="11.706388277980938"><ele>93.0</ele><time>2026-04-11T10:00:14Z</time></trkpt><trkpt lat="42.41951528875768" lon="11.706521019681459"><ele>93.0</ele><time>2026-04-11T10:00:15Z</time></trkpt><trkpt lat="42.41965964539546" lon="11.706632433121905"><ele>93.66666666666667</ele><time>2026-04-11T10:00:16Z</time></trkpt><trkpt lat="42.41984299070901" lon="11.706743280110233"><ele>94.33333333333334</ele><time>2026-04-11T10:00:17Z</time></trkpt><trkpt lat="42.420039570222656" lon="11.706855708931199"><ele>95.0</ele><time>2026-04-11T10:00:18Z</time></trkpt><trkpt lat="42.42021975320988" lon="11.70695840906885"><ele>95.0</ele><time>2026-04-11T10:00:19Z</time></trkpt><trkpt lat="42.42038928313693" lon="11.707055037210072"><ele>95.0</ele><time>2026-04-11T10:00:20Z</time></trkpt><trkpt lat="42.42055191503696" lon="11.70714659751846"><ele>95.0</ele><time>2026-04-11T10:00:21Z</time></trkpt><trkpt lat="42.42072379450575" lon="11.707239350184619"><ele>96.33333333333334</ele><time>2026-04-11T10:00:22Z</time></trkpt><trkpt lat="42.42088322077465" lon="11.70732790608359"><ele>97.66666666666667</ele><time>2026-04-11T10:00:23Z</time></trkpt><trkpt lat="42.42103303133884" lon="11.707411894436268"><ele>99.0</ele><time>2026-04-11T10:00:24Z</time></trkpt><trkpt lat="42.4211828564687" lon="11.707493705661099"><ele>99.0</ele><time>2026-04-11T10:00:25Z</time></trkpt><trkpt lat="42.421359937477675" lon="11.707586932042549"><ele>99.0</ele><time>2026-04-11T10:00:26Z</time></trkpt><trkpt lat="42.42151243319558" lon="11.707643383112526"><ele>99.0</ele><time>2026-04-11T10:00:27Z</time></trkpt><trkpt lat="42.421647370058956" lon="11.707717086825369"><ele>100.0</ele><time>2026-04-11T10:00:28Z</time></trkpt><trkpt lat="42.42179871121504" lon="11.707779292387"><ele>101.0</ele><time>2026-04-11T10:00:29Z</time></trkpt><trkpt lat="42.42197637641007" lon="11.707827198859842"><ele>102.0</ele><time>2026-04-11T10:00:30Z</time></trkpt><trkpt lat="42.42213737845991" lon="11.707854350839428"><ele>102.0</ele><time>2026-04-11T10:00:31Z</time></trkpt><trkpt lat="42.422265467073316" lon="11.707818497439312"><ele>102.0</ele><time>2026-04-11T10:00:32Z</time></trkpt><trkpt lat="42.422421687988" lon="11.70781899775681"><ele>102.0</ele><time>2026-04-11T10:00:33Z</time></trkpt><trkpt lat="42.42257230790962" lon="11.707836670292165"><ele>102.0</ele><time>2026-04-11T10:00:34Z</time></trkpt><trkpt lat="42.42270457415007" lon="11.707854070083728"><ele>102.0</ele><time>2026-04-11T10:00:35Z</time></trkpt><trkpt lat="42.4228336551097" lon="11.707895614412802"><ele>102.0</ele><time>2026-04-11T10:00:36Z</time></trkpt><trkpt lat="42.42297456712343" lon="11.70792215814518"><ele>102.0</ele><time>2026-04-11T10:00:37Z</time></trkpt><trkpt lat="42.423074677741084" lon="11.707982922769332"><ele>102.0</ele><time>2026-04-11T10:00:38Z</time></trkpt><trkpt lat="42.42319013981311" lon="11.708046835871347"><ele>103.0</ele><time>2026-04-11T10:00:39Z</time></trkpt><trkpt lat="42.42331689064658" lon="11.70813387659862"><ele>104.0</ele><time>2026-04-11T10:00:40Z</time></trkpt><trkpt lat="42.42344377185201" lon="11.708208408785925"><ele>105.0</ele><time>2026-04-11T10:00:41Z</time></trkpt><trkpt lat="42.423564751994185" lon="11.70828765158925"><ele>106.0</ele><time>2026-04-11T10:00:42Z</time></trkpt><trkpt lat="42.42367855169015" lon="11.708355664868666"><ele>106.0</ele><time>2026-04-11T10:00:43Z</time></trkpt><trkpt lat="42.42378657548262" lon="11.708408589013525"><ele>106.0</ele><time>2026-04-11T10:00:44Z</time></trkpt><trkpt lat="42.42391056172839" lon="11.708470814377153"><ele>106.0</ele><time>2026-04-11T10:00:45Z</time></trkpt><trkpt lat="42.42407746721854" lon="11.708597511849065"><ele>106.0</ele><time>2026-04-11T10:00:46Z</time></trkpt><trkpt lat="42.424202365358646" lon="11.708742025586702"><ele>105.0</ele><time>2026-04-11T10:00:47Z</time></trkpt><trkpt lat="42.42439375318496" lon="11.708875267622046"><ele>104.0</ele><time>2026-04-11T10:00:48Z</time></trkpt><trkpt lat="42.424530032724256" lon="11.709048528714026"><ele>103.0</ele><time>2026-04-11T10:00:49Z</time></trkpt><trkpt lat="42.424671144465485" lon="11.70923087072494"><ele>101.0</ele><time>2026-04-11T10:00:50Z</time></trkpt><trkpt lat="42.424804148413045" lon="11.709398245619479"><ele>99.0</ele><time>2026-04-11T10:00:51Z</time></trkpt><trkpt lat="42.424950050844814" lon="11.709575384209721"><ele>97.0</ele><time>2026-04-11T10:00:52Z</time></trkpt><trkpt lat="42.42511016322829" lon="11.709739545130454"><ele>97.0</ele><time>2026-04-11T10:00:53Z</time></trkpt><trkpt lat="42.425253842913584" lon="11.709899095553173"><ele>97.0</ele><time>2026-04-11T10:00:54Z</time></trkpt><trkpt lat="42.42539498299695" lon="11.710016148564524"><ele>97.0</ele><time>2026-04-11T10:00:55Z</time></trkpt><trkpt lat="42.4255351312969" lon="11.710163033437418"><ele>97.0</ele><time>2026-04-11T10:00:56Z</time></trkpt><trkpt lat="42.42567345389671" lon="11.710329441563179"><ele>97.0</ele><time>2026-04-11T10:00:57Z</time></trkpt><trkpt lat="42.42583075551764" lon="11.710496361355789"><ele>97.0</ele><time>2026-04-11T10:00:58Z</time></trkpt><trkpt lat="42.42598261832543" lon="11.710657569035098"><ele>97.0</ele><time>2026-04-11T10:00:59Z</time></trkpt><trkpt lat="42.42612837634627" lon="11.710799761086573"><ele>97.0</ele><time>2026-04-11T10:01:00Z</time></trkpt><trkpt lat="42.426295784058624" lon="11.710943664248072"><ele>97.0</ele><time>2026-04-11T10:01:01Z</time></trkpt><trkpt lat="42.426479204879065" lon="11.7110851982814"><ele>96.5</ele><time>2026-04-11T10:01:02Z</time></trkpt><trkpt lat="42.426678287369405" lon="11.711231398336889"><ele>96.0</ele><time>2026-04-11T10:01:03Z</time></trkpt><trkpt lat="42.426878151405184" lon="11.711372904140296"><ele>96.0</ele><time>2026-04-11T10:01:04Z</time></trkpt><trkpt lat="42.427064439240766" lon="11.71150255967737"><ele>96.0</ele><time>2026-04-11T10:01:05Z</time></trkpt><trkpt lat="42.42723948862292" lon="11.711623811231359"><ele>96.0</ele><time>2026-04-11T10:01:06Z</time></trkpt><trkpt lat="42.42741035317826" lon="11.711742164080874"><ele>96.33333333333334</ele><time>2026-04-11T10:01:07Z</time></trkpt><trkpt lat="42.42758257320108" lon="11.711861455830082"><ele>96.66666666666667</ele><time>2026-04-11T10:01:08Z</time></trkpt><trkpt lat="42.42774935265669" lon="11.711976979061927"><ele>97.0</ele><time>2026-04-11T10:01:09Z</time></trkpt><trkpt lat="42.42790316467263" lon="11.712083520112367"><ele>96.0</ele><time>2026-04-11T10:01:10Z</time></trkpt><trkpt lat="42.428065427783494" lon="11.712195915002106"><ele>95.0</ele><time>2026-04-11T10:01:11Z</time></trkpt><trkpt lat="42.42822620723163" lon="11.712310442929729"><ele>94.0</ele><time>2026-04-11T10:01:12Z</time></trkpt><trkpt lat="42.42837887833738" lon="11.712428358262281"><ele>94.0</ele><time>2026-04-11T10:01:13Z</time></trkpt><trkpt lat="42.42851682614552" lon="11.712547270207661"><ele>94.0</ele><time>2026-04-11T10:01:14Z</time></trkpt><trkpt lat="42.42865822468905" lon="11.712663390800296"><ele>94.0</ele><time>2026-04-11T10:01:15Z</time></trkpt><trkpt lat="42.428764812311236" lon="11.712806317887608"><ele>94.66666666666666</ele><time>2026-04-11T10:01:16Z</time></trkpt><trkpt lat="42.42887496614902" lon="11.712975085343839"><ele>95.33333333333333</ele><time>2026-04-11T10:01:17Z</time></trkpt><trkpt lat="42.42899103630073" lon="11.71316901950652"><ele>96.0</ele><time>2026-04-11T10:01:18Z</time></trkpt><trkpt lat="42.42910241122617" lon="11.71338304898937"><ele>97.0</ele><time>2026-04-11T10:01:19Z</time></trkpt><trkpt lat="42.42920001432213" lon="11.713608551971967"><ele>98.0</ele><time>2026-04-11T10:01:20Z</time></trkpt><trkpt lat="42.42928058113298" lon="11.713799943895323"><ele>99.0</ele><time>2026-04-11T10:01:21Z</time></trkpt><trkpt lat="42.42936483888113" lon="11.713973589456913"><ele>99.0</ele><time>2026-04-11T10:01:22Z</time></trkpt><trkpt lat="42.429456908825344" lon="11.714136939206242"><ele>99.0</ele><time>2026-04-11T10:01:23Z</time></trkpt><trkpt lat="42.429560309880934" lon="11.714277521328405"><ele>99.0</ele><time>2026-04-11T10:01:24Z</time></trkpt><trkpt lat="42.429698347526866" lon="11.714412441020528"><ele>101.33333333333334</ele><time>2026-04-11T10:01:25Z</time></trkpt><trkpt lat="42.42984848386022" lon="11.714497183658299"><ele>103.66666666666667</ele><time>2026-04-11T10:01:26Z</time></trkpt><trkpt lat="42.42999389617537" lon="11.714615054743113"><ele>106.0</ele><time>2026-04-11T10:01:27Z</time></trkpt><trkpt lat="42.430126813583634" lon="11.714705952382095"><ele>106.0</ele><time>2026-04-11T10:01:28Z</time></trkpt><trkpt lat="42.430247185044976" lon="11.714817962709645"><ele>106.0</ele><time>2026-04-11T10:01:29Z</time></trkpt><trkpt lat="42.43036230707111" lon="11.714938426683284"><ele>106.0</ele><time>2026-04-11T10:01:30Z</time></trkpt><trkpt lat="42.430482939890844" lon="11.715094381883308"><ele>107.66666666666667</ele><time>2026-04-11T10:01:31Z</time></trkpt><trkpt lat="42.43059839486427" lon="11.71523832356913"><ele>109.33333333333334</ele><time>2026-04-11T10:01:32Z</time></trkpt><trkpt lat="42.43071007158513" lon="11.715413550034043"><ele>111.0</ele><time>2026-04-11T10:01:33Z</time></trkpt><trkpt lat="42.430817778618106" lon="11.715608361501092"><ele>111.0</ele><time>2026-04-11T10:01:34Z</time></trkpt><trkpt lat="42.430909073985205" lon="11.71580905583625"><ele>111.0</ele><time>2026-04-11T10:01:35Z</time></trkpt><trkpt lat="42.43099312596024" lon="11.716002728749253"><ele>111.0</ele><time>2026-04-11T10:01:36Z</time></trkpt><trkpt lat="42.43108669249732" lon="11.716205197418326"><ele>111.33333333333334</ele><time>2026-04-11T10:01:37Z</time></trkpt><trkpt lat="42.43119080726699" lon="11.71643525958465"><ele>111.66666666666667</ele><time>2026-04-11T10:01:38Z</time></trkpt><trkpt lat="42.43130480301996" lon="11.716676874711961"><ele>112.0</ele><time>2026-04-11T10:01:39Z</time></trkpt><trkpt lat="42.43142132860917" lon="11.716920415960669"><ele>112.0</ele><time>2026-04-11T10:01:40Z</time></trkpt><trkpt lat="42.43153431925008" lon="11.717160622626386"><ele>112.0</ele><time>2026-04-11T10:01:41Z</time></trkpt><trkpt lat="42.431637650028364" lon="11.717386415274932"><ele>112.0</ele><time>2026-04-11T10:01:42Z</time></trkpt><trkpt lat="42.431740407268755" lon="11.717591555424207"><ele>111.66666666666667</ele><time>2026-04-11T10:01:43Z</time></trkpt><trkpt lat="42.43183756393514" lon="11.717787065252711"><ele>111.33333333333334</ele><time>2026-04-11T10:01:44Z</time></trkpt><trkpt lat="42.431927338237756" lon="11.71798744218339"><ele>111.0</ele><time>2026-04-11T10:01:45Z</time></trkpt><trkpt lat="42.43201578957094" lon="11.718181149919"><ele>111.0</ele><time>2026-04-11T10:01:46Z</time></trkpt><trkpt lat="42.43209504667641" lon="11.718384201299402"><ele>111.0</ele><time>2026-04-11T10:01:47Z</time></trkpt><trkpt lat="42.432168096652255" lon="11.718582069099531"><ele>111.0</ele><time>2026-04-11T10:01:48Z</time></trkpt><trkpt lat="42.43224224082121" lon="11.71878461922054"><ele>112.25</ele><time>2026-04-11T10:01:49Z</time></trkpt><trkpt lat="42.43230951943617" lon="11.718977161673408"><ele>113.5</ele><time>2026-04-11T10:01:50Z</time></trkpt><trkpt lat="42.43237218021293" lon="11.719137880717687"><ele>114.75</ele><time>2026-04-11T10:01:51Z</time></trkpt><trkpt lat="42.43240990837189" lon="11.719335567003887"><ele>116.0</ele><time>2026-04-11T10:01:52Z</time></trkpt><trkpt lat="42.432445419431005" lon="11.719529204293382"><ele>116.0</ele><time>2026-04-11T10:01:53Z</time></trkpt><trkpt lat="42.43250243584949" lon="11.7197425298534"><ele>116.0</ele><time>2026-04-11T10:01:54Z</time></trkpt><trkpt lat="42.43257551478044" lon="11.71998169634608"><ele>116.0</ele><time>2026-04-11T10:01:55Z</time></trkpt><trkpt lat="42.43266885807113" lon="11.720220407904135"><ele>114.0</ele><time>2026-04-11T10:01:56Z</time></trkpt><trkpt lat="42.432762310231475" lon="11.720452669354549"><ele>112.0</ele><time>2026-04-11T10:01:57Z</time></trkpt><trkpt lat="42.432858050958224" lon="11.72066475213167"><ele>110.0</ele><time>2026-04-11T10:01:58Z</time></trkpt><trkpt lat="42.432956725114856" lon="11.720856043431843"><ele>112.66666666666666</ele><time>2026-04-11T10:01:59Z</time></trkpt><trkpt lat="42.43305199602901" lon="11.721064802238091"><ele>115.33333333333334</ele><time>2026-04-11T10:02:00Z</time></trkpt><trkpt lat="42.43314485990957" lon="11.721263401094207"><ele>118.0</ele><time>2026-04-11T10:02:01Z</time></trkpt><trkpt lat="42.43322634455567" lon="11.721467642557233"><ele>118.0</ele><time>2026-04-11T10:02:02Z</time></trkpt><trkpt lat="42.43331929525795" lon="11.721665121879669"><ele>118.0</ele><time>2026-04-11T10:02:03Z</time></trkpt><trkpt lat="42.433414940520606" lon="11.721868326004595"><ele>118.0</ele><time>2026-04-11T10:02:04Z</time></trkpt><trkpt lat="42.433509228052706" lon="11.72206864541401"><ele>118.0</ele><time>2026-04-11T10:02:05Z</time></trkpt><trkpt lat="42.433624738751725" lon="11.722287370589843"><ele>118.0</ele><time>2026-04-11T10:02:06Z</time></trkpt><trkpt lat="42.433730204541135" lon="11.722517775433891"><ele>118.0</ele><time>2026-04-11T10:02:07Z</time></trkpt><trkpt lat="42.4338359245049" lon="11.72274001549106"><ele>120.66666666666667</ele><time>2026-04-11T10:02:08Z</time></trkpt><trkpt lat="42.433929967818024" lon="11.722956484352077"><ele>123.33333333333334</ele><time>2026-04-11T10:02:09Z</time></trkpt><trkpt lat="42.434026421450895" lon="11.723164578426271"><ele>126.0</ele><time>2026-04-11T10:02:10Z</time></trkpt><trkpt lat="42.43414289624334" lon="11.723389511031035"><ele>127.33333333333334</ele><time>2026-04-11T10:02:11Z</time></trkpt><trkpt lat="42.43423706396043" lon="11.723649547591082"><ele>128.66666666666669</ele><time>2026-04-11T10:02:12Z</time></trkpt><trkpt lat="42.43433718058976" lon="11.723877698838306"><ele>130.0</ele><time>2026-04-11T10:02:13Z</time></trkpt><trkpt lat="42.43443570863272" lon="11.724091283600567"><ele>130.0</ele><time>2026-04-11T10:02:14Z</time></trkpt><trkpt lat="42.434528575774834" lon="11.724279248865958"><ele>130.0</ele><time>2026-04-11T10:02:15Z</time></trkpt><trkpt lat="42.43463215133789" lon="11.724460308361033"><ele>130.0</ele><time>2026-04-11T10:02:16Z</time></trkpt><trkpt lat="42.434720318285464" lon="11.724647944570794"><ele>131.5</ele><time>2026-04-11T10:02:17Z</time></trkpt><trkpt lat="42.43480000805166" lon="11.724801174085698"><ele>133.0</ele><time>2026-04-11T10:02:18Z</time></trkpt><trkpt lat="42.43487648478031" lon="11.724952853103957"><ele>134.5</ele><time>2026-04-11T10:02:19Z</time></trkpt><trkpt lat="42.43496261327687" lon="11.725105610296833"><ele>136.0</ele><time>2026-04-11T10:02:20Z</time></trkpt><trkpt lat="42.43505916860514" lon="11.725237072449401"><ele>136.33333333333334</ele><time>2026-04-11T10:02:21Z</time></trkpt><trkpt lat="42.43516191193618" lon="11.725352965483458"><ele>136.66666666666666</ele><time>2026-04-11T10:02:22Z</time></trkpt><trkpt lat="42.435291287504185" lon="11.725486053923726"><ele>137.0</ele><time>2026-04-11T10:02:23Z</time></trkpt><trkpt lat="42.43544954329324" lon="11.725593201500706"><ele>137.33333333333331</ele><time>2026-04-11T10:02:24Z</time></trkpt><trkpt lat="42.435613133828404" lon="11.72573242952753"><ele>137.66666666666666</ele><time>2026-04-11T10:02:25Z</time></trkpt><trkpt lat="42.43574959115336" lon="11.725838358189044"><ele>138.0</ele><time>2026-04-11T10:02:26Z</time></trkpt><trkpt lat="42.43589317232174" lon="11.725972883154775"><ele>138.33333333333334</ele><time>2026-04-11T10:02:27Z</time></trkpt><trkpt lat="42.436035854481034" lon="11.726126497765394"><ele>138.66666666666669</ele><time>2026-04-11T10:02:28Z</time></trkpt><trkpt lat="42.43617979060218" lon="11.726281861791866"><ele>139.0</ele><time>2026-04-11T10:02:29Z</time></trkpt><trkpt lat="42.436326391337076" lon="11.726467996418823"><ele>139.66666666666669</ele><time>2026-04-11T10:02:30Z</time></trkpt><trkpt lat="42.43650739856748" lon="11.726634209388418"><ele>140.33333333333334</ele><time>2026-04-11T10:02:31Z</time></trkpt><trkpt lat="42.43667291377372" lon="11.72681259631412"><ele>141.0</ele><time>2026-04-11T10:02:32Z</time></trkpt><trkpt lat="42.43683864005585" lon="11.726951691613216"><ele>142.0</ele><time>2026-04-11T10:02:33Z</time></trkpt><trkpt lat="42.43698650586708" lon="11.727102418097141"><ele>143.0</ele><time>2026-04-11T10:02:34Z</time></trkpt><trkpt lat="42.43712139618961" lon="11.727255232956143"><ele>144.0</ele><time>2026-04-11T10:02:35Z</time></trkpt><trkpt lat="42.437265344405425" lon="11.727396273975772"><ele>145.0</ele><time>2026-04-11T10:02:36Z</time></trkpt><trkpt lat="42.437403081495425" lon="11.727522273882654"><ele>146.0</ele><time>2026-04-11T10:02:37Z</time></trkpt><trkpt lat="42.437553039648286" lon="11.72764446285604"><ele>147.0</ele><time>2026-04-11T10:02:38Z</time></trkpt><trkpt lat="42.437706930127476" lon="11.727760933551908"><ele>147.0</ele><time>2026-04-11T10:02:39Z</time></trkpt><trkpt lat="42.43785186853924" lon="11.727870044116388"><ele>147.0</ele><time>2026-04-11T10:02:40Z</time></trkpt><trkpt lat="42.438004652957396" lon="11.727985061213559"><ele>147.0</ele><time>2026-04-11T10:02:41Z</time></trkpt><trkpt lat="42.438150485111635" lon="11.728099129777206"><ele>149.0</ele><time>2026-04-11T10:02:42Z</time></trkpt><trkpt lat="42.43828918847338" lon="11.728213878432475"><ele>151.0</ele><time>2026-04-11T10:02:43Z</time></trkpt><trkpt lat="42.43844022756772" lon="11.728340385714011"><ele>153.0</ele><time>2026-04-11T10:02:44Z</time></trkpt><trkpt lat="42.4385698802531" lon="11.728430675766024"><ele>152.66666666666666</ele><time>2026-04-11T10:02:45Z</time></trkpt><trkpt lat="42.43868768535906" lon="11.728561064122342"><ele>152.33333333333331</ele><time>2026-04-11T10:02:46Z</time></trkpt><trkpt lat="42.43883541676598" lon="11.728689522027073"><ele>152.0</ele><time>2026-04-11T10:02:47Z</time></trkpt><trkpt lat="42.43894905995971" lon="11.728773021264564"><ele>153.33333333333331</ele><time>2026-04-11T10:02:48Z</time></trkpt><trkpt lat="42.43908366330465" lon="11.728859643989386"><ele>154.66666666666666</ele><time>2026-04-11T10:02:49Z</time></trkpt><trkpt lat="42.43922271314747" lon="11.728943307225634"><ele>156.0</ele><time>2026-04-11T10:02:50Z</time></trkpt><trkpt lat="42.43938142636755" lon="11.729030718733345"><ele>156.0</ele><time>2026-04-11T10:02:51Z</time></trkpt><trkpt lat="42.43951832647844" lon="11.729122747476291"><ele>156.0</ele><time>2026-04-11T10:02:52Z</time></trkpt><trkpt lat="42.43963467398417" lon="11.729238835829841"><ele>156.0</ele><time>2026-04-11T10:02:53Z</time></trkpt><trkpt lat="42.43977232438216" lon="11.7293721288657"><ele>157.0</ele><time>2026-04-11T10:02:53.999Z</time></trkpt><trkpt lat="42.43992272279508" lon="11.729531876196207"><ele>158.0</ele><time>2026-04-11T10:02:54.999Z</time></trkpt><trkpt lat="42.44007411563718" lon="11.729711212171383"><ele>159.0</ele><time>2026-04-11T10:02:56Z</time></trkpt><trkpt lat="42.44021484407961" lon="11.729864667842662"><ele>159.0</ele><time>2026-04-11T10:02:57Z</time></trkpt><trkpt lat="42.44034800736792" lon="11.73000411027882"><ele>159.0</ele><time>2026-04-11T10:02:58Z</time></trkpt><trkpt lat="42.44047384499077" lon="11.730128056167159"><ele>159.0</ele><time>2026-04-11T10:02:59Z</time></trkpt><trkpt lat="42.44061147749695" lon="11.730255709801694"><ele>160.33333333333334</ele><time>2026-04-11T10:03:00Z</time></trkpt><trkpt lat="42.44075497494932" lon="11.730377872720592"><ele>161.66666666666669</ele><time>2026-04-11T10:03:01Z</time></trkpt><trkpt lat="42.44090970216603" lon="11.730494650402028"><ele>163.0</ele><time>2026-04-11T10:03:02Z</time></trkpt><trkpt lat="42.44107588682316" lon="11.730586941756293"><ele>163.0</ele><time>2026-04-11T10:03:03Z</time></trkpt><trkpt lat="42.44122224663735" lon="11.730670438771654"><ele>163.0</ele><time>2026-04-11T10:03:04Z</time></trkpt><trkpt lat="42.441358838695535" lon="11.730765205893174"><ele>163.0</ele><time>2026-04-11T10:03:05Z</time></trkpt><trkpt lat="42.44149368604463" lon="11.730859616769397"><ele>163.33333333333334</ele><time>2026-04-11T10:03:06Z</time></trkpt><trkpt lat="42.44162621563199" lon="11.730969532726517"><ele>163.66666666666666</ele><time>2026-04-11T10:03:07Z</time></trkpt><trkpt lat="42.441754515715445" lon="11.731069946479579"><ele>164.0</ele><time>2026-04-11T10:03:08Z</time></trkpt><trkpt lat="42.44189152938146" lon="11.731147500815432"><ele>164.0</ele><time>2026-04-11T10:03:09Z</time></trkpt><trkpt lat="42.442036800787456" lon="11.73120917407265"><ele>164.0</ele><time>2026-04-11T10:03:10Z</time></trkpt><trkpt lat="42.44218449897857" lon="11.731285777332328"><ele>164.0</ele><time>2026-04-11T10:03:11Z</time></trkpt><trkpt lat="42.44233666111695" lon="11.73133321916278"><ele>165.0</ele><time>2026-04-11T10:03:12Z</time></trkpt><trkpt lat="42.44249716644312" lon="11.731354472043593"><ele>166.0</ele><time>2026-04-11T10:03:13Z</time></trkpt><trkpt lat="42.44266707795361" lon="11.731449622686029"><ele>167.0</ele><time>2026-04-11T10:03:14Z</time></trkpt><trkpt lat="42.44278145948914" lon="11.731477532569308"><ele>167.0</ele><time>2026-04-11T10:03:15Z</time></trkpt><trkpt lat="42.442914754325614" lon="11.731545300559207"><ele>167.0</ele><time>2026-04-11T10:03:16Z</time></trkpt><trkpt lat="42.44306858489869" lon="11.731659345031051"><ele>167.0</ele><time>2026-04-11T10:03:17Z</time></trkpt><trkpt lat="42.44322475170738" lon="11.731807487005415"><ele>166.66666666666666</ele><time>2026-04-11T10:03:18Z</time></trkpt><trkpt lat="42.443395089621795" lon="11.731946355649923"><ele>166.33333333333334</ele><time>2026-04-11T10:03:19Z</time></trkpt><trkpt lat="42.44353269276283" lon="11.732112249519984"><ele>166.0</ele><time>2026-04-11T10:03:20Z</time></trkpt><trkpt lat="42.44366745364734" lon="11.732242536030812"><ele>166.0</ele><time>2026-04-11T10:03:21Z</time></trkpt><trkpt lat="42.44377981299408" lon="11.732349881368929"><ele>166.0</ele><time>2026-04-11T10:03:22Z</time></trkpt><trkpt lat="42.4438986638431" lon="11.732452816452437"><ele>166.0</ele><time>2026-04-11T10:03:23Z</time></trkpt><trkpt lat="42.44403283587619" lon="11.732566065381267"><ele>166.0</ele><time>2026-04-11T10:03:24Z</time></trkpt><trkpt lat="42.44417941588442" lon="11.732671752230996"><ele>165.66666666666669</ele><time>2026-04-11T10:03:25Z</time></trkpt><trkpt lat="42.444337532372344" lon="11.732766977512147"><ele>165.33333333333334</ele><time>2026-04-11T10:03:26Z</time></trkpt><trkpt lat="42.44448859877476" lon="11.732868751465439"><ele>165.0</ele><time>2026-04-11T10:03:27Z</time></trkpt><trkpt lat="42.44463803206008" lon="11.73297922775142"><ele>167.33333333333334</ele><time>2026-04-11T10:03:28Z</time></trkpt><trkpt lat="42.44478709308977" lon="11.733123129691021"><ele>169.66666666666669</ele><time>2026-04-11T10:03:29Z</time></trkpt><trkpt lat="42.44490387963067" lon="11.733261198648144"><ele>172.0</ele><time>2026-04-11T10:03:30Z</time></trkpt><trkpt lat="42.4450158557454" lon="11.73340837043531"><ele>172.0</ele><time>2026-04-11T10:03:31Z</time></trkpt><trkpt lat="42.4451095772536" lon="11.733533360593075"><ele>172.0</ele><time>2026-04-11T10:03:32Z</time></trkpt><trkpt lat="42.44519434908309" lon="11.733653627064854"><ele>172.0</ele><time>2026-04-11T10:03:33Z</time></trkpt><trkpt lat="42.445276063474964" lon="11.733767411072074"><ele>172.0</ele><time>2026-04-11T10:03:34Z</time></trkpt><trkpt lat="42.44538790732478" lon="11.733859914649491"><ele>173.75</ele><time>2026-04-11T10:03:35Z</time></trkpt><trkpt lat="42.44551943745083" lon="11.733917243443484"><ele>175.5</ele><time>2026-04-11T10:03:36Z</time></trkpt><trkpt lat="42.44566462761166" lon="11.733946031014334"><ele>177.25</ele><time>2026-04-11T10:03:37Z</time></trkpt><trkpt lat="42.445822589357476" lon="11.733958357269735"><ele>179.0</ele><time>2026-04-11T10:03:38Z</time></trkpt><trkpt lat="42.44600057987171" lon="11.733965484913314"><ele>179.0</ele><time>2026-04-11T10:03:39Z</time></trkpt><trkpt lat="42.44615725385677" lon="11.733963449723857"><ele>179.0</ele><time>2026-04-11T10:03:40Z</time></trkpt><trkpt lat="42.44630287127065" lon="11.733965909394586"><ele>179.0</ele><time>2026-04-11T10:03:41Z</time></trkpt><trkpt lat="42.44645515241291" lon="11.733992850163832"><ele>181.0</ele><time>2026-04-11T10:03:42Z</time></trkpt><trkpt lat="42.44661131023437" lon="11.734040503840056"><ele>183.0</ele><time>2026-04-11T10:03:43Z</time></trkpt><trkpt lat="42.44677011897816" lon="11.734102773637595"><ele>185.0</ele><time>2026-04-11T10:03:44Z</time></trkpt><trkpt lat="42.446932725301565" lon="11.734164442887609"><ele>185.0</ele><time>2026-04-11T10:03:45Z</time></trkpt><trkpt lat="42.44707065925758" lon="11.73422633953454"><ele>185.0</ele><time>2026-04-11T10:03:46Z</time></trkpt><trkpt lat="42.4472018041895" lon="11.734277932861414"><ele>185.0</ele><time>2026-04-11T10:03:47Z</time></trkpt><trkpt lat="42.44733185085092" lon="11.734324780151871"><ele>185.0</ele><time>2026-04-11T10:03:48Z</time></trkpt><trkpt lat="42.44745448007611" lon="11.73436769092789"><ele>185.66666666666666</ele><time>2026-04-11T10:03:49Z</time></trkpt><trkpt lat="42.447566501907545" lon="11.734483815000045"><ele>186.33333333333334</ele><time>2026-04-11T10:03:50Z</time></trkpt><trkpt lat="42.44770040594218" lon="11.734588208881245"><ele>187.0</ele><time>2026-04-11T10:03:51Z</time></trkpt><trkpt lat="42.447877859029916" lon="11.734709854215359"><ele>188.0</ele><time>2026-04-11T10:03:52Z</time></trkpt><trkpt lat="42.44807371693722" lon="11.734823343415941"><ele>189.0</ele><time>2026-04-11T10:03:53Z</time></trkpt><trkpt lat="42.44826460156173" lon="11.734932794892053"><ele>190.0</ele><time>2026-04-11T10:03:54Z</time></trkpt><trkpt lat="42.44846583751115" lon="11.735060335348381"><ele>190.0</ele><time>2026-04-11T10:03:55Z</time></trkpt><trkpt lat="42.44865901664503" lon="11.735173105213068"><ele>190.0</ele><time>2026-04-11T10:03:56Z</time></trkpt><trkpt lat="42.448835685513124" lon="11.735281069867533"><ele>190.0</ele><time>2026-04-11T10:03:57Z</time></trkpt><trkpt lat="42.44901862692451" lon="11.735376501250036"><ele>190.66666666666669</ele><time>2026-04-11T10:03:58Z</time></trkpt><trkpt lat="42.44919042271444" lon="11.735475508853689"><ele>191.33333333333334</ele><time>2026-04-11T10:03:59Z</time></trkpt><trkpt lat="42.44936075254256" lon="11.735573257178833"><ele>192.0</ele><time>2026-04-11T10:04:00Z</time></trkpt><trkpt lat="42.44953150098868" lon="11.735680353563152"><ele>192.33333333333331</ele><time>2026-04-11T10:04:01Z</time></trkpt><trkpt lat="42.44970274508076" lon="11.735782560167301"><ele>192.66666666666666</ele><time>2026-04-11T10:04:02Z</time></trkpt><trkpt lat="42.449869489901644" lon="11.73587969449704"><ele>193.0</ele><time>2026-04-11T10:04:03Z</time></trkpt><trkpt lat="42.45004173941778" lon="11.735988296170389"><ele>192.66666666666666</ele><time>2026-04-11T10:04:04Z</time></trkpt><trkpt lat="42.45021280012361" lon="11.736083953601945"><ele>192.33333333333331</ele><time>2026-04-11T10:04:05Z</time></trkpt><trkpt lat="42.45039319516312" lon="11.736198319458218"><ele>192.0</ele><time>2026-04-11T10:04:06Z</time></trkpt><trkpt lat="42.45055072053272" lon="11.736304168909387"><ele>193.66666666666669</ele><time>2026-04-11T10:04:07Z</time></trkpt><trkpt lat="42.45071425624199" lon="11.736411055875982"><ele>195.33333333333334</ele><time>2026-04-11T10:04:08Z</time></trkpt><trkpt lat="42.45086177059662" lon="11.736498032781236"><ele>197.0</ele><time>2026-04-11T10:04:09Z</time></trkpt><trkpt lat="42.45101042531612" lon="11.73658368377821"><ele>197.0</ele><time>2026-04-11T10:04:10Z</time></trkpt><trkpt lat="42.4511487535307" lon="11.73667808692715"><ele>197.0</ele><time>2026-04-11T10:04:11Z</time></trkpt><trkpt lat="42.451284771450034" lon="11.736771033549365"><ele>197.0</ele><time>2026-04-11T10:04:12Z</time></trkpt><trkpt lat="42.45142573923849" lon="11.736861026853171"><ele>196.0</ele><time>2026-04-11T10:04:13Z</time></trkpt><trkpt lat="42.45157196770126" lon="11.73694780590758"><ele>195.0</ele><time>2026-04-11T10:04:14Z</time></trkpt><trkpt lat="42.451716091817104" lon="11.737030732814766"><ele>194.0</ele><time>2026-04-11T10:04:15Z</time></trkpt><trkpt lat="42.45186772350882" lon="11.737102604024491"><ele>194.0</ele><time>2026-04-11T10:04:16Z</time></trkpt><trkpt lat="42.45201442235981" lon="11.737172325848741"><ele>194.0</ele><time>2026-04-11T10:04:17Z</time></trkpt><trkpt lat="42.45214407378832" lon="11.737241959545095"><ele>194.0</ele><time>2026-04-11T10:04:18Z</time></trkpt><trkpt lat="42.45226925482496" lon="11.737332573292077"><ele>194.0</ele><time>2026-04-11T10:04:19Z</time></trkpt><trkpt lat="42.45238728558564" lon="11.737447615342644"><ele>194.66666666666669</ele><time>2026-04-11T10:04:20Z</time></trkpt><trkpt lat="42.452510174477766" lon="11.737581606710872"><ele>195.33333333333331</ele><time>2026-04-11T10:04:21Z</time></trkpt><trkpt lat="42.45263810101582" lon="11.737717630688985"><ele>196.0</ele><time>2026-04-11T10:04:22Z</time></trkpt><trkpt lat="42.45276275187705" lon="11.737866229057522"><ele>195.66666666666666</ele><time>2026-04-11T10:04:23Z</time></trkpt><trkpt lat="42.452900662939335" lon="11.738010666296725"><ele>195.33333333333331</ele><time>2026-04-11T10:04:24Z</time></trkpt><trkpt lat="42.453037946554936" lon="11.738159962514192"><ele>195.0</ele><time>2026-04-11T10:04:25Z</time></trkpt><trkpt lat="42.45317622431138" lon="11.738301892628614"><ele>195.0</ele><time>2026-04-11T10:04:26Z</time></trkpt><trkpt lat="42.453322544566056" lon="11.738468799845139"><ele>195.0</ele><time>2026-04-11T10:04:27Z</time></trkpt><trkpt lat="42.45346228406099" lon="11.738666780528533"><ele>195.0</ele><time>2026-04-11T10:04:28Z</time></trkpt><trkpt lat="42.45359070915426" lon="11.73889552233233"><ele>194.33333333333331</ele><time>2026-04-11T10:04:29Z</time></trkpt><trkpt lat="42.453712994275456" lon="11.739086521669108"><ele>193.66666666666666</ele><time>2026-04-11T10:04:30Z</time></trkpt><trkpt lat="42.453839139657546" lon="11.739263089043291"><ele>193.0</ele><time>2026-04-11T10:04:31Z</time></trkpt><trkpt lat="42.453968200437664" lon="11.739440944998032"><ele>193.0</ele><time>2026-04-11T10:04:32Z</time></trkpt><trkpt lat="42.454098165384416" lon="11.739605504759538"><ele>193.0</ele><time>2026-04-11T10:04:33Z</time></trkpt><trkpt lat="42.45421906498475" lon="11.739778815015743"><ele>193.0</ele><time>2026-04-11T10:04:34Z</time></trkpt><trkpt lat="42.45436020926508" lon="11.739935465752618"><ele>193.0</ele><time>2026-04-11T10:04:35Z</time></trkpt><trkpt lat="42.454507947319776" lon="11.740075303657537"><ele>193.0</ele><time>2026-04-11T10:04:36Z</time></trkpt><trkpt lat="42.45465488939734" lon="11.740178238190971"><ele>193.0</ele><time>2026-04-11T10:04:37Z</time></trkpt><trkpt lat="42.45480220156295" lon="11.740303700459647"><ele>194.0</ele><time>2026-04-11T10:04:38Z</time></trkpt><trkpt lat="42.45494717805743" lon="11.74043136728064"><ele>195.0</ele><time>2026-04-11T10:04:39Z</time></trkpt><trkpt lat="42.45508976441551" lon="11.740560146312616"><ele>196.0</ele><time>2026-04-11T10:04:40Z</time></trkpt><trkpt lat="42.455235325716416" lon="11.740685153905163"><ele>196.0</ele><time>2026-04-11T10:04:41Z</time></trkpt><trkpt lat="42.45539441090912" lon="11.740789535035317"><ele>196.0</ele><time>2026-04-11T10:04:42Z</time></trkpt><trkpt lat="42.45556897698918" lon="11.74087548066004"><ele>196.0</ele><time>2026-04-11T10:04:43Z</time></trkpt><trkpt lat="42.45574850797881" lon="11.740957328917164"><ele>197.66666666666666</ele><time>2026-04-11T10:04:44Z</time></trkpt><trkpt lat="42.45591771442848" lon="11.74104089560352"><ele>199.33333333333331</ele><time>2026-04-11T10:04:45Z</time></trkpt><trkpt lat="42.45606933717581" lon="11.741107870077991"><ele>201.0</ele><time>2026-04-11T10:04:46Z</time></trkpt><trkpt lat="42.45622736512066" lon="11.741171894191995"><ele>202.0</ele><time>2026-04-11T10:04:47Z</time></trkpt><trkpt lat="42.45639768663742" lon="11.741219020911464"><ele>203.0</ele><time>2026-04-11T10:04:48Z</time></trkpt><trkpt lat="42.456579666065196" lon="11.741237709493268"><ele>204.0</ele><time>2026-04-11T10:04:49Z</time></trkpt><trkpt lat="42.45677523252184" lon="11.741212177906657"><ele>204.0</ele><time>2026-04-11T10:04:49.999Z</time></trkpt><trkpt lat="42.456968920587656" lon="11.741204932793721"><ele>204.0</ele><time>2026-04-11T10:04:50.999Z</time></trkpt><trkpt lat="42.457152150821074" lon="11.741209394031724"><ele>204.0</ele><time>2026-04-11T10:04:51.999Z</time></trkpt><trkpt lat="42.45732372000821" lon="11.741236425429285"><ele>204.25</ele><time>2026-04-11T10:04:52.999Z</time></trkpt><trkpt lat="42.45747719572905" lon="11.741260131574162"><ele>204.5</ele><time>2026-04-11T10:04:53.999Z</time></trkpt><trkpt lat="42.457612139690795" lon="11.741269851158249"><ele>204.75</ele><time>2026-04-11T10:04:54.999Z</time></trkpt><trkpt lat="42.45774165675039" lon="11.741265946847394"><ele>205.0</ele><time>2026-04-11T10:04:55.999Z</time></trkpt><trkpt lat="42.45786170908865" lon="11.74127134786781"><ele>205.5</ele><time>2026-04-11T10:04:56.999Z</time></trkpt><trkpt lat="42.45797890002688" lon="11.741283469041129"><ele>206.0</ele><time>2026-04-11T10:04:57.999Z</time></trkpt><trkpt lat="42.458089173949745" lon="11.741312320233208"><ele>206.5</ele><time>2026-04-11T10:04:58.999Z</time></trkpt><trkpt lat="42.45819991388583" lon="11.741373323210949"><ele>207.0</ele><time>2026-04-11T10:04:59.999Z</time></trkpt><trkpt lat="42.4583152296812" lon="11.741460886851794"><ele>207.0</ele><time>2026-04-11T10:05:00.999Z</time></trkpt><trkpt lat="42.45843786050224" lon="11.741580143346958"><ele>207.0</ele><time>2026-04-11T10:05:02Z</time></trkpt><trkpt lat="42.45854856505925" lon="11.741692859361633"><ele>207.0</ele><time>2026-04-11T10:05:03Z</time></trkpt><trkpt lat="42.4586437509956" lon="11.741795296343836"><ele>207.0</ele><time>2026-04-11T10:05:04Z</time></trkpt><trkpt lat="42.45873676659955" lon="11.741921120053904"><ele>207.5</ele><time>2026-04-11T10:05:05Z</time></trkpt><trkpt lat="42.458827321052105" lon="11.74207548681119"><ele>208.0</ele><time>2026-04-11T10:05:06Z</time></trkpt><trkpt lat="42.45889201892111" lon="11.742255900931571"><ele>208.5</ele><time>2026-04-11T10:05:07Z</time></trkpt><trkpt lat="42.45898909667797" lon="11.742419307148525"><ele>209.0</ele><time>2026-04-11T10:05:08Z</time></trkpt><trkpt lat="42.45911866666228" lon="11.742564178752803"><ele>209.0</ele><time>2026-04-11T10:05:09Z</time></trkpt><trkpt lat="42.45921925229388" lon="11.742700276248259"><ele>209.0</ele><time>2026-04-11T10:05:10Z</time></trkpt><trkpt lat="42.45931435416885" lon="11.74281888512939"><ele>209.0</ele><time>2026-04-11T10:05:11Z</time></trkpt><trkpt lat="42.45941231174724" lon="11.742921006401126"><ele>209.0</ele><time>2026-04-11T10:05:12Z</time></trkpt><trkpt lat="42.45952157125144" lon="11.742987862559568"><ele>210.25</ele><time>2026-04-11T10:05:13Z</time></trkpt><trkpt lat="42.45964049583917" lon="11.743023494045918"><ele>211.5</ele><time>2026-04-11T10:05:14Z</time></trkpt><trkpt lat="42.45976203172235" lon="11.743010168543625"><ele>212.75</ele><time>2026-04-11T10:05:15Z</time></trkpt><trkpt lat="42.45988580107673" lon="11.742978350588132"><ele>214.0</ele><time>2026-04-11T10:05:16Z</time></trkpt><trkpt lat="42.459998115148785" lon="11.74298276889621"><ele>214.0</ele><time>2026-04-11T10:05:17Z</time></trkpt><trkpt lat="42.46009233819653" lon="11.74299630009136"><ele>214.0</ele><time>2026-04-11T10:05:18Z</time></trkpt><trkpt lat="42.46019452459576" lon="11.743048269689565"><ele>214.0</ele><time>2026-04-11T10:05:19Z</time></trkpt><trkpt lat="42.46030505126419" lon="11.74311654953566"><ele>214.0</ele><time>2026-04-11T10:05:20Z</time></trkpt><trkpt lat="42.46040698900459" lon="11.743233343227772"><ele>213.5</ele><time>2026-04-11T10:05:21Z</time></trkpt><trkpt lat="42.46046793737907" lon="11.743390980722005"><ele>213.0</ele><time>2026-04-11T10:05:22Z</time></trkpt><trkpt lat="42.460538699717375" lon="11.743534907992721"><ele>212.5</ele><time>2026-04-11T10:05:23Z</time></trkpt><trkpt lat="42.460612025706546" lon="11.743716246779128"><ele>212.0</ele><time>2026-04-11T10:05:24Z</time></trkpt><trkpt lat="42.460676303655866" lon="11.743906654039922"><ele>214.33333333333334</ele><time>2026-04-11T10:05:25Z</time></trkpt><trkpt lat="42.460745323811125" lon="11.744091489071401"><ele>216.66666666666669</ele><time>2026-04-11T10:05:26Z</time></trkpt><trkpt lat="42.46079541901547" lon="11.744310269718753"><ele>219.0</ele><time>2026-04-11T10:05:27Z</time></trkpt><trkpt lat="42.46085188775929" lon="11.744551766454345"><ele>219.5</ele><time>2026-04-11T10:05:28Z</time></trkpt><trkpt lat="42.4609099527184" lon="11.744756231817956"><ele>220.0</ele><time>2026-04-11T10:05:29Z</time></trkpt><trkpt lat="42.460965930653884" lon="11.744935543021937"><ele>220.5</ele><time>2026-04-11T10:05:30Z</time></trkpt><trkpt lat="42.46101203343062" lon="11.745116735453452"><ele>221.0</ele><time>2026-04-11T10:05:31Z</time></trkpt><trkpt lat="42.46104387452842" lon="11.745284925512651"><ele>221.0</ele><time>2026-04-11T10:05:32Z</time></trkpt><trkpt lat="42.46108704260964" lon="11.745443615152366"><ele>221.0</ele><time>2026-04-11T10:05:33Z</time></trkpt><trkpt lat="42.46113999964974" lon="11.745590743735937"><ele>221.0</ele><time>2026-04-11T10:05:34Z</time></trkpt><trkpt lat="42.46119142932268" lon="11.745746310945803"><ele>221.0</ele><time>2026-04-11T10:05:35Z</time></trkpt><trkpt lat="42.46125301214023" lon="11.745900890153154"><ele>220.25</ele><time>2026-04-11T10:05:36Z</time></trkpt><trkpt lat="42.46130191902436" lon="11.74604730785943"><ele>219.5</ele><time>2026-04-11T10:05:37Z</time></trkpt><trkpt lat="42.46136835273631" lon="11.746197323078386"><ele>218.75</ele><time>2026-04-11T10:05:38Z</time></trkpt><trkpt lat="42.4614191323972" lon="11.746344853022295"><ele>218.0</ele><time>2026-04-11T10:05:39Z</time></trkpt><trkpt lat="42.46147042966079" lon="11.746506454363756"><ele>218.0</ele><time>2026-04-11T10:05:40Z</time></trkpt><trkpt lat="42.461533738062485" lon="11.74664563736221"><ele>218.0</ele><time>2026-04-11T10:05:41Z</time></trkpt><trkpt lat="42.461599417055616" lon="11.746805407068331"><ele>218.0</ele><time>2026-04-11T10:05:42Z</time></trkpt><trkpt lat="42.461643075178344" lon="11.746950781229247"><ele>218.0</ele><time>2026-04-11T10:05:43Z</time></trkpt><trkpt lat="42.461691753158924" lon="11.747081788208552"><ele>218.75</ele><time>2026-04-11T10:05:44Z</time></trkpt><trkpt lat="42.46173892105123" lon="11.74721273449198"><ele>219.5</ele><time>2026-04-11T10:05:45Z</time></trkpt><trkpt lat="42.461793011075194" lon="11.747359406636814"><ele>220.25</ele><time>2026-04-11T10:05:46Z</time></trkpt><trkpt lat="42.46184528792536" lon="11.7474968083069"><ele>221.0</ele><time>2026-04-11T10:05:47Z</time></trkpt><trkpt lat="42.46190564410449" lon="11.747640735996423"><ele>221.25</ele><time>2026-04-11T10:05:48Z</time></trkpt><trkpt lat="42.46196351064242" lon="11.747774680892105"><ele>221.5</ele><time>2026-04-11T10:05:49Z</time></trkpt><trkpt lat="42.462032477071304" lon="11.747928179083196"><ele>221.75</ele><time>2026-04-11T10:05:50Z</time></trkpt><trkpt lat="42.462111376466204" lon="11.748055532388424"><ele>222.0</ele><time>2026-04-11T10:05:51Z</time></trkpt><trkpt lat="42.46214742288634" lon="11.74819909990869"><ele>222.0</ele><time>2026-04-11T10:05:52Z</time></trkpt><trkpt lat="42.46220335772145" lon="11.748319559842466"><ele>222.0</ele><time>2026-04-11T10:05:53Z</time></trkpt><trkpt lat="42.462258098938584" lon="11.74842714512332"><ele>222.0</ele><time>2026-04-11T10:05:54Z</time></trkpt><trkpt lat="42.462314342628865" lon="11.748524691501139"><ele>222.0</ele><time>2026-04-11T10:05:55Z</time></trkpt><trkpt lat="42.46238045204944" lon="11.748620807954572"><ele>222.0</ele><time>2026-04-11T10:05:56Z</time></trkpt><trkpt lat="42.46245053452901" lon="11.74873034334147"><ele>222.0</ele><time>2026-04-11T10:05:57Z</time></trkpt><trkpt lat="42.46251100052124" lon="11.748830514743695"><ele>222.0</ele><time>2026-04-11T10:05:58Z</time></trkpt><trkpt lat="42.46256746934796" lon="11.748910160007524"><ele>222.0</ele><time>2026-04-11T10:05:59Z</time></trkpt><trkpt lat="42.46262169794614" lon="11.74898702763978"><ele>222.0</ele><time>2026-04-11T10:06:00Z</time></trkpt><trkpt lat="42.462699406503916" lon="11.749049030257734"><ele>222.0</ele><time>2026-04-11T10:06:01Z</time></trkpt><trkpt lat="42.462769715572655" lon="11.74909345935687"><ele>222.0</ele><time>2026-04-11T10:06:02Z</time></trkpt><trkpt lat="42.4628487555066" lon="11.749138736819562"><ele>222.0</ele><time>2026-04-11T10:06:03Z</time></trkpt><trkpt lat="42.46294386953719" lon="11.749187036122024"><ele>222.0</ele><time>2026-04-11T10:06:04Z</time></trkpt><trkpt lat="42.46305297071347" lon="11.749200579826937"><ele>222.0</ele><time>2026-04-11T10:06:05Z</time></trkpt><trkpt lat="42.463120549592595" lon="11.749208936869884"><ele>222.0</ele><time>2026-04-11T10:06:06Z</time></trkpt><trkpt lat="42.46320617295551" lon="11.749230642986273"><ele>222.0</ele><time>2026-04-11T10:06:07Z</time></trkpt><trkpt lat="42.4632958761271" lon="11.749268141213705"><ele>222.0</ele><time>2026-04-11T10:06:08Z</time></trkpt><trkpt lat="42.46339388311643" lon="11.74927226410784"><ele>222.0</ele><time>2026-04-11T10:06:09Z</time></trkpt><trkpt lat="42.463496131579724" lon="11.74931232963076"><ele>222.0</ele><time>2026-04-11T10:06:10Z</time></trkpt><trkpt lat="42.46357419925056" lon="11.749333668395417"><ele>222.0</ele><time>2026-04-11T10:06:11Z</time></trkpt><trkpt lat="42.463645207771464" lon="11.749353077652636"><ele>222.0</ele><time>2026-04-11T10:06:12Z</time></trkpt><trkpt lat="42.463732046626355" lon="11.749376007120597"><ele>222.0</ele><time>2026-04-11T10:06:13Z</time></trkpt><trkpt lat="42.463794832520925" lon="11.749391468670913"><ele>222.0</ele><time>2026-04-11T10:06:14Z</time></trkpt><trkpt lat="42.463865487052026" lon="11.749406244466218"><ele>222.0</ele><time>2026-04-11T10:06:15Z</time></trkpt><trkpt lat="42.46395891696616" lon="11.749419092451696"><ele>222.0</ele><time>2026-04-11T10:06:16Z</time></trkpt><trkpt lat="42.464042751449455" lon="11.749424760113136"><ele>222.0</ele><time>2026-04-11T10:06:17Z</time></trkpt><trkpt lat="42.46411793489721" lon="11.749412166504039"><ele>222.0</ele><time>2026-04-11T10:06:19Z</time></trkpt><trkpt lat="42.464086828374924" lon="11.749426925153008"><ele>222.0</ele><time>2026-04-11T10:08:43Z</time></trkpt><trkpt lat="42.46399798327067" lon="11.749422561110528"><ele>222.0</ele><time>2026-04-11T10:08:45Z</time></trkpt><trkpt lat="42.46393332225069" lon="11.749419385093155"><ele>222.0</ele><time>2026-04-11T10:08:46Z</time></trkpt><trkpt lat="42.46386247803667" lon="11.749415905373157"><ele>222.0</ele><time>2026-04-11T10:08:47Z</time></trkpt><trkpt lat="42.46370794699941" lon="11.749315494594136"><ele>222.0</ele><time>2026-04-11T10:08:48Z</time></trkpt><trkpt lat="42.463597186837895" lon="11.7492820747127"><ele>222.0</ele><time>2026-04-11T10:08:49Z</time></trkpt><trkpt lat="42.46349043862063" lon="11.749248085547869"><ele>221.33333333333334</ele><time>2026-04-11T10:08:50Z</time></trkpt><trkpt lat="42.463406044826506" lon="11.749229304424041"><ele>220.66666666666669</ele><time>2026-04-11T10:08:51Z</time></trkpt><trkpt lat="42.463321581149586" lon="11.749202499246175"><ele>220.0</ele><time>2026-04-11T10:08:52Z</time></trkpt><trkpt lat="42.463232990488656" lon="11.74917789166572"><ele>219.33333333333334</ele><time>2026-04-11T10:08:53Z</time></trkpt><trkpt lat="42.463141197767975" lon="11.749154264191857"><ele>218.66666666666669</ele><time>2026-04-11T10:08:54Z</time></trkpt><trkpt lat="42.46305934229398" lon="11.749127905162393"><ele>218.0</ele><time>2026-04-11T10:08:55Z</time></trkpt><trkpt lat="42.462974260256345" lon="11.74909918732357"><ele>218.66666666666669</ele><time>2026-04-11T10:08:56Z</time></trkpt><trkpt lat="42.46289352745237" lon="11.749077139413139"><ele>219.33333333333334</ele><time>2026-04-11T10:08:57Z</time></trkpt><trkpt lat="42.46282318148617" lon="11.749064364478256"><ele>220.0</ele><time>2026-04-11T10:08:58Z</time></trkpt><trkpt lat="42.46275886333129" lon="11.74902844227559"><ele>220.66666666666669</ele><time>2026-04-11T10:08:59Z</time></trkpt><trkpt lat="42.46269449656089" lon="11.748969122458343"><ele>221.33333333333334</ele><time>2026-04-11T10:09:00Z</time></trkpt><trkpt lat="42.46263281998773" lon="11.74889643755536"><ele>222.0</ele><time>2026-04-11T10:09:01Z</time></trkpt><trkpt lat="42.46255304535804" lon="11.748789235132518"><ele>222.0</ele><time>2026-04-11T10:09:01.999Z</time></trkpt><trkpt lat="42.462458119478356" lon="11.74864793503685"><ele>222.0</ele><time>2026-04-11T10:09:02.999Z</time></trkpt><trkpt lat="42.4623720385414" lon="11.748513236449028"><ele>222.0</ele><time>2026-04-11T10:09:03.999Z</time></trkpt><trkpt lat="42.46228806575802" lon="11.748373782529457"><ele>222.0</ele><time>2026-04-11T10:09:04.999Z</time></trkpt><trkpt lat="42.462218415296526" lon="11.748257785567597"><ele>222.0</ele><time>2026-04-11T10:09:05.999Z</time></trkpt><trkpt lat="42.46215720617167" lon="11.748104721225605"><ele>222.0</ele><time>2026-04-11T10:09:06.999Z</time></trkpt><trkpt lat="42.457683875956356" lon="11.74119689739953"><ele>217.75</ele><time>2026-04-11T10:10:08Z</time></trkpt><trkpt lat="42.457578665667356" lon="11.741188544946693"><ele>213.5</ele><time>2026-04-11T10:10:09Z</time></trkpt><trkpt lat="42.45746079080745" lon="11.741187801425566"><ele>209.25</ele><time>2026-04-11T10:10:10Z</time></trkpt><trkpt lat="42.45734718297414" lon="11.74116929798231"><ele>205.0</ele><time>2026-04-11T10:10:11Z</time></trkpt><trkpt lat="42.457229172191205" lon="11.741152141797695"><ele>204.75</ele><time>2026-04-11T10:10:12Z</time></trkpt><trkpt lat="42.45711631751074" lon="11.741146788061299"><ele>204.5</ele><time>2026-04-11T10:10:13Z</time></trkpt><trkpt lat="42.45698944869205" lon="11.741147725602968"><ele>204.25</ele><time>2026-04-11T10:10:14Z</time></trkpt><trkpt lat="42.4568693964507" lon="11.741159419882147"><ele>204.0</ele><time>2026-04-11T10:10:15Z</time></trkpt><trkpt lat="42.456748230210394" lon="11.741170838744038"><ele>204.0</ele><time>2026-04-11T10:10:16Z</time></trkpt><trkpt lat="42.456637704001" lon="11.74116270796979"><ele>204.0</ele><time>2026-04-11T10:10:17Z</time></trkpt><trkpt lat="42.45651650319483" lon="11.74115191105963"><ele>204.0</ele><time>2026-04-11T10:10:18Z</time></trkpt><trkpt lat="42.4563907859493" lon="11.741138410898067"><ele>204.0</ele><time>2026-04-11T10:10:19Z</time></trkpt><trkpt lat="42.456263831959085" lon="11.74111845821898"><ele>203.75</ele><time>2026-04-11T10:10:20Z</time></trkpt><trkpt lat="42.45613733769867" lon="11.741067557070021"><ele>203.5</ele><time>2026-04-11T10:10:21Z</time></trkpt><trkpt lat="42.45600657807478" lon="11.741016515581338"><ele>203.25</ele><time>2026-04-11T10:10:22Z</time></trkpt><trkpt lat="42.45587819299799" lon="11.740965847475996"><ele>203.0</ele><time>2026-04-11T10:10:23Z</time></trkpt><trkpt lat="42.45574519109702" lon="11.740913095954111"><ele>202.5</ele><time>2026-04-11T10:10:24Z</time></trkpt><trkpt lat="42.45563316275427" lon="11.74081769760088"><ele>202.0</ele><time>2026-04-11T10:10:25Z</time></trkpt><trkpt lat="42.45550672900746" lon="11.740762895483323"><ele>201.5</ele><time>2026-04-11T10:10:26Z</time></trkpt><trkpt lat="42.455388485705576" lon="11.740694667497472"><ele>201.0</ele><time>2026-04-11T10:10:27Z</time></trkpt><trkpt lat="42.45524686418029" lon="11.740599477578485"><ele>199.75</ele><time>2026-04-11T10:10:28Z</time></trkpt><trkpt lat="42.45512422682575" lon="11.740501413985768"><ele>198.5</ele><time>2026-04-11T10:10:29Z</time></trkpt><trkpt lat="42.45501899872627" lon="11.74040244606112"><ele>197.25</ele><time>2026-04-11T10:10:30Z</time></trkpt><trkpt lat="42.45490074682547" lon="11.740296428966873"><ele>196.0</ele><time>2026-04-11T10:10:31Z</time></trkpt><trkpt lat="42.454781278490366" lon="11.740221613771205"><ele>195.25</ele><time>2026-04-11T10:10:32Z</time></trkpt><trkpt lat="42.4546549823238" lon="11.740116556865374"><ele>194.5</ele><time>2026-04-11T10:10:33Z</time></trkpt><trkpt lat="42.45454045847333" lon="11.740023830897025"><ele>193.75</ele><time>2026-04-11T10:10:34Z</time></trkpt><trkpt lat="42.454427949535464" lon="11.739928721095287"><ele>193.0</ele><time>2026-04-11T10:10:35Z</time></trkpt><trkpt lat="42.45430324436921" lon="11.739795155052798"><ele>193.0</ele><time>2026-04-11T10:10:36Z</time></trkpt><trkpt lat="42.45418036795246" lon="11.739661708499009"><ele>193.0</ele><time>2026-04-11T10:10:37Z</time></trkpt><trkpt lat="42.454047057839304" lon="11.739510086138207"><ele>193.0</ele><time>2026-04-11T10:10:38Z</time></trkpt><trkpt lat="42.453944344260954" lon="11.739365523993797"><ele>192.5</ele><time>2026-04-11T10:10:39Z</time></trkpt><trkpt lat="42.45383524208597" lon="11.739214481129448"><ele>192.0</ele><time>2026-04-11T10:10:40Z</time></trkpt><trkpt lat="42.45375404255554" lon="11.739078080794325"><ele>191.5</ele><time>2026-04-11T10:10:41Z</time></trkpt><trkpt lat="42.453654462268844" lon="11.73891749648289"><ele>191.0</ele><time>2026-04-11T10:10:42Z</time></trkpt><trkpt lat="42.45355518374375" lon="11.738752664980684"><ele>191.0</ele><time>2026-04-11T10:10:43Z</time></trkpt><trkpt lat="42.45344457947943" lon="11.738591477791568"><ele>191.0</ele><time>2026-04-11T10:10:44Z</time></trkpt><trkpt lat="42.453334043986665" lon="11.73843860345556"><ele>191.0</ele><time>2026-04-11T10:10:45Z</time></trkpt><trkpt lat="42.45320760365769" lon="11.738271422509051"><ele>191.0</ele><time>2026-04-11T10:10:46Z</time></trkpt><trkpt lat="42.45307084341242" lon="11.738106601900805"><ele>191.0</ele><time>2026-04-11T10:10:47Z</time></trkpt><trkpt lat="42.45293930811468" lon="11.737973378342595"><ele>191.0</ele><time>2026-04-11T10:10:48Z</time></trkpt><trkpt lat="42.45281626379889" lon="11.737833314253372"><ele>192.66666666666666</ele><time>2026-04-11T10:10:49Z</time></trkpt><trkpt lat="42.45269805745262" lon="11.737692611573271"><ele>194.33333333333331</ele><time>2026-04-11T10:10:50Z</time></trkpt><trkpt lat="42.45259494008344" lon="11.737561724026607"><ele>196.0</ele><time>2026-04-11T10:10:51Z</time></trkpt><trkpt lat="42.4524687659759" lon="11.737441997000081"><ele>196.0</ele><time>2026-04-11T10:10:52Z</time></trkpt><trkpt lat="42.45234399965927" lon="11.737321707046739"><ele>196.0</ele><time>2026-04-11T10:10:53Z</time></trkpt><trkpt lat="42.45221139815408" lon="11.737227345073782"><ele>196.0</ele><time>2026-04-11T10:10:54Z</time></trkpt><trkpt lat="42.452065883539674" lon="11.737134094169551"><ele>195.33333333333331</ele><time>2026-04-11T10:10:55Z</time></trkpt><trkpt lat="42.451903369509125" lon="11.737075703553177"><ele>194.66666666666669</ele><time>2026-04-11T10:10:56Z</time></trkpt><trkpt lat="42.45174863146651" lon="11.737005479435341"><ele>194.0</ele><time>2026-04-11T10:10:57Z</time></trkpt><trkpt lat="42.45159100998095" lon="11.736902678820018"><ele>195.0</ele><time>2026-04-11T10:10:58Z</time></trkpt><trkpt lat="42.45141297681028" lon="11.736772134962697"><ele>196.0</ele><time>2026-04-11T10:10:59Z</time></trkpt><trkpt lat="42.45124593548975" lon="11.736672717611834"><ele>197.0</ele><time>2026-04-11T10:11:00Z</time></trkpt><trkpt lat="42.45109233731462" lon="11.736566638323811"><ele>197.0</ele><time>2026-04-11T10:11:01Z</time></trkpt><trkpt lat="42.45093806304505" lon="11.73645378479636"><ele>197.0</ele><time>2026-04-11T10:11:02Z</time></trkpt><trkpt lat="42.45077722009812" lon="11.736348882056708"><ele>197.0</ele><time>2026-04-11T10:11:03Z</time></trkpt><trkpt lat="42.450614355698384" lon="11.73624569249376"><ele>197.0</ele><time>2026-04-11T10:11:04Z</time></trkpt><trkpt lat="42.45046003161377" lon="11.736144006245071"><ele>197.0</ele><time>2026-04-11T10:11:05Z</time></trkpt><trkpt lat="42.4503212441914" lon="11.736049470929505"><ele>197.0</ele><time>2026-04-11T10:11:06Z</time></trkpt><trkpt lat="42.45016379545028" lon="11.73594925537385"><ele>167.0</ele><time>2026-04-11T10:11:07Z</time></trkpt><trkpt lat="42.44219667546183" lon="11.73124504010067"><ele>166.5</ele><time>2026-04-11T10:12:08Z</time></trkpt><trkpt lat="42.442057648709614" lon="11.73119461997317"><ele>166.0</ele><time>2026-04-11T10:12:09Z</time></trkpt><trkpt lat="42.44191652779294" lon="11.731129600261118"><ele>165.5</ele><time>2026-04-11T10:12:10Z</time></trkpt><trkpt lat="42.44177806431682" lon="11.731044152017079"><ele>165.0</ele><time>2026-04-11T10:12:11Z</time></trkpt><trkpt lat="42.44161463450442" lon="11.730923612499954"><ele>165.0</ele><time>2026-04-11T10:12:12Z</time></trkpt><trkpt lat="42.44147621838707" lon="11.730805359889377"><ele>165.0</ele><time>2026-04-11T10:12:13Z</time></trkpt><trkpt lat="42.4413415233586" lon="11.730716413252884"><ele>165.0</ele><time>2026-04-11T10:12:14Z</time></trkpt><trkpt lat="42.44119907248004" lon="11.730636176411448"><ele>164.5</ele><time>2026-04-11T10:12:15Z</time></trkpt><trkpt lat="42.441061941359074" lon="11.730540020083465"><ele>164.0</ele><time>2026-04-11T10:12:16Z</time></trkpt><trkpt lat="42.44094315609652" lon="11.730453422449596"><ele>163.5</ele><time>2026-04-11T10:12:17Z</time></trkpt><trkpt lat="42.44081245838882" lon="11.730351888509421"><ele>163.0</ele><time>2026-04-11T10:12:18Z</time></trkpt><trkpt lat="42.440678350527854" lon="11.730236285657675"><ele>162.66666666666669</ele><time>2026-04-11T10:12:19Z</time></trkpt><trkpt lat="42.4405424507406" lon="11.730126029751082"><ele>162.33333333333334</ele><time>2026-04-11T10:12:20Z</time></trkpt><trkpt lat="42.440409031432615" lon="11.729998179398425"><ele>162.0</ele><time>2026-04-11T10:12:21Z</time></trkpt><trkpt lat="42.440288487045926" lon="11.729863696408396"><ele>161.25</ele><time>2026-04-11T10:12:22Z</time></trkpt><trkpt lat="42.44017134634604" lon="11.729735972900604"><ele>160.5</ele><time>2026-04-11T10:12:23Z</time></trkpt><trkpt lat="42.44007082234728" lon="11.72960537084079"><ele>159.75</ele><time>2026-04-11T10:12:24Z</time></trkpt><trkpt lat="42.439960556338875" lon="11.72948436531178"><ele>159.0</ele><time>2026-04-11T10:12:25Z</time></trkpt><trkpt lat="42.43987341791832" lon="11.729366071513635"><ele>158.75</ele><time>2026-04-11T10:12:26Z</time></trkpt><trkpt lat="42.43977054135838" lon="11.729263464984887"><ele>158.5</ele><time>2026-04-11T10:12:27Z</time></trkpt><trkpt lat="42.43967369687589" lon="11.729164549713099"><ele>158.25</ele><time>2026-04-11T10:12:28Z</time></trkpt><trkpt lat="42.439561564953536" lon="11.729070334345728"><ele>158.0</ele><time>2026-04-11T10:12:29Z</time></trkpt><trkpt lat="42.43941257262919" lon="11.729007961050494"><ele>157.5</ele><time>2026-04-11T10:12:30Z</time></trkpt><trkpt lat="42.4392761923419" lon="11.728934824509668"><ele>157.0</ele><time>2026-04-11T10:12:31Z</time></trkpt><trkpt lat="42.439152269675006" lon="11.72884721550479"><ele>156.5</ele><time>2026-04-11T10:12:32Z</time></trkpt><trkpt lat="42.43903511046167" lon="11.728766623740766"><ele>156.0</ele><time>2026-04-11T10:12:33Z</time></trkpt><trkpt lat="42.43891048497524" lon="11.728673537220965"><ele>155.25</ele><time>2026-04-11T10:12:34Z</time></trkpt><trkpt lat="42.43878017613512" lon="11.728558892582543"><ele>154.5</ele><time>2026-04-11T10:12:35Z</time></trkpt><trkpt lat="42.43867076663217" lon="11.72846604176135"><ele>153.75</ele><time>2026-04-11T10:12:36Z</time></trkpt><trkpt lat="42.43855439354106" lon="11.728353118003087"><ele>153.0</ele><time>2026-04-11T10:12:37Z</time></trkpt><trkpt lat="42.438430488883604" lon="11.728242359814837"><ele>153.0</ele><time>2026-04-11T10:12:38Z</time></trkpt><trkpt lat="42.43831184451858" lon="11.72814482907867"><ele>153.0</ele><time>2026-04-11T10:12:39Z</time></trkpt><trkpt lat="42.43819445756675" lon="11.728041303560925"><ele>153.0</ele><time>2026-04-11T10:12:40Z</time></trkpt><trkpt lat="42.438075143333464" lon="11.727942095407878"><ele>153.0</ele><time>2026-04-11T10:12:41Z</time></trkpt><trkpt lat="42.43795804002017" lon="11.727825572459919"><ele>151.5</ele><time>2026-04-11T10:12:42Z</time></trkpt><trkpt lat="42.437842496705876" lon="11.727760038632898"><ele>150.0</ele><time>2026-04-11T10:12:43Z</time></trkpt><trkpt lat="42.43771931645207" lon="11.727666312967136"><ele>148.5</ele><time>2026-04-11T10:12:44Z</time></trkpt><trkpt lat="42.43760104267513" lon="11.727580482707015"><ele>147.0</ele><time>2026-04-11T10:12:45Z</time></trkpt><trkpt lat="42.43748731275149" lon="11.727489855520266"><ele>147.0</ele><time>2026-04-11T10:12:46Z</time></trkpt><trkpt lat="42.43736521898806" lon="11.727375372973343"><ele>147.0</ele><time>2026-04-11T10:12:47Z</time></trkpt><trkpt lat="42.437229194432675" lon="11.727238611807325"><ele>147.0</ele><time>2026-04-11T10:12:48Z</time></trkpt><trkpt lat="42.4370873841901" lon="11.727121947922404"><ele>146.0</ele><time>2026-04-11T10:12:49Z</time></trkpt><trkpt lat="42.43697194597552" lon="11.726983014543956"><ele>145.0</ele><time>2026-04-11T10:12:50Z</time></trkpt><trkpt lat="42.43684941367006" lon="11.726891343939362"><ele>144.0</ele><time>2026-04-11T10:12:51Z</time></trkpt><trkpt lat="42.43671566497144" lon="11.726770184960131"><ele>143.25</ele><time>2026-04-11T10:12:52Z</time></trkpt><trkpt lat="42.43659742959613" lon="11.726650124568785"><ele>142.5</ele><time>2026-04-11T10:12:53Z</time></trkpt><trkpt lat="42.43649178199116" lon="11.72653418667151"><ele>141.75</ele><time>2026-04-11T10:12:54Z</time></trkpt><trkpt lat="42.43637319651413" lon="11.72641060025289"><ele>141.0</ele><time>2026-04-11T10:12:55Z</time></trkpt><trkpt lat="42.43626361822105" lon="11.726278600282592"><ele>140.33333333333334</ele><time>2026-04-11T10:12:56Z</time></trkpt><trkpt lat="42.436159547084316" lon="11.726158682601007"><ele>139.66666666666669</ele><time>2026-04-11T10:12:57Z</time></trkpt><trkpt lat="42.43603218466645" lon="11.726031225723174"><ele>139.0</ele><time>2026-04-11T10:12:58Z</time></trkpt><trkpt lat="42.435897611118804" lon="11.725892584654643"><ele>138.66666666666669</ele><time>2026-04-11T10:12:59Z</time></trkpt><trkpt lat="42.435757379533754" lon="11.725769166469533"><ele>138.33333333333334</ele><time>2026-04-11T10:13:00Z</time></trkpt><trkpt lat="42.435627869986526" lon="11.725659323195014"><ele>138.0</ele><time>2026-04-11T10:13:01Z</time></trkpt><trkpt lat="42.435515332350924" lon="11.72556470319682"><ele>137.8</ele><time>2026-04-11T10:13:02Z</time></trkpt><trkpt lat="42.43542586921199" lon="11.725488493020967"><ele>137.60000000000002</ele><time>2026-04-11T10:13:03Z</time></trkpt><trkpt lat="42.435330359578685" lon="11.725413630653785"><ele>137.39999999999998</ele><time>2026-04-11T10:13:04Z</time></trkpt><trkpt lat="42.435238872112386" lon="11.725335973209436"><ele>137.2</ele><time>2026-04-11T10:13:05Z</time></trkpt><trkpt lat="42.435158573152655" lon="11.72525365100996"><ele>137.0</ele><time>2026-04-11T10:13:06Z</time></trkpt><trkpt lat="42.43506347168835" lon="11.725132843151405"><ele>106.0</ele><time>2026-04-11T10:13:07Z</time></trkpt><trkpt lat="42.43002883834429" lon="11.714567734974052"><ele>106.0</ele><time>2026-04-11T10:14:08Z</time></trkpt><trkpt lat="42.42992032340518" lon="11.714460712130514"><ele>106.0</ele><time>2026-04-11T10:14:09Z</time></trkpt><trkpt lat="42.42981418930447" lon="11.714366554918099"><ele>106.0</ele><time>2026-04-11T10:14:10Z</time></trkpt><trkpt lat="42.42971879438414" lon="11.714286195606796"><ele>106.0</ele><time>2026-04-11T10:14:11Z</time></trkpt><trkpt lat="42.4296262267102" lon="11.714188267618399"><ele>103.66666666666667</ele><time>2026-04-11T10:14:12Z</time></trkpt><trkpt lat="42.42952927090833" lon="11.714064540589655"><ele>101.33333333333334</ele><time>2026-04-11T10:14:13Z</time></trkpt><trkpt lat="42.42942553616927" lon="11.713898922781286"><ele>99.0</ele><time>2026-04-11T10:14:14Z</time></trkpt><trkpt lat="42.42932331318492" lon="11.713704843029634"><ele>98.0</ele><time>2026-04-11T10:14:15Z</time></trkpt><trkpt lat="42.42923600273417" lon="11.713519860897321"><ele>97.0</ele><time>2026-04-11T10:14:16Z</time></trkpt><trkpt lat="42.42915531631296" lon="11.713342410566156"><ele>96.0</ele><time>2026-04-11T10:14:17Z</time></trkpt><trkpt lat="42.42906188563775" lon="11.713169510289728"><ele>96.0</ele><time>2026-04-11T10:14:18Z</time></trkpt><trkpt lat="42.428997365744834" lon="11.713025342429315"><ele>96.0</ele><time>2026-04-11T10:14:19Z</time></trkpt><trkpt lat="42.4288996381565" lon="11.712872896118661"><ele>96.0</ele><time>2026-04-11T10:14:20Z</time></trkpt><trkpt lat="42.42879520350609" lon="11.71273215582095"><ele>96.0</ele><time>2026-04-11T10:14:21Z</time></trkpt><trkpt lat="42.42867743487139" lon="11.712595518377396"><ele>95.33333333333333</ele><time>2026-04-11T10:14:22Z</time></trkpt><trkpt lat="42.42852678511668" lon="11.712462499597574"><ele>94.66666666666666</ele><time>2026-04-11T10:14:23Z</time></trkpt><trkpt lat="42.428354346843015" lon="11.71233192200658"><ele>94.0</ele><time>2026-04-11T10:14:24Z</time></trkpt><trkpt lat="42.42816884271205" lon="11.712189075927954"><ele>93.66666666666666</ele><time>2026-04-11T10:14:25Z</time></trkpt><trkpt lat="42.42795816117565" lon="11.712048271208397"><ele>93.33333333333333</ele><time>2026-04-11T10:14:26Z</time></trkpt><trkpt lat="42.42777715124611" lon="11.711914801968453"><ele>93.0</ele><time>2026-04-11T10:14:27Z</time></trkpt><trkpt lat="42.42760696894638" lon="11.711780700197302"><ele>93.0</ele><time>2026-04-11T10:14:28Z</time></trkpt><trkpt lat="42.42743288775614" lon="11.711671719880464"><ele>93.0</ele><time>2026-04-11T10:14:29Z</time></trkpt><trkpt lat="42.42726963499653" lon="11.711572537772247"><ele>93.0</ele><time>2026-04-11T10:14:30Z</time></trkpt><trkpt lat="42.42710668462979" lon="11.711463377145988"><ele>94.0</ele><time>2026-04-11T10:14:31Z</time></trkpt><trkpt lat="42.42695311571966" lon="11.711354453293763"><ele>95.0</ele><time>2026-04-11T10:14:32Z</time></trkpt><trkpt lat="42.426811129986696" lon="11.711241084547297"><ele>96.0</ele><time>2026-04-11T10:14:33Z</time></trkpt><trkpt lat="42.42667214986387" lon="11.711137309879298"><ele>96.33333333333334</ele><time>2026-04-11T10:14:34Z</time></trkpt><trkpt lat="42.426536872310415" lon="11.711051414529601"><ele>96.66666666666667</ele><time>2026-04-11T10:14:35Z</time></trkpt><trkpt lat="42.42640651836563" lon="11.710941343626384"><ele>97.0</ele><time>2026-04-11T10:14:36Z</time></trkpt><trkpt lat="42.426276648352015" lon="11.710824778502264"><ele>97.0</ele><time>2026-04-11T10:14:37Z</time></trkpt><trkpt lat="42.42613548761546" lon="11.710705535097885"><ele>97.0</ele><time>2026-04-11T10:14:38Z</time></trkpt><trkpt lat="42.425997866393324" lon="11.710555532156082"><ele>97.0</ele><time>2026-04-11T10:14:39Z</time></trkpt><trkpt lat="42.42585657958666" lon="11.710410169316457"><ele>97.0</ele><time>2026-04-11T10:14:40Z</time></trkpt><trkpt lat="42.425714302991416" lon="11.710251620068759"><ele>97.0</ele><time>2026-04-11T10:14:41Z</time></trkpt><trkpt lat="42.425565642710815" lon="11.710104267492534"><ele>97.0</ele><time>2026-04-11T10:14:42Z</time></trkpt><trkpt lat="42.425420694814925" lon="11.709953413651057"><ele>97.0</ele><time>2026-04-11T10:14:43Z</time></trkpt><trkpt lat="42.4252871455223" lon="11.709806633129073"><ele>97.0</ele><time>2026-04-11T10:14:44Z</time></trkpt><trkpt lat="42.425156283617305" lon="11.709667718122276"><ele>97.0</ele><time>2026-04-11T10:14:45Z</time></trkpt><trkpt lat="42.42502769534875" lon="11.709532019378422"><ele>97.0</ele><time>2026-04-11T10:14:46Z</time></trkpt><trkpt lat="42.4249036749555" lon="11.709393856836144"><ele>97.0</ele><time>2026-04-11T10:14:47Z</time></trkpt><trkpt lat="42.42478267510733" lon="11.709251381407844"><ele>97.0</ele><time>2026-04-11T10:14:48Z</time></trkpt><trkpt lat="42.4246688032474" lon="11.709110108659456"><ele>98.5</ele><time>2026-04-11T10:14:49Z</time></trkpt><trkpt lat="42.42457257899447" lon="11.709004275373458"><ele>100.0</ele><time>2026-04-11T10:14:50Z</time></trkpt><trkpt lat="42.42446758066424" lon="11.708881593294441"><ele>101.5</ele><time>2026-04-11T10:14:51Z</time></trkpt><trkpt lat="42.42438364047599" lon="11.70877923765817"><ele>103.0</ele><time>2026-04-11T10:14:52Z</time></trkpt><trkpt lat="42.42426203208557" lon="11.70864448333584"><ele>102.0</ele><time>2026-04-11T10:14:53Z</time></trkpt><trkpt lat="42.4241294306817" lon="11.708498483747801"><ele>101.0</ele><time>2026-04-11T10:14:54Z</time></trkpt><trkpt lat="42.42397639097403" lon="11.708379161613625"><ele>100.0</ele><time>2026-04-11T10:14:55Z</time></trkpt><trkpt lat="42.42381701417382" lon="11.708267607712294"><ele>102.0</ele><time>2026-04-11T10:14:56Z</time></trkpt><trkpt lat="42.42366202380883" lon="11.708169566088248"><ele>104.0</ele><time>2026-04-11T10:14:57Z</time></trkpt><trkpt lat="42.42351961151654" lon="11.708083361475277"><ele>106.0</ele><time>2026-04-11T10:14:58Z</time></trkpt><trkpt lat="42.42338808909787" lon="11.708016738123725"><ele>106.0</ele><time>2026-04-11T10:14:59Z</time></trkpt><trkpt lat="42.42327465664183" lon="11.707964764495387"><ele>106.0</ele><time>2026-04-11T10:15:00Z</time></trkpt><trkpt lat="42.42316454002508" lon="11.707905123471162"><ele>106.0</ele><time>2026-04-11T10:15:01Z</time></trkpt><trkpt lat="42.42303564805691" lon="11.707854955343281"><ele>106.0</ele><time>2026-04-11T10:15:02Z</time></trkpt><trkpt lat="42.42290022992916" lon="11.707785624401959"><ele>104.25</ele><time>2026-04-11T10:15:03Z</time></trkpt><trkpt lat="42.42276296171097" lon="11.707740180853465"><ele>102.5</ele><time>2026-04-11T10:15:04Z</time></trkpt><trkpt lat="42.422625659451825" lon="11.707699298284677"><ele>100.75</ele><time>2026-04-11T10:15:05Z</time></trkpt><trkpt lat="42.42248752943069" lon="11.707683915147387"><ele>99.0</ele><time>2026-04-11T10:15:06Z</time></trkpt><trkpt lat="42.42234759561784" lon="11.707679286989757"><ele>80.0</ele><time>2026-04-11T10:15:07Z</time></trkpt><trkpt lat="42.413857400154036" lon="11.701018818182288"><ele>78.33333333333334</ele><time>2026-04-11T10:16:08Z</time></trkpt><trkpt lat="42.41370456876914" lon="11.70088440482625"><ele>76.66666666666667</ele><time>2026-04-11T10:16:09Z</time></trkpt><trkpt lat="42.413570574132166" lon="11.700773856587906"><ele>75.0</ele><time>2026-04-11T10:16:10Z</time></trkpt><trkpt lat="42.4134150225641" lon="11.700656205139238"><ele>75.0</ele><time>2026-04-11T10:16:11Z</time></trkpt><trkpt lat="42.413243573517754" lon="11.70054300327884"><ele>75.0</ele><time>2026-04-11T10:16:12Z</time></trkpt><trkpt lat="42.41305596464507" lon="11.700445026174819"><ele>75.0</ele><time>2026-04-11T10:16:13Z</time></trkpt><trkpt lat="42.41287395370746" lon="11.700363871910803"><ele>74.33333333333333</ele><time>2026-04-11T10:16:14Z</time></trkpt><trkpt lat="42.41270361060481" lon="11.700287730777195"><ele>73.66666666666666</ele><time>2026-04-11T10:16:15Z</time></trkpt><trkpt lat="42.412552372738205" lon="11.700223443574062"><ele>73.0</ele><time>2026-04-11T10:16:16Z</time></trkpt><trkpt lat="42.41240510717987" lon="11.700154196078238"><ele>72.33333333333333</ele><time>2026-04-11T10:16:17Z</time></trkpt><trkpt lat="42.412258948522854" lon="11.700056185333557"><ele>71.66666666666667</ele><time>2026-04-11T10:16:18Z</time></trkpt><trkpt lat="42.412119316507166" lon="11.699970689903726"><ele>71.0</ele><time>2026-04-11T10:16:19Z</time></trkpt><trkpt lat="42.4119798366186" lon="11.699866192897904"><ele>72.33333333333334</ele><time>2026-04-11T10:16:20Z</time></trkpt><trkpt lat="42.411849358752065" lon="11.699751708733551"><ele>73.66666666666667</ele><time>2026-04-11T10:16:21Z</time></trkpt><trkpt lat="42.41170080322106" lon="11.699606462715519"><ele>75.0</ele><time>2026-04-11T10:16:22Z</time></trkpt><trkpt lat="42.41153328703937" lon="11.69944650631091"><ele>75.33333333333333</ele><time>2026-04-11T10:16:23Z</time></trkpt><trkpt lat="42.41136032919696" lon="11.699275237814186"><ele>75.66666666666666</ele><time>2026-04-11T10:16:24Z</time></trkpt><trkpt lat="42.41119522936912" lon="11.699107116081384"><ele>76.0</ele><time>2026-04-11T10:16:25Z</time></trkpt><trkpt lat="42.411028745370665" lon="11.698937274141272"><ele>76.0</ele><time>2026-04-11T10:16:26Z</time></trkpt><trkpt lat="42.41087633813762" lon="11.698781665488069"><ele>76.0</ele><time>2026-04-11T10:16:27Z</time></trkpt><trkpt lat="42.41073040649545" lon="11.698647815264081"><ele>76.0</ele><time>2026-04-11T10:16:28Z</time></trkpt><trkpt lat="42.41060005397234" lon="11.698504270972293"><ele>75.33333333333333</ele><time>2026-04-11T10:16:29Z</time></trkpt><trkpt lat="42.41046263731918" lon="11.698379504179272"><ele>74.66666666666667</ele><time>2026-04-11T10:16:30Z</time></trkpt><trkpt lat="42.410338970618376" lon="11.698268727749975"><ele>74.0</ele><time>2026-04-11T10:16:31Z</time></trkpt><trkpt lat="42.41021682164939" lon="11.698141706302298"><ele>74.0</ele><time>2026-04-11T10:16:32Z</time></trkpt><trkpt lat="42.41009778272912" lon="11.698014999581867"><ele>74.0</ele><time>2026-04-11T10:16:33Z</time></trkpt><trkpt lat="42.40997452790886" lon="11.697882168909029"><ele>74.0</ele><time>2026-04-11T10:16:34Z</time></trkpt><trkpt lat="42.40983246487027" lon="11.697748402138687"><ele>74.66666666666667</ele><time>2026-04-11T10:16:35Z</time></trkpt><trkpt lat="42.409696995944024" lon="11.697623827619925"><ele>75.33333333333333</ele><time>2026-04-11T10:16:36Z</time></trkpt><trkpt lat="42.40957199138372" lon="11.69749215720495"><ele>76.0</ele><time>2026-04-11T10:16:37Z</time></trkpt><trkpt lat="42.409439406666344" lon="11.697347808859629"><ele>76.0</ele><time>2026-04-11T10:16:38Z</time></trkpt><trkpt lat="42.40930043048872" lon="11.697217057129722"><ele>76.0</ele><time>2026-04-11T10:16:39Z</time></trkpt><trkpt lat="42.40916931049223" lon="11.697077736862079"><ele>76.0</ele><time>2026-04-11T10:16:40Z</time></trkpt><trkpt lat="42.40903773452512" lon="11.696935122315082"><ele>74.33333333333333</ele><time>2026-04-11T10:16:41Z</time></trkpt><trkpt lat="42.408901046876046" lon="11.696792925793831"><ele>72.66666666666667</ele><time>2026-04-11T10:16:42Z</time></trkpt><trkpt lat="42.40876456374542" lon="11.69665311086789"><ele>71.0</ele><time>2026-04-11T10:16:43Z</time></trkpt><trkpt lat="42.40863713353255" lon="11.696504908987384"><ele>71.0</ele><time>2026-04-11T10:16:44Z</time></trkpt><trkpt lat="42.408522766660006" lon="11.696378291169173"><ele>71.0</ele><time>2026-04-11T10:16:45Z</time></trkpt><trkpt lat="42.4084019936337" lon="11.69622370048536"><ele>71.0</ele><time>2026-04-11T10:16:46Z</time></trkpt><trkpt lat="42.408274678761266" lon="11.696076238950239"><ele>70.33333333333334</ele><time>2026-04-11T10:16:47Z</time></trkpt><trkpt lat="42.408154129190514" lon="11.69595858667659"><ele>69.66666666666667</ele><time>2026-04-11T10:16:48Z</time></trkpt><trkpt lat="42.408031212316025" lon="11.69583668486101"><ele>69.0</ele><time>2026-04-11T10:16:49Z</time></trkpt><trkpt lat="42.40789686880056" lon="11.695736850987274"><ele>69.0</ele><time>2026-04-11T10:16:50Z</time></trkpt><trkpt lat="42.40774332251988" lon="11.695638289435957"><ele>69.0</ele><time>2026-04-11T10:16:51Z</time></trkpt><trkpt lat="42.40758899551012" lon="11.695561158037265"><ele>69.0</ele><time>2026-04-11T10:16:52Z</time></trkpt><trkpt lat="42.4074237109698" lon="11.695492612437796"><ele>69.0</ele><time>2026-04-11T10:16:53Z</time></trkpt><trkpt lat="42.407245195051004" lon="11.695433708509563"><ele>69.0</ele><time>2026-04-11T10:16:54Z</time></trkpt><trkpt lat="42.40708259611884" lon="11.695396537760798"><ele>69.0</ele><time>2026-04-11T10:16:55Z</time></trkpt><trkpt lat="42.40693847953862" lon="11.695381158955607"><ele>68.33333333333333</ele><time>2026-04-11T10:16:56Z</time></trkpt><trkpt lat="42.406794418796764" lon="11.695345896056098"><ele>67.66666666666666</ele><time>2026-04-11T10:16:57Z</time></trkpt><trkpt lat="42.40664324923888" lon="11.695312692211816"><ele>67.0</ele><time>2026-04-11T10:16:58Z</time></trkpt><trkpt lat="42.40649167942756" lon="11.695268063858663"><ele>67.0</ele><time>2026-04-11T10:16:59Z</time></trkpt><trkpt lat="42.406354945810286" lon="11.695241549142429"><ele>67.0</ele><time>2026-04-11T10:17:00Z</time></trkpt><trkpt lat="42.40621239111658" lon="11.695198279259497"><ele>67.0</ele><time>2026-04-11T10:17:01Z</time></trkpt><trkpt lat="42.40606769435463" lon="11.695149103689479"><ele>67.0</ele><time>2026-04-11T10:17:02Z</time></trkpt><trkpt lat="42.40592938458866" lon="11.695091124095837"><ele>68.0</ele><time>2026-04-11T10:17:03Z</time></trkpt><trkpt lat="42.40578530423349" lon="11.695016542514502"><ele>69.0</ele><time>2026-04-11T10:17:04Z</time></trkpt><trkpt lat="42.405631043692516" lon="11.694921143024288"><ele>70.0</ele><time>2026-04-11T10:17:05Z</time></trkpt><trkpt lat="42.40547382927607" lon="11.69481591166655"><ele>71.5</ele><time>2026-04-11T10:17:06Z</time></trkpt><trkpt lat="42.40528840448216" lon="11.694690468865415"><ele>73.0</ele><time>2026-04-11T10:17:07Z</time></trkpt><trkpt lat="42.399138447106374" lon="11.68486620992208"><ele>73.0</ele><time>2026-04-11T10:18:08Z</time></trkpt><trkpt lat="42.39906342432684" lon="11.684624876390862"><ele>73.0</ele><time>2026-04-11T10:18:09Z</time></trkpt><trkpt lat="42.398980181929865" lon="11.684391221665996"><ele>73.0</ele><time>2026-04-11T10:18:10Z</time></trkpt><trkpt lat="42.398907700609115" lon="11.68416879092671"><ele>73.33333333333333</ele><time>2026-04-11T10:18:11Z</time></trkpt><trkpt lat="42.39883402936525" lon="11.683932356125784"><ele>73.66666666666667</ele><time>2026-04-11T10:18:12Z</time></trkpt><trkpt lat="42.398757741512306" lon="11.683706900458231"><ele>74.0</ele><time>2026-04-11T10:18:13Z</time></trkpt><trkpt lat="42.398686096123704" lon="11.683491829195992"><ele>74.0</ele><time>2026-04-11T10:18:14Z</time></trkpt><trkpt lat="42.39861676733143" lon="11.683279605103985"><ele>74.0</ele><time>2026-04-11T10:18:15Z</time></trkpt><trkpt lat="42.39855133673878" lon="11.683048151467855"><ele>74.0</ele><time>2026-04-11T10:18:16Z</time></trkpt><trkpt lat="42.39848264562087" lon="11.682811767322526"><ele>73.0</ele><time>2026-04-11T10:18:17Z</time></trkpt><trkpt lat="42.39841497683226" lon="11.682588675567928"><ele>72.0</ele><time>2026-04-11T10:18:18Z</time></trkpt><trkpt lat="42.39834334108293" lon="11.682363063771493"><ele>71.0</ele><time>2026-04-11T10:18:19Z</time></trkpt><trkpt lat="42.398277969123555" lon="11.682140345556629"><ele>70.66666666666667</ele><time>2026-04-11T10:18:20Z</time></trkpt><trkpt lat="42.398211460925545" lon="11.681910986133152"><ele>70.33333333333333</ele><time>2026-04-11T10:18:21Z</time></trkpt><trkpt lat="42.398130931173746" lon="11.681685870027682"><ele>70.0</ele><time>2026-04-11T10:18:22Z</time></trkpt><trkpt lat="42.39805760707107" lon="11.68144437277258"><ele>69.66666666666666</ele><time>2026-04-11T10:18:23Z</time></trkpt><trkpt lat="42.39797855477556" lon="11.681185980041237"><ele>69.33333333333333</ele><time>2026-04-11T10:18:24Z</time></trkpt><trkpt lat="42.397904707306424" lon="11.68094145075472"><ele>69.0</ele><time>2026-04-11T10:18:25Z</time></trkpt><trkpt lat="42.39782766910766" lon="11.68069693408401"><ele>69.0</ele><time>2026-04-11T10:18:26Z</time></trkpt><trkpt lat="42.39775150990845" lon="11.680461204552389"><ele>69.0</ele><time>2026-04-11T10:18:27Z</time></trkpt><trkpt lat="42.39766965001548" lon="11.680223057432201"><ele>69.0</ele><time>2026-04-11T10:18:28Z</time></trkpt><trkpt lat="42.39761184655779" lon="11.679987331874262"><ele>69.0</ele><time>2026-04-11T10:18:29Z</time></trkpt><trkpt lat="42.39753409287709" lon="11.679756741746155"><ele>69.0</ele><time>2026-04-11T10:18:30Z</time></trkpt><trkpt lat="42.397460702411905" lon="11.679539785625336"><ele>69.0</ele><time>2026-04-11T10:18:31Z</time></trkpt><trkpt lat="42.397389739059605" lon="11.679313538538294"><ele>69.33333333333333</ele><time>2026-04-11T10:18:32Z</time></trkpt><trkpt lat="42.397321598269194" lon="11.679075317912616"><ele>69.66666666666666</ele><time>2026-04-11T10:18:33Z</time></trkpt><trkpt lat="42.397261243254256" lon="11.678846852357971"><ele>70.0</ele><time>2026-04-11T10:18:34Z</time></trkpt><trkpt lat="42.39718770798918" lon="11.67861408660248"><ele>69.33333333333333</ele><time>2026-04-11T10:18:35Z</time></trkpt><trkpt lat="42.39711614258841" lon="11.678382785013046"><ele>68.66666666666667</ele><time>2026-04-11T10:18:36Z</time></trkpt><trkpt lat="42.39703912346784" lon="11.678149470599724"><ele>68.0</ele><time>2026-04-11T10:18:37Z</time></trkpt><trkpt lat="42.396976810711934" lon="11.677912179572164"><ele>67.66666666666667</ele><time>2026-04-11T10:18:38Z</time></trkpt><trkpt lat="42.396914794311655" lon="11.677678982933072"><ele>67.33333333333333</ele><time>2026-04-11T10:18:39Z</time></trkpt><trkpt lat="42.396843823604286" lon="11.677467884411076"><ele>67.0</ele><time>2026-04-11T10:18:40Z</time></trkpt><trkpt lat="42.39677176848109" lon="11.677240996995815"><ele>67.0</ele><time>2026-04-11T10:18:41Z</time></trkpt><trkpt lat="42.39671197240693" lon="11.677032102673197"><ele>67.0</ele><time>2026-04-11T10:18:42Z</time></trkpt><trkpt lat="42.39664409967362" lon="11.676828904132929"><ele>67.0</ele><time>2026-04-11T10:18:43Z</time></trkpt><trkpt lat="42.39658043517255" lon="11.676621078136046"><ele>66.75</ele><time>2026-04-11T10:18:44Z</time></trkpt><trkpt lat="42.39651730233689" lon="11.676435160614275"><ele>66.5</ele><time>2026-04-11T10:18:45Z</time></trkpt><trkpt lat="42.39645885617137" lon="11.67625076296713"><ele>66.25</ele><time>2026-04-11T10:18:46Z</time></trkpt><trkpt lat="42.39640832948351" lon="11.676064146329237"><ele>66.0</ele><time>2026-04-11T10:18:47Z</time></trkpt><trkpt lat="42.396359338801304" lon="11.675884040842737"><ele>66.5</ele><time>2026-04-11T10:18:48Z</time></trkpt><trkpt lat="42.39630331412017" lon="11.675694976131284"><ele>67.0</ele><time>2026-04-11T10:18:49Z</time></trkpt><trkpt lat="42.3962490463942" lon="11.67551148568068"><ele>67.5</ele><time>2026-04-11T10:18:50Z</time></trkpt><trkpt lat="42.39619333761958" lon="11.675335763845064"><ele>68.0</ele><time>2026-04-11T10:18:51Z</time></trkpt><trkpt lat="42.39614076651185" lon="11.67514323993612"><ele>68.0</ele><time>2026-04-11T10:18:52Z</time></trkpt><trkpt lat="42.39608452448776" lon="11.674974106458812"><ele>68.0</ele><time>2026-04-11T10:18:53Z</time></trkpt><trkpt lat="42.39602643367749" lon="11.674783368368622"><ele>68.0</ele><time>2026-04-11T10:18:54Z</time></trkpt><trkpt lat="42.39596474662244" lon="11.674587848230512"><ele>68.0</ele><time>2026-04-11T10:18:55Z</time></trkpt><trkpt lat="42.39588923290673" lon="11.674384066048557"><ele>68.0</ele><time>2026-04-11T10:18:56Z</time></trkpt><trkpt lat="42.39579773454467" lon="11.674188628716713"><ele>68.0</ele><time>2026-04-11T10:18:57Z</time></trkpt><trkpt lat="42.395702445318406" lon="11.673975792042421"><ele>68.0</ele><time>2026-04-11T10:18:58Z</time></trkpt><trkpt lat="42.39558932298235" lon="11.67377897932445"><ele>68.33333333333334</ele><time>2026-04-11T10:18:59Z</time></trkpt><trkpt lat="42.39548551265103" lon="11.673586391213371"><ele>68.66666666666667</ele><time>2026-04-11T10:19:00Z</time></trkpt><trkpt lat="42.3953746868287" lon="11.673414604475745"><ele>69.0</ele><time>2026-04-11T10:19:01Z</time></trkpt><trkpt lat="42.39525980463447" lon="11.673227065008438"><ele>69.0</ele><time>2026-04-11T10:19:02Z</time></trkpt><trkpt lat="42.3951583362662" lon="11.673070741664038"><ele>69.0</ele><time>2026-04-11T10:19:03Z</time></trkpt><trkpt lat="42.395057711525546" lon="11.672912582054774"><ele>69.0</ele><time>2026-04-11T10:19:04Z</time></trkpt><trkpt lat="42.39496357108425" lon="11.672764372539026"><ele>68.0</ele><time>2026-04-11T10:19:05Z</time></trkpt><trkpt lat="42.394861816298594" lon="11.672600098295387"><ele>67.0</ele><time>2026-04-11T10:19:06Z</time></trkpt><trkpt lat="42.39474853782606" lon="11.67242531570583"><ele>66.0</ele><time>2026-04-11T10:19:07Z</time></trkpt><trkpt lat="42.38582822545967" lon="11.661909708348164"><ele>64.33333333333333</ele><time>2026-04-11T10:20:08Z</time></trkpt><trkpt lat="42.38565868694578" lon="11.66176289464687"><ele>62.666666666666664</ele><time>2026-04-11T10:20:09Z</time></trkpt><trkpt lat="42.385482419015496" lon="11.661638585243395"><ele>61.0</ele><time>2026-04-11T10:20:10Z</time></trkpt><trkpt lat="42.38532108901865" lon="11.661504647921731"><ele>61.0</ele><time>2026-04-11T10:20:11Z</time></trkpt><trkpt lat="42.38515342343826" lon="11.661402684403889"><ele>61.0</ele><time>2026-04-11T10:20:12Z</time></trkpt><trkpt lat="42.38498555168581" lon="11.661260935402701"><ele>61.0</ele><time>2026-04-11T10:20:13Z</time></trkpt><trkpt lat="42.384805389470706" lon="11.661114062078967"><ele>61.33333333333333</ele><time>2026-04-11T10:20:14Z</time></trkpt><trkpt lat="42.38462654833576" lon="11.660973097041834"><ele>61.66666666666667</ele><time>2026-04-11T10:20:15Z</time></trkpt><trkpt lat="42.38444619345517" lon="11.660824648367933"><ele>62.0</ele><time>2026-04-11T10:20:16Z</time></trkpt><trkpt lat="42.38428488400258" lon="11.660700051678136"><ele>62.0</ele><time>2026-04-11T10:20:17Z</time></trkpt><trkpt lat="42.38412171894317" lon="11.660557163000014"><ele>62.0</ele><time>2026-04-11T10:20:18Z</time></trkpt><trkpt lat="42.38394815734178" lon="11.660412167589094"><ele>62.0</ele><time>2026-04-11T10:20:19Z</time></trkpt><trkpt lat="42.38377391680229" lon="11.660283829923918"><ele>61.333333333333336</ele><time>2026-04-11T10:20:20Z</time></trkpt><trkpt lat="42.38360043983547" lon="11.660152293912638"><ele>60.66666666666667</ele><time>2026-04-11T10:20:21Z</time></trkpt><trkpt lat="42.383418265733965" lon="11.66002269389906"><ele>60.0</ele><time>2026-04-11T10:20:22Z</time></trkpt><trkpt lat="42.38323918915201" lon="11.659866738414046"><ele>60.0</ele><time>2026-04-11T10:20:23Z</time></trkpt><trkpt lat="42.38307217864218" lon="11.659706673923512"><ele>60.0</ele><time>2026-04-11T10:20:24Z</time></trkpt><trkpt lat="42.382901257337444" lon="11.659579848341892"><ele>60.0</ele><time>2026-04-11T10:20:25Z</time></trkpt><trkpt lat="42.382737024333935" lon="11.659440749613717"><ele>59.0</ele><time>2026-04-11T10:20:26Z</time></trkpt><trkpt lat="42.38256229359408" lon="11.659297360563688"><ele>58.0</ele><time>2026-04-11T10:20:27Z</time></trkpt><trkpt lat="42.382387613892455" lon="11.659158813240113"><ele>57.0</ele><time>2026-04-11T10:20:28Z</time></trkpt><trkpt lat="42.38222920817179" lon="11.659040627028972"><ele>57.0</ele><time>2026-04-11T10:20:29Z</time></trkpt><trkpt lat="42.3820520000279" lon="11.658896478825607"><ele>57.0</ele><time>2026-04-11T10:20:30Z</time></trkpt><trkpt lat="42.3818686980268" lon="11.658743093560771"><ele>57.0</ele><time>2026-04-11T10:20:31Z</time></trkpt><trkpt lat="42.38170239546977" lon="11.658601536263651"><ele>57.33333333333333</ele><time>2026-04-11T10:20:32Z</time></trkpt><trkpt lat="42.381542096942816" lon="11.65848581143861"><ele>57.666666666666664</ele><time>2026-04-11T10:20:33Z</time></trkpt><trkpt lat="42.38138728303068" lon="11.658363083862447"><ele>58.0</ele><time>2026-04-11T10:20:34Z</time></trkpt><trkpt lat="42.38123546305175" lon="11.658235257455305"><ele>57.33333333333333</ele><time>2026-04-11T10:20:35Z</time></trkpt><trkpt lat="42.38109619472019" lon="11.658129515977603"><ele>56.66666666666667</ele><time>2026-04-11T10:20:36Z</time></trkpt><trkpt lat="42.3809364752593" lon="11.65798941134944"><ele>56.0</ele><time>2026-04-11T10:20:37Z</time></trkpt><trkpt lat="42.380779616177506" lon="11.657866702888123"><ele>56.0</ele><time>2026-04-11T10:20:38Z</time></trkpt><trkpt lat="42.38063316433038" lon="11.657752166719446"><ele>56.0</ele><time>2026-04-11T10:20:39Z</time></trkpt><trkpt lat="42.38048981785246" lon="11.657637143180738"><ele>56.0</ele><time>2026-04-11T10:20:40Z</time></trkpt><trkpt lat="42.38034297723901" lon="11.657535536654304"><ele>56.333333333333336</ele><time>2026-04-11T10:20:41Z</time></trkpt><trkpt lat="42.38018879778621" lon="11.657433069131104"><ele>56.66666666666667</ele><time>2026-04-11T10:20:42Z</time></trkpt><trkpt lat="42.38002799894552" lon="11.657333655908834"><ele>57.0</ele><time>2026-04-11T10:20:43Z</time></trkpt><trkpt lat="42.3798710466537" lon="11.657245074534831"><ele>57.0</ele><time>2026-04-11T10:20:44Z</time></trkpt><trkpt lat="42.379714068141006" lon="11.657147669201438"><ele>57.0</ele><time>2026-04-11T10:20:45Z</time></trkpt><trkpt lat="42.37954670725784" lon="11.657063788649928"><ele>57.0</ele><time>2026-04-11T10:20:46Z</time></trkpt><trkpt lat="42.37937399648401" lon="11.65697747520257"><ele>57.66666666666667</ele><time>2026-04-11T10:20:47Z</time></trkpt><trkpt lat="42.379210834337265" lon="11.656897440010107"><ele>58.333333333333336</ele><time>2026-04-11T10:20:48Z</time></trkpt><trkpt lat="42.3790508495326" lon="11.656828732864954"><ele>59.0</ele><time>2026-04-11T10:20:49Z</time></trkpt><trkpt lat="42.37888552720911" lon="11.65675748683725"><ele>57.66666666666667</ele><time>2026-04-11T10:20:50Z</time></trkpt><trkpt lat="42.37872742422728" lon="11.656677701777825"><ele>56.33333333333333</ele><time>2026-04-11T10:20:51Z</time></trkpt><trkpt lat="42.378573233492894" lon="11.65660926306071"><ele>55.0</ele><time>2026-04-11T10:20:52Z</time></trkpt><trkpt lat="42.37841926168197" lon="11.656545410397902"><ele>55.0</ele><time>2026-04-11T10:20:53Z</time></trkpt><trkpt lat="42.378264886848264" lon="11.656472196583536"><ele>55.0</ele><time>2026-04-11T10:20:54Z</time></trkpt><trkpt lat="42.37810163995163" lon="11.65638970314776"><ele>55.0</ele><time>2026-04-11T10:20:55Z</time></trkpt><trkpt lat="42.377931084506855" lon="11.656300279810232"><ele>54.0</ele><time>2026-04-11T10:20:56Z</time></trkpt><trkpt lat="42.37776173696697" lon="11.656228955440842"><ele>53.0</ele><time>2026-04-11T10:20:57Z</time></trkpt><trkpt lat="42.377597466699" lon="11.656167459914295"><ele>52.0</ele><time>2026-04-11T10:20:58Z</time></trkpt><trkpt lat="42.37743791749263" lon="11.656094224942091"><ele>52.0</ele><time>2026-04-11T10:20:59Z</time></trkpt><trkpt lat="42.37728496832059" lon="11.656025806380919"><ele>52.0</ele><time>2026-04-11T10:21:00Z</time></trkpt><trkpt lat="42.377137496311306" lon="11.655982312617338"><ele>52.0</ele><time>2026-04-11T10:21:01Z</time></trkpt><trkpt lat="42.376977042504514" lon="11.655903358767455"><ele>51.666666666666664</ele><time>2026-04-11T10:21:02Z</time></trkpt><trkpt lat="42.37681084249766" lon="11.655803018540258"><ele>51.33333333333333</ele><time>2026-04-11T10:21:03Z</time></trkpt><trkpt lat="42.376640041591386" lon="11.655674608790841"><ele>51.0</ele><time>2026-04-11T10:21:04Z</time></trkpt><trkpt lat="42.3764937351059" lon="11.655548617216857"><ele>51.0</ele><time>2026-04-11T10:21:05Z</time></trkpt><trkpt lat="42.37634533104718" lon="11.655415605225315"><ele>51.0</ele><time>2026-04-11T10:21:06Z</time></trkpt><trkpt lat="42.376208096012725" lon="11.655278382451447"><ele>51.0</ele><time>2026-04-11T10:21:07Z</time></trkpt><trkpt lat="42.3667541139643" lon="11.646272559427928"><ele>44.666666666666664</ele><time>2026-04-11T10:22:08Z</time></trkpt><trkpt lat="42.36656759886365" lon="11.646153015398074"><ele>38.33333333333333</ele><time>2026-04-11T10:22:09Z</time></trkpt><trkpt lat="42.36638750002829" lon="11.646053602302088"><ele>32.0</ele><time>2026-04-11T10:22:10Z</time></trkpt><trkpt lat="42.36622107070277" lon="11.645936184828308"><ele>32.0</ele><time>2026-04-11T10:22:11Z</time></trkpt><trkpt lat="42.36606512889508" lon="11.645840670424597"><ele>32.0</ele><time>2026-04-11T10:22:12Z</time></trkpt><trkpt lat="42.365898664567325" lon="11.645736741833701"><ele>32.0</ele><time>2026-04-11T10:22:13Z</time></trkpt><trkpt lat="42.36573351701877" lon="11.645647511424562"><ele>32.0</ele><time>2026-04-11T10:22:14Z</time></trkpt><trkpt lat="42.365571042029565" lon="11.645565628831813"><ele>32.0</ele><time>2026-04-11T10:22:15Z</time></trkpt><trkpt lat="42.36539187338224" lon="11.645488627112435"><ele>32.0</ele><time>2026-04-11T10:22:16Z</time></trkpt><trkpt lat="42.36521246716514" lon="11.64543162019696"><ele>32.33333333333333</ele><time>2026-04-11T10:22:17Z</time></trkpt><trkpt lat="42.36503512462495" lon="11.645384272710311"><ele>32.666666666666664</ele><time>2026-04-11T10:22:18Z</time></trkpt><trkpt lat="42.36486116999775" lon="11.645346033680623"><ele>33.0</ele><time>2026-04-11T10:22:19Z</time></trkpt><trkpt lat="42.36467880774585" lon="11.645316153450539"><ele>35.333333333333336</ele><time>2026-04-11T10:22:20Z</time></trkpt><trkpt lat="42.364490526713084" lon="11.645308962454314"><ele>37.66666666666667</ele><time>2026-04-11T10:22:21Z</time></trkpt><trkpt lat="42.364297758631835" lon="11.645317120008283"><ele>40.0</ele><time>2026-04-11T10:22:22Z</time></trkpt><trkpt lat="42.3640977767791" lon="11.645335246558194"><ele>40.0</ele><time>2026-04-11T10:22:23Z</time></trkpt><trkpt lat="42.36388682841213" lon="11.64536397657788"><ele>40.0</ele><time>2026-04-11T10:22:24Z</time></trkpt><trkpt lat="42.363686572439384" lon="11.645386110050827"><ele>40.0</ele><time>2026-04-11T10:22:25Z</time></trkpt><trkpt lat="42.36349688110964" lon="11.6454093878541"><ele>41.66666666666667</ele><time>2026-04-11T10:22:26Z</time></trkpt><trkpt lat="42.36331826163562" lon="11.645434915784955"><ele>43.333333333333336</ele><time>2026-04-11T10:22:27Z</time></trkpt><trkpt lat="42.36314695673983" lon="11.64546319243881"><ele>45.0</ele><time>2026-04-11T10:22:28Z</time></trkpt><trkpt lat="42.36299439994021" lon="11.6454895064985"><ele>45.5</ele><time>2026-04-11T10:22:29Z</time></trkpt><trkpt lat="42.362844295818185" lon="11.645515286782388"><ele>46.0</ele><time>2026-04-11T10:22:30Z</time></trkpt><trkpt lat="42.36270061201223" lon="11.645539605099419"><ele>46.5</ele><time>2026-04-11T10:22:31Z</time></trkpt><trkpt lat="42.36256568661487" lon="11.645564855253241"><ele>47.0</ele><time>2026-04-11T10:22:32Z</time></trkpt><trkpt lat="42.36243076905347" lon="11.645600799399956"><ele>47.0</ele><time>2026-04-11T10:22:33Z</time></trkpt><trkpt lat="42.362290259271276" lon="11.645625596038162"><ele>47.0</ele><time>2026-04-11T10:22:34Z</time></trkpt><trkpt lat="42.362146983295915" lon="11.645633639294621"><ele>47.0</ele><time>2026-04-11T10:22:35Z</time></trkpt><trkpt lat="42.36201157146606" lon="11.64563074246528"><ele>47.0</ele><time>2026-04-11T10:22:36Z</time></trkpt><trkpt lat="42.36188195515922" lon="11.645621619527889"><ele>47.0</ele><time>2026-04-11T10:22:37Z</time></trkpt><trkpt lat="42.36174808656714" lon="11.64559567442863"><ele>47.0</ele><time>2026-04-11T10:22:38Z</time></trkpt><trkpt lat="42.361609709079836" lon="11.645542628941225"><ele>47.0</ele><time>2026-04-11T10:22:39Z</time></trkpt><trkpt lat="42.36146638636411" lon="11.645460255944341"><ele>47.0</ele><time>2026-04-11T10:22:40Z</time></trkpt><trkpt lat="42.36134314379012" lon="11.645375043731473"><ele>47.5</ele><time>2026-04-11T10:22:41Z</time></trkpt><trkpt lat="42.36122418988677" lon="11.645282129719188"><ele>48.0</ele><time>2026-04-11T10:22:42Z</time></trkpt><trkpt lat="42.36111812144881" lon="11.645174930059309"><ele>48.5</ele><time>2026-04-11T10:22:43Z</time></trkpt><trkpt lat="42.36102516881501" lon="11.645050098459901"><ele>49.0</ele><time>2026-04-11T10:22:44Z</time></trkpt><trkpt lat="42.36092587023731" lon="11.644910722878505"><ele>49.0</ele><time>2026-04-11T10:22:45Z</time></trkpt><trkpt lat="42.360831563616905" lon="11.64477587945343"><ele>49.0</ele><time>2026-04-11T10:22:46Z</time></trkpt><trkpt lat="42.36074685367198" lon="11.644651631029689"><ele>49.0</ele><time>2026-04-11T10:22:47Z</time></trkpt><trkpt lat="42.36066282630326" lon="11.6445314482104"><ele>49.0</ele><time>2026-04-11T10:22:48Z</time></trkpt><trkpt lat="42.3605829436723" lon="11.644418033973585"><ele>48.800000000000004</ele><time>2026-04-11T10:22:49Z</time></trkpt><trkpt lat="42.360507756972915" lon="11.644320144745215"><ele>48.6</ele><time>2026-04-11T10:22:50Z</time></trkpt><trkpt lat="42.36043991117679" lon="11.644229841663055"><ele>48.4</ele><time>2026-04-11T10:22:51Z</time></trkpt><trkpt lat="42.3603783474744" lon="11.64414066029837"><ele>48.2</ele><time>2026-04-11T10:22:52Z</time></trkpt><trkpt lat="42.36032351963544" lon="11.644068769057087"><ele>48.0</ele><time>2026-04-11T10:22:53Z</time></trkpt><trkpt lat="42.36030864303371" lon="11.643951634961455"><ele>48.0</ele><time>2026-04-11T10:22:54Z</time></trkpt><trkpt lat="42.36028888661913" lon="11.64385480555921"><ele>48.0</ele><time>2026-04-11T10:22:55Z</time></trkpt><trkpt lat="42.360257940581846" lon="11.64377095363788"><ele>48.0</ele><time>2026-04-11T10:22:56Z</time></trkpt><trkpt lat="42.360153452400354" lon="11.643696187680943"><ele>48.0</ele><time>2026-04-11T10:22:58Z</time></trkpt><trkpt lat="42.36008261866349" lon="11.643705405060684"><ele>48.0</ele><time>2026-04-11T10:22:59Z</time></trkpt><trkpt lat="42.360020555014195" lon="11.643754384946556"><ele>48.0</ele><time>2026-04-11T10:23:00Z</time></trkpt><trkpt lat="42.359973377854175" lon="11.643823742110113"><ele>48.0</ele><time>2026-04-11T10:23:01Z</time></trkpt><trkpt lat="42.35994382303772" lon="11.643921789048752"><ele>48.0</ele><time>2026-04-11T10:23:02Z</time></trkpt><trkpt lat="42.359936371554845" lon="11.644031804550076"><ele>48.0</ele><time>2026-04-11T10:23:03Z</time></trkpt><trkpt lat="42.35994160687792" lon="11.644148235177202"><ele>48.0</ele><time>2026-04-11T10:23:04Z</time></trkpt><trkpt lat="42.359930627814315" lon="11.644278515516302"><ele>48.0</ele><time>2026-04-11T10:23:05Z</time></trkpt><trkpt lat="42.359905364248704" lon="11.644430288851947"><ele>47.5</ele><time>2026-04-11T10:23:06Z</time></trkpt><trkpt lat="42.359887045508216" lon="11.644593573101298"><ele>47.0</ele><time>2026-04-11T10:23:07Z</time></trkpt><trkpt lat="42.36168412736093" lon="11.660439966653337"><ele>51.33333333333333</ele><time>2026-04-11T10:24:08Z</time></trkpt><trkpt lat="42.36171963472084" lon="11.660704297050742"><ele>55.666666666666664</ele><time>2026-04-11T10:24:09Z</time></trkpt><trkpt lat="42.36176397520556" lon="11.660968343367538"><ele>60.0</ele><time>2026-04-11T10:24:10Z</time></trkpt><trkpt lat="42.36179565459902" lon="11.661238109053865"><ele>61.0</ele><time>2026-04-11T10:24:11Z</time></trkpt><trkpt lat="42.36182183381648" lon="11.661489843077515"><ele>62.0</ele><time>2026-04-11T10:24:12Z</time></trkpt><trkpt lat="42.3618557108097" lon="11.661749333080616"><ele>63.0</ele><time>2026-04-11T10:24:13Z</time></trkpt><trkpt lat="42.3618904136017" lon="11.662004943040147"><ele>63.0</ele><time>2026-04-11T10:24:14Z</time></trkpt><trkpt lat="42.36192213331773" lon="11.6622681219188"><ele>63.0</ele><time>2026-04-11T10:24:15Z</time></trkpt><trkpt lat="42.3619578325077" lon="11.662521708735921"><ele>63.0</ele><time>2026-04-11T10:24:16Z</time></trkpt><trkpt lat="42.36199785386347" lon="11.662797385196317"><ele>63.0</ele><time>2026-04-11T10:24:17Z</time></trkpt><trkpt lat="42.36203898658508" lon="11.6630725427258"><ele>63.0</ele><time>2026-04-11T10:24:18Z</time></trkpt><trkpt lat="42.36207442534265" lon="11.663335892217308"><ele>63.0</ele><time>2026-04-11T10:24:19Z</time></trkpt><trkpt lat="42.362105478680355" lon="11.663595013143249"><ele>63.0</ele><time>2026-04-11T10:24:20Z</time></trkpt><trkpt lat="42.36214980495627" lon="11.663856414041227"><ele>63.0</ele><time>2026-04-11T10:24:21Z</time></trkpt><trkpt lat="42.362185364849715" lon="11.664117929169787"><ele>63.0</ele><time>2026-04-11T10:24:22Z</time></trkpt><trkpt lat="42.362222372409136" lon="11.664375542911554"><ele>63.33333333333333</ele><time>2026-04-11T10:24:23Z</time></trkpt><trkpt lat="42.36224341584635" lon="11.664634283795339"><ele>63.666666666666664</ele><time>2026-04-11T10:24:24Z</time></trkpt><trkpt lat="42.362276519146036" lon="11.66489177970593"><ele>64.0</ele><time>2026-04-11T10:24:25Z</time></trkpt><trkpt lat="42.362308492003976" lon="11.665140482151573"><ele>64.33333333333333</ele><time>2026-04-11T10:24:26Z</time></trkpt><trkpt lat="42.3623398375121" lon="11.665384305050315"><ele>64.66666666666667</ele><time>2026-04-11T10:24:27Z</time></trkpt><trkpt lat="42.36237224974713" lon="11.66563286894826"><ele>65.0</ele><time>2026-04-11T10:24:28Z</time></trkpt><trkpt lat="42.36240395524311" lon="11.665861424055638"><ele>64.66666666666667</ele><time>2026-04-11T10:24:29Z</time></trkpt><trkpt lat="42.36244076359921" lon="11.666115534560463"><ele>64.33333333333333</ele><time>2026-04-11T10:24:30Z</time></trkpt><trkpt lat="42.36247824266811" lon="11.666361248176086"><ele>64.0</ele><time>2026-04-11T10:24:31Z</time></trkpt><trkpt lat="42.36252048581517" lon="11.666596810168546"><ele>64.0</ele><time>2026-04-11T10:24:32Z</time></trkpt><trkpt lat="42.36256475697239" lon="11.666832735926045"><ele>64.0</ele><time>2026-04-11T10:24:33Z</time></trkpt><trkpt lat="42.36261245156356" lon="11.667069684976157"><ele>64.0</ele><time>2026-04-11T10:24:34Z</time></trkpt><trkpt lat="42.36266143495897" lon="11.66731303672311"><ele>64.33333333333333</ele><time>2026-04-11T10:24:35Z</time></trkpt><trkpt lat="42.36271249608485" lon="11.667565481191016"><ele>64.66666666666667</ele><time>2026-04-11T10:24:36Z</time></trkpt><trkpt lat="42.362763463131614" lon="11.667814810175724"><ele>65.0</ele><time>2026-04-11T10:24:37Z</time></trkpt><trkpt lat="42.36281488407133" lon="11.668066359581273"><ele>65.0</ele><time>2026-04-11T10:24:38Z</time></trkpt><trkpt lat="42.36286456893213" lon="11.668309416183208"><ele>65.0</ele><time>2026-04-11T10:24:39Z</time></trkpt><trkpt lat="42.36291370683029" lon="11.668549797047968"><ele>65.0</ele><time>2026-04-11T10:24:40Z</time></trkpt><trkpt lat="42.362966312936216" lon="11.668809247763996"><ele>65.0</ele><time>2026-04-11T10:24:41Z</time></trkpt><trkpt lat="42.36302175053166" lon="11.669082983226248"><ele>65.0</ele><time>2026-04-11T10:24:42Z</time></trkpt><trkpt lat="42.363072800646535" lon="11.66933505449295"><ele>65.0</ele><time>2026-04-11T10:24:43Z</time></trkpt><trkpt lat="42.363122163813735" lon="11.669578796075998"><ele>65.0</ele><time>2026-04-11T10:24:44Z</time></trkpt><trkpt lat="42.36316943487495" lon="11.669812207410013"><ele>65.0</ele><time>2026-04-11T10:24:45Z</time></trkpt><trkpt lat="42.36321790985088" lon="11.670046956979888"><ele>65.0</ele><time>2026-04-11T10:24:46Z</time></trkpt><trkpt lat="42.363266652851166" lon="11.670282517573014"><ele>65.0</ele><time>2026-04-11T10:24:47Z</time></trkpt><trkpt lat="42.36331287910881" lon="11.670505915608583"><ele>65.0</ele><time>2026-04-11T10:24:48Z</time></trkpt><trkpt lat="42.363359690597726" lon="11.670729816559028"><ele>65.0</ele><time>2026-04-11T10:24:49Z</time></trkpt><trkpt lat="42.36340608405207" lon="11.670949876922359"><ele>64.75</ele><time>2026-04-11T10:24:50Z</time></trkpt><trkpt lat="42.36344771410398" lon="11.671147342775567"><ele>64.5</ele><time>2026-04-11T10:24:51Z</time></trkpt><trkpt lat="42.36348539360722" lon="11.671332617996075"><ele>64.25</ele><time>2026-04-11T10:24:52Z</time></trkpt><trkpt lat="42.3635196647249" lon="11.671511484289756"><ele>64.0</ele><time>2026-04-11T10:24:53Z</time></trkpt><trkpt lat="42.36355155149227" lon="11.67169335014767"><ele>64.0</ele><time>2026-04-11T10:24:54Z</time></trkpt><trkpt lat="42.363570946041214" lon="11.671877974853393"><ele>64.0</ele><time>2026-04-11T10:24:55Z</time></trkpt><trkpt lat="42.36358191324189" lon="11.67209388845814"><ele>64.0</ele><time>2026-04-11T10:24:56Z</time></trkpt><trkpt lat="42.36355771881115" lon="11.67224931525308"><ele>64.0</ele><time>2026-04-11T10:24:57Z</time></trkpt><trkpt lat="42.36350844137897" lon="11.672426970738707"><ele>64.33333333333333</ele><time>2026-04-11T10:24:58Z</time></trkpt><trkpt lat="42.36342796352663" lon="11.672603394172073"><ele>64.66666666666667</ele><time>2026-04-11T10:24:59Z</time></trkpt><trkpt lat="42.363335441344155" lon="11.672791334158035"><ele>65.0</ele><time>2026-04-11T10:25:00Z</time></trkpt><trkpt lat="42.363217299515014" lon="11.672970225128749"><ele>65.0</ele><time>2026-04-11T10:25:01Z</time></trkpt><trkpt lat="42.36308177951777" lon="11.673161666937137"><ele>65.0</ele><time>2026-04-11T10:25:02Z</time></trkpt><trkpt lat="42.362955087610864" lon="11.673369449054631"><ele>65.0</ele><time>2026-04-11T10:25:03Z</time></trkpt><trkpt lat="42.36281873473968" lon="11.673584703570606"><ele>64.66666666666667</ele><time>2026-04-11T10:25:04Z</time></trkpt><trkpt lat="42.36267063954925" lon="11.67379399922745"><ele>64.33333333333333</ele><time>2026-04-11T10:25:05Z</time></trkpt><trkpt lat="42.36251813377165" lon="11.674014634048289"><ele>64.0</ele><time>2026-04-11T10:25:06Z</time></trkpt><trkpt lat="42.362349832829366" lon="11.674251818104471"><ele>63.0</ele><time>2026-04-11T10:25:07Z</time></trkpt><trkpt lat="42.35445882079827" lon="11.684838795530272"><ele>63.0</ele><time>2026-04-11T10:26:08Z</time></trkpt><trkpt lat="42.35440240661866" lon="11.685011141411703"><ele>63.0</ele><time>2026-04-11T10:26:09Z</time></trkpt><trkpt lat="42.35435372948004" lon="11.685195966836593"><ele>63.0</ele><time>2026-04-11T10:26:10Z</time></trkpt><trkpt lat="42.35431130562426" lon="11.685363624968739"><ele>63.0</ele><time>2026-04-11T10:26:11Z</time></trkpt><trkpt lat="42.354270837146366" lon="11.685532210662808"><ele>62.75</ele><time>2026-04-11T10:26:12Z</time></trkpt><trkpt lat="42.354230098005736" lon="11.685691006405971"><ele>62.5</ele><time>2026-04-11T10:26:13Z</time></trkpt><trkpt lat="42.35418122665265" lon="11.68584820377962"><ele>62.25</ele><time>2026-04-11T10:26:14Z</time></trkpt><trkpt lat="42.35412218021681" lon="11.6859892180131"><ele>62.0</ele><time>2026-04-11T10:26:15Z</time></trkpt><trkpt lat="42.35405229516949" lon="11.686136963261697"><ele>61.0</ele><time>2026-04-11T10:26:16Z</time></trkpt><trkpt lat="42.353963801461134" lon="11.686252322975127"><ele>60.0</ele><time>2026-04-11T10:26:17Z</time></trkpt><trkpt lat="42.35383797138081" lon="11.68635234333369"><ele>59.0</ele><time>2026-04-11T10:26:18Z</time></trkpt><trkpt lat="42.353700177640704" lon="11.68645103111852"><ele>58.0</ele><time>2026-04-11T10:26:19Z</time></trkpt><trkpt lat="42.353550407329976" lon="11.686545168657677"><ele>57.0</ele><time>2026-04-11T10:26:20Z</time></trkpt><trkpt lat="42.35338422606929" lon="11.68664894868854"><ele>56.0</ele><time>2026-04-11T10:26:21Z</time></trkpt><trkpt lat="42.35321008584806" lon="11.686749210830294"><ele>55.0</ele><time>2026-04-11T10:26:22Z</time></trkpt><trkpt lat="42.35303518748266" lon="11.686854143669672"><ele>51.666666666666664</ele><time>2026-04-11T10:26:23Z</time></trkpt><trkpt lat="42.352857858547964" lon="11.686962985001557"><ele>48.33333333333333</ele><time>2026-04-11T10:26:24Z</time></trkpt><trkpt lat="42.35268633548131" lon="11.687068517482667"><ele>45.0</ele><time>2026-04-11T10:26:25Z</time></trkpt><trkpt lat="42.35252587308918" lon="11.687164218972345"><ele>45.0</ele><time>2026-04-11T10:26:26Z</time></trkpt><trkpt lat="42.35237883938637" lon="11.687251911424209"><ele>45.0</ele><time>2026-04-11T10:26:27Z</time></trkpt><trkpt lat="42.35222049311145" lon="11.687346350868664"><ele>45.0</ele><time>2026-04-11T10:26:28Z</time></trkpt><trkpt lat="42.35205696893103" lon="11.687444404991519"><ele>43.666666666666664</ele><time>2026-04-11T10:26:29Z</time></trkpt><trkpt lat="42.35191452238562" lon="11.687529945672647"><ele>42.33333333333333</ele><time>2026-04-11T10:26:30Z</time></trkpt><trkpt lat="42.35177613325943" lon="11.687613048297466"><ele>41.0</ele><time>2026-04-11T10:26:31Z</time></trkpt><trkpt lat="42.35162259002862" lon="11.687705228147863"><ele>40.0</ele><time>2026-04-11T10:26:32Z</time></trkpt><trkpt lat="42.3514653757938" lon="11.687799551395772"><ele>39.0</ele><time>2026-04-11T10:26:33Z</time></trkpt><trkpt lat="42.35132447716174" lon="11.687884085834444"><ele>38.0</ele><time>2026-04-11T10:26:34Z</time></trkpt><trkpt lat="42.35117932011711" lon="11.687971175162327"><ele>37.5</ele><time>2026-04-11T10:26:35Z</time></trkpt><trkpt lat="42.35105863745083" lon="11.688043290409317"><ele>37.0</ele><time>2026-04-11T10:26:36Z</time></trkpt><trkpt lat="42.350927660355374" lon="11.688118731168665"><ele>36.5</ele><time>2026-04-11T10:26:37Z</time></trkpt><trkpt lat="42.35079466134727" lon="11.688195336518138"><ele>36.0</ele><time>2026-04-11T10:26:38Z</time></trkpt><trkpt lat="42.35066388176663" lon="11.688268724567475"><ele>35.5</ele><time>2026-04-11T10:26:39Z</time></trkpt><trkpt lat="42.35053209180518" lon="11.68833511937652"><ele>35.0</ele><time>2026-04-11T10:26:40Z</time></trkpt><trkpt lat="42.35039484148336" lon="11.68840092354352"><ele>34.5</ele><time>2026-04-11T10:26:41Z</time></trkpt><trkpt lat="42.35024296841878" lon="11.688404475970879"><ele>34.0</ele><time>2026-04-11T10:26:42Z</time></trkpt><trkpt lat="42.35009539584426" lon="11.688420964341628"><ele>34.0</ele><time>2026-04-11T10:26:43Z</time></trkpt><trkpt lat="42.34995690000834" lon="11.688398796682893"><ele>34.0</ele><time>2026-04-11T10:26:44Z</time></trkpt><trkpt lat="42.34982168599235" lon="11.688363810829376"><ele>34.0</ele><time>2026-04-11T10:26:45Z</time></trkpt><trkpt lat="42.34967392998903" lon="11.688313384402978"><ele>34.0</ele><time>2026-04-11T10:26:46Z</time></trkpt><trkpt lat="42.34951261357753" lon="11.688208356548389"><ele>35.333333333333336</ele><time>2026-04-11T10:26:47Z</time></trkpt><trkpt lat="42.34935718640181" lon="11.68812099245224"><ele>36.666666666666664</ele><time>2026-04-11T10:26:48Z</time></trkpt><trkpt lat="42.34920988746362" lon="11.688040680683192"><ele>38.0</ele><time>2026-04-11T10:26:49Z</time></trkpt><trkpt lat="42.34904002740138" lon="11.687960742017559"><ele>38.0</ele><time>2026-04-11T10:26:50Z</time></trkpt><trkpt lat="42.34888936170206" lon="11.687886778860465"><ele>38.0</ele><time>2026-04-11T10:26:51Z</time></trkpt><trkpt lat="42.34875292085364" lon="11.68782487021528"><ele>38.0</ele><time>2026-04-11T10:26:52Z</time></trkpt><trkpt lat="42.34862895008771" lon="11.68777268082012"><ele>38.0</ele><time>2026-04-11T10:26:53Z</time></trkpt><trkpt lat="42.3485038903474" lon="11.68770837948888"><ele>37.5</ele><time>2026-04-11T10:26:54Z</time></trkpt><trkpt lat="42.348393978728005" lon="11.687657171988553"><ele>37.0</ele><time>2026-04-11T10:26:55Z</time></trkpt><trkpt lat="42.348284505582754" lon="11.687615092849509"><ele>36.5</ele><time>2026-04-11T10:26:56Z</time></trkpt><trkpt lat="42.34817482012214" lon="11.687600157167685"><ele>36.0</ele><time>2026-04-11T10:26:57Z</time></trkpt><trkpt lat="42.34806259687115" lon="11.687596804971584"><ele>36.0</ele><time>2026-04-11T10:26:58Z</time></trkpt><trkpt lat="42.347958537799705" lon="11.687626995025814"><ele>36.0</ele><time>2026-04-11T10:26:59Z</time></trkpt><trkpt lat="42.34785844149142" lon="11.687701913955145"><ele>36.0</ele><time>2026-04-11T10:27:00Z</time></trkpt><trkpt lat="42.34778041213335" lon="11.687790678590064"><ele>36.0</ele><time>2026-04-11T10:27:01Z</time></trkpt><trkpt lat="42.34771865434973" lon="11.687907697169225"><ele>36.0</ele><time>2026-04-11T10:27:02Z</time></trkpt><trkpt lat="42.34766700475095" lon="11.688020247424928"><ele>36.0</ele><time>2026-04-11T10:27:03Z</time></trkpt><trkpt lat="42.34764776544907" lon="11.68815219400306"><ele>36.0</ele><time>2026-04-11T10:27:04Z</time></trkpt><trkpt lat="42.34762208887374" lon="11.688297107643326"><ele>36.0</ele><time>2026-04-11T10:27:05Z</time></trkpt><trkpt lat="42.347658054602306" lon="11.688471513482027"><ele>36.0</ele><time>2026-04-11T10:27:06Z</time></trkpt><trkpt lat="42.34768112868649" lon="11.688662062425484"><ele>82.0</ele><time>2026-04-11T10:27:07Z</time></trkpt><trkpt lat="42.34670253375945" lon="11.702374555281912"><ele>82.0</ele><time>2026-04-11T10:28:08Z</time></trkpt><trkpt lat="42.34664096247154" lon="11.702580725273554"><ele>82.0</ele><time>2026-04-11T10:28:09Z</time></trkpt><trkpt lat="42.346580676687545" lon="11.702812184041326"><ele>82.0</ele><time>2026-04-11T10:28:10Z</time></trkpt><trkpt lat="42.34652283436294" lon="11.7030615734163"><ele>82.66666666666666</ele><time>2026-04-11T10:28:11Z</time></trkpt><trkpt lat="42.34645878074008" lon="11.703335436701476"><ele>83.33333333333333</ele><time>2026-04-11T10:28:12Z</time></trkpt><trkpt lat="42.34639681105749" lon="11.70362650153795"><ele>84.0</ele><time>2026-04-11T10:28:13Z</time></trkpt><trkpt lat="42.34633752554312" lon="11.703902826712259"><ele>82.66666666666667</ele><time>2026-04-11T10:28:14Z</time></trkpt><trkpt lat="42.34626399586037" lon="11.704147316211241"><ele>81.33333333333334</ele><time>2026-04-11T10:28:15Z</time></trkpt><trkpt lat="42.34620022150071" lon="11.704419189375109"><ele>80.0</ele><time>2026-04-11T10:28:16Z</time></trkpt><trkpt lat="42.346134962743996" lon="11.70470091098606"><ele>80.0</ele><time>2026-04-11T10:28:17Z</time></trkpt><trkpt lat="42.34606973909845" lon="11.704982746559136"><ele>80.0</ele><time>2026-04-11T10:28:18Z</time></trkpt><trkpt lat="42.34600177789825" lon="11.705263686992446"><ele>80.0</ele><time>2026-04-11T10:28:19Z</time></trkpt><trkpt lat="42.345938179444424" lon="11.705527774769156"><ele>81.0</ele><time>2026-04-11T10:28:20Z</time></trkpt><trkpt lat="42.345874071696194" lon="11.705795383044341"><ele>82.0</ele><time>2026-04-11T10:28:21Z</time></trkpt><trkpt lat="42.34581223364633" lon="11.706055045168247"><ele>83.0</ele><time>2026-04-11T10:28:22Z</time></trkpt><trkpt lat="42.345751759273945" lon="11.706313156545821"><ele>84.33333333333334</ele><time>2026-04-11T10:28:23Z</time></trkpt><trkpt lat="42.34569103838104" lon="11.70657232010073"><ele>85.66666666666667</ele><time>2026-04-11T10:28:24Z</time></trkpt><trkpt lat="42.345645502872074" lon="11.706826945402089"><ele>87.0</ele><time>2026-04-11T10:28:25Z</time></trkpt><trkpt lat="42.34558772750834" lon="11.707066724567541"><ele>88.0</ele><time>2026-04-11T10:28:26Z</time></trkpt><trkpt lat="42.3455298055255" lon="11.707294695218389"><ele>89.0</ele><time>2026-04-11T10:28:27Z</time></trkpt><trkpt lat="42.345477453031236" lon="11.707527885401756"><ele>90.0</ele><time>2026-04-11T10:28:28Z</time></trkpt><trkpt lat="42.34541898054766" lon="11.707755535773524"><ele>91.33333333333333</ele><time>2026-04-11T10:28:29Z</time></trkpt><trkpt lat="42.34536808083568" lon="11.707987583226402"><ele>92.66666666666666</ele><time>2026-04-11T10:28:30Z</time></trkpt><trkpt lat="42.345316993282474" lon="11.708197899462085"><ele>94.0</ele><time>2026-04-11T10:28:31Z</time></trkpt><trkpt lat="42.34527114288015" lon="11.708406330831483"><ele>94.25</ele><time>2026-04-11T10:28:32Z</time></trkpt><trkpt lat="42.345223282248945" lon="11.70860026337896"><ele>94.5</ele><time>2026-04-11T10:28:33Z</time></trkpt><trkpt lat="42.345174337365236" lon="11.708786586019729"><ele>94.75</ele><time>2026-04-11T10:28:34Z</time></trkpt><trkpt lat="42.34513229105618" lon="11.708952426442941"><ele>95.0</ele><time>2026-04-11T10:28:35Z</time></trkpt><trkpt lat="42.34509907050744" lon="11.709124670231525"><ele>95.0</ele><time>2026-04-11T10:28:36Z</time></trkpt><trkpt lat="42.34506099564166" lon="11.709301475291964"><ele>95.0</ele><time>2026-04-11T10:28:37Z</time></trkpt><trkpt lat="42.34502005314786" lon="11.709491207739445"><ele>95.0</ele><time>2026-04-11T10:28:38Z</time></trkpt><trkpt lat="42.34499019956229" lon="11.70968045855818"><ele>95.0</ele><time>2026-04-11T10:28:39Z</time></trkpt><trkpt lat="42.344965288809604" lon="11.709890577333171"><ele>94.0</ele><time>2026-04-11T10:28:40Z</time></trkpt><trkpt lat="42.344945843476474" lon="11.710116910396984"><ele>93.0</ele><time>2026-04-11T10:28:41Z</time></trkpt><trkpt lat="42.34493815928878" lon="11.710357365211665"><ele>92.0</ele><time>2026-04-11T10:28:42Z</time></trkpt><trkpt lat="42.34493645066451" lon="11.710584380658043"><ele>91.5</ele><time>2026-04-11T10:28:43Z</time></trkpt><trkpt lat="42.34492980770991" lon="11.710791551700988"><ele>91.0</ele><time>2026-04-11T10:28:44Z</time></trkpt><trkpt lat="42.34492638330546" lon="11.710987440310051"><ele>90.5</ele><time>2026-04-11T10:28:45Z</time></trkpt><trkpt lat="42.34492049838539" lon="11.711175944449582"><ele>90.0</ele><time>2026-04-11T10:28:46Z</time></trkpt><trkpt lat="42.34491461009203" lon="11.711362130411368"><ele>90.0</ele><time>2026-04-11T10:28:47Z</time></trkpt><trkpt lat="42.344913051134995" lon="11.711550944204745"><ele>90.0</ele><time>2026-04-11T10:28:48Z</time></trkpt><trkpt lat="42.34491910067456" lon="11.711752592562387"><ele>90.0</ele><time>2026-04-11T10:28:49Z</time></trkpt><trkpt lat="42.344908879308896" lon="11.71196664713131"><ele>90.0</ele><time>2026-04-11T10:28:50Z</time></trkpt><trkpt lat="42.34490842190213" lon="11.712167142581281"><ele>91.0</ele><time>2026-04-11T10:28:51Z</time></trkpt><trkpt lat="42.344921411194015" lon="11.712390579373496"><ele>92.0</ele><time>2026-04-11T10:28:52Z</time></trkpt><trkpt lat="42.34494399025649" lon="11.712629346547576"><ele>93.0</ele><time>2026-04-11T10:28:53Z</time></trkpt><trkpt lat="42.344979262371375" lon="11.712867193596866"><ele>93.66666666666667</ele><time>2026-04-11T10:28:54Z</time></trkpt><trkpt lat="42.34502699579686" lon="11.713104151404444"><ele>94.33333333333334</ele><time>2026-04-11T10:28:55Z</time></trkpt><trkpt lat="42.345078875819986" lon="11.713342698748468"><ele>95.0</ele><time>2026-04-11T10:28:56Z</time></trkpt><trkpt lat="42.34512033693371" lon="11.713571684368768"><ele>94.33333333333334</ele><time>2026-04-11T10:28:57Z</time></trkpt><trkpt lat="42.34517042366969" lon="11.713786832098805"><ele>93.66666666666667</ele><time>2026-04-11T10:28:58Z</time></trkpt><trkpt lat="42.34524655463432" lon="11.713987018022195"><ele>93.0</ele><time>2026-04-11T10:28:59Z</time></trkpt><trkpt lat="42.345344561108035" lon="11.714210833315551"><ele>93.66666666666667</ele><time>2026-04-11T10:29:00Z</time></trkpt><trkpt lat="42.345465403168824" lon="11.714424857948185"><ele>94.33333333333334</ele><time>2026-04-11T10:29:01Z</time></trkpt><trkpt lat="42.345582560098215" lon="11.714666352346459"><ele>95.0</ele><time>2026-04-11T10:29:02Z</time></trkpt><trkpt lat="42.34568236770377" lon="11.71489441737222"><ele>95.0</ele><time>2026-04-11T10:29:03Z</time></trkpt><trkpt lat="42.34578263832162" lon="11.715084814460546"><ele>95.0</ele><time>2026-04-11T10:29:04Z</time></trkpt><trkpt lat="42.34587682394904" lon="11.715296391349677"><ele>95.0</ele><time>2026-04-11T10:29:05Z</time></trkpt><trkpt lat="42.34597605974892" lon="11.715498227449869"><ele>95.0</ele><time>2026-04-11T10:29:06Z</time></trkpt><trkpt lat="42.34606990453861" lon="11.715682677804395"><ele>95.0</ele><time>2026-04-11T10:29:07Z</time></trkpt><trkpt lat="42.34677628039322" lon="11.73023481326427"><ele>105.33333333333334</ele><time>2026-04-11T10:30:07.999Z</time></trkpt><trkpt lat="42.3469011977726" lon="11.730445795137866"><ele>115.66666666666667</ele><time>2026-04-11T10:30:08.999Z</time></trkpt><trkpt lat="42.34703089219812" lon="11.730655520140465"><ele>126.0</ele><time>2026-04-11T10:30:09.999Z</time></trkpt><trkpt lat="42.347165762961964" lon="11.730870761261817"><ele>128.33333333333334</ele><time>2026-04-11T10:30:10.999Z</time></trkpt><trkpt lat="42.34731081811524" lon="11.73104738093853"><ele>130.66666666666669</ele><time>2026-04-11T10:30:11.999Z</time></trkpt><trkpt lat="42.347456422854215" lon="11.731254219791948"><ele>133.0</ele><time>2026-04-11T10:30:12.999Z</time></trkpt><trkpt lat="42.34761170689916" lon="11.731469913464055"><ele>133.0</ele><time>2026-04-11T10:30:14Z</time></trkpt><trkpt lat="42.3477591803031" lon="11.731669968417844"><ele>133.0</ele><time>2026-04-11T10:30:15Z</time></trkpt><trkpt lat="42.34790703202164" lon="11.731853699088077"><ele>133.0</ele><time>2026-04-11T10:30:16Z</time></trkpt><trkpt lat="42.348058842258965" lon="11.73204895400333"><ele>131.66666666666669</ele><time>2026-04-11T10:30:17Z</time></trkpt><trkpt lat="42.34819707798921" lon="11.73223346016618"><ele>130.33333333333334</ele><time>2026-04-11T10:30:18Z</time></trkpt><trkpt lat="42.34833448173681" lon="11.732413852514378"><ele>129.0</ele><time>2026-04-11T10:30:19Z</time></trkpt><trkpt lat="42.34846712980168" lon="11.732595113913693"><ele>128.0</ele><time>2026-04-11T10:30:20Z</time></trkpt><trkpt lat="42.34860031903607" lon="11.732775713362038"><ele>127.0</ele><time>2026-04-11T10:30:21Z</time></trkpt><trkpt lat="42.34873094274075" lon="11.732959833573997"><ele>126.0</ele><time>2026-04-11T10:30:22Z</time></trkpt><trkpt lat="42.3488483511012" lon="11.733136793442403"><ele>128.0</ele><time>2026-04-11T10:30:23Z</time></trkpt><trkpt lat="42.348962573582135" lon="11.73331582946717"><ele>130.0</ele><time>2026-04-11T10:30:24Z</time></trkpt><trkpt lat="42.34905852351494" lon="11.73351057904176"><ele>132.0</ele><time>2026-04-11T10:30:25Z</time></trkpt><trkpt lat="42.349164507062994" lon="11.733697864432976"><ele>132.0</ele><time>2026-04-11T10:30:26Z</time></trkpt><trkpt lat="42.34928609739114" lon="11.73391757684831"><ele>132.0</ele><time>2026-04-11T10:30:27Z</time></trkpt><trkpt lat="42.349424842271645" lon="11.734154871037035"><ele>132.0</ele><time>2026-04-11T10:30:28Z</time></trkpt><trkpt lat="42.34956314320164" lon="11.734426938912181"><ele>133.5</ele><time>2026-04-11T10:30:29Z</time></trkpt><trkpt lat="42.34970143679391" lon="11.734714602403132"><ele>135.0</ele><time>2026-04-11T10:30:30Z</time></trkpt><trkpt lat="42.34982988417104" lon="11.734988942537495"><ele>137.0</ele><time>2026-04-11T10:30:31Z</time></trkpt><trkpt lat="42.34995894634662" lon="11.735258809663822"><ele>139.0</ele><time>2026-04-11T10:30:32Z</time></trkpt><trkpt lat="42.35008610228223" lon="11.735531896118736"><ele>139.0</ele><time>2026-04-11T10:30:33Z</time></trkpt><trkpt lat="42.350201420640225" lon="11.735786004866958"><ele>139.0</ele><time>2026-04-11T10:30:34Z</time></trkpt><trkpt lat="42.35031281210691" lon="11.736028154501858"><ele>139.0</ele><time>2026-04-11T10:30:35Z</time></trkpt><trkpt lat="42.35041942586814" lon="11.73625723549689"><ele>139.33333333333334</ele><time>2026-04-11T10:30:36Z</time></trkpt><trkpt lat="42.35050677199063" lon="11.736497044681357"><ele>139.66666666666666</ele><time>2026-04-11T10:30:37Z</time></trkpt><trkpt lat="42.35060688382626" lon="11.736731322535157"><ele>140.0</ele><time>2026-04-11T10:30:38Z</time></trkpt><trkpt lat="42.35070997124916" lon="11.736946751596681"><ele>142.0</ele><time>2026-04-11T10:30:39Z</time></trkpt><trkpt lat="42.35080487047474" lon="11.737180977671608"><ele>144.0</ele><time>2026-04-11T10:30:40Z</time></trkpt><trkpt lat="42.350885937152874" lon="11.737431619335505"><ele>146.0</ele><time>2026-04-11T10:30:41Z</time></trkpt><trkpt lat="42.35097972758259" lon="11.737679945657558"><ele>147.33333333333331</ele><time>2026-04-11T10:30:42Z</time></trkpt><trkpt lat="42.351081883465" lon="11.737923376569869"><ele>148.66666666666666</ele><time>2026-04-11T10:30:43Z</time></trkpt><trkpt lat="42.35114995431794" lon="11.738183264367734"><ele>150.0</ele><time>2026-04-11T10:30:44Z</time></trkpt><trkpt lat="42.35122787129986" lon="11.73843020381117"><ele>149.0</ele><time>2026-04-11T10:30:45Z</time></trkpt><trkpt lat="42.35131966110812" lon="11.738678996047737"><ele>148.0</ele><time>2026-04-11T10:30:46Z</time></trkpt><trkpt lat="42.35139728119061" lon="11.738944833533589"><ele>147.0</ele><time>2026-04-11T10:30:47Z</time></trkpt><trkpt lat="42.351478262800576" lon="11.739212802958418"><ele>147.33333333333334</ele><time>2026-04-11T10:30:48Z</time></trkpt><trkpt lat="42.35153493795569" lon="11.739477082312852"><ele>147.66666666666669</ele><time>2026-04-11T10:30:49Z</time></trkpt><trkpt lat="42.3515994777088" lon="11.739719973562105"><ele>148.0</ele><time>2026-04-11T10:30:50Z</time></trkpt><trkpt lat="42.35166282647912" lon="11.739958382761884"><ele>148.0</ele><time>2026-04-11T10:30:51Z</time></trkpt><trkpt lat="42.351722656045766" lon="11.740183547380234"><ele>148.0</ele><time>2026-04-11T10:30:52Z</time></trkpt><trkpt lat="42.351784244329586" lon="11.740416099785593"><ele>148.0</ele><time>2026-04-11T10:30:53Z</time></trkpt><trkpt lat="42.35184687483049" lon="11.740650876274099"><ele>148.0</ele><time>2026-04-11T10:30:54Z</time></trkpt><trkpt lat="42.351924074656104" lon="11.740871098940891"><ele>148.0</ele><time>2026-04-11T10:30:55Z</time></trkpt><trkpt lat="42.351972033195565" lon="11.741102419518606"><ele>148.0</ele><time>2026-04-11T10:30:56Z</time></trkpt><trkpt lat="42.35203712258167" lon="11.741329082514918"><ele>148.0</ele><time>2026-04-11T10:30:57Z</time></trkpt><trkpt lat="42.352105792709246" lon="11.741555150530468"><ele>148.0</ele><time>2026-04-11T10:30:58Z</time></trkpt><trkpt lat="42.35218393571196" lon="11.741784861180383"><ele>148.0</ele><time>2026-04-11T10:30:59Z</time></trkpt><trkpt lat="42.35226996571271" lon="11.742008709687571"><ele>148.0</ele><time>2026-04-11T10:31:00Z</time></trkpt><trkpt lat="42.352367784747436" lon="11.742248007349163"><ele>148.0</ele><time>2026-04-11T10:31:01Z</time></trkpt><trkpt lat="42.35248696771584" lon="11.742514526027039"><ele>148.0</ele><time>2026-04-11T10:31:02Z</time></trkpt><trkpt lat="42.352599002350615" lon="11.742749383245789"><ele>148.33333333333334</ele><time>2026-04-11T10:31:03Z</time></trkpt><trkpt lat="42.3527051210517" lon="11.742965584442596"><ele>148.66666666666666</ele><time>2026-04-11T10:31:04Z</time></trkpt><trkpt lat="42.35281011140945" lon="11.743174554478186"><ele>149.0</ele><time>2026-04-11T10:31:05Z</time></trkpt><trkpt lat="42.352910768509105" lon="11.743372171339791"><ele>148.0</ele><time>2026-04-11T10:31:06Z</time></trkpt><trkpt lat="42.3530214209268" lon="11.743551107641911"><ele>147.0</ele><time>2026-04-11T10:31:07Z</time></trkpt><trkpt lat="42.357310970018084" lon="11.750503707213971"><ele>147.0</ele><time>2026-04-11T10:32:08Z</time></trkpt><trkpt lat="42.35730792195844" lon="11.750600815822724"><ele>147.0</ele><time>2026-04-11T10:32:21Z</time></trkpt><trkpt lat="42.35729790245237" lon="11.750695564488073"><ele>147.0</ele><time>2026-04-11T10:32:24Z</time></trkpt><trkpt lat="42.35271585735271" lon="11.74495649654147"><ele>149.75</ele><time>2026-04-11T10:34:07.999Z</time></trkpt><trkpt lat="42.35260527318608" lon="11.745084913913338"><ele>152.5</ele><time>2026-04-11T10:34:08.999Z</time></trkpt><trkpt lat="42.35250464508774" lon="11.745205717371059"><ele>155.25</ele><time>2026-04-11T10:34:09.999Z</time></trkpt><trkpt lat="42.3524136037293" lon="11.745318342157374"><ele>158.0</ele><time>2026-04-11T10:34:10.999Z</time></trkpt><trkpt lat="42.35232716135536" lon="11.745425782850248"><ele>158.0</ele><time>2026-04-11T10:34:11.999Z</time></trkpt><trkpt lat="42.35222666353791" lon="11.745520529710028"><ele>158.0</ele><time>2026-04-11T10:34:12.999Z</time></trkpt><trkpt lat="42.352129115842935" lon="11.745641441365573"><ele>158.0</ele><time>2026-04-11T10:34:13.999Z</time></trkpt><trkpt lat="42.35203062010922" lon="11.745761983086764"><ele>158.0</ele><time>2026-04-11T10:34:14.999Z</time></trkpt><trkpt lat="42.35191977344408" lon="11.745865635787418"><ele>158.5</ele><time>2026-04-11T10:34:15.999Z</time></trkpt><trkpt lat="42.351827774963205" lon="11.745968265549136"><ele>159.0</ele><time>2026-04-11T10:34:16.999Z</time></trkpt><trkpt lat="42.351734948181395" lon="11.746071882100589"><ele>159.5</ele><time>2026-04-11T10:34:17.999Z</time></trkpt><trkpt lat="42.3516415612165" lon="11.746177081687401"><ele>160.0</ele><time>2026-04-11T10:34:18.999Z</time></trkpt><trkpt lat="42.35155972324868" lon="11.746271479413188"><ele>160.0</ele><time>2026-04-11T10:34:19.999Z</time></trkpt><trkpt lat="42.351474534545126" lon="11.746369742214304"><ele>160.0</ele><time>2026-04-11T10:34:20.999Z</time></trkpt><trkpt lat="42.35138180729954" lon="11.746476700444155"><ele>160.0</ele><time>2026-04-11T10:34:21.999Z</time></trkpt><trkpt lat="42.35129133496235" lon="11.746584986288287"><ele>160.0</ele><time>2026-04-11T10:34:22.999Z</time></trkpt><trkpt lat="42.35119670032151" lon="11.746676024520735"><ele>160.25</ele><time>2026-04-11T10:34:23.999Z</time></trkpt><trkpt lat="42.35109433316597" lon="11.746757808803741"><ele>160.5</ele><time>2026-04-11T10:34:24.999Z</time></trkpt><trkpt lat="42.35098064736039" lon="11.746835959589646"><ele>160.75</ele><time>2026-04-11T10:34:26Z</time></trkpt><trkpt lat="42.35086891843057" lon="11.746910455033545"><ele>161.0</ele><time>2026-04-11T10:34:27Z</time></trkpt><trkpt lat="42.35075325691764" lon="11.746982858103308"><ele>161.0</ele><time>2026-04-11T10:34:28Z</time></trkpt><trkpt lat="42.35064874550632" lon="11.747071096384175"><ele>161.0</ele><time>2026-04-11T10:34:29Z</time></trkpt><trkpt lat="42.350542315738345" lon="11.747146875006829"><ele>161.0</ele><time>2026-04-11T10:34:30Z</time></trkpt><trkpt lat="42.350433844138465" lon="11.747222231873915"><ele>161.0</ele><time>2026-04-11T10:34:31Z</time></trkpt><trkpt lat="42.35033159127038" lon="11.747284078655944"><ele>161.0</ele><time>2026-04-11T10:34:32Z</time></trkpt><trkpt lat="42.350228593603426" lon="11.747348091728746"><ele>161.0</ele><time>2026-04-11T10:34:33Z</time></trkpt><trkpt lat="42.35012270569084" lon="11.747399612029401"><ele>161.0</ele><time>2026-04-11T10:34:34Z</time></trkpt><trkpt lat="42.35001787235476" lon="11.747447976249196"><ele>161.0</ele><time>2026-04-11T10:34:35Z</time></trkpt><trkpt lat="42.34990552227524" lon="11.747472100131288"><ele>161.0</ele><time>2026-04-11T10:34:36Z</time></trkpt><trkpt lat="42.34980249257024" lon="11.74750886698045"><ele>161.0</ele><time>2026-04-11T10:34:37Z</time></trkpt><trkpt lat="42.34968755007404" lon="11.747541361846789"><ele>161.0</ele><time>2026-04-11T10:34:38Z</time></trkpt><trkpt lat="42.349570687691504" lon="11.747551492822781"><ele>161.0</ele><time>2026-04-11T10:34:39Z</time></trkpt><trkpt lat="42.349449213012754" lon="11.74755026044337"><ele>162.25</ele><time>2026-04-11T10:34:40Z</time></trkpt><trkpt lat="42.34932981415863" lon="11.74756394319255"><ele>163.5</ele><time>2026-04-11T10:34:41Z</time></trkpt><trkpt lat="42.34920457619082" lon="11.747587409387204"><ele>164.75</ele><time>2026-04-11T10:34:42Z</time></trkpt><trkpt lat="42.34910790349002" lon="11.747592214132776"><ele>166.0</ele><time>2026-04-11T10:34:43Z</time></trkpt><trkpt lat="42.348992997481" lon="11.747624303093922"><ele>166.75</ele><time>2026-04-11T10:34:44Z</time></trkpt><trkpt lat="42.34887081095417" lon="11.747606316493696"><ele>167.5</ele><time>2026-04-11T10:34:45Z</time></trkpt><trkpt lat="42.3487447338387" lon="11.747605235781167"><ele>168.25</ele><time>2026-04-11T10:34:46Z</time></trkpt><trkpt lat="42.348633606590035" lon="11.74761639128574"><ele>169.0</ele><time>2026-04-11T10:34:47Z</time></trkpt><trkpt lat="42.348515379884105" lon="11.747616976825825"><ele>169.0</ele><time>2026-04-11T10:34:48Z</time></trkpt><trkpt lat="42.34840414967533" lon="11.747604429222879"><ele>169.0</ele><time>2026-04-11T10:34:49Z</time></trkpt><trkpt lat="42.34827542299439" lon="11.747585838560871"><ele>169.0</ele><time>2026-04-11T10:34:50Z</time></trkpt><trkpt lat="42.34814246939858" lon="11.74754197058555"><ele>169.0</ele><time>2026-04-11T10:34:51Z</time></trkpt><trkpt lat="42.34801633526023" lon="11.747494247199976"><ele>168.33333333333334</ele><time>2026-04-11T10:34:52Z</time></trkpt><trkpt lat="42.34787658863675" lon="11.747459390640367"><ele>167.66666666666666</ele><time>2026-04-11T10:34:53Z</time></trkpt><trkpt lat="42.34771329741345" lon="11.747405449482029"><ele>167.0</ele><time>2026-04-11T10:34:54Z</time></trkpt><trkpt lat="42.347556473759624" lon="11.747333346585425"><ele>167.0</ele><time>2026-04-11T10:34:55Z</time></trkpt><trkpt lat="42.34743099854389" lon="11.747281478955166"><ele>167.0</ele><time>2026-04-11T10:34:56Z</time></trkpt><trkpt lat="42.347297204421814" lon="11.74722784981935"><ele>167.0</ele><time>2026-04-11T10:34:57Z</time></trkpt><trkpt lat="42.347162056664594" lon="11.74716295696997"><ele>167.0</ele><time>2026-04-11T10:34:58Z</time></trkpt><trkpt lat="42.3470378741201" lon="11.747114450284085"><ele>167.25</ele><time>2026-04-11T10:34:59Z</time></trkpt><trkpt lat="42.34691982172848" lon="11.747057108435506"><ele>167.5</ele><time>2026-04-11T10:35:00Z</time></trkpt><trkpt lat="42.34681075125922" lon="11.747016614617893"><ele>167.75</ele><time>2026-04-11T10:35:01Z</time></trkpt><trkpt lat="42.34668634819474" lon="11.746964656010064"><ele>168.0</ele><time>2026-04-11T10:35:02Z</time></trkpt><trkpt lat="42.34657998151971" lon="11.746922212938886"><ele>168.0</ele><time>2026-04-11T10:35:03Z</time></trkpt><trkpt lat="42.346477666603015" lon="11.746886193333092"><ele>168.0</ele><time>2026-04-11T10:35:04Z</time></trkpt><trkpt lat="42.346395105962856" lon="11.746856962121079"><ele>168.0</ele><time>2026-04-11T10:35:05Z</time></trkpt><trkpt lat="42.3463046778575" lon="11.746812817570277"><ele>168.0</ele><time>2026-04-11T10:35:06Z</time></trkpt><trkpt lat="42.34620744884416" lon="11.746763874042513"><ele>168.0</ele><time>2026-04-11T10:35:07Z</time></trkpt><trkpt lat="42.345732495756266" lon="11.74679654037844"><ele>168.75</ele><time>2026-04-11T10:35:12Z</time></trkpt><trkpt lat="42.34563097071012" lon="11.746864522865742"><ele>169.5</ele><time>2026-04-11T10:35:13Z</time></trkpt><trkpt lat="42.3455240794684" lon="11.746947704119847"><ele>170.25</ele><time>2026-04-11T10:35:14Z</time></trkpt><trkpt lat="42.34540647132326" lon="11.747025877822356"><ele>171.0</ele><time>2026-04-11T10:35:15Z</time></trkpt><trkpt lat="42.34525486433747" lon="11.7470935620157"><ele>171.66666666666666</ele><time>2026-04-11T10:35:16Z</time></trkpt><trkpt lat="42.345098844041786" lon="11.747201375391166"><ele>172.33333333333331</ele><time>2026-04-11T10:35:17Z</time></trkpt><trkpt lat="42.344929101501734" lon="11.747325001033836"><ele>173.0</ele><time>2026-04-11T10:35:18Z</time></trkpt><trkpt lat="42.34477471557127" lon="11.747439573074798"><ele>172.25</ele><time>2026-04-11T10:35:19Z</time></trkpt><trkpt lat="42.3446364590936" lon="11.747543898955227"><ele>171.5</ele><time>2026-04-11T10:35:20Z</time></trkpt><trkpt lat="42.344497745067905" lon="11.747634053697826"><ele>170.75</ele><time>2026-04-11T10:35:21Z</time></trkpt><trkpt lat="42.344381567476525" lon="11.747721309711869"><ele>170.0</ele><time>2026-04-11T10:35:22Z</time></trkpt><trkpt lat="42.344260537477766" lon="11.747806810725104"><ele>170.0</ele><time>2026-04-11T10:35:23Z</time></trkpt><trkpt lat="42.34413671408706" lon="11.747882364861617"><ele>170.0</ele><time>2026-04-11T10:35:24Z</time></trkpt><trkpt lat="42.34401263738703" lon="11.747982312571287"><ele>170.0</ele><time>2026-04-11T10:35:25Z</time></trkpt><trkpt lat="42.34387281907148" lon="11.748051792627896"><ele>170.0</ele><time>2026-04-11T10:35:26Z</time></trkpt><trkpt lat="42.34375608787319" lon="11.748141169117037"><ele>170.0</ele><time>2026-04-11T10:35:27Z</time></trkpt><trkpt lat="42.34364355012731" lon="11.748230372287386"><ele>170.0</ele><time>2026-04-11T10:35:28Z</time></trkpt><trkpt lat="42.34352725765839" lon="11.74831473326417"><ele>170.0</ele><time>2026-04-11T10:35:29Z</time></trkpt><trkpt lat="42.343406841788656" lon="11.74840003667871"><ele>170.0</ele><time>2026-04-11T10:35:30Z</time></trkpt><trkpt lat="42.34328315534705" lon="11.748496044563893"><ele>169.25</ele><time>2026-04-11T10:35:31Z</time></trkpt><trkpt lat="42.34315687405003" lon="11.748582272880702"><ele>168.5</ele><time>2026-04-11T10:35:32Z</time></trkpt><trkpt lat="42.34302746203987" lon="11.748649951156704"><ele>167.75</ele><time>2026-04-11T10:35:33Z</time></trkpt><trkpt lat="42.34290274910179" lon="11.748735720347367"><ele>167.0</ele><time>2026-04-11T10:35:34Z</time></trkpt><trkpt lat="42.342778268803414" lon="11.748821327736334"><ele>167.0</ele><time>2026-04-11T10:35:35Z</time></trkpt><trkpt lat="42.342646992872425" lon="11.748911608753396"><ele>167.0</ele><time>2026-04-11T10:35:36Z</time></trkpt><trkpt lat="42.34252166317958" lon="11.74899780043099"><ele>167.0</ele><time>2026-04-11T10:35:37Z</time></trkpt><trkpt lat="42.34239749740583" lon="11.749083191599093"><ele>167.0</ele><time>2026-04-11T10:35:38Z</time></trkpt><trkpt lat="42.34228645706472" lon="11.749159555911275"><ele>167.0</ele><time>2026-04-11T10:35:39Z</time></trkpt><trkpt lat="42.342170711169224" lon="11.749239153805668"><ele>167.0</ele><time>2026-04-11T10:35:40Z</time></trkpt><trkpt lat="42.34203816146177" lon="11.749330307601456"><ele>167.0</ele><time>2026-04-11T10:35:41Z</time></trkpt><trkpt lat="42.341927747677474" lon="11.749406238628808"><ele>167.0</ele><time>2026-04-11T10:35:42Z</time></trkpt><trkpt lat="42.341820771339655" lon="11.74951718004676"><ele>167.0</ele><time>2026-04-11T10:35:43Z</time></trkpt><trkpt lat="42.341718376899514" lon="11.74958643058538"><ele>167.0</ele><time>2026-04-11T10:35:44Z</time></trkpt><trkpt lat="42.34162280445501" lon="11.74965317591082"><ele>167.0</ele><time>2026-04-11T10:35:45Z</time></trkpt><trkpt lat="42.341533729228885" lon="11.749719946587085"><ele>167.0</ele><time>2026-04-11T10:35:46Z</time></trkpt><trkpt lat="42.34143351644866" lon="11.7498023675162"><ele>167.0</ele><time>2026-04-11T10:35:47Z</time></trkpt><trkpt lat="42.34133814934693" lon="11.749874532289358"><ele>166.25</ele><time>2026-04-11T10:35:48Z</time></trkpt><trkpt lat="42.34124899047635" lon="11.749938729506752"><ele>165.5</ele><time>2026-04-11T10:35:49Z</time></trkpt><trkpt lat="42.34113918854926" lon="11.750021836497032"><ele>164.75</ele><time>2026-04-11T10:35:50Z</time></trkpt><trkpt lat="42.341029185426834" lon="11.750099012153308"><ele>164.0</ele><time>2026-04-11T10:35:51Z</time></trkpt><trkpt lat="42.340921634031304" lon="11.750174184058702"><ele>164.75</ele><time>2026-04-11T10:35:52Z</time></trkpt><trkpt lat="42.340812967880204" lon="11.75025859692547"><ele>165.5</ele><time>2026-04-11T10:35:53Z</time></trkpt><trkpt lat="42.340697803451604" lon="11.750331313015533"><ele>166.25</ele><time>2026-04-11T10:35:54Z</time></trkpt><trkpt lat="42.34057864494681" lon="11.750412151746444"><ele>167.0</ele><time>2026-04-11T10:35:55Z</time></trkpt><trkpt lat="42.34045825742326" lon="11.750478928554957"><ele>167.0</ele><time>2026-04-11T10:35:56Z</time></trkpt><trkpt lat="42.34036193619466" lon="11.750553936183277"><ele>167.0</ele><time>2026-04-11T10:35:57Z</time></trkpt><trkpt lat="42.340257850824386" lon="11.750623191106252"><ele>167.0</ele><time>2026-04-11T10:35:58Z</time></trkpt><trkpt lat="42.34014417936267" lon="11.75067961189037"><ele>167.0</ele><time>2026-04-11T10:35:59Z</time></trkpt><trkpt lat="42.340033344633575" lon="11.750751685734407"><ele>167.0</ele><time>2026-04-11T10:36:00Z</time></trkpt><trkpt lat="42.33992219924051" lon="11.75081849681089"><ele>167.0</ele><time>2026-04-11T10:36:01Z</time></trkpt><trkpt lat="42.33980819143067" lon="11.750887119915593"><ele>167.0</ele><time>2026-04-11T10:36:02Z</time></trkpt><trkpt lat="42.33971063018345" lon="11.750963904920779"><ele>167.0</ele><time>2026-04-11T10:36:03Z</time></trkpt><trkpt lat="42.33960260619745" lon="11.751047961090276"><ele>167.0</ele><time>2026-04-11T10:36:04Z</time></trkpt><trkpt lat="42.339514900185904" lon="11.75114622636294"><ele>167.0</ele><time>2026-04-11T10:36:05Z</time></trkpt><trkpt lat="42.339428217861986" lon="11.75125129148428"><ele>167.0</ele><time>2026-04-11T10:36:06Z</time></trkpt><trkpt lat="42.33934338110191" lon="11.751358035537885"><ele>167.0</ele><time>2026-04-11T10:36:07Z</time></trkpt><trkpt lat="42.33247123738519" lon="11.759897843977994"><ele>167.0</ele><time>2026-04-11T10:37:15Z</time></trkpt><trkpt lat="42.33237851518862" lon="11.760041896713794"><ele>167.0</ele><time>2026-04-11T10:37:16Z</time></trkpt><trkpt lat="42.33228556664638" lon="11.760167430040262"><ele>167.0</ele><time>2026-04-11T10:37:17Z</time></trkpt><trkpt lat="42.33217920639908" lon="11.76025927714831"><ele>167.0</ele><time>2026-04-11T10:37:18Z</time></trkpt><trkpt lat="42.332072134698095" lon="11.760349517573612"><ele>166.0</ele><time>2026-04-11T10:37:19Z</time></trkpt><trkpt lat="42.33196566412689" lon="11.760442420928179"><ele>165.0</ele><time>2026-04-11T10:37:20Z</time></trkpt><trkpt lat="42.33187042274799" lon="11.76053096162452"><ele>164.0</ele><time>2026-04-11T10:37:21Z</time></trkpt><trkpt lat="42.33176498561054" lon="11.760613820533857"><ele>163.0</ele><time>2026-04-11T10:37:22Z</time></trkpt><trkpt lat="42.331647599412726" lon="11.760689184986052"><ele>163.0</ele><time>2026-04-11T10:37:23Z</time></trkpt><trkpt lat="42.33155982205581" lon="11.760798066390436"><ele>163.0</ele><time>2026-04-11T10:37:24Z</time></trkpt><trkpt lat="42.33140318248717" lon="11.760763268602037"><ele>163.0</ele><time>2026-04-11T10:37:25Z</time></trkpt><trkpt lat="42.33116820442628" lon="11.760824629822123"><ele>163.33333333333334</ele><time>2026-04-11T10:37:26Z</time></trkpt><trkpt lat="42.33100794472846" lon="11.760865784193575"><ele>163.66666666666666</ele><time>2026-04-11T10:37:27Z</time></trkpt><trkpt lat="42.3308451303911" lon="11.760907594577013"><ele>164.0</ele><time>2026-04-11T10:37:28Z</time></trkpt><trkpt lat="42.330654548685196" lon="11.760966514893044"><ele>162.5</ele><time>2026-04-11T10:37:29Z</time></trkpt><trkpt lat="42.33051021146089" lon="11.760999203347705"><ele>161.0</ele><time>2026-04-11T10:37:30Z</time></trkpt><trkpt lat="42.330380927740954" lon="11.761033536375049"><ele>159.5</ele><time>2026-04-11T10:37:31Z</time></trkpt><trkpt lat="42.330236419690216" lon="11.761061376869675"><ele>158.0</ele><time>2026-04-11T10:37:32Z</time></trkpt><trkpt lat="42.330095738109" lon="11.76110383740041"><ele>158.0</ele><time>2026-04-11T10:37:33Z</time></trkpt><trkpt lat="42.329960746253" lon="11.761131095627025"><ele>158.0</ele><time>2026-04-11T10:37:34Z</time></trkpt><trkpt lat="42.329830275791046" lon="11.761167751370904"><ele>158.0</ele><time>2026-04-11T10:37:35Z</time></trkpt><trkpt lat="42.32970488084156" lon="11.761206000014626"><ele>158.0</ele><time>2026-04-11T10:37:36Z</time></trkpt><trkpt lat="42.329586819780566" lon="11.761238622950303"><ele>157.20000000000002</ele><time>2026-04-11T10:37:37Z</time></trkpt><trkpt lat="42.32947006154309" lon="11.761269458834674"><ele>156.4</ele><time>2026-04-11T10:37:38Z</time></trkpt><trkpt lat="42.32937846203441" lon="11.761301289613135"><ele>155.60000000000002</ele><time>2026-04-11T10:37:39Z</time></trkpt><trkpt lat="42.329273972620584" lon="11.761318853128412"><ele>154.8</ele><time>2026-04-11T10:37:40Z</time></trkpt><trkpt lat="42.329169290143724" lon="11.761323525593333"><ele>154.0</ele><time>2026-04-11T10:37:41Z</time></trkpt><trkpt lat="42.329065287788985" lon="11.761314544688842"><ele>154.0</ele><time>2026-04-11T10:37:42Z</time></trkpt><trkpt lat="42.32897090057042" lon="11.76128875271795"><ele>154.0</ele><time>2026-04-11T10:37:43Z</time></trkpt><trkpt lat="42.32888138039741" lon="11.761245399085674"><ele>154.0</ele><time>2026-04-11T10:37:44Z</time></trkpt><trkpt lat="42.328778398688534" lon="11.761183388614764"><ele>154.0</ele><time>2026-04-11T10:37:45Z</time></trkpt><trkpt lat="42.32867881460995" lon="11.761109576082392"><ele>154.0</ele><time>2026-04-11T10:37:46Z</time></trkpt><trkpt lat="42.328568367651556" lon="11.761002472743485"><ele>153.5</ele><time>2026-04-11T10:37:47Z</time></trkpt><trkpt lat="42.3284678014657" lon="11.760899317478712"><ele>153.0</ele><time>2026-04-11T10:37:48Z</time></trkpt><trkpt lat="42.32836242149977" lon="11.760777268032493"><ele>152.5</ele><time>2026-04-11T10:37:49Z</time></trkpt><trkpt lat="42.32827544168876" lon="11.760688387244"><ele>152.0</ele><time>2026-04-11T10:37:50Z</time></trkpt><trkpt lat="42.328178238778165" lon="11.760589206371105"><ele>152.0</ele><time>2026-04-11T10:37:51Z</time></trkpt><trkpt lat="42.32806740350509" lon="11.76048544591124"><ele>152.0</ele><time>2026-04-11T10:37:52Z</time></trkpt><trkpt lat="42.32797083494358" lon="11.760366487863518"><ele>152.0</ele><time>2026-04-11T10:37:53Z</time></trkpt><trkpt lat="42.32787410249153" lon="11.760265773867394"><ele>152.0</ele><time>2026-04-11T10:37:54Z</time></trkpt><trkpt lat="42.32777721689063" lon="11.76016490040886"><ele>153.0</ele><time>2026-04-11T10:37:55Z</time></trkpt><trkpt lat="42.32768559840265" lon="11.7600695109166"><ele>154.0</ele><time>2026-04-11T10:37:56Z</time></trkpt><trkpt lat="42.32758599929033" lon="11.75999487098866"><ele>155.0</ele><time>2026-04-11T10:37:57Z</time></trkpt><trkpt lat="42.32749488028381" lon="11.759899673061467"><ele>156.0</ele><time>2026-04-11T10:37:58Z</time></trkpt><trkpt lat="42.32740805861438" lon="11.7597979412275"><ele>156.0</ele><time>2026-04-11T10:37:59Z</time></trkpt><trkpt lat="42.327325465681625" lon="11.759712716493157"><ele>156.0</ele><time>2026-04-11T10:38:00Z</time></trkpt><trkpt lat="42.327231018405705" lon="11.759631548879508"><ele>156.0</ele><time>2026-04-11T10:38:01Z</time></trkpt><trkpt lat="42.327125906605175" lon="11.759555053494967"><ele>156.0</ele><time>2026-04-11T10:38:02Z</time></trkpt><trkpt lat="42.327005687132676" lon="11.759478969886343"><ele>156.0</ele><time>2026-04-11T10:38:03Z</time></trkpt><trkpt lat="42.326883674719404" lon="11.759413276563707"><ele>156.0</ele><time>2026-04-11T10:38:04Z</time></trkpt><trkpt lat="42.326769700606924" lon="11.759362871181215"><ele>156.0</ele><time>2026-04-11T10:38:05Z</time></trkpt><trkpt lat="42.32665481709669" lon="11.759340310674352"><ele>156.0</ele><time>2026-04-11T10:38:06Z</time></trkpt><trkpt lat="42.32654046758958" lon="11.759301824969368"><ele>155.0</ele><time>2026-04-11T10:38:07Z</time></trkpt><trkpt lat="42.31808146861598" lon="11.757507499111494"><ele>156.0</ele><time>2026-04-11T10:39:08Z</time></trkpt><trkpt lat="42.317955544503455" lon="11.75756782054928"><ele>157.0</ele><time>2026-04-11T10:39:09Z</time></trkpt><trkpt lat="42.317793889646765" lon="11.757600196353213"><ele>158.0</ele><time>2026-04-11T10:39:10Z</time></trkpt><trkpt lat="42.31762217573433" lon="11.757620510166095"><ele>158.0</ele><time>2026-04-11T10:39:11Z</time></trkpt><trkpt lat="42.317466228828856" lon="11.757636692297941"><ele>158.0</ele><time>2026-04-11T10:39:12Z</time></trkpt><trkpt lat="42.31732104160946" lon="11.757648684571825"><ele>158.0</ele><time>2026-04-11T10:39:13Z</time></trkpt><trkpt lat="42.317188303293584" lon="11.75766442669066"><ele>158.0</ele><time>2026-04-11T10:39:14Z</time></trkpt><trkpt lat="42.31705503134625" lon="11.757667189525282"><ele>157.75</ele><time>2026-04-11T10:39:15Z</time></trkpt><trkpt lat="42.31692660094625" lon="11.757660333732701"><ele>157.5</ele><time>2026-04-11T10:39:16Z</time></trkpt><trkpt lat="42.31681276849906" lon="11.75764134848426"><ele>157.25</ele><time>2026-04-11T10:39:17Z</time></trkpt><trkpt lat="42.31668748508612" lon="11.757614711545186"><ele>157.0</ele><time>2026-04-11T10:39:18Z</time></trkpt><trkpt lat="42.316560439540034" lon="11.757589008859743"><ele>157.0</ele><time>2026-04-11T10:39:19Z</time></trkpt><trkpt lat="42.31644415655575" lon="11.757560062137946"><ele>157.0</ele><time>2026-04-11T10:39:20Z</time></trkpt><trkpt lat="42.316320789278" lon="11.757533134741754"><ele>157.0</ele><time>2026-04-11T10:39:21Z</time></trkpt><trkpt lat="42.31619049055025" lon="11.757499127606785"><ele>157.0</ele><time>2026-04-11T10:39:22Z</time></trkpt><trkpt lat="42.3160651649286" lon="11.757462916097712"><ele>156.75</ele><time>2026-04-11T10:39:23Z</time></trkpt><trkpt lat="42.3159392581514" lon="11.757415658110135"><ele>156.5</ele><time>2026-04-11T10:39:24Z</time></trkpt><trkpt lat="42.31581077193309" lon="11.757364748347486"><ele>156.25</ele><time>2026-04-11T10:39:25Z</time></trkpt><trkpt lat="42.315698629183295" lon="11.75730878712144"><ele>156.0</ele><time>2026-04-11T10:39:26Z</time></trkpt><trkpt lat="42.31557570093401" lon="11.757245144323544"><ele>156.5</ele><time>2026-04-11T10:39:27Z</time></trkpt><trkpt lat="42.315469154558336" lon="11.757194491029882"><ele>157.0</ele><time>2026-04-11T10:39:28Z</time></trkpt><trkpt lat="42.31535091813668" lon="11.757127363575425"><ele>157.5</ele><time>2026-04-11T10:39:29Z</time></trkpt><trkpt lat="42.31521698026057" lon="11.757050931734803"><ele>158.0</ele><time>2026-04-11T10:39:30Z</time></trkpt><trkpt lat="42.31508431105106" lon="11.756988127910258"><ele>158.0</ele><time>2026-04-11T10:39:31Z</time></trkpt><trkpt lat="42.31498375703693" lon="11.756939370041701"><ele>158.0</ele><time>2026-04-11T10:39:32Z</time></trkpt><trkpt lat="42.314876483251695" lon="11.75687465122495"><ele>158.0</ele><time>2026-04-11T10:39:33Z</time></trkpt><trkpt lat="42.314773490921134" lon="11.756826898535271"><ele>158.0</ele><time>2026-04-11T10:39:34Z</time></trkpt><trkpt lat="42.314656995011475" lon="11.75675408324158"><ele>156.0</ele><time>2026-04-11T10:39:35Z</time></trkpt><trkpt lat="42.314516503677744" lon="11.756642200330731"><ele>154.0</ele><time>2026-04-11T10:39:36Z</time></trkpt><trkpt lat="42.31438568503208" lon="11.756486292777229"><ele>152.0</ele><time>2026-04-11T10:39:37Z</time></trkpt><trkpt lat="42.314247100556734" lon="11.756344849578038"><ele>152.0</ele><time>2026-04-11T10:39:38Z</time></trkpt><trkpt lat="42.31410837822359" lon="11.75619297022437"><ele>152.0</ele><time>2026-04-11T10:39:39Z</time></trkpt><trkpt lat="42.31395466075372" lon="11.756018136321249"><ele>152.0</ele><time>2026-04-11T10:39:40Z</time></trkpt><trkpt lat="42.31384386615297" lon="11.755884414536666"><ele>152.0</ele><time>2026-04-11T10:39:41Z</time></trkpt><trkpt lat="42.313709643841875" lon="11.755735002195658"><ele>152.0</ele><time>2026-04-11T10:39:42Z</time></trkpt><trkpt lat="42.313603215043095" lon="11.755596719519183"><ele>152.0</ele><time>2026-04-11T10:39:43Z</time></trkpt><trkpt lat="42.31350181078035" lon="11.75547742984808"><ele>152.0</ele><time>2026-04-11T10:39:44Z</time></trkpt><trkpt lat="42.31339347507565" lon="11.755349986077208"><ele>152.0</ele><time>2026-04-11T10:39:45Z</time></trkpt><trkpt lat="42.313285433418415" lon="11.755222012690291"><ele>152.0</ele><time>2026-04-11T10:39:46Z</time></trkpt><trkpt lat="42.313170406188476" lon="11.755114073407311"><ele>152.0</ele><time>2026-04-11T10:39:47Z</time></trkpt><trkpt lat="42.313073299883555" lon="11.754971420104534"><ele>150.0</ele><time>2026-04-11T10:39:48Z</time></trkpt><trkpt lat="42.31297601423767" lon="11.754847352392051"><ele>148.0</ele><time>2026-04-11T10:39:49Z</time></trkpt><trkpt lat="42.312880674235906" lon="11.754728421449794"><ele>146.0</ele><time>2026-04-11T10:39:50Z</time></trkpt><trkpt lat="42.312777563238974" lon="11.754601534953338"><ele>144.0</ele><time>2026-04-11T10:39:51Z</time></trkpt><trkpt lat="42.312663119951395" lon="11.754463653630266"><ele>146.0</ele><time>2026-04-11T10:39:52Z</time></trkpt><trkpt lat="42.312555047549594" lon="11.754339045334003"><ele>148.0</ele><time>2026-04-11T10:39:53Z</time></trkpt><trkpt lat="42.31241471484842" lon="11.754207338176162"><ele>150.0</ele><time>2026-04-11T10:39:54Z</time></trkpt><trkpt lat="42.31228503516211" lon="11.754133959747435"><ele>147.0</ele><time>2026-04-11T10:39:55Z</time></trkpt><trkpt lat="42.312159554094016" lon="11.754046288632226"><ele>144.0</ele><time>2026-04-11T10:39:56Z</time></trkpt><trkpt lat="42.31204348495408" lon="11.753961764046142"><ele>141.0</ele><time>2026-04-11T10:39:57Z</time></trkpt><trkpt lat="42.3119223575548" lon="11.753873555387703"><ele>138.0</ele><time>2026-04-11T10:39:58Z</time></trkpt><trkpt lat="42.311800186377994" lon="11.753787318200471"><ele>138.0</ele><time>2026-04-11T10:39:59Z</time></trkpt><trkpt lat="42.31168895493742" lon="11.753711872632863"><ele>138.0</ele><time>2026-04-11T10:40:00Z</time></trkpt><trkpt lat="42.31155304580789" lon="11.753639256035061"><ele>138.0</ele><time>2026-04-11T10:40:01Z</time></trkpt><trkpt lat="42.31142864039915" lon="11.75359535780822"><ele>138.0</ele><time>2026-04-11T10:40:02Z</time></trkpt><trkpt lat="42.31128209426527" lon="11.753566467351193"><ele>137.25</ele><time>2026-04-11T10:40:03Z</time></trkpt><trkpt lat="42.311122501177536" lon="11.753565963165608"><ele>136.5</ele><time>2026-04-11T10:40:04Z</time></trkpt><trkpt lat="42.31099065659981" lon="11.753565122207519"><ele>135.75</ele><time>2026-04-11T10:40:05Z</time></trkpt><trkpt lat="42.31087792215375" lon="11.753568362123334"><ele>135.0</ele><time>2026-04-11T10:40:06Z</time></trkpt><trkpt lat="42.31076705182562" lon="11.753572369783429"><ele>139.0</ele><time>2026-04-11T10:40:07Z</time></trkpt><trkpt lat="42.30216421969133" lon="11.74987794877588"><ele>139.0</ele><time>2026-04-11T10:41:08Z</time></trkpt><trkpt lat="42.30200452658974" lon="11.74989660518727"><ele>139.0</ele><time>2026-04-11T10:41:09Z</time></trkpt><trkpt lat="42.30184164485092" lon="11.749909806807123"><ele>139.0</ele><time>2026-04-11T10:41:10Z</time></trkpt><trkpt lat="42.30168735286798" lon="11.749941850380793"><ele>139.0</ele><time>2026-04-11T10:41:11Z</time></trkpt><trkpt lat="42.301526915140585" lon="11.75001145129156"><ele>139.0</ele><time>2026-04-11T10:41:12Z</time></trkpt><trkpt lat="42.30137399315346" lon="11.750063698817941"><ele>139.0</ele><time>2026-04-11T10:41:13Z</time></trkpt><trkpt lat="42.301221994200375" lon="11.750124202700665"><ele>140.0</ele><time>2026-04-11T10:41:14Z</time></trkpt><trkpt lat="42.30107796031566" lon="11.750164321272916"><ele>141.0</ele><time>2026-04-11T10:41:15Z</time></trkpt><trkpt lat="42.30093432788919" lon="11.750202866066726"><ele>142.0</ele><time>2026-04-11T10:41:16Z</time></trkpt><trkpt lat="42.30080072165642" lon="11.750240044256012"><ele>143.0</ele><time>2026-04-11T10:41:17Z</time></trkpt><trkpt lat="42.30067737989336" lon="11.750290573894121"><ele>142.5</ele><time>2026-04-11T10:41:18Z</time></trkpt><trkpt lat="42.30052768020687" lon="11.750330731388695"><ele>142.0</ele><time>2026-04-11T10:41:19Z</time></trkpt><trkpt lat="42.300387653401074" lon="11.750377622003922"><ele>141.5</ele><time>2026-04-11T10:41:20Z</time></trkpt><trkpt lat="42.30025526523242" lon="11.750429265026169"><ele>141.0</ele><time>2026-04-11T10:41:21Z</time></trkpt><trkpt lat="42.300108084822014" lon="11.750455510045013"><ele>141.0</ele><time>2026-04-11T10:41:22Z</time></trkpt><trkpt lat="42.29996345522833" lon="11.750483867915047"><ele>141.0</ele><time>2026-04-11T10:41:23Z</time></trkpt><trkpt lat="42.299815520866254" lon="11.750522199180587"><ele>141.0</ele><time>2026-04-11T10:41:24Z</time></trkpt><trkpt lat="42.29967989684525" lon="11.750566188993714"><ele>141.0</ele><time>2026-04-11T10:41:25Z</time></trkpt><trkpt lat="42.29952970053422" lon="11.75059151298044"><ele>140.0</ele><time>2026-04-11T10:41:26Z</time></trkpt><trkpt lat="42.29938762966408" lon="11.750625762755647"><ele>139.0</ele><time>2026-04-11T10:41:27Z</time></trkpt><trkpt lat="42.299231673887064" lon="11.75065891101368"><ele>138.0</ele><time>2026-04-11T10:41:28Z</time></trkpt><trkpt lat="42.299078600161494" lon="11.750716386997043"><ele>138.0</ele><time>2026-04-11T10:41:29Z</time></trkpt><trkpt lat="42.298931018993684" lon="11.750769893767355"><ele>138.0</ele><time>2026-04-11T10:41:30Z</time></trkpt><trkpt lat="42.298776955823314" lon="11.750806695557282"><ele>138.0</ele><time>2026-04-11T10:41:31Z</time></trkpt><trkpt lat="42.2986448986528" lon="11.75085597563514"><ele>138.0</ele><time>2026-04-11T10:41:32Z</time></trkpt><trkpt lat="42.298514892605866" lon="11.750896411358182"><ele>136.5</ele><time>2026-04-11T10:41:33Z</time></trkpt><trkpt lat="42.29839240428619" lon="11.750935394795311"><ele>135.0</ele><time>2026-04-11T10:41:34Z</time></trkpt><trkpt lat="42.29827293602561" lon="11.750971039088169"><ele>133.5</ele><time>2026-04-11T10:41:35Z</time></trkpt><trkpt lat="42.2981391333578" lon="11.750995066818648"><ele>132.0</ele><time>2026-04-11T10:41:36Z</time></trkpt><trkpt lat="42.2980113286955" lon="11.751033841981352"><ele>132.5</ele><time>2026-04-11T10:41:37Z</time></trkpt><trkpt lat="42.297879832669686" lon="11.751064863657287"><ele>133.0</ele><time>2026-04-11T10:41:38Z</time></trkpt><trkpt lat="42.29774479022346" lon="11.75109360642922"><ele>133.5</ele><time>2026-04-11T10:41:39Z</time></trkpt><trkpt lat="42.29761313993425" lon="11.751116987518094"><ele>134.0</ele><time>2026-04-11T10:41:40Z</time></trkpt><trkpt lat="42.29746793745722" lon="11.751137319893324"><ele>134.0</ele><time>2026-04-11T10:41:41Z</time></trkpt><trkpt lat="42.297326029127916" lon="11.751153530280826"><ele>134.0</ele><time>2026-04-11T10:41:42Z</time></trkpt><trkpt lat="42.29718068297482" lon="11.751162430627582"><ele>134.0</ele><time>2026-04-11T10:41:43Z</time></trkpt><trkpt lat="42.29703688795361" lon="11.751169636992246"><ele>134.0</ele><time>2026-04-11T10:41:44Z</time></trkpt><trkpt lat="42.29688834310479" lon="11.751178970073324"><ele>134.0</ele><time>2026-04-11T10:41:45Z</time></trkpt><trkpt lat="42.29673555722628" lon="11.751186494762306"><ele>134.0</ele><time>2026-04-11T10:41:46Z</time></trkpt><trkpt lat="42.296584974845516" lon="11.751198658585027"><ele>134.0</ele><time>2026-04-11T10:41:47Z</time></trkpt><trkpt lat="42.29642279428696" lon="11.751186421089201"><ele>132.0</ele><time>2026-04-11T10:41:48Z</time></trkpt><trkpt lat="42.29624879293305" lon="11.751162816768085"><ele>130.0</ele><time>2026-04-11T10:41:49Z</time></trkpt><trkpt lat="42.2960875957849" lon="11.751137908834815"><ele>128.0</ele><time>2026-04-11T10:41:50Z</time></trkpt><trkpt lat="42.29592282854747" lon="11.751108355738904"><ele>128.0</ele><time>2026-04-11T10:41:51Z</time></trkpt><trkpt lat="42.29576956243009" lon="11.751084134852192"><ele>128.0</ele><time>2026-04-11T10:41:52Z</time></trkpt><trkpt lat="42.29560232923649" lon="11.751060122932815"><ele>128.0</ele><time>2026-04-11T10:41:53Z</time></trkpt><trkpt lat="42.295425572621426" lon="11.751029678163254"><ele>127.0</ele><time>2026-04-11T10:41:54Z</time></trkpt><trkpt lat="42.295260544090155" lon="11.751000390484755"><ele>126.0</ele><time>2026-04-11T10:41:55Z</time></trkpt><trkpt lat="42.29509708874093" lon="11.750972926157035"><ele>125.0</ele><time>2026-04-11T10:41:56Z</time></trkpt><trkpt lat="42.2949245352597" lon="11.750954052037043"><ele>125.0</ele><time>2026-04-11T10:41:57Z</time></trkpt><trkpt lat="42.29476037808611" lon="11.750924918807439"><ele>125.0</ele><time>2026-04-11T10:41:58Z</time></trkpt><trkpt lat="42.29459914384457" lon="11.750889097301684"><ele>125.0</ele><time>2026-04-11T10:41:59Z</time></trkpt><trkpt lat="42.294435836543975" lon="11.750856422695993"><ele>125.25</ele><time>2026-04-11T10:42:00Z</time></trkpt><trkpt lat="42.29429290430978" lon="11.750840269476122"><ele>125.5</ele><time>2026-04-11T10:42:01Z</time></trkpt><trkpt lat="42.29414462806594" lon="11.750820544006666"><ele>125.75</ele><time>2026-04-11T10:42:02Z</time></trkpt><trkpt lat="42.29399421371286" lon="11.750838369384995"><ele>126.0</ele><time>2026-04-11T10:42:03Z</time></trkpt><trkpt lat="42.29385115975166" lon="11.750818062990959"><ele>127.0</ele><time>2026-04-11T10:42:04Z</time></trkpt><trkpt lat="42.29371867780716" lon="11.750791813020658"><ele>128.0</ele><time>2026-04-11T10:42:05Z</time></trkpt><trkpt lat="42.293580893634505" lon="11.75076863740785"><ele>129.0</ele><time>2026-04-11T10:42:06Z</time></trkpt><trkpt lat="42.29344085143703" lon="11.750733304162829"><ele>130.0</ele><time>2026-04-11T10:42:07Z</time></trkpt><trkpt lat="42.28580646315723" lon="11.748035382927114"><ele>133.25</ele><time>2026-04-11T10:43:08Z</time></trkpt><trkpt lat="42.28569273686231" lon="11.747961983995799"><ele>136.5</ele><time>2026-04-11T10:43:09Z</time></trkpt><trkpt lat="42.28558755650454" lon="11.747868225458573"><ele>139.75</ele><time>2026-04-11T10:43:10Z</time></trkpt><trkpt lat="42.28545801435451" lon="11.74781032212259"><ele>143.0</ele><time>2026-04-11T10:43:11Z</time></trkpt><trkpt lat="42.285338699359805" lon="11.747714645627944"><ele>142.5</ele><time>2026-04-11T10:43:12Z</time></trkpt><trkpt lat="42.285211495552566" lon="11.74763513306464"><ele>142.0</ele><time>2026-04-11T10:43:13Z</time></trkpt><trkpt lat="42.285094924598276" lon="11.747547413396859"><ele>141.5</ele><time>2026-04-11T10:43:14Z</time></trkpt><trkpt lat="42.28497870952983" lon="11.747495291468798"><ele>141.0</ele><time>2026-04-11T10:43:15Z</time></trkpt><trkpt lat="42.28485313053292" lon="11.747418572074562"><ele>142.25</ele><time>2026-04-11T10:43:16Z</time></trkpt><trkpt lat="42.28473225865365" lon="11.74734303885093"><ele>143.5</ele><time>2026-04-11T10:43:17Z</time></trkpt><trkpt lat="42.28461299909699" lon="11.747267296908197"><ele>144.75</ele><time>2026-04-11T10:43:18Z</time></trkpt><trkpt lat="42.28448728552534" lon="11.747186949572084"><ele>146.0</ele><time>2026-04-11T10:43:19Z</time></trkpt><trkpt lat="42.28436419911281" lon="11.747105591258908"><ele>146.0</ele><time>2026-04-11T10:43:20Z</time></trkpt><trkpt lat="42.2842516084126" lon="11.74703406713799"><ele>146.0</ele><time>2026-04-11T10:43:21Z</time></trkpt><trkpt lat="42.28415388601358" lon="11.746974557668116"><ele>146.0</ele><time>2026-04-11T10:43:22Z</time></trkpt><trkpt lat="42.2840204887133" lon="11.746879931113845"><ele>146.0</ele><time>2026-04-11T10:43:23Z</time></trkpt><trkpt lat="42.283894393281" lon="11.746778750065001"><ele>146.75</ele><time>2026-04-11T10:43:24Z</time></trkpt><trkpt lat="42.28377006557807" lon="11.746736060238641"><ele>147.5</ele><time>2026-04-11T10:43:25Z</time></trkpt><trkpt lat="42.28363551867533" lon="11.74666786400301"><ele>148.25</ele><time>2026-04-11T10:43:26Z</time></trkpt><trkpt lat="42.28348658618668" lon="11.746565133997851"><ele>149.0</ele><time>2026-04-11T10:43:27Z</time></trkpt><trkpt lat="42.28334855096255" lon="11.746477242481077"><ele>149.0</ele><time>2026-04-11T10:43:28Z</time></trkpt><trkpt lat="42.28322880970664" lon="11.746402366841364"><ele>149.0</ele><time>2026-04-11T10:43:29Z</time></trkpt><trkpt lat="42.28309164298661" lon="11.746314588482038"><ele>149.0</ele><time>2026-04-11T10:43:30Z</time></trkpt><trkpt lat="42.28297002758009" lon="11.746236926804041"><ele>149.0</ele><time>2026-04-11T10:43:31Z</time></trkpt><trkpt lat="42.282841862585805" lon="11.746155905645589"><ele>149.75</ele><time>2026-04-11T10:43:32Z</time></trkpt><trkpt lat="42.282718577592" lon="11.746077054246165"><ele>150.5</ele><time>2026-04-11T10:43:33Z</time></trkpt><trkpt lat="42.28258460290653" lon="11.745990181518634"><ele>151.25</ele><time>2026-04-11T10:43:34Z</time></trkpt><trkpt lat="42.282464034264855" lon="11.745923109031795"><ele>152.0</ele><time>2026-04-11T10:43:35Z</time></trkpt><trkpt lat="42.28232751879989" lon="11.745833729342154"><ele>153.25</ele><time>2026-04-11T10:43:36Z</time></trkpt><trkpt lat="42.28220112615271" lon="11.745750893390298"><ele>154.5</ele><time>2026-04-11T10:43:37Z</time></trkpt><trkpt lat="42.28209084239957" lon="11.745662650381366"><ele>155.75</ele><time>2026-04-11T10:43:38Z</time></trkpt><trkpt lat="42.28197356368836" lon="11.74559100622826"><ele>157.0</ele><time>2026-04-11T10:43:39Z</time></trkpt><trkpt lat="42.281851016458006" lon="11.745513150895682"><ele>157.0</ele><time>2026-04-11T10:43:40Z</time></trkpt><trkpt lat="42.281742734524215" lon="11.745437610734303"><ele>157.0</ele><time>2026-04-11T10:43:41Z</time></trkpt><trkpt lat="42.28161796515634" lon="11.745390298392751"><ele>157.0</ele><time>2026-04-11T10:43:42Z</time></trkpt><trkpt lat="42.28150100681114" lon="11.745309867558065"><ele>157.0</ele><time>2026-04-11T10:43:43Z</time></trkpt><trkpt lat="42.28139604365458" lon="11.745248349588344"><ele>159.0</ele><time>2026-04-11T10:43:44Z</time></trkpt><trkpt lat="42.28124432271728" lon="11.74514045751804"><ele>161.0</ele><time>2026-04-11T10:43:45Z</time></trkpt><trkpt lat="42.281113735939016" lon="11.745069371232912"><ele>163.0</ele><time>2026-04-11T10:43:46Z</time></trkpt><trkpt lat="42.28098376167374" lon="11.744987255198062"><ele>163.0</ele><time>2026-04-11T10:43:47Z</time></trkpt><trkpt lat="42.28086073732334" lon="11.744897377377203"><ele>163.0</ele><time>2026-04-11T10:43:48Z</time></trkpt><trkpt lat="42.28071365574186" lon="11.744801661128067"><ele>163.0</ele><time>2026-04-11T10:43:49Z</time></trkpt><trkpt lat="42.28057559530316" lon="11.744712239258996"><ele>163.75</ele><time>2026-04-11T10:43:50Z</time></trkpt><trkpt lat="42.28045106966464" lon="11.744623105289557"><ele>164.5</ele><time>2026-04-11T10:43:51Z</time></trkpt><trkpt lat="42.280336871755686" lon="11.744550932553748"><ele>165.25</ele><time>2026-04-11T10:43:52Z</time></trkpt><trkpt lat="42.28017907037124" lon="11.74446535715492"><ele>166.0</ele><time>2026-04-11T10:43:53Z</time></trkpt><trkpt lat="42.28008308109558" lon="11.744390539170034"><ele>166.0</ele><time>2026-04-11T10:43:54Z</time></trkpt><trkpt lat="42.279940015182" lon="11.744284823791205"><ele>166.0</ele><time>2026-04-11T10:43:55Z</time></trkpt><trkpt lat="42.27981916053245" lon="11.74420052401175"><ele>166.0</ele><time>2026-04-11T10:43:56Z</time></trkpt><trkpt lat="42.27969731747313" lon="11.74410565569924"><ele>166.0</ele><time>2026-04-11T10:43:57Z</time></trkpt><trkpt lat="42.27959467186555" lon="11.744009504429933"><ele>165.66666666666669</ele><time>2026-04-11T10:43:58Z</time></trkpt><trkpt lat="42.27948284034966" lon="11.743898583213968"><ele>165.33333333333334</ele><time>2026-04-11T10:43:59Z</time></trkpt><trkpt lat="42.27936693562085" lon="11.743760563319475"><ele>165.0</ele><time>2026-04-11T10:44:00Z</time></trkpt><trkpt lat="42.27924751903494" lon="11.743623893219603"><ele>165.0</ele><time>2026-04-11T10:44:01Z</time></trkpt><trkpt lat="42.279125865211896" lon="11.743479847268652"><ele>165.0</ele><time>2026-04-11T10:44:02Z</time></trkpt><trkpt lat="42.27900940341623" lon="11.743336758596707"><ele>165.0</ele><time>2026-04-11T10:44:03Z</time></trkpt><trkpt lat="42.27888712381844" lon="11.743189732224149"><ele>165.0</ele><time>2026-04-11T10:44:04Z</time></trkpt><trkpt lat="42.278757822754514" lon="11.743035147072405"><ele>165.0</ele><time>2026-04-11T10:44:05Z</time></trkpt><trkpt lat="42.278625688235195" lon="11.742886027179797"><ele>165.0</ele><time>2026-04-11T10:44:06Z</time></trkpt><trkpt lat="42.278514008688575" lon="11.742730684808926"><ele>125.0</ele><time>2026-04-11T10:44:07Z</time></trkpt><trkpt lat="42.27297523548624" lon="11.734834556356882"><ele>125.0</ele><time>2026-04-11T10:45:08Z</time></trkpt><trkpt lat="42.272879898956994" lon="11.734717666131376"><ele>125.0</ele><time>2026-04-11T10:45:09Z</time></trkpt><trkpt lat="42.27278810636814" lon="11.734594216344908"><ele>125.0</ele><time>2026-04-11T10:45:10Z</time></trkpt><trkpt lat="42.27268787644216" lon="11.73445977455524"><ele>125.0</ele><time>2026-04-11T10:45:11Z</time></trkpt><trkpt lat="42.2726009880023" lon="11.734337641155085"><ele>124.5</ele><time>2026-04-11T10:45:12Z</time></trkpt><trkpt lat="42.27250778936864" lon="11.734221386254811"><ele>124.0</ele><time>2026-04-11T10:45:13Z</time></trkpt><trkpt lat="42.2724245948337" lon="11.734115828121912"><ele>123.5</ele><time>2026-04-11T10:45:14Z</time></trkpt><trkpt lat="42.272340142448556" lon="11.734014952496688"><ele>123.0</ele><time>2026-04-11T10:45:15Z</time></trkpt><trkpt lat="42.272251248350614" lon="11.733908153036705"><ele>122.25</ele><time>2026-04-11T10:45:16Z</time></trkpt><trkpt lat="42.272161798614704" lon="11.733790599789241"><ele>121.5</ele><time>2026-04-11T10:45:17Z</time></trkpt><trkpt lat="42.27207788155703" lon="11.73369108958636"><ele>120.75</ele><time>2026-04-11T10:45:18Z</time></trkpt><trkpt lat="42.27198947088593" lon="11.733573144021603"><ele>120.0</ele><time>2026-04-11T10:45:19Z</time></trkpt><trkpt lat="42.27190038965914" lon="11.733454851972187"><ele>119.0</ele><time>2026-04-11T10:45:20Z</time></trkpt><trkpt lat="42.2718076900718" lon="11.733343007289099"><ele>118.0</ele><time>2026-04-11T10:45:21Z</time></trkpt><trkpt lat="42.27170884249356" lon="11.733205926698876"><ele>117.0</ele><time>2026-04-11T10:45:22Z</time></trkpt><trkpt lat="42.271622647960115" lon="11.733076014502577"><ele>116.0</ele><time>2026-04-11T10:45:23Z</time></trkpt><trkpt lat="42.271522459357556" lon="11.732936592458529"><ele>114.25</ele><time>2026-04-11T10:45:24Z</time></trkpt><trkpt lat="42.27142752663544" lon="11.732807538321255"><ele>112.5</ele><time>2026-04-11T10:45:25Z</time></trkpt><trkpt lat="42.27132730397362" lon="11.732680380924432"><ele>110.75</ele><time>2026-04-11T10:45:26Z</time></trkpt><trkpt lat="42.27122666387883" lon="11.732549894762062"><ele>109.0</ele><time>2026-04-11T10:45:27Z</time></trkpt><trkpt lat="42.271138057952044" lon="11.732413767115258"><ele>108.25</ele><time>2026-04-11T10:45:28Z</time></trkpt><trkpt lat="42.27104560892477" lon="11.732264993545265"><ele>107.5</ele><time>2026-04-11T10:45:29Z</time></trkpt><trkpt lat="42.27096685760974" lon="11.732125428564535"><ele>106.75</ele><time>2026-04-11T10:45:30Z</time></trkpt><trkpt lat="42.270884786030464" lon="11.731972495250133"><ele>106.0</ele><time>2026-04-11T10:45:31Z</time></trkpt><trkpt lat="42.27080200873367" lon="11.73186566075065"><ele>105.5</ele><time>2026-04-11T10:45:32Z</time></trkpt><trkpt lat="42.270729941885435" lon="11.731710665243925"><ele>105.0</ele><time>2026-04-11T10:45:33Z</time></trkpt><trkpt lat="42.27065607840889" lon="11.731532339086744"><ele>104.5</ele><time>2026-04-11T10:45:34Z</time></trkpt><trkpt lat="42.27059760631472" lon="11.731393456795379"><ele>104.0</ele><time>2026-04-11T10:45:35Z</time></trkpt><trkpt lat="42.27052906605751" lon="11.73122266904445"><ele>103.0</ele><time>2026-04-11T10:45:36Z</time></trkpt><trkpt lat="42.27047401920581" lon="11.731079310567624"><ele>102.0</ele><time>2026-04-11T10:45:37Z</time></trkpt><trkpt lat="42.27041208029624" lon="11.730932703577505"><ele>101.0</ele><time>2026-04-11T10:45:38Z</time></trkpt><trkpt lat="42.270357151204955" lon="11.730780793855027"><ele>100.0</ele><time>2026-04-11T10:45:39Z</time></trkpt><trkpt lat="42.27030196954715" lon="11.730634148362316"><ele>99.25</ele><time>2026-04-11T10:45:40Z</time></trkpt><trkpt lat="42.27024620574205" lon="11.73049238437721"><ele>98.5</ele><time>2026-04-11T10:45:41Z</time></trkpt><trkpt lat="42.27018851169927" lon="11.73035483696093"><ele>97.75</ele><time>2026-04-11T10:45:42Z</time></trkpt><trkpt lat="42.27014311404098" lon="11.730229531670119"><ele>97.0</ele><time>2026-04-11T10:45:43Z</time></trkpt><trkpt lat="42.27008869829738" lon="11.730076751649294"><ele>96.19999999999999</ele><time>2026-04-11T10:45:44Z</time></trkpt><trkpt lat="42.270039943575284" lon="11.729955510926347"><ele>95.4</ele><time>2026-04-11T10:45:45Z</time></trkpt><trkpt lat="42.269995870876635" lon="11.72981519207662"><ele>94.6</ele><time>2026-04-11T10:45:46Z</time></trkpt><trkpt lat="42.26995193103814" lon="11.729673944708289"><ele>93.80000000000001</ele><time>2026-04-11T10:45:47Z</time></trkpt><trkpt lat="42.26990301875977" lon="11.729535140162458"><ele>93.0</ele><time>2026-04-11T10:45:48Z</time></trkpt><trkpt lat="42.2698688758364" lon="11.729396816422863"><ele>92.2</ele><time>2026-04-11T10:45:49Z</time></trkpt><trkpt lat="42.26984022822296" lon="11.729257576796552"><ele>91.4</ele><time>2026-04-11T10:45:50Z</time></trkpt><trkpt lat="42.26980330717842" lon="11.729130516025844"><ele>90.60000000000001</ele><time>2026-04-11T10:45:51Z</time></trkpt><trkpt lat="42.26978453398231" lon="11.72899758074927"><ele>89.80000000000001</ele><time>2026-04-11T10:45:52Z</time></trkpt><trkpt lat="42.269757065695266" lon="11.728857159202374"><ele>89.0</ele><time>2026-04-11T10:45:53Z</time></trkpt><trkpt lat="42.269717613174215" lon="11.72872920172"><ele>88.4</ele><time>2026-04-11T10:45:54Z</time></trkpt><trkpt lat="42.269679210903995" lon="11.728587774190276"><ele>87.80000000000001</ele><time>2026-04-11T10:45:55Z</time></trkpt><trkpt lat="42.26962415045664" lon="11.72846952934405"><ele>87.19999999999999</ele><time>2026-04-11T10:45:56Z</time></trkpt><trkpt lat="42.26958256428073" lon="11.728353338273413"><ele>86.6</ele><time>2026-04-11T10:45:57Z</time></trkpt><trkpt lat="42.26953657803775" lon="11.728227282354242"><ele>86.0</ele><time>2026-04-11T10:45:58Z</time></trkpt><trkpt lat="42.26949844433473" lon="11.728124150325264"><ele>85.8</ele><time>2026-04-11T10:45:59Z</time></trkpt><trkpt lat="42.269454051808026" lon="11.728007497126933"><ele>85.6</ele><time>2026-04-11T10:46:00Z</time></trkpt><trkpt lat="42.269408581020116" lon="11.727890699071443"><ele>85.4</ele><time>2026-04-11T10:46:01Z</time></trkpt><trkpt lat="42.26936164544538" lon="11.727772741416429"><ele>85.2</ele><time>2026-04-11T10:46:02Z</time></trkpt><trkpt lat="42.26931560505354" lon="11.727658193428812"><ele>85.0</ele><time>2026-04-11T10:46:03Z</time></trkpt><trkpt lat="42.26926488363591" lon="11.72753896920034"><ele>83.25</ele><time>2026-04-11T10:46:04Z</time></trkpt><trkpt lat="42.269231292347484" lon="11.727423644119602"><ele>81.5</ele><time>2026-04-11T10:46:05Z</time></trkpt><trkpt lat="42.26917998686197" lon="11.727323913150038"><ele>79.75</ele><time>2026-04-11T10:46:06Z</time></trkpt><trkpt lat="42.269116279577446" lon="11.727208057113415"><ele>78.0</ele><time>2026-04-11T10:46:07Z</time></trkpt><trkpt lat="42.26510244061877" lon="11.729710787094056"><ele>73.25</ele><time>2026-04-11T10:47:08Z</time></trkpt><trkpt lat="42.265012771520766" lon="11.729850423514401"><ele>68.5</ele><time>2026-04-11T10:47:09Z</time></trkpt><trkpt lat="42.26491924150242" lon="11.729979417442392"><ele>63.75</ele><time>2026-04-11T10:47:10Z</time></trkpt><trkpt lat="42.264835065088874" lon="11.730090898322059"><ele>59.0</ele><time>2026-04-11T10:47:11Z</time></trkpt><trkpt lat="42.2647640898175" lon="11.730201389251596"><ele>57.25</ele><time>2026-04-11T10:47:12Z</time></trkpt><trkpt lat="42.26468125041049" lon="11.730318435986847"><ele>55.5</ele><time>2026-04-11T10:47:13Z</time></trkpt><trkpt lat="42.26460083973989" lon="11.73044823649596"><ele>53.75</ele><time>2026-04-11T10:47:14Z</time></trkpt><trkpt lat="42.26450939405048" lon="11.730547389108084"><ele>52.0</ele><time>2026-04-11T10:47:15Z</time></trkpt><trkpt lat="42.264392077296186" lon="11.730619029662067"><ele>52.0</ele><time>2026-04-11T10:47:16Z</time></trkpt><trkpt lat="42.26427566128866" lon="11.730680982432872"><ele>52.0</ele><time>2026-04-11T10:47:17Z</time></trkpt><trkpt lat="42.264146537464995" lon="11.730709846582283"><ele>52.0</ele><time>2026-04-11T10:47:18Z</time></trkpt><trkpt lat="42.264010346027796" lon="11.730705192613671"><ele>52.0</ele><time>2026-04-11T10:47:19Z</time></trkpt><trkpt lat="42.26388740224397" lon="11.730689475955367"><ele>51.33333333333333</ele><time>2026-04-11T10:47:20Z</time></trkpt><trkpt lat="42.26375813065816" lon="11.730645760916838"><ele>50.66666666666667</ele><time>2026-04-11T10:47:21Z</time></trkpt><trkpt lat="42.263598216207065" lon="11.730570608013345"><ele>50.0</ele><time>2026-04-11T10:47:22Z</time></trkpt><trkpt lat="42.263449104553494" lon="11.730470184040906"><ele>50.0</ele><time>2026-04-11T10:47:23Z</time></trkpt><trkpt lat="42.26333802555743" lon="11.730405090557197"><ele>50.0</ele><time>2026-04-11T10:47:24Z</time></trkpt><trkpt lat="42.26322244733502" lon="11.730345830877374"><ele>50.0</ele><time>2026-04-11T10:47:25Z</time></trkpt><trkpt lat="42.263106640352156" lon="11.730278158676326"><ele>50.0</ele><time>2026-04-11T10:47:26Z</time></trkpt><trkpt lat="42.26299123140036" lon="11.730224499661933"><ele>49.8</ele><time>2026-04-11T10:47:27Z</time></trkpt><trkpt lat="42.26288075292531" lon="11.730184177999266"><ele>49.6</ele><time>2026-04-11T10:47:28Z</time></trkpt><trkpt lat="42.26278701152021" lon="11.730178581428904"><ele>49.400000000000006</ele><time>2026-04-11T10:47:29Z</time></trkpt><trkpt lat="42.26269086540516" lon="11.73016804337383"><ele>49.2</ele><time>2026-04-11T10:47:30Z</time></trkpt><trkpt lat="42.262592065777675" lon="11.730232296370467"><ele>49.0</ele><time>2026-04-11T10:47:31Z</time></trkpt><trkpt lat="42.26250082427729" lon="11.73031179267216"><ele>49.0</ele><time>2026-04-11T10:47:32Z</time></trkpt><trkpt lat="42.26240547233182" lon="11.730407976857984"><ele>49.0</ele><time>2026-04-11T10:47:33Z</time></trkpt><trkpt lat="42.262308148909135" lon="11.730528900734624"><ele>49.0</ele><time>2026-04-11T10:47:34Z</time></trkpt><trkpt lat="42.26220951352772" lon="11.730676582770565"><ele>49.0</ele><time>2026-04-11T10:47:35Z</time></trkpt><trkpt lat="42.26210804586898" lon="11.730815966936559"><ele>46.25</ele><time>2026-04-11T10:47:36Z</time></trkpt><trkpt lat="42.26202078630278" lon="11.730955240705022"><ele>43.5</ele><time>2026-04-11T10:47:37Z</time></trkpt><trkpt lat="42.261954631591486" lon="11.731106919156607"><ele>40.75</ele><time>2026-04-11T10:47:38Z</time></trkpt><trkpt lat="42.26187679560113" lon="11.731245575961953"><ele>38.0</ele><time>2026-04-11T10:47:39Z</time></trkpt><trkpt lat="42.261806587257624" lon="11.73140471056362"><ele>38.25</ele><time>2026-04-11T10:47:40Z</time></trkpt><trkpt lat="42.26171893635235" lon="11.731540408973558"><ele>38.5</ele><time>2026-04-11T10:47:41Z</time></trkpt><trkpt lat="42.26164235059776" lon="11.731695880228557"><ele>38.75</ele><time>2026-04-11T10:47:42Z</time></trkpt><trkpt lat="42.26158475872555" lon="11.731851453953926"><ele>39.0</ele><time>2026-04-11T10:47:43Z</time></trkpt><trkpt lat="42.26153025223758" lon="11.732003408536617"><ele>39.0</ele><time>2026-04-11T10:47:44Z</time></trkpt><trkpt lat="42.261483443944755" lon="11.732189187309746"><ele>39.0</ele><time>2026-04-11T10:47:45Z</time></trkpt><trkpt lat="42.26146981279469" lon="11.732375505466132"><ele>39.0</ele><time>2026-04-11T10:47:46Z</time></trkpt><trkpt lat="42.261451246085365" lon="11.73258734035271"><ele>39.0</ele><time>2026-04-11T10:47:47Z</time></trkpt><trkpt lat="42.26142014317731" lon="11.7328210299016"><ele>34.5</ele><time>2026-04-11T10:47:48Z</time></trkpt><trkpt lat="42.26141064582221" lon="11.733030542313381"><ele>30.0</ele><time>2026-04-11T10:47:49Z</time></trkpt><trkpt lat="42.26140044461848" lon="11.733243074131284"><ele>25.5</ele><time>2026-04-11T10:47:50Z</time></trkpt><trkpt lat="42.26139104641611" lon="11.733426073822546"><ele>21.0</ele><time>2026-04-11T10:47:51Z</time></trkpt><trkpt lat="42.26138710493343" lon="11.733605446510087"><ele>21.0</ele><time>2026-04-11T10:47:52Z</time></trkpt><trkpt lat="42.26138010035606" lon="11.73377618688217"><ele>21.0</ele><time>2026-04-11T10:47:53Z</time></trkpt><trkpt lat="42.261366860837875" lon="11.733974462670545"><ele>21.0</ele><time>2026-04-11T10:47:54Z</time></trkpt><trkpt lat="42.2613561654418" lon="11.734113545579287"><ele>21.0</ele><time>2026-04-11T10:47:55Z</time></trkpt><trkpt lat="42.26131111323421" lon="11.734293471781111"><ele>21.333333333333332</ele><time>2026-04-11T10:47:56Z</time></trkpt><trkpt lat="42.2612436046817" lon="11.734470410833191"><ele>21.666666666666664</ele><time>2026-04-11T10:47:57Z</time></trkpt><trkpt lat="42.261180443203116" lon="11.734641304447438"><ele>22.0</ele><time>2026-04-11T10:47:58Z</time></trkpt><trkpt lat="42.261092384437944" lon="11.734850382687341"><ele>22.0</ele><time>2026-04-11T10:47:59Z</time></trkpt><trkpt lat="42.26097275479506" lon="11.735035391232032"><ele>22.0</ele><time>2026-04-11T10:48:00Z</time></trkpt><trkpt lat="42.26089111318071" lon="11.735238827432815"><ele>22.0</ele><time>2026-04-11T10:48:01Z</time></trkpt><trkpt lat="42.26079238005365" lon="11.735444133626517"><ele>21.666666666666664</ele><time>2026-04-11T10:48:02Z</time></trkpt><trkpt lat="42.260697997738085" lon="11.735651205857465"><ele>21.333333333333332</ele><time>2026-04-11T10:48:03Z</time></trkpt><trkpt lat="42.260600345295245" lon="11.735848937902224"><ele>21.0</ele><time>2026-04-11T10:48:04Z</time></trkpt><trkpt lat="42.26050134653222" lon="11.736051958033924"><ele>19.333333333333332</ele><time>2026-04-11T10:48:05Z</time></trkpt><trkpt lat="42.26039745126165" lon="11.736263873811273"><ele>17.666666666666664</ele><time>2026-04-11T10:48:06Z</time></trkpt><trkpt lat="42.260287953055226" lon="11.736492439867304"><ele>16.0</ele><time>2026-04-11T10:48:07Z</time></trkpt><trkpt lat="42.25376103777366" lon="11.742344216545396"><ele>22.0</ele><time>2026-04-11T10:49:08Z</time></trkpt><trkpt lat="42.25364916939303" lon="11.74231803241737"><ele>28.0</ele><time>2026-04-11T10:49:09Z</time></trkpt><trkpt lat="42.25351604051821" lon="11.742325152091015"><ele>34.0</ele><time>2026-04-11T10:49:10Z</time></trkpt><trkpt lat="42.253418427630194" lon="11.742363901127986"><ele>40.0</ele><time>2026-04-11T10:49:11Z</time></trkpt><trkpt lat="42.2533214243888" lon="11.742443224064008"><ele>40.0</ele><time>2026-04-11T10:49:12Z</time></trkpt><trkpt lat="42.253225100549116" lon="11.742524370137572"><ele>40.0</ele><time>2026-04-11T10:49:13Z</time></trkpt><trkpt lat="42.25316042106314" lon="11.742663149744427"><ele>40.0</ele><time>2026-04-11T10:49:14Z</time></trkpt><trkpt lat="42.25308460918746" lon="11.742805004777347"><ele>40.0</ele><time>2026-04-11T10:49:15Z</time></trkpt><trkpt lat="42.25299404419765" lon="11.742964684774458"><ele>39.0</ele><time>2026-04-11T10:49:16Z</time></trkpt><trkpt lat="42.25289677761861" lon="11.74317133699449"><ele>38.0</ele><time>2026-04-11T10:49:17Z</time></trkpt><trkpt lat="42.25278840559987" lon="11.743407266883182"><ele>37.0</ele><time>2026-04-11T10:49:18Z</time></trkpt><trkpt lat="42.252679074969514" lon="11.743641637500433"><ele>37.0</ele><time>2026-04-11T10:49:19Z</time></trkpt><trkpt lat="42.25257983295913" lon="11.743852424738073"><ele>37.0</ele><time>2026-04-11T10:49:20Z</time></trkpt><trkpt lat="42.25248233965791" lon="11.74405949762712"><ele>37.0</ele><time>2026-04-11T10:49:21Z</time></trkpt><trkpt lat="42.25239408888302" lon="11.744246939634362"><ele>39.0</ele><time>2026-04-11T10:49:22Z</time></trkpt><trkpt lat="42.252306701142665" lon="11.744431652165801"><ele>41.0</ele><time>2026-04-11T10:49:23Z</time></trkpt><trkpt lat="42.252221518574856" lon="11.744608909573714"><ele>43.0</ele><time>2026-04-11T10:49:24Z</time></trkpt><trkpt lat="42.25213862001979" lon="11.744779868015025"><ele>43.0</ele><time>2026-04-11T10:49:25Z</time></trkpt><trkpt lat="42.2520619038146" lon="11.744944941807978"><ele>43.0</ele><time>2026-04-11T10:49:26Z</time></trkpt><trkpt lat="42.25198567335564" lon="11.745110666296123"><ele>43.0</ele><time>2026-04-11T10:49:27Z</time></trkpt><trkpt lat="42.25192185480525" lon="11.745276480050144"><ele>43.0</ele><time>2026-04-11T10:49:28Z</time></trkpt><trkpt lat="42.25185587445285" lon="11.745406851557382"><ele>44.0</ele><time>2026-04-11T10:49:29Z</time></trkpt><trkpt lat="42.25180615550098" lon="11.745558953342455"><ele>45.0</ele><time>2026-04-11T10:49:30Z</time></trkpt><trkpt lat="42.251765717364044" lon="11.745742748505675"><ele>46.0</ele><time>2026-04-11T10:49:31Z</time></trkpt><trkpt lat="42.251745592452586" lon="11.74592197829535"><ele>47.0</ele><time>2026-04-11T10:49:32Z</time></trkpt><trkpt lat="42.251745783733014" lon="11.746087493927472"><ele>48.0</ele><time>2026-04-11T10:49:33Z</time></trkpt><trkpt lat="42.25175769431913" lon="11.746239773718363"><ele>49.0</ele><time>2026-04-11T10:49:34Z</time></trkpt><trkpt lat="42.2517817774179" lon="11.746398577111504"><ele>50.0</ele><time>2026-04-11T10:49:35Z</time></trkpt><trkpt lat="42.251828866798746" lon="11.746545920685817"><ele>51.0</ele><time>2026-04-11T10:49:36Z</time></trkpt><trkpt lat="42.25187609828887" lon="11.746696591241648"><ele>51.0</ele><time>2026-04-11T10:49:37Z</time></trkpt><trkpt lat="42.251932182284506" lon="11.746858524100885"><ele>51.0</ele><time>2026-04-11T10:49:38Z</time></trkpt><trkpt lat="42.251998013030516" lon="11.7470212303484"><ele>51.0</ele><time>2026-04-11T10:49:39Z</time></trkpt><trkpt lat="42.25207002892242" lon="11.747166442374784"><ele>51.0</ele><time>2026-04-11T10:49:40Z</time></trkpt><trkpt lat="42.252146457668424" lon="11.747307725053194"><ele>51.0</ele><time>2026-04-11T10:49:41Z</time></trkpt><trkpt lat="42.25221883435275" lon="11.747436930356198"><ele>51.0</ele><time>2026-04-11T10:49:42Z</time></trkpt><trkpt lat="42.25228378619046" lon="11.747553295036512"><ele>51.0</ele><time>2026-04-11T10:49:43Z</time></trkpt><trkpt lat="42.25235024594936" lon="11.747695659430434"><ele>51.0</ele><time>2026-04-11T10:49:44Z</time></trkpt><trkpt lat="42.25241957398435" lon="11.747840391992298"><ele>53.25</ele><time>2026-04-11T10:49:45Z</time></trkpt><trkpt lat="42.25245205831619" lon="11.748013198926252"><ele>55.5</ele><time>2026-04-11T10:49:46Z</time></trkpt><trkpt lat="42.252474030891996" lon="11.748159594614894"><ele>57.75</ele><time>2026-04-11T10:49:47Z</time></trkpt><trkpt lat="42.252477245216184" lon="11.748316584910953"><ele>60.0</ele><time>2026-04-11T10:49:48Z</time></trkpt><trkpt lat="42.25247925498743" lon="11.748462285298091"><ele>60.25</ele><time>2026-04-11T10:49:49Z</time></trkpt><trkpt lat="42.252436349362156" lon="11.748598716204432"><ele>60.5</ele><time>2026-04-11T10:49:50Z</time></trkpt><trkpt lat="42.252396074806526" lon="11.74875299870317"><ele>60.75</ele><time>2026-04-11T10:49:51Z</time></trkpt><trkpt lat="42.25233268178071" lon="11.748905801565646"><ele>61.0</ele><time>2026-04-11T10:49:52Z</time></trkpt><trkpt lat="42.25227119921956" lon="11.74904810967573"><ele>61.0</ele><time>2026-04-11T10:49:53Z</time></trkpt><trkpt lat="42.25222358581473" lon="11.749199785549463"><ele>61.0</ele><time>2026-04-11T10:49:54Z</time></trkpt><trkpt lat="42.252152134961264" lon="11.749342163130539"><ele>61.0</ele><time>2026-04-11T10:49:55Z</time></trkpt><trkpt lat="42.25208818628765" lon="11.749466820506289"><ele>61.0</ele><time>2026-04-11T10:49:56Z</time></trkpt><trkpt lat="42.25200062858738" lon="11.749572468058124"><ele>61.0</ele><time>2026-04-11T10:49:57Z</time></trkpt><trkpt lat="42.2518954567916" lon="11.749661475651257"><ele>61.0</ele><time>2026-04-11T10:49:58Z</time></trkpt><trkpt lat="42.25178332511344" lon="11.74974980738483"><ele>61.0</ele><time>2026-04-11T10:49:59Z</time></trkpt><trkpt lat="42.251622223851484" lon="11.749835904529451"><ele>61.0</ele><time>2026-04-11T10:50:00Z</time></trkpt><trkpt lat="42.2514650166608" lon="11.749922015736425"><ele>60.0</ele><time>2026-04-11T10:50:01Z</time></trkpt><trkpt lat="42.25131486079419" lon="11.750011929370197"><ele>59.0</ele><time>2026-04-11T10:50:02Z</time></trkpt><trkpt lat="42.25118790594291" lon="11.750101857958068"><ele>58.0</ele><time>2026-04-11T10:50:03Z</time></trkpt><trkpt lat="42.25104918779947" lon="11.750157740501262"><ele>57.75</ele><time>2026-04-11T10:50:04Z</time></trkpt><trkpt lat="42.25093242126355" lon="11.750245467900884"><ele>57.5</ele><time>2026-04-11T10:50:05Z</time></trkpt><trkpt lat="42.25082558504723" lon="11.750336941674329"><ele>57.25</ele><time>2026-04-11T10:50:06Z</time></trkpt><trkpt lat="42.250714712787264" lon="11.750429511795875"><ele>57.0</ele><time>2026-04-11T10:50:07Z</time></trkpt><trkpt lat="42.24562508225202" lon="11.75685794189564"><ele>58.25</ele><time>2026-04-11T10:51:07.999Z</time></trkpt><trkpt lat="42.24550392003865" lon="11.756890159619523"><ele>59.5</ele><time>2026-04-11T10:51:08.999Z</time></trkpt><trkpt lat="42.245383194274154" lon="11.756925449037999"><ele>60.75</ele><time>2026-04-11T10:51:09.999Z</time></trkpt><trkpt lat="42.24523277387491" lon="11.756956164732191"><ele>62.0</ele><time>2026-04-11T10:51:10.999Z</time></trkpt><trkpt lat="42.24509573035809" lon="11.756982314209738"><ele>62.0</ele><time>2026-04-11T10:51:11.999Z</time></trkpt><trkpt lat="42.24496520624732" lon="11.756995002734849"><ele>62.0</ele><time>2026-04-11T10:51:12.999Z</time></trkpt><trkpt lat="42.24483309008148" lon="11.757009104284732"><ele>62.0</ele><time>2026-04-11T10:51:14Z</time></trkpt><trkpt lat="42.244703174064405" lon="11.757034999793971"><ele>62.0</ele><time>2026-04-11T10:51:15Z</time></trkpt><trkpt lat="42.24457980902413" lon="11.757067263550752"><ele>61.5</ele><time>2026-04-11T10:51:16Z</time></trkpt><trkpt lat="42.24446067113701" lon="11.757100865770962"><ele>61.0</ele><time>2026-04-11T10:51:17Z</time></trkpt><trkpt lat="42.24434350471247" lon="11.757137926375519"><ele>60.5</ele><time>2026-04-11T10:51:18Z</time></trkpt><trkpt lat="42.24422998528354" lon="11.75717803361601"><ele>60.0</ele><time>2026-04-11T10:51:19Z</time></trkpt><trkpt lat="42.24412574630306" lon="11.757224767098963"><ele>60.0</ele><time>2026-04-11T10:51:20Z</time></trkpt><trkpt lat="42.24403265398641" lon="11.757265000470182"><ele>60.0</ele><time>2026-04-11T10:51:21Z</time></trkpt><trkpt lat="42.24394546513199" lon="11.757290056295753"><ele>60.0</ele><time>2026-04-11T10:51:22Z</time></trkpt><trkpt lat="42.24386975335805" lon="11.757292412447852"><ele>60.0</ele><time>2026-04-11T10:51:23Z</time></trkpt><trkpt lat="42.24376946389536" lon="11.75727514097913"><ele>60.0</ele><time>2026-04-11T10:51:24Z</time></trkpt><trkpt lat="42.243681406134016" lon="11.757257913741709"><ele>59.2</ele><time>2026-04-11T10:51:25Z</time></trkpt><trkpt lat="42.2435783801761" lon="11.757220275777438"><ele>58.4</ele><time>2026-04-11T10:51:26Z</time></trkpt><trkpt lat="42.24348026506134" lon="11.757189374714484"><ele>57.599999999999994</ele><time>2026-04-11T10:51:27Z</time></trkpt><trkpt lat="42.24339301936284" lon="11.757155531197164"><ele>56.8</ele><time>2026-04-11T10:51:28Z</time></trkpt><trkpt lat="42.24331293449794" lon="11.757126106327698"><ele>56.0</ele><time>2026-04-11T10:51:29Z</time></trkpt><trkpt lat="42.24324094309013" lon="11.75709696387592"><ele>56.00000000000001</ele><time>2026-04-11T10:51:30Z</time></trkpt><trkpt lat="42.24317125829702" lon="11.757056452562402"><ele>56.0</ele><time>2026-04-11T10:51:31Z</time></trkpt><trkpt lat="42.24311360314992" lon="11.756988455505118"><ele>56.0</ele><time>2026-04-11T10:51:32Z</time></trkpt><trkpt lat="42.24301761043775" lon="11.756871539610579"><ele>56.0</ele><time>2026-04-11T10:51:34Z</time></trkpt><trkpt lat="42.24296594904903" lon="11.756821312533587"><ele>56.00000000000001</ele><time>2026-04-11T10:51:35Z</time></trkpt><trkpt lat="42.24288986353258" lon="11.756849699487582"><ele>56.0</ele><time>2026-04-11T10:51:36Z</time></trkpt><trkpt lat="42.2428090713676" lon="11.756890220744383"><ele>55.75</ele><time>2026-04-11T10:51:37Z</time></trkpt><trkpt lat="42.24269698651106" lon="11.756906727430527"><ele>55.5</ele><time>2026-04-11T10:51:38Z</time></trkpt><trkpt lat="42.24256556938827" lon="11.756883555547851"><ele>55.25</ele><time>2026-04-11T10:51:39Z</time></trkpt><trkpt lat="42.24241836339388" lon="11.756831279189074"><ele>55.0</ele><time>2026-04-11T10:51:40Z</time></trkpt><trkpt lat="42.242262031522024" lon="11.756774461580017"><ele>53.0</ele><time>2026-04-11T10:51:41Z</time></trkpt><trkpt lat="42.242087542321784" lon="11.756705087688035"><ele>51.0</ele><time>2026-04-11T10:51:42Z</time></trkpt><trkpt lat="42.24191960323145" lon="11.756641719470137"><ele>49.0</ele><time>2026-04-11T10:51:43Z</time></trkpt><trkpt lat="42.24175302998265" lon="11.756576542129725"><ele>49.0</ele><time>2026-04-11T10:51:44Z</time></trkpt><trkpt lat="42.241598797452234" lon="11.756525426653528"><ele>49.0</ele><time>2026-04-11T10:51:45Z</time></trkpt><trkpt lat="42.241443007483916" lon="11.756441798201173"><ele>49.0</ele><time>2026-04-11T10:51:46Z</time></trkpt><trkpt lat="42.24130008992666" lon="11.75638218521989"><ele>48.25</ele><time>2026-04-11T10:51:47Z</time></trkpt><trkpt lat="42.24115132548498" lon="11.7563214494493"><ele>47.5</ele><time>2026-04-11T10:51:48Z</time></trkpt><trkpt lat="42.24101649644622" lon="11.756260048990281"><ele>46.75</ele><time>2026-04-11T10:51:49Z</time></trkpt><trkpt lat="42.24088946715947" lon="11.756209038533969"><ele>46.0</ele><time>2026-04-11T10:51:50Z</time></trkpt><trkpt lat="42.24076991258209" lon="11.756159906440688"><ele>46.0</ele><time>2026-04-11T10:51:51Z</time></trkpt><trkpt lat="42.240645239023806" lon="11.756109074298891"><ele>46.0</ele><time>2026-04-11T10:51:52Z</time></trkpt><trkpt lat="42.24051190775181" lon="11.756054519575775"><ele>46.0</ele><time>2026-04-11T10:51:53Z</time></trkpt><trkpt lat="42.24037499259003" lon="11.755992778161486"><ele>46.0</ele><time>2026-04-11T10:51:54Z</time></trkpt><trkpt lat="42.24024720589462" lon="11.755930689432814"><ele>45.0</ele><time>2026-04-11T10:51:55Z</time></trkpt><trkpt lat="42.240121282502066" lon="11.755880346344892"><ele>44.0</ele><time>2026-04-11T10:51:56Z</time></trkpt><trkpt lat="42.23997586104163" lon="11.755819053180133"><ele>43.0</ele><time>2026-04-11T10:51:57Z</time></trkpt><trkpt lat="42.23983600811298" lon="11.755756520893094"><ele>42.0</ele><time>2026-04-11T10:51:58Z</time></trkpt><trkpt lat="42.23969322778726" lon="11.755696086536098"><ele>41.666666666666664</ele><time>2026-04-11T10:51:59Z</time></trkpt><trkpt lat="42.23954401877642" lon="11.75563573439832"><ele>41.33333333333333</ele><time>2026-04-11T10:52:00Z</time></trkpt><trkpt lat="42.23939355614534" lon="11.755566942166547"><ele>41.0</ele><time>2026-04-11T10:52:01Z</time></trkpt><trkpt lat="42.23924801337299" lon="11.755508423373216"><ele>41.0</ele><time>2026-04-11T10:52:02Z</time></trkpt><trkpt lat="42.23909880613095" lon="11.755450438786221"><ele>41.0</ele><time>2026-04-11T10:52:03Z</time></trkpt><trkpt lat="42.238943126584296" lon="11.755392158140006"><ele>41.0</ele><time>2026-04-11T10:52:04Z</time></trkpt><trkpt lat="42.238789186233475" lon="11.75534346632489"><ele>40.33333333333333</ele><time>2026-04-11T10:52:05Z</time></trkpt><trkpt lat="42.23863594685088" lon="11.755296744213402"><ele>39.666666666666664</ele><time>2026-04-11T10:52:06Z</time></trkpt><trkpt lat="42.23848398977568" lon="11.755250465609425"><ele>39.0</ele><time>2026-04-11T10:52:07Z</time></trkpt><trkpt lat="42.23215197464167" lon="11.756588771594048"><ele>37.666666666666664</ele><time>2026-04-11T10:53:08Z</time></trkpt><trkpt lat="42.232084007751546" lon="11.756797161538769"><ele>36.33333333333333</ele><time>2026-04-11T10:53:09Z</time></trkpt><trkpt lat="42.23199980559137" lon="11.756992725201787"><ele>35.0</ele><time>2026-04-11T10:53:10Z</time></trkpt><trkpt lat="42.231917954291895" lon="11.757190510265632"><ele>35.0</ele><time>2026-04-11T10:53:11Z</time></trkpt><trkpt lat="42.23184296468469" lon="11.757391107595767"><ele>35.0</ele><time>2026-04-11T10:53:12Z</time></trkpt><trkpt lat="42.23177205583516" lon="11.757584850764026"><ele>35.0</ele><time>2026-04-11T10:53:13Z</time></trkpt><trkpt lat="42.231704444007335" lon="11.757760578395846"><ele>35.0</ele><time>2026-04-11T10:53:14Z</time></trkpt><trkpt lat="42.23164380865805" lon="11.757928689096094"><ele>35.0</ele><time>2026-04-11T10:53:15Z</time></trkpt><trkpt lat="42.2315688735649" lon="11.758091266979719"><ele>35.0</ele><time>2026-04-11T10:53:16Z</time></trkpt><trkpt lat="42.23151035566412" lon="11.758257100763402"><ele>35.0</ele><time>2026-04-11T10:53:16.999Z</time></trkpt><trkpt lat="42.23145550239625" lon="11.758407817934549"><ele>35.4</ele><time>2026-04-11T10:53:17.999Z</time></trkpt><trkpt lat="42.23140755598358" lon="11.758555614100047"><ele>35.8</ele><time>2026-04-11T10:53:18.999Z</time></trkpt><trkpt lat="42.23136629387693" lon="11.758699807886765"><ele>36.2</ele><time>2026-04-11T10:53:20Z</time></trkpt><trkpt lat="42.23133188954911" lon="11.758829446067779"><ele>36.6</ele><time>2026-04-11T10:53:21Z</time></trkpt><trkpt lat="42.231302731461916" lon="11.758960495732895"><ele>37.0</ele><time>2026-04-11T10:53:22Z</time></trkpt><trkpt lat="42.231287285239695" lon="11.75907306702242"><ele>37.0</ele><time>2026-04-11T10:53:23Z</time></trkpt><trkpt lat="42.23126450684787" lon="11.759164761903858"><ele>37.0</ele><time>2026-04-11T10:53:24Z</time></trkpt><trkpt lat="42.231174062248485" lon="11.759276525463456"><ele>37.0</ele><time>2026-04-11T10:53:26Z</time></trkpt><trkpt lat="42.23111688814079" lon="11.75934851806437"><ele>37.0</ele><time>2026-04-11T10:53:27Z</time></trkpt><trkpt lat="42.231088536979506" lon="11.759485388584425"><ele>37.0</ele><time>2026-04-11T10:53:29Z</time></trkpt><trkpt lat="42.23112093053226" lon="11.759629218666532"><ele>37.2</ele><time>2026-04-11T10:53:31Z</time></trkpt><trkpt lat="42.23118544613961" lon="11.7596680656671"><ele>37.400000000000006</ele><time>2026-04-11T10:53:32Z</time></trkpt><trkpt lat="42.23124736318762" lon="11.75969271784955"><ele>37.599999999999994</ele><time>2026-04-11T10:53:33Z</time></trkpt><trkpt lat="42.23138846087864" lon="11.759666166985502"><ele>37.8</ele><time>2026-04-11T10:53:35Z</time></trkpt><trkpt lat="42.23146414362931" lon="11.759600147132563"><ele>38.0</ele><time>2026-04-11T10:53:36Z</time></trkpt><trkpt lat="42.231557356358735" lon="11.759540975618426"><ele>38.0</ele><time>2026-04-11T10:53:37Z</time></trkpt><trkpt lat="42.23165099480855" lon="11.75953451005539"><ele>38.0</ele><time>2026-04-11T10:53:38Z</time></trkpt><trkpt lat="42.23177245982708" lon="11.759523624485428"><ele>38.0</ele><time>2026-04-11T10:53:39Z</time></trkpt><trkpt lat="42.23191571702853" lon="11.759534603119535"><ele>38.0</ele><time>2026-04-11T10:53:40Z</time></trkpt><trkpt lat="42.23209390573973" lon="11.759543011568898"><ele>38.0</ele><time>2026-04-11T10:53:41Z</time></trkpt><trkpt lat="42.23226535562523" lon="11.75955210038628"><ele>38.0</ele><time>2026-04-11T10:53:42Z</time></trkpt><trkpt lat="42.232457214735575" lon="11.759554129068858"><ele>38.0</ele><time>2026-04-11T10:53:43Z</time></trkpt><trkpt lat="42.23264551993197" lon="11.75956674048004"><ele>38.33333333333333</ele><time>2026-04-11T10:53:44Z</time></trkpt><trkpt lat="42.23282939421875" lon="11.759588469560798"><ele>38.666666666666664</ele><time>2026-04-11T10:53:45Z</time></trkpt><trkpt lat="42.23300392412365" lon="11.759604704588506"><ele>39.0</ele><time>2026-04-11T10:53:46Z</time></trkpt><trkpt lat="42.233180413289794" lon="11.759636609160706"><ele>39.333333333333336</ele><time>2026-04-11T10:53:47Z</time></trkpt><trkpt lat="42.23335900504302" lon="11.759675446122518"><ele>39.66666666666667</ele><time>2026-04-11T10:53:48Z</time></trkpt><trkpt lat="42.23352319862123" lon="11.759720319536624"><ele>40.0</ele><time>2026-04-11T10:53:49Z</time></trkpt><trkpt lat="42.233676691272414" lon="11.759772409931141"><ele>40.0</ele><time>2026-04-11T10:53:50Z</time></trkpt><trkpt lat="42.233820640810926" lon="11.75983179552911"><ele>40.0</ele><time>2026-04-11T10:53:51Z</time></trkpt><trkpt lat="42.23396539946013" lon="11.759896970991335"><ele>40.0</ele><time>2026-04-11T10:53:52Z</time></trkpt><trkpt lat="42.23411259907359" lon="11.759969423164796"><ele>40.0</ele><time>2026-04-11T10:53:53Z</time></trkpt><trkpt lat="42.23425874217652" lon="11.760040410513637"><ele>40.0</ele><time>2026-04-11T10:53:54Z</time></trkpt><trkpt lat="42.234397001853246" lon="11.7601125315814"><ele>40.0</ele><time>2026-04-11T10:53:55Z</time></trkpt><trkpt lat="42.23453158063382" lon="11.760188210820768"><ele>40.0</ele><time>2026-04-11T10:53:56Z</time></trkpt><trkpt lat="42.234660260658444" lon="11.760260396477637"><ele>40.25</ele><time>2026-04-11T10:53:57Z</time></trkpt><trkpt lat="42.234787580389956" lon="11.760325993115092"><ele>40.5</ele><time>2026-04-11T10:53:58Z</time></trkpt><trkpt lat="42.23491782474553" lon="11.76039033902786"><ele>40.75</ele><time>2026-04-11T10:53:59Z</time></trkpt><trkpt lat="42.235042086748635" lon="11.760457932889938"><ele>41.0</ele><time>2026-04-11T10:54:00Z</time></trkpt><trkpt lat="42.23515449499374" lon="11.760522263653195"><ele>41.0</ele><time>2026-04-11T10:54:01Z</time></trkpt><trkpt lat="42.23526389726728" lon="11.760583155242056"><ele>41.0</ele><time>2026-04-11T10:54:02Z</time></trkpt><trkpt lat="42.23535794191674" lon="11.760650656749277"><ele>41.0</ele><time>2026-04-11T10:54:03Z</time></trkpt><trkpt lat="42.23544716727698" lon="11.760727720051769"><ele>41.0</ele><time>2026-04-11T10:54:04Z</time></trkpt><trkpt lat="42.23553461625897" lon="11.76081952948702"><ele>41.0</ele><time>2026-04-11T10:54:05Z</time></trkpt><trkpt lat="42.2356006025588" lon="11.760924738977996"><ele>41.0</ele><time>2026-04-11T10:54:06Z</time></trkpt><trkpt lat="42.23565280434171" lon="11.761043220226954"><ele>41.0</ele><time>2026-04-11T10:54:07Z</time></trkpt><trkpt lat="42.225489827260134" lon="11.768790781928297"><ele>41.0</ele><time>2026-04-11T10:55:08Z</time></trkpt><trkpt lat="42.22529059588149" lon="11.768882810934626"><ele>41.0</ele><time>2026-04-11T10:55:09Z</time></trkpt><trkpt lat="42.225086219278055" lon="11.768983406643395"><ele>41.0</ele><time>2026-04-11T10:55:10Z</time></trkpt><trkpt lat="42.22489204427432" lon="11.769080365588856"><ele>40.666666666666664</ele><time>2026-04-11T10:55:11Z</time></trkpt><trkpt lat="42.224694546512524" lon="11.769171932602582"><ele>40.333333333333336</ele><time>2026-04-11T10:55:12Z</time></trkpt><trkpt lat="42.22449620539864" lon="11.769268581418396"><ele>40.0</ele><time>2026-04-11T10:55:13Z</time></trkpt><trkpt lat="42.22430961303641" lon="11.769352848919247"><ele>40.333333333333336</ele><time>2026-04-11T10:55:14Z</time></trkpt><trkpt lat="42.22411018435317" lon="11.769452554310236"><ele>40.666666666666664</ele><time>2026-04-11T10:55:15Z</time></trkpt><trkpt lat="42.2239125444098" lon="11.769542894984392"><ele>41.0</ele><time>2026-04-11T10:55:16Z</time></trkpt><trkpt lat="42.223713389727166" lon="11.769639311534954"><ele>41.0</ele><time>2026-04-11T10:55:17Z</time></trkpt><trkpt lat="42.22352385190158" lon="11.769734595929249"><ele>41.0</ele><time>2026-04-11T10:55:17.999Z</time></trkpt><trkpt lat="42.22332539815723" lon="11.769834844911498"><ele>41.0</ele><time>2026-04-11T10:55:18.999Z</time></trkpt><trkpt lat="42.22313013213761" lon="11.769935932217015"><ele>40.33333333333333</ele><time>2026-04-11T10:55:19.999Z</time></trkpt><trkpt lat="42.22293253847324" lon="11.770040830431029"><ele>39.666666666666664</ele><time>2026-04-11T10:55:20.999Z</time></trkpt><trkpt lat="42.222739296046555" lon="11.770135129956929"><ele>39.0</ele><time>2026-04-11T10:55:21.999Z</time></trkpt><trkpt lat="42.222548953811774" lon="11.770229671769446"><ele>39.0</ele><time>2026-04-11T10:55:22.999Z</time></trkpt><trkpt lat="42.22235396025686" lon="11.77032409616434"><ele>39.0</ele><time>2026-04-11T10:55:23.999Z</time></trkpt><trkpt lat="42.22216221833503" lon="11.770417525669759"><ele>39.0</ele><time>2026-04-11T10:55:24.999Z</time></trkpt><trkpt lat="42.221962859409224" lon="11.770515162131348"><ele>39.333333333333336</ele><time>2026-04-11T10:55:26Z</time></trkpt><trkpt lat="42.2217676851941" lon="11.770609808979785"><ele>39.66666666666667</ele><time>2026-04-11T10:55:27Z</time></trkpt><trkpt lat="42.22157414025749" lon="11.77070600727016"><ele>40.0</ele><time>2026-04-11T10:55:28Z</time></trkpt><trkpt lat="42.22137431398043" lon="11.770797914970458"><ele>39.333333333333336</ele><time>2026-04-11T10:55:29Z</time></trkpt><trkpt lat="42.22117649138491" lon="11.770896241745882"><ele>38.666666666666664</ele><time>2026-04-11T10:55:30Z</time></trkpt><trkpt lat="42.220966145850376" lon="11.771001243243402"><ele>38.0</ele><time>2026-04-11T10:55:31Z</time></trkpt><trkpt lat="42.22076016704806" lon="11.771118604983293"><ele>38.666666666666664</ele><time>2026-04-11T10:55:32Z</time></trkpt><trkpt lat="42.22056719710056" lon="11.771225448602783"><ele>39.333333333333336</ele><time>2026-04-11T10:55:33Z</time></trkpt><trkpt lat="42.22036722351958" lon="11.77133831632109"><ele>40.0</ele><time>2026-04-11T10:55:34Z</time></trkpt><trkpt lat="42.220150976269245" lon="11.77145317105595"><ele>40.0</ele><time>2026-04-11T10:55:35Z</time></trkpt><trkpt lat="42.219950924865834" lon="11.771564263121853"><ele>40.0</ele><time>2026-04-11T10:55:36Z</time></trkpt><trkpt lat="42.21973119513938" lon="11.771688314022612"><ele>39.5</ele><time>2026-04-11T10:55:37Z</time></trkpt><trkpt lat="42.21951098627789" lon="11.77181753038281"><ele>39.0</ele><time>2026-04-11T10:55:38Z</time></trkpt><trkpt lat="42.219293820166236" lon="11.77194975363188"><ele>39.0</ele><time>2026-04-11T10:55:39Z</time></trkpt><trkpt lat="42.21908213654547" lon="11.772081650860683"><ele>39.0</ele><time>2026-04-11T10:55:40Z</time></trkpt><trkpt lat="42.21887924396291" lon="11.772207266474188"><ele>38.0</ele><time>2026-04-11T10:55:41Z</time></trkpt><trkpt lat="42.21868681604479" lon="11.772343717956462"><ele>37.0</ele><time>2026-04-11T10:55:42Z</time></trkpt><trkpt lat="42.21849392568861" lon="11.772479866979769"><ele>36.0</ele><time>2026-04-11T10:55:43Z</time></trkpt><trkpt lat="42.218299633441454" lon="11.772621731896928"><ele>35.666666666666664</ele><time>2026-04-11T10:55:44Z</time></trkpt><trkpt lat="42.21811051902369" lon="11.772770109307116"><ele>35.33333333333333</ele><time>2026-04-11T10:55:45Z</time></trkpt><trkpt lat="42.21791983263085" lon="11.772920234708343"><ele>35.0</ele><time>2026-04-11T10:55:46Z</time></trkpt><trkpt lat="42.21771992129875" lon="11.7730659424902"><ele>35.0</ele><time>2026-04-11T10:55:47Z</time></trkpt><trkpt lat="42.21752502721367" lon="11.77323037659551"><ele>35.0</ele><time>2026-04-11T10:55:48Z</time></trkpt><trkpt lat="42.21733530935994" lon="11.77339167691786"><ele>36.0</ele><time>2026-04-11T10:55:49Z</time></trkpt><trkpt lat="42.217151382529025" lon="11.773547496933306"><ele>37.0</ele><time>2026-04-11T10:55:50Z</time></trkpt><trkpt lat="42.21697691139105" lon="11.773706205239394"><ele>38.0</ele><time>2026-04-11T10:55:51Z</time></trkpt><trkpt lat="42.216797897024406" lon="11.773866601392589"><ele>38.0</ele><time>2026-04-11T10:55:52Z</time></trkpt><trkpt lat="42.21662163371782" lon="11.774030809971213"><ele>38.0</ele><time>2026-04-11T10:55:53Z</time></trkpt><trkpt lat="42.21644548339385" lon="11.77419680239151"><ele>38.0</ele><time>2026-04-11T10:55:54Z</time></trkpt><trkpt lat="42.216265979297795" lon="11.774364831337945"><ele>38.0</ele><time>2026-04-11T10:55:55Z</time></trkpt><trkpt lat="42.216097057003054" lon="11.774537336993301"><ele>38.0</ele><time>2026-04-11T10:55:56Z</time></trkpt><trkpt lat="42.21592664604803" lon="11.774716686153743"><ele>38.0</ele><time>2026-04-11T10:55:57Z</time></trkpt><trkpt lat="42.21575698771151" lon="11.774894690678293"><ele>38.0</ele><time>2026-04-11T10:55:58Z</time></trkpt><trkpt lat="42.21558491584693" lon="11.775077533637223"><ele>38.0</ele><time>2026-04-11T10:55:59Z</time></trkpt><trkpt lat="42.21541601813705" lon="11.775261918756753"><ele>38.0</ele><time>2026-04-11T10:56:00Z</time></trkpt><trkpt lat="42.21523903407724" lon="11.775453360778977"><ele>38.0</ele><time>2026-04-11T10:56:01Z</time></trkpt><trkpt lat="42.2150690071901" lon="11.775640139815996"><ele>38.0</ele><time>2026-04-11T10:56:02Z</time></trkpt><trkpt lat="42.21490592203266" lon="11.775829973519034"><ele>38.0</ele><time>2026-04-11T10:56:03Z</time></trkpt><trkpt lat="42.21474151915877" lon="11.776022631327189"><ele>38.0</ele><time>2026-04-11T10:56:04Z</time></trkpt><trkpt lat="42.214581878991666" lon="11.776220531598781"><ele>38.0</ele><time>2026-04-11T10:56:05Z</time></trkpt><trkpt lat="42.214425946636624" lon="11.776422281921818"><ele>38.0</ele><time>2026-04-11T10:56:06Z</time></trkpt><trkpt lat="42.214264673420736" lon="11.776620031842457"><ele>10.0</ele><time>2026-04-11T10:56:07Z</time></trkpt><trkpt lat="42.202563685630494" lon="11.78520500477982"><ele>10.0</ele><time>2026-04-11T10:57:08Z</time></trkpt><trkpt lat="42.202345352763736" lon="11.785224473370777"><ele>10.0</ele><time>2026-04-11T10:57:09Z</time></trkpt><trkpt lat="42.20213131822428" lon="11.785244044086902"><ele>10.0</ele><time>2026-04-11T10:57:09.999Z</time></trkpt><trkpt lat="42.20191529656303" lon="11.785249890450856"><ele>9.0</ele><time>2026-04-11T10:57:10.999Z</time></trkpt><trkpt lat="42.20170950877453" lon="11.785259639473285"><ele>8.0</ele><time>2026-04-11T10:57:11.999Z</time></trkpt><trkpt lat="42.20150315386918" lon="11.785267156294767"><ele>7.0</ele><time>2026-04-11T10:57:12.999Z</time></trkpt><trkpt lat="42.201295928688" lon="11.785279325299022"><ele>7.0</ele><time>2026-04-11T10:57:13.999Z</time></trkpt><trkpt lat="42.20108644355418" lon="11.785299230525386"><ele>7.0</ele><time>2026-04-11T10:57:14.999Z</time></trkpt><trkpt lat="42.20087234002526" lon="11.785317676055064"><ele>7.0</ele><time>2026-04-11T10:57:15.999Z</time></trkpt><trkpt lat="42.20065856769135" lon="11.78533248145867"><ele>7.333333333333334</ele><time>2026-04-11T10:57:16.999Z</time></trkpt><trkpt lat="42.20044825033486" lon="11.785364334705129"><ele>7.666666666666666</ele><time>2026-04-11T10:57:17.999Z</time></trkpt><trkpt lat="42.20024088956045" lon="11.785377341312307"><ele>8.0</ele><time>2026-04-11T10:57:18.999Z</time></trkpt><trkpt lat="42.200043866846876" lon="11.785402267842247"><ele>7.666666666666666</ele><time>2026-04-11T10:57:19.999Z</time></trkpt><trkpt lat="42.199830031190416" lon="11.785419832720098"><ele>7.333333333333334</ele><time>2026-04-11T10:57:20.999Z</time></trkpt><trkpt lat="42.19962156495893" lon="11.785445091290514"><ele>7.0</ele><time>2026-04-11T10:57:21.999Z</time></trkpt><trkpt lat="42.19940702800497" lon="11.785463209733688"><ele>7.0</ele><time>2026-04-11T10:57:22.999Z</time></trkpt><trkpt lat="42.19919127076883" lon="11.785482651645422"><ele>7.0</ele><time>2026-04-11T10:57:23.999Z</time></trkpt><trkpt lat="42.198975975347736" lon="11.785501120414297"><ele>7.0</ele><time>2026-04-11T10:57:24.999Z</time></trkpt><trkpt lat="42.19876546385147" lon="11.78552582007785"><ele>6.666666666666667</ele><time>2026-04-11T10:57:25.999Z</time></trkpt><trkpt lat="42.19855458590929" lon="11.785545137421098"><ele>6.333333333333334</ele><time>2026-04-11T10:57:26.999Z</time></trkpt><trkpt lat="42.19834597329277" lon="11.7855678580868"><ele>6.0</ele><time>2026-04-11T10:57:27.999Z</time></trkpt><trkpt lat="42.19813726752281" lon="11.785579516748863"><ele>6.0</ele><time>2026-04-11T10:57:28.999Z</time></trkpt><trkpt lat="42.19793969638134" lon="11.785597295860372"><ele>6.0</ele><time>2026-04-11T10:57:29.999Z</time></trkpt><trkpt lat="42.197739540495895" lon="11.78562033721946"><ele>6.0</ele><time>2026-04-11T10:57:30.999Z</time></trkpt><trkpt lat="42.19754215579175" lon="11.785653795809171"><ele>6.0</ele><time>2026-04-11T10:57:32Z</time></trkpt><trkpt lat="42.197322019015886" lon="11.785665682646856"><ele>6.0</ele><time>2026-04-11T10:57:33Z</time></trkpt><trkpt lat="42.19710067078828" lon="11.785690074722813"><ele>6.0</ele><time>2026-04-11T10:57:34Z</time></trkpt><trkpt lat="42.19686476394454" lon="11.785707823201372"><ele>6.0</ele><time>2026-04-11T10:57:35Z</time></trkpt><trkpt lat="42.19663741915301" lon="11.785736516405136"><ele>6.0</ele><time>2026-04-11T10:57:36Z</time></trkpt><trkpt lat="42.19640370134832" lon="11.785744468944458"><ele>7.0</ele><time>2026-04-11T10:57:37Z</time></trkpt><trkpt lat="42.196178204906865" lon="11.785761989302566"><ele>8.0</ele><time>2026-04-11T10:57:38Z</time></trkpt><trkpt lat="42.195942808365324" lon="11.785782986107543"><ele>8.0</ele><time>2026-04-11T10:57:39Z</time></trkpt><trkpt lat="42.19572204373946" lon="11.785825593428228"><ele>8.0</ele><time>2026-04-11T10:57:40Z</time></trkpt><trkpt lat="42.19550558661769" lon="11.78583216882942"><ele>8.0</ele><time>2026-04-11T10:57:41Z</time></trkpt><trkpt lat="42.195295809788405" lon="11.785848176666635"><ele>7.0</ele><time>2026-04-11T10:57:42Z</time></trkpt><trkpt lat="42.19509079871781" lon="11.785874906475916"><ele>6.0</ele><time>2026-04-11T10:57:43Z</time></trkpt><trkpt lat="42.19489188654759" lon="11.78590002238052"><ele>5.0</ele><time>2026-04-11T10:57:44Z</time></trkpt><trkpt lat="42.19468998459814" lon="11.785927687871016"><ele>5.0</ele><time>2026-04-11T10:57:45Z</time></trkpt><trkpt lat="42.19448176391522" lon="11.785948613694986"><ele>5.0</ele><time>2026-04-11T10:57:46Z</time></trkpt><trkpt lat="42.19428062767858" lon="11.785987454884438"><ele>5.0</ele><time>2026-04-11T10:57:47Z</time></trkpt><trkpt lat="42.19408017942873" lon="11.78601933784702"><ele>5.0</ele><time>2026-04-11T10:57:48Z</time></trkpt><trkpt lat="42.19386923830349" lon="11.786044438064458"><ele>5.0</ele><time>2026-04-11T10:57:49Z</time></trkpt><trkpt lat="42.193646817787396" lon="11.786072068731109"><ele>5.0</ele><time>2026-04-11T10:57:50Z</time></trkpt><trkpt lat="42.19343015828388" lon="11.786096462873346"><ele>5.0</ele><time>2026-04-11T10:57:51Z</time></trkpt><trkpt lat="42.19321102683779" lon="11.786112002879587"><ele>5.0</ele><time>2026-04-11T10:57:52Z</time></trkpt><trkpt lat="42.192990037115734" lon="11.78613599982083"><ele>5.0</ele><time>2026-04-11T10:57:53Z</time></trkpt><trkpt lat="42.19275758267639" lon="11.786172459674898"><ele>5.0</ele><time>2026-04-11T10:57:54Z</time></trkpt><trkpt lat="42.19251375910986" lon="11.786210750829202"><ele>5.0</ele><time>2026-04-11T10:57:55Z</time></trkpt><trkpt lat="42.192265986276425" lon="11.78623919197633"><ele>5.0</ele><time>2026-04-11T10:57:56Z</time></trkpt><trkpt lat="42.19203388164443" lon="11.786274136280166"><ele>5.0</ele><time>2026-04-11T10:57:57Z</time></trkpt><trkpt lat="42.19180142792489" lon="11.78629136751403"><ele>5.0</ele><time>2026-04-11T10:57:58Z</time></trkpt><trkpt lat="42.19157100584899" lon="11.786309856131894"><ele>5.0</ele><time>2026-04-11T10:57:59Z</time></trkpt><trkpt lat="42.19133498590539" lon="11.786322379870697"><ele>4.5</ele><time>2026-04-11T10:58:00Z</time></trkpt><trkpt lat="42.19109867201658" lon="11.786334842547463"><ele>4.0</ele><time>2026-04-11T10:58:01Z</time></trkpt><trkpt lat="42.1908661720272" lon="11.786355186686398"><ele>4.5</ele><time>2026-04-11T10:58:02Z</time></trkpt><trkpt lat="42.190638812569105" lon="11.786380877376406"><ele>5.0</ele><time>2026-04-11T10:58:03Z</time></trkpt><trkpt lat="42.1904070186017" lon="11.786410007118688"><ele>5.0</ele><time>2026-04-11T10:58:04Z</time></trkpt><trkpt lat="42.19018131030381" lon="11.7864340545989"><ele>5.0</ele><time>2026-04-11T10:58:05Z</time></trkpt><trkpt lat="42.18995637383271" lon="11.786447055730024"><ele>6.5</ele><time>2026-04-11T10:58:06Z</time></trkpt><trkpt lat="42.18973369447442" lon="11.786463452205066"><ele>8.0</ele><time>2026-04-11T10:58:07Z</time></trkpt><trkpt lat="42.17670406450958" lon="11.787395267633398"><ele>17.333333333333332</ele><time>2026-04-11T10:59:08Z</time></trkpt><trkpt lat="42.176490244719645" lon="11.78737793136007"><ele>26.666666666666668</ele><time>2026-04-11T10:59:09Z</time></trkpt><trkpt lat="42.17627956904708" lon="11.787378443080499"><ele>36.0</ele><time>2026-04-11T10:59:10Z</time></trkpt><trkpt lat="42.17607031178644" lon="11.78738178545568"><ele>36.0</ele><time>2026-04-11T10:59:11Z</time></trkpt><trkpt lat="42.175864555401795" lon="11.787386319381897"><ele>36.0</ele><time>2026-04-11T10:59:12Z</time></trkpt><trkpt lat="42.17565348032683" lon="11.787405739317823"><ele>36.0</ele><time>2026-04-11T10:59:13Z</time></trkpt><trkpt lat="42.175439643028106" lon="11.787414883871635"><ele>35.666666666666664</ele><time>2026-04-11T10:59:14Z</time></trkpt><trkpt lat="42.17522984053092" lon="11.787433641604496"><ele>35.33333333333333</ele><time>2026-04-11T10:59:15Z</time></trkpt><trkpt lat="42.17502072377882" lon="11.787451765366624"><ele>35.0</ele><time>2026-04-11T10:59:16Z</time></trkpt><trkpt lat="42.17481396931309" lon="11.7874715589023"><ele>34.666666666666664</ele><time>2026-04-11T10:59:17Z</time></trkpt><trkpt lat="42.17460534495405" lon="11.787496722745182"><ele>34.333333333333336</ele><time>2026-04-11T10:59:18Z</time></trkpt><trkpt lat="42.17439135306648" lon="11.787506902750973"><ele>34.0</ele><time>2026-04-11T10:59:19Z</time></trkpt><trkpt lat="42.17416882752318" lon="11.787527430973842"><ele>34.5</ele><time>2026-04-11T10:59:20Z</time></trkpt><trkpt lat="42.17394068491134" lon="11.787546855164795"><ele>35.0</ele><time>2026-04-11T10:59:21Z</time></trkpt><trkpt lat="42.17371174216561" lon="11.787570815476661"><ele>35.0</ele><time>2026-04-11T10:59:22Z</time></trkpt><trkpt lat="42.173479069259486" lon="11.78758934333288"><ele>35.0</ele><time>2026-04-11T10:59:23Z</time></trkpt><trkpt lat="42.173247565774346" lon="11.787605489688477"><ele>34.5</ele><time>2026-04-11T10:59:24Z</time></trkpt><trkpt lat="42.17300664534286" lon="11.78762396755832"><ele>34.0</ele><time>2026-04-11T10:59:25Z</time></trkpt><trkpt lat="42.17277995775221" lon="11.787645304767565"><ele>34.0</ele><time>2026-04-11T10:59:26Z</time></trkpt><trkpt lat="42.17254998794325" lon="11.787656916116235"><ele>34.0</ele><time>2026-04-11T10:59:27Z</time></trkpt><trkpt lat="42.172299631532745" lon="11.787682428335275"><ele>35.0</ele><time>2026-04-11T10:59:28Z</time></trkpt><trkpt lat="42.17204272771253" lon="11.787708316404137"><ele>36.0</ele><time>2026-04-11T10:59:29Z</time></trkpt><trkpt lat="42.17177903113934" lon="11.787739370989389"><ele>36.0</ele><time>2026-04-11T10:59:30Z</time></trkpt><trkpt lat="42.17152504249452" lon="11.787770097466383"><ele>36.0</ele><time>2026-04-11T10:59:31Z</time></trkpt><trkpt lat="42.17128440436378" lon="11.78778724560954"><ele>35.0</ele><time>2026-04-11T10:59:32Z</time></trkpt><trkpt lat="42.171042260194675" lon="11.787793691190146"><ele>34.0</ele><time>2026-04-11T10:59:33Z</time></trkpt><trkpt lat="42.17081425637768" lon="11.78782019249055"><ele>34.0</ele><time>2026-04-11T10:59:34Z</time></trkpt><trkpt lat="42.17059448780108" lon="11.787847032602976"><ele>34.0</ele><time>2026-04-11T10:59:34.999Z</time></trkpt><trkpt lat="42.170379307837216" lon="11.787873381556054"><ele>34.0</ele><time>2026-04-11T10:59:35.999Z</time></trkpt><trkpt lat="42.17017438160926" lon="11.787902631560739"><ele>34.0</ele><time>2026-04-11T10:59:36.999Z</time></trkpt><trkpt lat="42.16996305820839" lon="11.787918434464617"><ele>34.0</ele><time>2026-04-11T10:59:38Z</time></trkpt><trkpt lat="42.1697612732248" lon="11.78793591517504"><ele>34.0</ele><time>2026-04-11T10:59:39Z</time></trkpt><trkpt lat="42.16955847166971" lon="11.787956305940982"><ele>33.66666666666667</ele><time>2026-04-11T10:59:40Z</time></trkpt><trkpt lat="42.169353428605014" lon="11.787966813963996"><ele>33.333333333333336</ele><time>2026-04-11T10:59:41Z</time></trkpt><trkpt lat="42.169150863714066" lon="11.787975354091527"><ele>33.0</ele><time>2026-04-11T10:59:42Z</time></trkpt><trkpt lat="42.16894917452256" lon="11.787998886336375"><ele>33.666666666666664</ele><time>2026-04-11T10:59:43Z</time></trkpt><trkpt lat="42.168747288025315" lon="11.7880153420138"><ele>34.33333333333333</ele><time>2026-04-11T10:59:44Z</time></trkpt><trkpt lat="42.16853616226024" lon="11.788032795354091"><ele>35.0</ele><time>2026-04-11T10:59:45Z</time></trkpt><trkpt lat="42.16832467648562" lon="11.788053992028754"><ele>36.0</ele><time>2026-04-11T10:59:46Z</time></trkpt><trkpt lat="42.16811424714035" lon="11.788055850955871"><ele>37.0</ele><time>2026-04-11T10:59:47Z</time></trkpt><trkpt lat="42.16790332711815" lon="11.788072617640385"><ele>38.0</ele><time>2026-04-11T10:59:48Z</time></trkpt><trkpt lat="42.167695532036106" lon="11.788097976499394"><ele>38.0</ele><time>2026-04-11T10:59:49Z</time></trkpt><trkpt lat="42.167483697289164" lon="11.788113954343912"><ele>38.0</ele><time>2026-04-11T10:59:50Z</time></trkpt><trkpt lat="42.16728034488595" lon="11.78813191085233"><ele>38.0</ele><time>2026-04-11T10:59:51Z</time></trkpt><trkpt lat="42.16707628158529" lon="11.788146888503062"><ele>37.0</ele><time>2026-04-11T10:59:52Z</time></trkpt><trkpt lat="42.166872138794275" lon="11.788163141348834"><ele>36.0</ele><time>2026-04-11T10:59:53Z</time></trkpt><trkpt lat="42.16666374633707" lon="11.788181655341816"><ele>35.0</ele><time>2026-04-11T10:59:54Z</time></trkpt><trkpt lat="42.16645357379845" lon="11.788203419451772"><ele>35.0</ele><time>2026-04-11T10:59:55Z</time></trkpt><trkpt lat="42.16624722425219" lon="11.788225839136938"><ele>35.0</ele><time>2026-04-11T10:59:56Z</time></trkpt><trkpt lat="42.166032177686624" lon="11.7882521077293"><ele>35.0</ele><time>2026-04-11T10:59:57Z</time></trkpt><trkpt lat="42.165802290552435" lon="11.788281836013995"><ele>34.5</ele><time>2026-04-11T10:59:58Z</time></trkpt><trkpt lat="42.16557488973798" lon="11.788332260618972"><ele>34.0</ele><time>2026-04-11T10:59:59Z</time></trkpt><trkpt lat="42.16533649508545" lon="11.788383968400874"><ele>34.0</ele><time>2026-04-11T11:00:00Z</time></trkpt><trkpt lat="42.16509822693109" lon="11.7884537387704"><ele>34.0</ele><time>2026-04-11T11:00:01Z</time></trkpt><trkpt lat="42.164874850216165" lon="11.788521473111588"><ele>34.333333333333336</ele><time>2026-04-11T11:00:02Z</time></trkpt><trkpt lat="42.16466669776571" lon="11.788602605848823"><ele>34.666666666666664</ele><time>2026-04-11T11:00:03Z</time></trkpt><trkpt lat="42.164456418356174" lon="11.788687613080686"><ele>35.0</ele><time>2026-04-11T11:00:04Z</time></trkpt><trkpt lat="42.16426323668098" lon="11.788773946415764"><ele>35.0</ele><time>2026-04-11T11:00:05Z</time></trkpt><trkpt lat="42.164063250846986" lon="11.788856653449406"><ele>35.0</ele><time>2026-04-11T11:00:06Z</time></trkpt><trkpt lat="42.16386969363256" lon="11.788949018933616"><ele>35.0</ele><time>2026-04-11T11:00:07Z</time></trkpt><trkpt lat="42.15264274780748" lon="11.799564389080325"><ele>41.666666666666664</ele><time>2026-04-11T11:01:08Z</time></trkpt><trkpt lat="42.15249921831401" lon="11.79977074367009"><ele>48.33333333333333</ele><time>2026-04-11T11:01:09Z</time></trkpt><trkpt lat="42.15236405127394" lon="11.79997955778578"><ele>55.0</ele><time>2026-04-11T11:01:10Z</time></trkpt><trkpt lat="42.15222611108475" lon="11.800194769553947"><ele>55.666666666666664</ele><time>2026-04-11T11:01:11Z</time></trkpt><trkpt lat="42.15209156453878" lon="11.800408400421048"><ele>56.33333333333333</ele><time>2026-04-11T11:01:12Z</time></trkpt><trkpt lat="42.15195769829173" lon="11.800626004844995"><ele>57.0</ele><time>2026-04-11T11:01:13Z</time></trkpt><trkpt lat="42.15183062763636" lon="11.800856683871107"><ele>57.33333333333333</ele><time>2026-04-11T11:01:14Z</time></trkpt><trkpt lat="42.15170599006764" lon="11.801091059010075"><ele>57.666666666666664</ele><time>2026-04-11T11:01:15Z</time></trkpt><trkpt lat="42.151582323670965" lon="11.801325265866089"><ele>58.0</ele><time>2026-04-11T11:01:16Z</time></trkpt><trkpt lat="42.15146447520518" lon="11.80156151015472"><ele>58.0</ele><time>2026-04-11T11:01:17Z</time></trkpt><trkpt lat="42.15135204262771" lon="11.801801623227544"><ele>58.0</ele><time>2026-04-11T11:01:18Z</time></trkpt><trkpt lat="42.15124443744001" lon="11.802047127866519"><ele>58.0</ele><time>2026-04-11T11:01:19Z</time></trkpt><trkpt lat="42.15114022342188" lon="11.802296622621107"><ele>58.33333333333333</ele><time>2026-04-11T11:01:20Z</time></trkpt><trkpt lat="42.151041326159515" lon="11.80254954391194"><ele>58.66666666666667</ele><time>2026-04-11T11:01:21Z</time></trkpt><trkpt lat="42.15094818799921" lon="11.802803985340859"><ele>59.0</ele><time>2026-04-11T11:01:22Z</time></trkpt><trkpt lat="42.150857385354115" lon="11.803062542087872"><ele>60.0</ele><time>2026-04-11T11:01:23Z</time></trkpt><trkpt lat="42.150767786808316" lon="11.80332258406113"><ele>61.0</ele><time>2026-04-11T11:01:24Z</time></trkpt><trkpt lat="42.15068040059513" lon="11.80358045322571"><ele>62.0</ele><time>2026-04-11T11:01:25Z</time></trkpt><trkpt lat="42.150595729904325" lon="11.80384808977753"><ele>62.0</ele><time>2026-04-11T11:01:26Z</time></trkpt><trkpt lat="42.150506038320984" lon="11.804131649140459"><ele>62.0</ele><time>2026-04-11T11:01:27Z</time></trkpt><trkpt lat="42.15041826049887" lon="11.80443530450476"><ele>63.0</ele><time>2026-04-11T11:01:28Z</time></trkpt><trkpt lat="42.150331523821336" lon="11.80473924151782"><ele>64.0</ele><time>2026-04-11T11:01:29Z</time></trkpt><trkpt lat="42.15024587102735" lon="11.805034620510757"><ele>65.5</ele><time>2026-04-11T11:01:30Z</time></trkpt><trkpt lat="42.15015812760825" lon="11.805330641247961"><ele>67.0</ele><time>2026-04-11T11:01:31Z</time></trkpt><trkpt lat="42.15007186526826" lon="11.805617721928376"><ele>67.0</ele><time>2026-04-11T11:01:32Z</time></trkpt><trkpt lat="42.14998687170698" lon="11.805903967997404"><ele>67.0</ele><time>2026-04-11T11:01:33Z</time></trkpt><trkpt lat="42.14990386428834" lon="11.806189317331855"><ele>67.0</ele><time>2026-04-11T11:01:33.999Z</time></trkpt><trkpt lat="42.14981774846046" lon="11.806470488663162"><ele>67.0</ele><time>2026-04-11T11:01:34.999Z</time></trkpt><trkpt lat="42.149732363184214" lon="11.806751711211952"><ele>68.0</ele><time>2026-04-11T11:01:35.999Z</time></trkpt><trkpt lat="42.14964805102148" lon="11.807032588585331"><ele>69.0</ele><time>2026-04-11T11:01:36.999Z</time></trkpt><trkpt lat="42.149563132144664" lon="11.807311458820518"><ele>70.0</ele><time>2026-04-11T11:01:37.999Z</time></trkpt><trkpt lat="42.149479740250456" lon="11.807592477765436"><ele>71.0</ele><time>2026-04-11T11:01:38.999Z</time></trkpt><trkpt lat="42.149396532683426" lon="11.807872233732226"><ele>72.0</ele><time>2026-04-11T11:01:39.999Z</time></trkpt><trkpt lat="42.149315876401296" lon="11.808152595518466"><ele>73.0</ele><time>2026-04-11T11:01:40.999Z</time></trkpt><trkpt lat="42.14923598278532" lon="11.8084309159721"><ele>74.0</ele><time>2026-04-11T11:01:41.999Z</time></trkpt><trkpt lat="42.149157383520794" lon="11.80870693906432"><ele>75.0</ele><time>2026-04-11T11:01:42.999Z</time></trkpt><trkpt lat="42.149077907310385" lon="11.808981360160423"><ele>76.0</ele><time>2026-04-11T11:01:44Z</time></trkpt><trkpt lat="42.14899867097145" lon="11.809257482139047"><ele>78.0</ele><time>2026-04-11T11:01:45Z</time></trkpt><trkpt lat="42.14891717292387" lon="11.809525316001794"><ele>80.0</ele><time>2026-04-11T11:01:46Z</time></trkpt><trkpt lat="42.14883422518633" lon="11.809794822561011"><ele>82.0</ele><time>2026-04-11T11:01:47Z</time></trkpt><trkpt lat="42.148753519594074" lon="11.810059184230687"><ele>83.0</ele><time>2026-04-11T11:01:48Z</time></trkpt><trkpt lat="42.148676725968606" lon="11.810322553115526"><ele>84.0</ele><time>2026-04-11T11:01:49Z</time></trkpt><trkpt lat="42.14859953554362" lon="11.810581674008336"><ele>85.0</ele><time>2026-04-11T11:01:50Z</time></trkpt><trkpt lat="42.14852236096482" lon="11.810841895479253"><ele>86.33333333333333</ele><time>2026-04-11T11:01:51Z</time></trkpt><trkpt lat="42.148446902112504" lon="11.811098815686286"><ele>87.66666666666667</ele><time>2026-04-11T11:01:52Z</time></trkpt><trkpt lat="42.14836883929195" lon="11.811366575948476"><ele>89.0</ele><time>2026-04-11T11:01:53Z</time></trkpt><trkpt lat="42.1482821292883" lon="11.811646242722631"><ele>89.5</ele><time>2026-04-11T11:01:54Z</time></trkpt><trkpt lat="42.14818880121397" lon="11.811930014500158"><ele>90.0</ele><time>2026-04-11T11:01:55Z</time></trkpt><trkpt lat="42.14809548061668" lon="11.812213641769073"><ele>90.0</ele><time>2026-04-11T11:01:56Z</time></trkpt><trkpt lat="42.14799992813663" lon="11.81248609102688"><ele>90.0</ele><time>2026-04-11T11:01:57Z</time></trkpt><trkpt lat="42.14790519380476" lon="11.812755707139983"><ele>90.0</ele><time>2026-04-11T11:01:58Z</time></trkpt><trkpt lat="42.14780747880105" lon="11.813014090068013"><ele>91.66666666666667</ele><time>2026-04-11T11:01:59Z</time></trkpt><trkpt lat="42.147701490043495" lon="11.813265255102456"><ele>93.33333333333334</ele><time>2026-04-11T11:02:00Z</time></trkpt><trkpt lat="42.14759002043147" lon="11.81351439039405"><ele>95.0</ele><time>2026-04-11T11:02:01Z</time></trkpt><trkpt lat="42.14747208633404" lon="11.813759193965666"><ele>95.0</ele><time>2026-04-11T11:02:02Z</time></trkpt><trkpt lat="42.14735188930984" lon="11.814000592840783"><ele>95.0</ele><time>2026-04-11T11:02:03Z</time></trkpt><trkpt lat="42.14723133223049" lon="11.814217614483331"><ele>95.0</ele><time>2026-04-11T11:02:04Z</time></trkpt><trkpt lat="42.14710986529858" lon="11.81442483156737"><ele>96.33333333333334</ele><time>2026-04-11T11:02:05Z</time></trkpt><trkpt lat="42.14698453016055" lon="11.814634529253846"><ele>97.66666666666667</ele><time>2026-04-11T11:02:06Z</time></trkpt><trkpt lat="42.146856310684484" lon="11.814837263376823"><ele>99.0</ele><time>2026-04-11T11:02:07Z</time></trkpt><trkpt lat="42.13462875558867" lon="11.81953943714166"><ele>109.0</ele><time>2026-04-11T11:03:08Z</time></trkpt><trkpt lat="42.13441970770074" lon="11.819621049504661"><ele>119.0</ele><time>2026-04-11T11:03:09Z</time></trkpt><trkpt lat="42.13421555781942" lon="11.819707210944271"><ele>129.0</ele><time>2026-04-11T11:03:10Z</time></trkpt><trkpt lat="42.13402019595309" lon="11.819798416203104"><ele>129.0</ele><time>2026-04-11T11:03:11Z</time></trkpt><trkpt lat="42.13383017743187" lon="11.81989286962546"><ele>129.0</ele><time>2026-04-11T11:03:12Z</time></trkpt><trkpt lat="42.13364888428286" lon="11.819983632546991"><ele>129.0</ele><time>2026-04-11T11:03:13Z</time></trkpt><trkpt lat="42.133468146867" lon="11.820074071967804"><ele>129.66666666666666</ele><time>2026-04-11T11:03:14Z</time></trkpt><trkpt lat="42.13328756637583" lon="11.820171830829539"><ele>130.33333333333331</ele><time>2026-04-11T11:03:15Z</time></trkpt><trkpt lat="42.13309709946073" lon="11.820269113093135"><ele>131.0</ele><time>2026-04-11T11:03:16Z</time></trkpt><trkpt lat="42.13291139654096" lon="11.82037156454492"><ele>131.0</ele><time>2026-04-11T11:03:17Z</time></trkpt><trkpt lat="42.132727388144104" lon="11.820474375960803"><ele>131.0</ele><time>2026-04-11T11:03:18Z</time></trkpt><trkpt lat="42.1325360564413" lon="11.820573256889386"><ele>131.0</ele><time>2026-04-11T11:03:19Z</time></trkpt><trkpt lat="42.13233695639484" lon="11.820672965893062"><ele>129.33333333333331</ele><time>2026-04-11T11:03:20Z</time></trkpt><trkpt lat="42.1321328763128" lon="11.82077806376756"><ele>127.66666666666666</ele><time>2026-04-11T11:03:21Z</time></trkpt><trkpt lat="42.131919184038566" lon="11.820882751994915"><ele>126.0</ele><time>2026-04-11T11:03:22Z</time></trkpt><trkpt lat="42.13171220170819" lon="11.82099306674165"><ele>124.33333333333334</ele><time>2026-04-11T11:03:23Z</time></trkpt><trkpt lat="42.131508726259824" lon="11.82110893937789"><ele>122.66666666666667</ele><time>2026-04-11T11:03:24Z</time></trkpt><trkpt lat="42.13130731205072" lon="11.821222849713408"><ele>121.0</ele><time>2026-04-11T11:03:25Z</time></trkpt><trkpt lat="42.13108962609471" lon="11.821334531339772"><ele>121.0</ele><time>2026-04-11T11:03:26Z</time></trkpt><trkpt lat="42.13087605178501" lon="11.821448135615185"><ele>121.0</ele><time>2026-04-11T11:03:27Z</time></trkpt><trkpt lat="42.13067078347654" lon="11.821563060608884"><ele>121.5</ele><time>2026-04-11T11:03:28Z</time></trkpt><trkpt lat="42.130462392542235" lon="11.821673681812708"><ele>122.0</ele><time>2026-04-11T11:03:29Z</time></trkpt><trkpt lat="42.13024459598885" lon="11.821787979976724"><ele>116.0</ele><time>2026-04-11T11:03:30Z</time></trkpt><trkpt lat="42.13003169461864" lon="11.821900222391331"><ele>110.0</ele><time>2026-04-11T11:03:31Z</time></trkpt><trkpt lat="42.129816255834264" lon="11.822012868064121"><ele>109.66666666666666</ele><time>2026-04-11T11:03:32Z</time></trkpt><trkpt lat="42.129610680038176" lon="11.822123773654189"><ele>109.33333333333334</ele><time>2026-04-11T11:03:33Z</time></trkpt><trkpt lat="42.12939932923026" lon="11.822237204598741"><ele>109.0</ele><time>2026-04-11T11:03:34Z</time></trkpt><trkpt lat="42.12919499257633" lon="11.822351668884737"><ele>109.66666666666667</ele><time>2026-04-11T11:03:35Z</time></trkpt><trkpt lat="42.128989455093716" lon="11.82246069704942"><ele>110.33333333333334</ele><time>2026-04-11T11:03:36Z</time></trkpt><trkpt lat="42.12878927059565" lon="11.822569354974615"><ele>111.0</ele><time>2026-04-11T11:03:37Z</time></trkpt><trkpt lat="42.128587503107696" lon="11.82267567591935"><ele>107.0</ele><time>2026-04-11T11:03:38Z</time></trkpt><trkpt lat="42.128388446197526" lon="11.822779332544291"><ele>103.0</ele><time>2026-04-11T11:03:39Z</time></trkpt><trkpt lat="42.12819320929738" lon="11.822885227360869"><ele>99.0</ele><time>2026-04-11T11:03:40Z</time></trkpt><trkpt lat="42.12799857133499" lon="11.822985220888462"><ele>99.0</ele><time>2026-04-11T11:03:41Z</time></trkpt><trkpt lat="42.12779969669141" lon="11.82308335416395"><ele>99.0</ele><time>2026-04-11T11:03:41.999Z</time></trkpt><trkpt lat="42.12759919632183" lon="11.823175488422507"><ele>99.0</ele><time>2026-04-11T11:03:42.999Z</time></trkpt><trkpt lat="42.12739318232923" lon="11.823258118538016"><ele>96.66666666666667</ele><time>2026-04-11T11:03:43.999Z</time></trkpt><trkpt lat="42.12718809141482" lon="11.823339346675503"><ele>94.33333333333334</ele><time>2026-04-11T11:03:44.999Z</time></trkpt><trkpt lat="42.126972613301334" lon="11.82342309588891"><ele>92.0</ele><time>2026-04-11T11:03:45.999Z</time></trkpt><trkpt lat="42.126766174620535" lon="11.823496059665775"><ele>91.66666666666667</ele><time>2026-04-11T11:03:46.999Z</time></trkpt><trkpt lat="42.12656575071391" lon="11.82356357346902"><ele>91.33333333333333</ele><time>2026-04-11T11:03:47.999Z</time></trkpt><trkpt lat="42.12636704322617" lon="11.823621487724171"><ele>91.0</ele><time>2026-04-11T11:03:48.999Z</time></trkpt><trkpt lat="42.12617130111764" lon="11.823667667939253"><ele>94.0</ele><time>2026-04-11T11:03:50Z</time></trkpt><trkpt lat="42.125974416081796" lon="11.823712530424658"><ele>97.0</ele><time>2026-04-11T11:03:51Z</time></trkpt><trkpt lat="42.125784489935036" lon="11.823758683891395"><ele>100.0</ele><time>2026-04-11T11:03:52Z</time></trkpt><trkpt lat="42.125584797891506" lon="11.823792030150267"><ele>101.66666666666667</ele><time>2026-04-11T11:03:53Z</time></trkpt><trkpt lat="42.12539057846648" lon="11.8238218577106"><ele>103.33333333333334</ele><time>2026-04-11T11:03:54Z</time></trkpt><trkpt lat="42.1251925572699" lon="11.823843279401043"><ele>105.0</ele><time>2026-04-11T11:03:55Z</time></trkpt><trkpt lat="42.12499802565369" lon="11.82385705326827"><ele>106.33333333333334</ele><time>2026-04-11T11:03:56Z</time></trkpt><trkpt lat="42.12480493217278" lon="11.82386822845706"><ele>107.66666666666667</ele><time>2026-04-11T11:03:57Z</time></trkpt><trkpt lat="42.124616233055" lon="11.823872872724523"><ele>109.0</ele><time>2026-04-11T11:03:58Z</time></trkpt><trkpt lat="42.12441889489945" lon="11.823866215593325"><ele>109.0</ele><time>2026-04-11T11:03:59Z</time></trkpt><trkpt lat="42.124215068180604" lon="11.823855559960549"><ele>109.0</ele><time>2026-04-11T11:04:00Z</time></trkpt><trkpt lat="42.124000795315624" lon="11.823836890206454"><ele>109.0</ele><time>2026-04-11T11:04:01Z</time></trkpt><trkpt lat="42.12378419019359" lon="11.823814244910238"><ele>109.66666666666667</ele><time>2026-04-11T11:04:02Z</time></trkpt><trkpt lat="42.12356316404344" lon="11.823779618199254"><ele>110.33333333333334</ele><time>2026-04-11T11:04:03Z</time></trkpt><trkpt lat="42.12334365609214" lon="11.823742531685742"><ele>111.0</ele><time>2026-04-11T11:04:04Z</time></trkpt><trkpt lat="42.1231266329783" lon="11.823697809008614"><ele>112.33333333333334</ele><time>2026-04-11T11:04:05Z</time></trkpt><trkpt lat="42.12290496350964" lon="11.823651273578438"><ele>113.66666666666667</ele><time>2026-04-11T11:04:06Z</time></trkpt><trkpt lat="42.12268475686921" lon="11.823591532800755"><ele>115.0</ele><time>2026-04-11T11:04:07Z</time></trkpt><trkpt lat="42.11253912866332" lon="11.827681229452626"><ele>124.66666666666667</ele><time>2026-04-11T11:05:08Z</time></trkpt><trkpt lat="42.112364467057006" lon="11.827735589344561"><ele>134.33333333333334</ele><time>2026-04-11T11:05:09Z</time></trkpt><trkpt lat="42.1121982622206" lon="11.827776257131703"><ele>144.0</ele><time>2026-04-11T11:05:10Z</time></trkpt><trkpt lat="42.11203460143293" lon="11.827810625475177"><ele>144.0</ele><time>2026-04-11T11:05:11Z</time></trkpt><trkpt lat="42.11186425542866" lon="11.827830706536597"><ele>144.0</ele><time>2026-04-11T11:05:12Z</time></trkpt><trkpt lat="42.111694654186095" lon="11.827834154073287"><ele>144.0</ele><time>2026-04-11T11:05:13Z</time></trkpt><trkpt lat="42.111528867154554" lon="11.827829597468654"><ele>146.66666666666666</ele><time>2026-04-11T11:05:14Z</time></trkpt><trkpt lat="42.11136898949156" lon="11.827816260182916"><ele>149.33333333333331</ele><time>2026-04-11T11:05:15Z</time></trkpt><trkpt lat="42.11121546864863" lon="11.827803432117236"><ele>152.0</ele><time>2026-04-11T11:05:16Z</time></trkpt><trkpt lat="42.11105780182657" lon="11.827763017392382"><ele>152.0</ele><time>2026-04-11T11:05:17Z</time></trkpt><trkpt lat="42.11090570543346" lon="11.827719464976802"><ele>152.0</ele><time>2026-04-11T11:05:18Z</time></trkpt><trkpt lat="42.11075590048272" lon="11.827671903773883"><ele>152.0</ele><time>2026-04-11T11:05:19Z</time></trkpt><trkpt lat="42.11060912759314" lon="11.827618235145625"><ele>154.33333333333331</ele><time>2026-04-11T11:05:20Z</time></trkpt><trkpt lat="42.11046643165183" lon="11.827561604757175"><ele>156.66666666666666</ele><time>2026-04-11T11:05:21Z</time></trkpt><trkpt lat="42.11030967567362" lon="11.82748602792296"><ele>159.0</ele><time>2026-04-11T11:05:22Z</time></trkpt><trkpt lat="42.11014544986019" lon="11.82740684963986"><ele>159.0</ele><time>2026-04-11T11:05:23Z</time></trkpt><trkpt lat="42.10996915123791" lon="11.827331903957255"><ele>159.0</ele><time>2026-04-11T11:05:24Z</time></trkpt><trkpt lat="42.10981783821671" lon="11.827266725691954"><ele>159.0</ele><time>2026-04-11T11:05:25Z</time></trkpt><trkpt lat="42.10967663354553" lon="11.827198952656268"><ele>159.0</ele><time>2026-04-11T11:05:26Z</time></trkpt><trkpt lat="42.109545172448556" lon="11.827145009136087"><ele>159.0</ele><time>2026-04-11T11:05:27Z</time></trkpt><trkpt lat="42.10940909667654" lon="11.827086727631155"><ele>159.0</ele><time>2026-04-11T11:05:28Z</time></trkpt><trkpt lat="42.10927138342259" lon="11.827018808322887"><ele>159.0</ele><time>2026-04-11T11:05:29Z</time></trkpt><trkpt lat="42.109127056382746" lon="11.826939003396946"><ele>159.0</ele><time>2026-04-11T11:05:30Z</time></trkpt><trkpt lat="42.10900268910652" lon="11.826854528323544"><ele>159.0</ele><time>2026-04-11T11:05:31Z</time></trkpt><trkpt lat="42.10888395874527" lon="11.82676859901691"><ele>159.0</ele><time>2026-04-11T11:05:32Z</time></trkpt><trkpt lat="42.108764187628395" lon="11.826670507363582"><ele>159.0</ele><time>2026-04-11T11:05:33Z</time></trkpt><trkpt lat="42.10864844947736" lon="11.826563565968506"><ele>158.66666666666666</ele><time>2026-04-11T11:05:34Z</time></trkpt><trkpt lat="42.108526698223386" lon="11.82644824096556"><ele>158.33333333333331</ele><time>2026-04-11T11:05:35Z</time></trkpt><trkpt lat="42.108402768508334" lon="11.82630069958263"><ele>158.0</ele><time>2026-04-11T11:05:36Z</time></trkpt><trkpt lat="42.108265208707" lon="11.826156842584526"><ele>158.33333333333331</ele><time>2026-04-11T11:05:37Z</time></trkpt><trkpt lat="42.10814128822276" lon="11.826007745876078"><ele>158.66666666666666</ele><time>2026-04-11T11:05:38Z</time></trkpt><trkpt lat="42.10801667174822" lon="11.825857811776533"><ele>159.0</ele><time>2026-04-11T11:05:39Z</time></trkpt><trkpt lat="42.107906406193706" lon="11.825695311767959"><ele>157.0</ele><time>2026-04-11T11:05:40Z</time></trkpt><trkpt lat="42.10777706862264" lon="11.825569529835606"><ele>155.0</ele><time>2026-04-11T11:05:41Z</time></trkpt><trkpt lat="42.10766137855299" lon="11.825430025863216"><ele>153.0</ele><time>2026-04-11T11:05:42Z</time></trkpt><trkpt lat="42.10755341677103" lon="11.8252836731776"><ele>153.0</ele><time>2026-04-11T11:05:42.999Z</time></trkpt><trkpt lat="42.10743069451267" lon="11.825160907762099"><ele>153.0</ele><time>2026-04-11T11:05:43.999Z</time></trkpt><trkpt lat="42.10730972563928" lon="11.825039815660725"><ele>153.0</ele><time>2026-04-11T11:05:44.999Z</time></trkpt><trkpt lat="42.10717683083422" lon="11.82493998701481"><ele>152.75</ele><time>2026-04-11T11:05:45.999Z</time></trkpt><trkpt lat="42.107048725967196" lon="11.824846562921259"><ele>152.5</ele><time>2026-04-11T11:05:46.999Z</time></trkpt><trkpt lat="42.106929316729946" lon="11.82475546773714"><ele>152.25</ele><time>2026-04-11T11:05:47.999Z</time></trkpt><trkpt lat="42.10681735191528" lon="11.824668551081317"><ele>152.0</ele><time>2026-04-11T11:05:48.999Z</time></trkpt><trkpt lat="42.10671183362261" lon="11.82461845007917"><ele>152.0</ele><time>2026-04-11T11:05:49.999Z</time></trkpt><trkpt lat="42.10660979866042" lon="11.824561144423503"><ele>152.0</ele><time>2026-04-11T11:05:50.999Z</time></trkpt><trkpt lat="42.10651387936686" lon="11.824507762789821"><ele>152.0</ele><time>2026-04-11T11:05:51.999Z</time></trkpt><trkpt lat="42.10644039312642" lon="11.82442294844369"><ele>152.0</ele><time>2026-04-11T11:05:52.999Z</time></trkpt><trkpt lat="42.10636876023728" lon="11.824351592675725"><ele>152.0</ele><time>2026-04-11T11:05:53.999Z</time></trkpt><trkpt lat="42.10630195886539" lon="11.824304766689457"><ele>151.0</ele><time>2026-04-11T11:05:54.999Z</time></trkpt><trkpt lat="42.10623815480911" lon="11.824253305748474"><ele>150.0</ele><time>2026-04-11T11:05:56Z</time></trkpt><trkpt lat="42.10616519970696" lon="11.824197323055825"><ele>149.0</ele><time>2026-04-11T11:05:57Z</time></trkpt><trkpt lat="42.10608316776957" lon="11.824131642225149"><ele>148.0</ele><time>2026-04-11T11:05:58Z</time></trkpt><trkpt lat="42.10599142832063" lon="11.824056196383792"><ele>147.0</ele><time>2026-04-11T11:05:59Z</time></trkpt><trkpt lat="42.10589124290454" lon="11.82402422199642"><ele>147.0</ele><time>2026-04-11T11:06:00Z</time></trkpt><trkpt lat="42.10582613147667" lon="11.823921113190108"><ele>147.0</ele><time>2026-04-11T11:06:01Z</time></trkpt><trkpt lat="42.10575600234432" lon="11.823857165779554"><ele>147.0</ele><time>2026-04-11T11:06:02Z</time></trkpt><trkpt lat="42.105678675037524" lon="11.823789377225946"><ele>147.0</ele><time>2026-04-11T11:06:03Z</time></trkpt><trkpt lat="42.10560744111363" lon="11.823723169715134"><ele>147.0</ele><time>2026-04-11T11:06:04Z</time></trkpt><trkpt lat="42.10553948146439" lon="11.823667049335617"><ele>147.0</ele><time>2026-04-11T11:06:05Z</time></trkpt><trkpt lat="42.1054795105046" lon="11.82360603966532"><ele>153.0</ele><time>2026-04-11T11:06:06Z</time></trkpt><trkpt lat="42.10082572254823" lon="11.824989400396497"><ele>153.25</ele><time>2026-04-11T11:07:08Z</time></trkpt><trkpt lat="42.10073620479191" lon="11.825019521571814"><ele>153.5</ele><time>2026-04-11T11:07:10Z</time></trkpt><trkpt lat="42.100653077474846" lon="11.825221296686301"><ele>153.75</ele><time>2026-04-11T11:07:12Z</time></trkpt><trkpt lat="42.100576845732434" lon="11.825316277161694"><ele>154.0</ele><time>2026-04-11T11:07:13Z</time></trkpt><trkpt lat="42.1004905740559" lon="11.825449649496859"><ele>154.0</ele><time>2026-04-11T11:07:14Z</time></trkpt><trkpt lat="42.10038832679223" lon="11.825602704556538"><ele>154.0</ele><time>2026-04-11T11:07:15Z</time></trkpt><trkpt lat="42.100311363978555" lon="11.825773488412832"><ele>154.0</ele><time>2026-04-11T11:07:16Z</time></trkpt><trkpt lat="42.10021998521025" lon="11.82589590870737"><ele>154.0</ele><time>2026-04-11T11:07:17Z</time></trkpt><trkpt lat="42.10012544109693" lon="11.826033261607332"><ele>154.0</ele><time>2026-04-11T11:07:18Z</time></trkpt><trkpt lat="42.10003993959403" lon="11.826162587883342"><ele>154.0</ele><time>2026-04-11T11:07:19Z</time></trkpt><trkpt lat="42.09996417426185" lon="11.826274809914334"><ele>154.0</ele><time>2026-04-11T11:07:20Z</time></trkpt><trkpt lat="42.099891498421464" lon="11.826370586834356"><ele>154.0</ele><time>2026-04-11T11:07:21Z</time></trkpt><trkpt lat="42.09982795171655" lon="11.826449769162535"><ele>154.0</ele><time>2026-04-11T11:07:22Z</time></trkpt><trkpt lat="42.09977203196074" lon="11.826520583429682"><ele>154.0</ele><time>2026-04-11T11:07:23Z</time></trkpt><trkpt lat="42.09971135300248" lon="11.826622122986796"><ele>154.0</ele><time>2026-04-11T11:07:25Z</time></trkpt><trkpt lat="42.09960495522374" lon="11.826582921122943"><ele>154.0</ele><time>2026-04-11T11:07:28Z</time></trkpt><trkpt lat="42.09952961861831" lon="11.82646185787593"><ele>154.0</ele><time>2026-04-11T11:07:30Z</time></trkpt><trkpt lat="42.09944347530028" lon="11.826374087299717"><ele>154.0</ele><time>2026-04-11T11:07:32Z</time></trkpt><trkpt lat="42.09936107265061" lon="11.826301830615439"><ele>154.0</ele><time>2026-04-11T11:07:34Z</time></trkpt><trkpt lat="42.09928483075563" lon="11.826215680785877"><ele>154.0</ele><time>2026-04-11T11:07:36Z</time></trkpt><trkpt lat="42.0992189973496" lon="11.82610659455964"><ele>154.0</ele><time>2026-04-11T11:07:38Z</time></trkpt><trkpt lat="42.099161058546294" lon="11.826038494988984"><ele>154.0</ele><time>2026-04-11T11:07:40.999Z</time></trkpt><trkpt lat="42.09905368744432" lon="11.826061140196627"><ele>154.0</ele><time>2026-04-11T11:07:46.999Z</time></trkpt><trkpt lat="42.09895009202142" lon="11.826190950339354"><ele>152.66666666666669</ele><time>2026-04-11T11:07:48.999Z</time></trkpt><trkpt lat="42.098890507427214" lon="11.826300652814053"><ele>151.33333333333334</ele><time>2026-04-11T11:07:49.999Z</time></trkpt><trkpt lat="42.09882711749522" lon="11.826390140208131"><ele>150.0</ele><time>2026-04-11T11:07:50.999Z</time></trkpt><trkpt lat="42.0987698540283" lon="11.826476688731555"><ele>148.66666666666666</ele><time>2026-04-11T11:07:51.999Z</time></trkpt><trkpt lat="42.09870904451898" lon="11.826536253515737"><ele>147.33333333333331</ele><time>2026-04-11T11:07:52.999Z</time></trkpt><trkpt lat="42.098616505396414" lon="11.826566843130857"><ele>146.0</ele><time>2026-04-11T11:07:53.999Z</time></trkpt><trkpt lat="42.09853340410733" lon="11.826600390645854"><ele>146.0</ele><time>2026-04-11T11:07:54.999Z</time></trkpt><trkpt lat="42.098445840918004" lon="11.82661761844778"><ele>146.0</ele><time>2026-04-11T11:07:55.999Z</time></trkpt><trkpt lat="42.098357940358696" lon="11.826615683803716"><ele>146.0</ele><time>2026-04-11T11:07:56.999Z</time></trkpt><trkpt lat="42.09827189393522" lon="11.826589502311132"><ele>146.0</ele><time>2026-04-11T11:07:57.999Z</time></trkpt><trkpt lat="42.098187645651706" lon="11.826542701891674"><ele>146.0</ele><time>2026-04-11T11:07:58.999Z</time></trkpt><trkpt lat="42.09811071642486" lon="11.826478548337516"><ele>146.0</ele><time>2026-04-11T11:07:59.999Z</time></trkpt><trkpt lat="42.09803660489384" lon="11.826393512756699"><ele>145.33333333333331</ele><time>2026-04-11T11:08:00.999Z</time></trkpt><trkpt lat="42.09797772679896" lon="11.826310913902807"><ele>144.66666666666666</ele><time>2026-04-11T11:08:02Z</time></trkpt><trkpt lat="42.09791813848243" lon="11.826238014596989"><ele>144.0</ele><time>2026-04-11T11:08:03Z</time></trkpt><trkpt lat="42.09785502763521" lon="11.826158183657503"><ele>143.33333333333334</ele><time>2026-04-11T11:08:04Z</time></trkpt><trkpt lat="42.09778949275019" lon="11.826090317605276"><ele>142.66666666666669</ele><time>2026-04-11T11:08:05Z</time></trkpt><trkpt lat="42.09773045353925" lon="11.826010161553418"><ele>142.0</ele><time>2026-04-11T11:08:06Z</time></trkpt><trkpt lat="42.09767091401538" lon="11.825920214422489"><ele>130.0</ele><time>2026-04-11T11:08:07Z</time></trkpt><trkpt lat="42.095798511727324" lon="11.822204283488746"><ele>130.0</ele><time>2026-04-11T11:09:18Z</time></trkpt><trkpt lat="42.095813214512944" lon="11.822292288977522"><ele>130.0</ele><time>2026-04-11T11:09:44Z</time></trkpt><trkpt lat="42.095811651393475" lon="11.822195276972355"><ele>130.0</ele><time>2026-04-11T11:09:49.999Z</time></trkpt><trkpt lat="42.09592460795628" lon="11.822123238621728"><ele>130.0</ele><time>2026-04-11T11:09:54.999Z</time></trkpt><trkpt lat="42.09603744743954" lon="11.82214306466227"><ele>130.0</ele><time>2026-04-11T11:11:47Z</time></trkpt></trkseg></trk></gpx>